<?xml version="1.0" encoding="UTF-8" standalone="no" ?>
<gpx xmlns="http://www.topografix.com/GPX/1/1" xmlns:xsi="http://www.w3.org/2001/XMLSchema-instance" xsi:schemaLocation="http://www.topografix.com/GPX/1/1 http://www.topografix.com/GPX/1/1/gpx.xsd" version="1.1" creator="VisuGPX - https://www.visugpx.com">
  <metadata>
    <name>Moirans en Montagne-Les belvédères</name>
  </metadata>
  <trk>
    <name><![CDATA[Moirans en Montagne-Les belvédères_1]]></name>
    <extensions>
      <line xmlns="http://www.topografix.com/GPX/gpx_style/0/2">
        <color>0000FF</color>
        <width>4</width>
      </line>
    </extensions>
    <trkseg>
      <trkpt lat="46.43333" lon="5.71935">
        <ele>685.4</ele>
        <time>2022-06-08T06:51:22Z</time>
      </trkpt>
      <trkpt lat="46.4333" lon="5.71963">
        <ele>653.2</ele>
        <time>2022-06-08T06:51:25Z</time>
      </trkpt>
      <trkpt lat="46.43328" lon="5.71977">
        <ele>631.4</ele>
        <time>2022-06-08T06:51:28Z</time>
      </trkpt>
      <trkpt lat="46.43324" lon="5.71981">
        <ele>619</ele>
        <time>2022-06-08T06:51:32Z</time>
      </trkpt>
      <trkpt lat="46.43327" lon="5.71988">
        <ele>604.5</ele>
        <time>2022-06-08T06:52:50Z</time>
      </trkpt>
      <trkpt lat="46.43323" lon="5.71984">
        <ele>600.6</ele>
        <time>2022-06-08T06:54:02Z</time>
      </trkpt>
      <trkpt lat="46.43328" lon="5.71984">
        <ele>599.8</ele>
        <time>2022-06-08T06:54:39Z</time>
      </trkpt>
      <trkpt lat="46.43323" lon="5.71983">
        <ele>600.2</ele>
        <time>2022-06-08T06:55:58Z</time>
      </trkpt>
      <trkpt lat="46.43329" lon="5.71984">
        <ele>596.6</ele>
        <time>2022-06-08T06:57:11Z</time>
      </trkpt>
      <trkpt lat="46.43325" lon="5.71987">
        <ele>609.3</ele>
        <time>2022-06-08T07:06:39Z</time>
      </trkpt>
      <trkpt lat="46.43321" lon="5.71991">
        <ele>609.1</ele>
        <time>2022-06-08T07:06:45Z</time>
      </trkpt>
      <trkpt lat="46.43317" lon="5.71995">
        <ele>609.2</ele>
        <time>2022-06-08T07:06:50Z</time>
      </trkpt>
      <trkpt lat="46.43313" lon="5.71999">
        <ele>609.1</ele>
        <time>2022-06-08T07:06:56Z</time>
      </trkpt>
      <trkpt lat="46.43309" lon="5.72003">
        <ele>609.2</ele>
        <time>2022-06-08T07:07:01Z</time>
      </trkpt>
      <trkpt lat="46.43306" lon="5.72007">
        <ele>609.2</ele>
        <time>2022-06-08T07:07:04Z</time>
      </trkpt>
      <trkpt lat="46.43302" lon="5.72012">
        <ele>609.2</ele>
        <time>2022-06-08T07:07:08Z</time>
      </trkpt>
      <trkpt lat="46.43297" lon="5.72014">
        <ele>609.3</ele>
        <time>2022-06-08T07:07:16Z</time>
      </trkpt>
      <trkpt lat="46.43292" lon="5.7201">
        <ele>609</ele>
        <time>2022-06-08T07:07:22Z</time>
      </trkpt>
      <trkpt lat="46.4329" lon="5.72004">
        <ele>608.8</ele>
        <time>2022-06-08T07:07:26Z</time>
      </trkpt>
      <trkpt lat="46.43287" lon="5.71997">
        <ele>608.5</ele>
        <time>2022-06-08T07:07:31Z</time>
      </trkpt>
      <trkpt lat="46.43284" lon="5.71991">
        <ele>607.7</ele>
        <time>2022-06-08T07:07:37Z</time>
      </trkpt>
      <trkpt lat="46.43283" lon="5.71984">
        <ele>607.1</ele>
        <time>2022-06-08T07:07:41Z</time>
      </trkpt>
      <trkpt lat="46.4328" lon="5.71979">
        <ele>606.7</ele>
        <time>2022-06-08T07:07:45Z</time>
      </trkpt>
      <trkpt lat="46.43276" lon="5.71975">
        <ele>606.5</ele>
        <time>2022-06-08T07:07:49Z</time>
      </trkpt>
      <trkpt lat="46.43272" lon="5.71969">
        <ele>606.7</ele>
        <time>2022-06-08T07:07:53Z</time>
      </trkpt>
      <trkpt lat="46.4327" lon="5.71963">
        <ele>606.9</ele>
        <time>2022-06-08T07:07:57Z</time>
      </trkpt>
      <trkpt lat="46.43268" lon="5.71956">
        <ele>607.2</ele>
        <time>2022-06-08T07:08:01Z</time>
      </trkpt>
      <trkpt lat="46.43266" lon="5.7195">
        <ele>607.6</ele>
        <time>2022-06-08T07:08:05Z</time>
      </trkpt>
      <trkpt lat="46.43264" lon="5.71943">
        <ele>608.3</ele>
        <time>2022-06-08T07:08:11Z</time>
      </trkpt>
      <trkpt lat="46.43261" lon="5.71937">
        <ele>608.7</ele>
        <time>2022-06-08T07:08:15Z</time>
      </trkpt>
      <trkpt lat="46.43259" lon="5.7193">
        <ele>608.9</ele>
        <time>2022-06-08T07:08:20Z</time>
      </trkpt>
      <trkpt lat="46.43258" lon="5.71923">
        <ele>609</ele>
        <time>2022-06-08T07:08:24Z</time>
      </trkpt>
      <trkpt lat="46.43256" lon="5.71917">
        <ele>609.6</ele>
        <time>2022-06-08T07:08:28Z</time>
      </trkpt>
      <trkpt lat="46.43254" lon="5.71909">
        <ele>610.7</ele>
        <time>2022-06-08T07:08:33Z</time>
      </trkpt>
      <trkpt lat="46.43254" lon="5.71902">
        <ele>611.5</ele>
        <time>2022-06-08T07:08:37Z</time>
      </trkpt>
      <trkpt lat="46.43254" lon="5.71896">
        <ele>612</ele>
        <time>2022-06-08T07:08:41Z</time>
      </trkpt>
      <trkpt lat="46.43255" lon="5.71888">
        <ele>612.3</ele>
        <time>2022-06-08T07:08:45Z</time>
      </trkpt>
      <trkpt lat="46.43255" lon="5.71881">
        <ele>612.4</ele>
        <time>2022-06-08T07:08:49Z</time>
      </trkpt>
      <trkpt lat="46.43255" lon="5.71874">
        <ele>612.5</ele>
        <time>2022-06-08T07:08:54Z</time>
      </trkpt>
      <trkpt lat="46.43254" lon="5.71867">
        <ele>612.4</ele>
        <time>2022-06-08T07:08:59Z</time>
      </trkpt>
      <trkpt lat="46.43253" lon="5.71859">
        <ele>612.6</ele>
        <time>2022-06-08T07:09:04Z</time>
      </trkpt>
      <trkpt lat="46.43252" lon="5.71853">
        <ele>612.5</ele>
        <time>2022-06-08T07:09:09Z</time>
      </trkpt>
      <trkpt lat="46.43252" lon="5.71845">
        <ele>612.2</ele>
        <time>2022-06-08T07:09:14Z</time>
      </trkpt>
      <trkpt lat="46.43252" lon="5.71839">
        <ele>611.7</ele>
        <time>2022-06-08T07:09:18Z</time>
      </trkpt>
      <trkpt lat="46.43251" lon="5.71831">
        <ele>611.2</ele>
        <time>2022-06-08T07:09:23Z</time>
      </trkpt>
      <trkpt lat="46.4325" lon="5.71824">
        <ele>610.7</ele>
        <time>2022-06-08T07:09:28Z</time>
      </trkpt>
      <trkpt lat="46.43249" lon="5.71817">
        <ele>610.3</ele>
        <time>2022-06-08T07:09:32Z</time>
      </trkpt>
      <trkpt lat="46.43247" lon="5.71811">
        <ele>609.9</ele>
        <time>2022-06-08T07:09:36Z</time>
      </trkpt>
      <trkpt lat="46.43247" lon="5.71803">
        <ele>609.8</ele>
        <time>2022-06-08T07:09:40Z</time>
      </trkpt>
      <trkpt lat="46.43246" lon="5.71796">
        <ele>609.6</ele>
        <time>2022-06-08T07:09:44Z</time>
      </trkpt>
      <trkpt lat="46.43244" lon="5.71789">
        <ele>609.1</ele>
        <time>2022-06-08T07:09:48Z</time>
      </trkpt>
      <trkpt lat="46.43243" lon="5.71782">
        <ele>608.6</ele>
        <time>2022-06-08T07:09:52Z</time>
      </trkpt>
      <trkpt lat="46.43241" lon="5.71775">
        <ele>608.2</ele>
        <time>2022-06-08T07:09:56Z</time>
      </trkpt>
      <trkpt lat="46.43241" lon="5.71769">
        <ele>607.9</ele>
        <time>2022-06-08T07:10:00Z</time>
      </trkpt>
      <trkpt lat="46.4324" lon="5.71762">
        <ele>607.5</ele>
        <time>2022-06-08T07:10:04Z</time>
      </trkpt>
      <trkpt lat="46.43238" lon="5.71756">
        <ele>606.9</ele>
        <time>2022-06-08T07:10:09Z</time>
      </trkpt>
      <trkpt lat="46.43236" lon="5.7175">
        <ele>606.1</ele>
        <time>2022-06-08T07:10:14Z</time>
      </trkpt>
      <trkpt lat="46.43234" lon="5.71743">
        <ele>605.3</ele>
        <time>2022-06-08T07:10:19Z</time>
      </trkpt>
      <trkpt lat="46.43231" lon="5.71737">
        <ele>604.5</ele>
        <time>2022-06-08T07:10:24Z</time>
      </trkpt>
      <trkpt lat="46.43228" lon="5.71731">
        <ele>603.9</ele>
        <time>2022-06-08T07:10:28Z</time>
      </trkpt>
      <trkpt lat="46.43225" lon="5.71725">
        <ele>603.1</ele>
        <time>2022-06-08T07:10:32Z</time>
      </trkpt>
      <trkpt lat="46.43221" lon="5.71719">
        <ele>602.3</ele>
        <time>2022-06-08T07:10:37Z</time>
      </trkpt>
      <trkpt lat="46.43219" lon="5.71713">
        <ele>602</ele>
        <time>2022-06-08T07:10:41Z</time>
      </trkpt>
      <trkpt lat="46.43217" lon="5.71706">
        <ele>601.9</ele>
        <time>2022-06-08T07:10:46Z</time>
      </trkpt>
      <trkpt lat="46.43214" lon="5.717">
        <ele>601.7</ele>
        <time>2022-06-08T07:10:51Z</time>
      </trkpt>
      <trkpt lat="46.4321" lon="5.71695">
        <ele>601.3</ele>
        <time>2022-06-08T07:10:56Z</time>
      </trkpt>
      <trkpt lat="46.43206" lon="5.71691">
        <ele>600.8</ele>
        <time>2022-06-08T07:11:00Z</time>
      </trkpt>
      <trkpt lat="46.43202" lon="5.71686">
        <ele>600.5</ele>
        <time>2022-06-08T07:11:04Z</time>
      </trkpt>
      <trkpt lat="46.432" lon="5.71681">
        <ele>600.1</ele>
        <time>2022-06-08T07:11:08Z</time>
      </trkpt>
      <trkpt lat="46.43197" lon="5.71674">
        <ele>599.7</ele>
        <time>2022-06-08T07:11:12Z</time>
      </trkpt>
      <trkpt lat="46.43193" lon="5.71669">
        <ele>599.1</ele>
        <time>2022-06-08T07:11:16Z</time>
      </trkpt>
      <trkpt lat="46.43189" lon="5.71663">
        <ele>598.7</ele>
        <time>2022-06-08T07:11:21Z</time>
      </trkpt>
      <trkpt lat="46.43186" lon="5.71658">
        <ele>598.3</ele>
        <time>2022-06-08T07:11:26Z</time>
      </trkpt>
      <trkpt lat="46.43182" lon="5.71653">
        <ele>597.9</ele>
        <time>2022-06-08T07:11:31Z</time>
      </trkpt>
      <trkpt lat="46.43177" lon="5.7165">
        <ele>597.6</ele>
        <time>2022-06-08T07:11:36Z</time>
      </trkpt>
      <trkpt lat="46.43172" lon="5.71648">
        <ele>597.6</ele>
        <time>2022-06-08T07:11:40Z</time>
      </trkpt>
      <trkpt lat="46.43168" lon="5.71644">
        <ele>597.8</ele>
        <time>2022-06-08T07:11:44Z</time>
      </trkpt>
      <trkpt lat="46.43163" lon="5.71641">
        <ele>598.1</ele>
        <time>2022-06-08T07:11:48Z</time>
      </trkpt>
      <trkpt lat="46.43159" lon="5.71637">
        <ele>598.5</ele>
        <time>2022-06-08T07:11:52Z</time>
      </trkpt>
      <trkpt lat="46.43155" lon="5.71632">
        <ele>598.6</ele>
        <time>2022-06-08T07:11:57Z</time>
      </trkpt>
      <trkpt lat="46.43153" lon="5.71626">
        <ele>598.6</ele>
        <time>2022-06-08T07:12:02Z</time>
      </trkpt>
      <trkpt lat="46.43149" lon="5.7162">
        <ele>598.6</ele>
        <time>2022-06-08T07:12:07Z</time>
      </trkpt>
      <trkpt lat="46.43147" lon="5.71615">
        <ele>598.9</ele>
        <time>2022-06-08T07:12:11Z</time>
      </trkpt>
      <trkpt lat="46.43145" lon="5.71609">
        <ele>599</ele>
        <time>2022-06-08T07:12:15Z</time>
      </trkpt>
      <trkpt lat="46.43144" lon="5.71601">
        <ele>599.3</ele>
        <time>2022-06-08T07:12:20Z</time>
      </trkpt>
      <trkpt lat="46.43144" lon="5.71593">
        <ele>599.8</ele>
        <time>2022-06-08T07:12:25Z</time>
      </trkpt>
      <trkpt lat="46.43145" lon="5.71585">
        <ele>600.2</ele>
        <time>2022-06-08T07:12:29Z</time>
      </trkpt>
      <trkpt lat="46.43147" lon="5.71578">
        <ele>601</ele>
        <time>2022-06-08T07:12:33Z</time>
      </trkpt>
      <trkpt lat="46.43148" lon="5.71572">
        <ele>601.8</ele>
        <time>2022-06-08T07:12:39Z</time>
      </trkpt>
      <trkpt lat="46.43149" lon="5.71564">
        <ele>602.4</ele>
        <time>2022-06-08T07:12:44Z</time>
      </trkpt>
      <trkpt lat="46.43151" lon="5.71556">
        <ele>602.9</ele>
        <time>2022-06-08T07:12:48Z</time>
      </trkpt>
      <trkpt lat="46.43152" lon="5.71548">
        <ele>603.2</ele>
        <time>2022-06-08T07:12:52Z</time>
      </trkpt>
      <trkpt lat="46.43153" lon="5.71541">
        <ele>603.3</ele>
        <time>2022-06-08T07:12:56Z</time>
      </trkpt>
      <trkpt lat="46.43154" lon="5.71535">
        <ele>603</ele>
        <time>2022-06-08T07:13:01Z</time>
      </trkpt>
      <trkpt lat="46.43156" lon="5.71528">
        <ele>602.7</ele>
        <time>2022-06-08T07:13:06Z</time>
      </trkpt>
      <trkpt lat="46.43156" lon="5.71521">
        <ele>603</ele>
        <time>2022-06-08T07:13:10Z</time>
      </trkpt>
      <trkpt lat="46.43156" lon="5.71514">
        <ele>603.4</ele>
        <time>2022-06-08T07:13:14Z</time>
      </trkpt>
      <trkpt lat="46.43157" lon="5.71507">
        <ele>603.9</ele>
        <time>2022-06-08T07:13:18Z</time>
      </trkpt>
      <trkpt lat="46.43159" lon="5.715">
        <ele>604.5</ele>
        <time>2022-06-08T07:13:23Z</time>
      </trkpt>
      <trkpt lat="46.4316" lon="5.71493">
        <ele>604.7</ele>
        <time>2022-06-08T07:13:28Z</time>
      </trkpt>
      <trkpt lat="46.43161" lon="5.71485">
        <ele>605</ele>
        <time>2022-06-08T07:13:34Z</time>
      </trkpt>
      <trkpt lat="46.43162" lon="5.71478">
        <ele>605.2</ele>
        <time>2022-06-08T07:13:38Z</time>
      </trkpt>
      <trkpt lat="46.43162" lon="5.71471">
        <ele>605.6</ele>
        <time>2022-06-08T07:13:42Z</time>
      </trkpt>
      <trkpt lat="46.43163" lon="5.71463">
        <ele>605.9</ele>
        <time>2022-06-08T07:13:47Z</time>
      </trkpt>
      <trkpt lat="46.43163" lon="5.71456">
        <ele>606</ele>
        <time>2022-06-08T07:13:51Z</time>
      </trkpt>
      <trkpt lat="46.43164" lon="5.7145">
        <ele>606.6</ele>
        <time>2022-06-08T07:13:57Z</time>
      </trkpt>
      <trkpt lat="46.43168" lon="5.71444">
        <ele>606.8</ele>
        <time>2022-06-08T07:14:02Z</time>
      </trkpt>
      <trkpt lat="46.43172" lon="5.71439">
        <ele>606.9</ele>
        <time>2022-06-08T07:14:06Z</time>
      </trkpt>
      <trkpt lat="46.43177" lon="5.71434">
        <ele>607.2</ele>
        <time>2022-06-08T07:14:10Z</time>
      </trkpt>
      <trkpt lat="46.43181" lon="5.7143">
        <ele>607.6</ele>
        <time>2022-06-08T07:14:14Z</time>
      </trkpt>
      <trkpt lat="46.43185" lon="5.71426">
        <ele>607.8</ele>
        <time>2022-06-08T07:14:18Z</time>
      </trkpt>
      <trkpt lat="46.4319" lon="5.71423">
        <ele>608</ele>
        <time>2022-06-08T07:14:22Z</time>
      </trkpt>
      <trkpt lat="46.43195" lon="5.71421">
        <ele>608.2</ele>
        <time>2022-06-08T07:14:27Z</time>
      </trkpt>
      <trkpt lat="46.432" lon="5.71419">
        <ele>608.4</ele>
        <time>2022-06-08T07:14:33Z</time>
      </trkpt>
      <trkpt lat="46.43204" lon="5.71413">
        <ele>608</ele>
        <time>2022-06-08T07:14:47Z</time>
      </trkpt>
      <trkpt lat="46.43206" lon="5.71407">
        <ele>608</ele>
        <time>2022-06-08T07:14:52Z</time>
      </trkpt>
      <trkpt lat="46.43207" lon="5.714">
        <ele>607.9</ele>
        <time>2022-06-08T07:15:00Z</time>
      </trkpt>
      <trkpt lat="46.43207" lon="5.71393">
        <ele>607.7</ele>
        <time>2022-06-08T07:15:07Z</time>
      </trkpt>
      <trkpt lat="46.43205" lon="5.71386">
        <ele>607.4</ele>
        <time>2022-06-08T07:15:14Z</time>
      </trkpt>
      <trkpt lat="46.43202" lon="5.71381">
        <ele>608.4</ele>
        <time>2022-06-08T07:15:26Z</time>
      </trkpt>
      <trkpt lat="46.43198" lon="5.71377">
        <ele>608.2</ele>
        <time>2022-06-08T07:15:35Z</time>
      </trkpt>
      <trkpt lat="46.43194" lon="5.71372">
        <ele>608</ele>
        <time>2022-06-08T07:15:41Z</time>
      </trkpt>
      <trkpt lat="46.4319" lon="5.71369">
        <ele>607.7</ele>
        <time>2022-06-08T07:15:45Z</time>
      </trkpt>
      <trkpt lat="46.43186" lon="5.71365">
        <ele>607.3</ele>
        <time>2022-06-08T07:15:49Z</time>
      </trkpt>
      <trkpt lat="46.43182" lon="5.7136">
        <ele>606.9</ele>
        <time>2022-06-08T07:15:54Z</time>
      </trkpt>
      <trkpt lat="46.4318" lon="5.71353">
        <ele>606.4</ele>
        <time>2022-06-08T07:15:58Z</time>
      </trkpt>
      <trkpt lat="46.43178" lon="5.71347">
        <ele>606</ele>
        <time>2022-06-08T07:16:02Z</time>
      </trkpt>
      <trkpt lat="46.43174" lon="5.71342">
        <ele>605.5</ele>
        <time>2022-06-08T07:16:06Z</time>
      </trkpt>
      <trkpt lat="46.4317" lon="5.71338">
        <ele>604.7</ele>
        <time>2022-06-08T07:16:11Z</time>
      </trkpt>
      <trkpt lat="46.43166" lon="5.71334">
        <ele>603.6</ele>
        <time>2022-06-08T07:16:16Z</time>
      </trkpt>
      <trkpt lat="46.43162" lon="5.71331">
        <ele>602</ele>
        <time>2022-06-08T07:16:21Z</time>
      </trkpt>
      <trkpt lat="46.43158" lon="5.71327">
        <ele>600.3</ele>
        <time>2022-06-08T07:16:26Z</time>
      </trkpt>
      <trkpt lat="46.43154" lon="5.71323">
        <ele>598.7</ele>
        <time>2022-06-08T07:16:31Z</time>
      </trkpt>
      <trkpt lat="46.43153" lon="5.71316">
        <ele>597.5</ele>
        <time>2022-06-08T07:16:37Z</time>
      </trkpt>
      <trkpt lat="46.43152" lon="5.71309">
        <ele>597.5</ele>
        <time>2022-06-08T07:16:41Z</time>
      </trkpt>
      <trkpt lat="46.43151" lon="5.71302">
        <ele>598.6</ele>
        <time>2022-06-08T07:16:45Z</time>
      </trkpt>
      <trkpt lat="46.43149" lon="5.71295">
        <ele>600.4</ele>
        <time>2022-06-08T07:16:51Z</time>
      </trkpt>
      <trkpt lat="46.43149" lon="5.71288">
        <ele>601.5</ele>
        <time>2022-06-08T07:16:56Z</time>
      </trkpt>
      <trkpt lat="46.4315" lon="5.7128">
        <ele>602.7</ele>
        <time>2022-06-08T07:17:00Z</time>
      </trkpt>
      <trkpt lat="46.43149" lon="5.71272">
        <ele>603.5</ele>
        <time>2022-06-08T07:17:04Z</time>
      </trkpt>
      <trkpt lat="46.43147" lon="5.71265">
        <ele>604.5</ele>
        <time>2022-06-08T07:17:08Z</time>
      </trkpt>
      <trkpt lat="46.43146" lon="5.71258">
        <ele>605</ele>
        <time>2022-06-08T07:17:11Z</time>
      </trkpt>
      <trkpt lat="46.43146" lon="5.71251">
        <ele>605.4</ele>
        <time>2022-06-08T07:17:14Z</time>
      </trkpt>
      <trkpt lat="46.43146" lon="5.71244">
        <ele>605.8</ele>
        <time>2022-06-08T07:17:18Z</time>
      </trkpt>
      <trkpt lat="46.43147" lon="5.71237">
        <ele>606.2</ele>
        <time>2022-06-08T07:17:22Z</time>
      </trkpt>
      <trkpt lat="46.43148" lon="5.7123">
        <ele>606.4</ele>
        <time>2022-06-08T07:17:27Z</time>
      </trkpt>
      <trkpt lat="46.43148" lon="5.71222">
        <ele>606.3</ele>
        <time>2022-06-08T07:17:32Z</time>
      </trkpt>
      <trkpt lat="46.43149" lon="5.71214">
        <ele>605.8</ele>
        <time>2022-06-08T07:17:37Z</time>
      </trkpt>
      <trkpt lat="46.43148" lon="5.71207">
        <ele>605.1</ele>
        <time>2022-06-08T07:17:42Z</time>
      </trkpt>
      <trkpt lat="46.43146" lon="5.712">
        <ele>604.5</ele>
        <time>2022-06-08T07:17:47Z</time>
      </trkpt>
      <trkpt lat="46.43144" lon="5.71193">
        <ele>604.1</ele>
        <time>2022-06-08T07:17:52Z</time>
      </trkpt>
      <trkpt lat="46.4314" lon="5.71186">
        <ele>603.9</ele>
        <time>2022-06-08T07:17:57Z</time>
      </trkpt>
      <trkpt lat="46.43137" lon="5.71182">
        <ele>603.8</ele>
        <time>2022-06-08T07:18:02Z</time>
      </trkpt>
      <trkpt lat="46.43135" lon="5.71175">
        <ele>603.3</ele>
        <time>2022-06-08T07:18:10Z</time>
      </trkpt>
      <trkpt lat="46.43133" lon="5.71168">
        <ele>603.1</ele>
        <time>2022-06-08T07:18:14Z</time>
      </trkpt>
      <trkpt lat="46.43132" lon="5.71162">
        <ele>603</ele>
        <time>2022-06-08T07:18:17Z</time>
      </trkpt>
      <trkpt lat="46.43133" lon="5.71154">
        <ele>603.2</ele>
        <time>2022-06-08T07:18:20Z</time>
      </trkpt>
      <trkpt lat="46.43133" lon="5.71147">
        <ele>603.6</ele>
        <time>2022-06-08T07:18:25Z</time>
      </trkpt>
      <trkpt lat="46.43137" lon="5.71142">
        <ele>603.6</ele>
        <time>2022-06-08T07:18:29Z</time>
      </trkpt>
      <trkpt lat="46.43142" lon="5.7114">
        <ele>603.8</ele>
        <time>2022-06-08T07:18:33Z</time>
      </trkpt>
      <trkpt lat="46.43146" lon="5.7114">
        <ele>603.8</ele>
        <time>2022-06-08T07:18:39Z</time>
      </trkpt>
      <trkpt lat="46.43151" lon="5.7114">
        <ele>603.4</ele>
        <time>2022-06-08T07:18:44Z</time>
      </trkpt>
      <trkpt lat="46.43156" lon="5.71139">
        <ele>603.2</ele>
        <time>2022-06-08T07:18:48Z</time>
      </trkpt>
      <trkpt lat="46.43161" lon="5.71139">
        <ele>602.9</ele>
        <time>2022-06-08T07:18:52Z</time>
      </trkpt>
      <trkpt lat="46.43166" lon="5.71139">
        <ele>602.7</ele>
        <time>2022-06-08T07:18:56Z</time>
      </trkpt>
      <trkpt lat="46.4317" lon="5.71138">
        <ele>602.3</ele>
        <time>2022-06-08T07:19:01Z</time>
      </trkpt>
      <trkpt lat="46.43175" lon="5.71137">
        <ele>602</ele>
        <time>2022-06-08T07:19:05Z</time>
      </trkpt>
      <trkpt lat="46.4318" lon="5.71136">
        <ele>601.3</ele>
        <time>2022-06-08T07:19:10Z</time>
      </trkpt>
      <trkpt lat="46.43185" lon="5.71134">
        <ele>600.7</ele>
        <time>2022-06-08T07:19:14Z</time>
      </trkpt>
      <trkpt lat="46.43189" lon="5.71132">
        <ele>600</ele>
        <time>2022-06-08T07:19:19Z</time>
      </trkpt>
      <trkpt lat="46.43194" lon="5.71132">
        <ele>599.8</ele>
        <time>2022-06-08T07:19:25Z</time>
      </trkpt>
      <trkpt lat="46.432" lon="5.71131">
        <ele>600</ele>
        <time>2022-06-08T07:19:31Z</time>
      </trkpt>
      <trkpt lat="46.43204" lon="5.71129">
        <ele>600.4</ele>
        <time>2022-06-08T07:19:35Z</time>
      </trkpt>
      <trkpt lat="46.43208" lon="5.71127">
        <ele>600.9</ele>
        <time>2022-06-08T07:19:39Z</time>
      </trkpt>
      <trkpt lat="46.43213" lon="5.71126">
        <ele>601.1</ele>
        <time>2022-06-08T07:19:44Z</time>
      </trkpt>
      <trkpt lat="46.43218" lon="5.71125">
        <ele>601.3</ele>
        <time>2022-06-08T07:19:50Z</time>
      </trkpt>
      <trkpt lat="46.43222" lon="5.71123">
        <ele>600.3</ele>
        <time>2022-06-08T07:19:56Z</time>
      </trkpt>
      <trkpt lat="46.43225" lon="5.71117">
        <ele>599.5</ele>
        <time>2022-06-08T07:20:10Z</time>
      </trkpt>
      <trkpt lat="46.43226" lon="5.7111">
        <ele>599.5</ele>
        <time>2022-06-08T07:20:18Z</time>
      </trkpt>
      <trkpt lat="46.43228" lon="5.71103">
        <ele>599.5</ele>
        <time>2022-06-08T07:20:27Z</time>
      </trkpt>
      <trkpt lat="46.43229" lon="5.71097">
        <ele>599.4</ele>
        <time>2022-06-08T07:20:32Z</time>
      </trkpt>
      <trkpt lat="46.43229" lon="5.71091">
        <ele>599.2</ele>
        <time>2022-06-08T07:20:37Z</time>
      </trkpt>
      <trkpt lat="46.43228" lon="5.71084">
        <ele>598.8</ele>
        <time>2022-06-08T07:20:43Z</time>
      </trkpt>
      <trkpt lat="46.43228" lon="5.71076">
        <ele>596.7</ele>
        <time>2022-06-08T07:20:56Z</time>
      </trkpt>
      <trkpt lat="46.43229" lon="5.71069">
        <ele>595.9</ele>
        <time>2022-06-08T07:21:01Z</time>
      </trkpt>
      <trkpt lat="46.43231" lon="5.71062">
        <ele>595.5</ele>
        <time>2022-06-08T07:21:05Z</time>
      </trkpt>
      <trkpt lat="46.43231" lon="5.71055">
        <ele>594.9</ele>
        <time>2022-06-08T07:21:10Z</time>
      </trkpt>
      <trkpt lat="46.43231" lon="5.71047">
        <ele>594</ele>
        <time>2022-06-08T07:21:18Z</time>
      </trkpt>
      <trkpt lat="46.43232" lon="5.71041">
        <ele>593.6</ele>
        <time>2022-06-08T07:21:22Z</time>
      </trkpt>
      <trkpt lat="46.43234" lon="5.71034">
        <ele>593.6</ele>
        <time>2022-06-08T07:21:25Z</time>
      </trkpt>
      <trkpt lat="46.43234" lon="5.71027">
        <ele>593.5</ele>
        <time>2022-06-08T07:21:28Z</time>
      </trkpt>
      <trkpt lat="46.43234" lon="5.7102">
        <ele>593</ele>
        <time>2022-06-08T07:21:32Z</time>
      </trkpt>
      <trkpt lat="46.43233" lon="5.71013">
        <ele>591.4</ele>
        <time>2022-06-08T07:21:41Z</time>
      </trkpt>
      <trkpt lat="46.43235" lon="5.71005">
        <ele>590.7</ele>
        <time>2022-06-08T07:21:46Z</time>
      </trkpt>
      <trkpt lat="46.43237" lon="5.70997">
        <ele>589.9</ele>
        <time>2022-06-08T07:21:51Z</time>
      </trkpt>
      <trkpt lat="46.43239" lon="5.70991">
        <ele>589.6</ele>
        <time>2022-06-08T07:21:54Z</time>
      </trkpt>
      <trkpt lat="46.43238" lon="5.70984">
        <ele>589.8</ele>
        <time>2022-06-08T07:22:00Z</time>
      </trkpt>
      <trkpt lat="46.43236" lon="5.70977">
        <ele>590.8</ele>
        <time>2022-06-08T07:22:10Z</time>
      </trkpt>
      <trkpt lat="46.43234" lon="5.7097">
        <ele>591</ele>
        <time>2022-06-08T07:22:13Z</time>
      </trkpt>
      <trkpt lat="46.43232" lon="5.70964">
        <ele>590.8</ele>
        <time>2022-06-08T07:22:16Z</time>
      </trkpt>
      <trkpt lat="46.4323" lon="5.70958">
        <ele>590.5</ele>
        <time>2022-06-08T07:22:20Z</time>
      </trkpt>
      <trkpt lat="46.43227" lon="5.70952">
        <ele>590.1</ele>
        <time>2022-06-08T07:22:24Z</time>
      </trkpt>
      <trkpt lat="46.43225" lon="5.70946">
        <ele>589.6</ele>
        <time>2022-06-08T07:22:27Z</time>
      </trkpt>
      <trkpt lat="46.43222" lon="5.7094">
        <ele>589.4</ele>
        <time>2022-06-08T07:22:30Z</time>
      </trkpt>
      <trkpt lat="46.43219" lon="5.70934">
        <ele>589.6</ele>
        <time>2022-06-08T07:22:35Z</time>
      </trkpt>
      <trkpt lat="46.43216" lon="5.70928">
        <ele>589.9</ele>
        <time>2022-06-08T07:22:38Z</time>
      </trkpt>
      <trkpt lat="46.43214" lon="5.70921">
        <ele>590.6</ele>
        <time>2022-06-08T07:22:41Z</time>
      </trkpt>
      <trkpt lat="46.43212" lon="5.70915">
        <ele>591.2</ele>
        <time>2022-06-08T07:22:44Z</time>
      </trkpt>
      <trkpt lat="46.4321" lon="5.70908">
        <ele>591.6</ele>
        <time>2022-06-08T07:22:48Z</time>
      </trkpt>
      <trkpt lat="46.43207" lon="5.70902">
        <ele>591.9</ele>
        <time>2022-06-08T07:22:53Z</time>
      </trkpt>
      <trkpt lat="46.43205" lon="5.70895">
        <ele>591.9</ele>
        <time>2022-06-08T07:22:57Z</time>
      </trkpt>
      <trkpt lat="46.43203" lon="5.70889">
        <ele>591.6</ele>
        <time>2022-06-08T07:23:03Z</time>
      </trkpt>
      <trkpt lat="46.432" lon="5.70883">
        <ele>591.3</ele>
        <time>2022-06-08T07:23:07Z</time>
      </trkpt>
      <trkpt lat="46.43197" lon="5.70877">
        <ele>591.1</ele>
        <time>2022-06-08T07:23:12Z</time>
      </trkpt>
      <trkpt lat="46.43193" lon="5.70873">
        <ele>590.8</ele>
        <time>2022-06-08T07:23:17Z</time>
      </trkpt>
      <trkpt lat="46.43189" lon="5.70868">
        <ele>590.8</ele>
        <time>2022-06-08T07:23:20Z</time>
      </trkpt>
      <trkpt lat="46.43185" lon="5.70863">
        <ele>590.9</ele>
        <time>2022-06-08T07:23:24Z</time>
      </trkpt>
      <trkpt lat="46.43181" lon="5.7086">
        <ele>591.1</ele>
        <time>2022-06-08T07:23:27Z</time>
      </trkpt>
      <trkpt lat="46.43176" lon="5.70857">
        <ele>591.2</ele>
        <time>2022-06-08T07:23:33Z</time>
      </trkpt>
      <trkpt lat="46.43172" lon="5.70855">
        <ele>590.9</ele>
        <time>2022-06-08T07:23:44Z</time>
      </trkpt>
      <trkpt lat="46.43167" lon="5.70851">
        <ele>591.1</ele>
        <time>2022-06-08T07:23:48Z</time>
      </trkpt>
      <trkpt lat="46.43163" lon="5.70845">
        <ele>591.5</ele>
        <time>2022-06-08T07:23:53Z</time>
      </trkpt>
      <trkpt lat="46.43161" lon="5.70839">
        <ele>592.4</ele>
        <time>2022-06-08T07:23:59Z</time>
      </trkpt>
      <trkpt lat="46.43158" lon="5.70834">
        <ele>593.1</ele>
        <time>2022-06-08T07:24:07Z</time>
      </trkpt>
      <trkpt lat="46.43154" lon="5.70828">
        <ele>593.9</ele>
        <time>2022-06-08T07:24:11Z</time>
      </trkpt>
      <trkpt lat="46.43152" lon="5.70822">
        <ele>595.1</ele>
        <time>2022-06-08T07:24:16Z</time>
      </trkpt>
      <trkpt lat="46.43151" lon="5.70814">
        <ele>596.5</ele>
        <time>2022-06-08T07:24:21Z</time>
      </trkpt>
      <trkpt lat="46.43153" lon="5.70806">
        <ele>597.8</ele>
        <time>2022-06-08T07:24:26Z</time>
      </trkpt>
      <trkpt lat="46.43155" lon="5.708">
        <ele>598.4</ele>
        <time>2022-06-08T07:24:30Z</time>
      </trkpt>
      <trkpt lat="46.43154" lon="5.70792">
        <ele>599.1</ele>
        <time>2022-06-08T07:24:34Z</time>
      </trkpt>
      <trkpt lat="46.43155" lon="5.70785">
        <ele>599.8</ele>
        <time>2022-06-08T07:24:39Z</time>
      </trkpt>
      <trkpt lat="46.43155" lon="5.70778">
        <ele>600.4</ele>
        <time>2022-06-08T07:24:44Z</time>
      </trkpt>
      <trkpt lat="46.43153" lon="5.70772">
        <ele>601</ele>
        <time>2022-06-08T07:24:48Z</time>
      </trkpt>
      <trkpt lat="46.43153" lon="5.70765">
        <ele>601.1</ele>
        <time>2022-06-08T07:24:53Z</time>
      </trkpt>
      <trkpt lat="46.43153" lon="5.70758">
        <ele>600.9</ele>
        <time>2022-06-08T07:25:00Z</time>
      </trkpt>
      <trkpt lat="46.43153" lon="5.70752">
        <ele>600.6</ele>
        <time>2022-06-08T07:25:05Z</time>
      </trkpt>
      <trkpt lat="46.4315" lon="5.70746">
        <ele>600.4</ele>
        <time>2022-06-08T07:25:08Z</time>
      </trkpt>
      <trkpt lat="46.4315" lon="5.70739">
        <ele>600.7</ele>
        <time>2022-06-08T07:25:14Z</time>
      </trkpt>
      <trkpt lat="46.43151" lon="5.70733">
        <ele>601</ele>
        <time>2022-06-08T07:25:22Z</time>
      </trkpt>
      <trkpt lat="46.43154" lon="5.70725">
        <ele>601.8</ele>
        <time>2022-06-08T07:25:26Z</time>
      </trkpt>
      <trkpt lat="46.43155" lon="5.70718">
        <ele>603.1</ele>
        <time>2022-06-08T07:25:32Z</time>
      </trkpt>
      <trkpt lat="46.43156" lon="5.7071">
        <ele>603.6</ele>
        <time>2022-06-08T07:25:37Z</time>
      </trkpt>
      <trkpt lat="46.43159" lon="5.70704">
        <ele>604.2</ele>
        <time>2022-06-08T07:25:43Z</time>
      </trkpt>
      <trkpt lat="46.43163" lon="5.707">
        <ele>604.8</ele>
        <time>2022-06-08T07:25:49Z</time>
      </trkpt>
      <trkpt lat="46.43168" lon="5.70698">
        <ele>605.3</ele>
        <time>2022-06-08T07:25:54Z</time>
      </trkpt>
      <trkpt lat="46.43172" lon="5.70696">
        <ele>606.7</ele>
        <time>2022-06-08T07:26:00Z</time>
      </trkpt>
      <trkpt lat="46.43175" lon="5.7069">
        <ele>608.1</ele>
        <time>2022-06-08T07:26:09Z</time>
      </trkpt>
      <trkpt lat="46.43179" lon="5.70685">
        <ele>608.5</ele>
        <time>2022-06-08T07:26:15Z</time>
      </trkpt>
      <trkpt lat="46.43184" lon="5.70683">
        <ele>608.6</ele>
        <time>2022-06-08T07:26:19Z</time>
      </trkpt>
      <trkpt lat="46.43189" lon="5.70681">
        <ele>608.6</ele>
        <time>2022-06-08T07:26:24Z</time>
      </trkpt>
      <trkpt lat="46.43194" lon="5.7068">
        <ele>608.5</ele>
        <time>2022-06-08T07:26:28Z</time>
      </trkpt>
      <trkpt lat="46.43198" lon="5.70677">
        <ele>608.2</ele>
        <time>2022-06-08T07:26:33Z</time>
      </trkpt>
      <trkpt lat="46.43203" lon="5.70674">
        <ele>608</ele>
        <time>2022-06-08T07:26:38Z</time>
      </trkpt>
      <trkpt lat="46.43208" lon="5.70671">
        <ele>608.2</ele>
        <time>2022-06-08T07:26:43Z</time>
      </trkpt>
      <trkpt lat="46.43213" lon="5.70671">
        <ele>608.9</ele>
        <time>2022-06-08T07:26:49Z</time>
      </trkpt>
      <trkpt lat="46.43218" lon="5.70671">
        <ele>610.1</ele>
        <time>2022-06-08T07:26:58Z</time>
      </trkpt>
      <trkpt lat="46.43222" lon="5.70672">
        <ele>610.9</ele>
        <time>2022-06-08T07:27:05Z</time>
      </trkpt>
      <trkpt lat="46.43227" lon="5.70672">
        <ele>610.8</ele>
        <time>2022-06-08T07:27:10Z</time>
      </trkpt>
      <trkpt lat="46.43232" lon="5.70673">
        <ele>610.2</ele>
        <time>2022-06-08T07:27:14Z</time>
      </trkpt>
      <trkpt lat="46.43237" lon="5.70674">
        <ele>609.7</ele>
        <time>2022-06-08T07:27:18Z</time>
      </trkpt>
      <trkpt lat="46.43241" lon="5.70676">
        <ele>609.1</ele>
        <time>2022-06-08T07:27:23Z</time>
      </trkpt>
      <trkpt lat="46.43246" lon="5.70681">
        <ele>608.2</ele>
        <time>2022-06-08T07:27:27Z</time>
      </trkpt>
      <trkpt lat="46.43251" lon="5.70682">
        <ele>607.2</ele>
        <time>2022-06-08T07:27:32Z</time>
      </trkpt>
      <trkpt lat="46.43255" lon="5.70687">
        <ele>605.3</ele>
        <time>2022-06-08T07:27:43Z</time>
      </trkpt>
      <trkpt lat="46.4326" lon="5.70686">
        <ele>604.3</ele>
        <time>2022-06-08T07:27:50Z</time>
      </trkpt>
      <trkpt lat="46.43265" lon="5.70685">
        <ele>603.8</ele>
        <time>2022-06-08T07:27:55Z</time>
      </trkpt>
      <trkpt lat="46.43269" lon="5.70683">
        <ele>603.8</ele>
        <time>2022-06-08T07:27:58Z</time>
      </trkpt>
      <trkpt lat="46.43275" lon="5.7068">
        <ele>603.9</ele>
        <time>2022-06-08T07:28:02Z</time>
      </trkpt>
      <trkpt lat="46.4328" lon="5.7068">
        <ele>604.5</ele>
        <time>2022-06-08T07:28:08Z</time>
      </trkpt>
      <trkpt lat="46.43285" lon="5.70682">
        <ele>605</ele>
        <time>2022-06-08T07:28:12Z</time>
      </trkpt>
      <trkpt lat="46.43288" lon="5.70688">
        <ele>605.5</ele>
        <time>2022-06-08T07:28:17Z</time>
      </trkpt>
      <trkpt lat="46.43291" lon="5.70693">
        <ele>605.6</ele>
        <time>2022-06-08T07:28:23Z</time>
      </trkpt>
      <trkpt lat="46.43295" lon="5.70698">
        <ele>605.9</ele>
        <time>2022-06-08T07:28:34Z</time>
      </trkpt>
      <trkpt lat="46.433" lon="5.70695">
        <ele>606.2</ele>
        <time>2022-06-08T07:28:40Z</time>
      </trkpt>
      <trkpt lat="46.43305" lon="5.70691">
        <ele>605.8</ele>
        <time>2022-06-08T07:28:45Z</time>
      </trkpt>
      <trkpt lat="46.43309" lon="5.70688">
        <ele>605.4</ele>
        <time>2022-06-08T07:28:49Z</time>
      </trkpt>
      <trkpt lat="46.43314" lon="5.70684">
        <ele>604.9</ele>
        <time>2022-06-08T07:28:54Z</time>
      </trkpt>
      <trkpt lat="46.43318" lon="5.70679">
        <ele>604.8</ele>
        <time>2022-06-08T07:28:58Z</time>
      </trkpt>
      <trkpt lat="46.43322" lon="5.70676">
        <ele>604.8</ele>
        <time>2022-06-08T07:29:03Z</time>
      </trkpt>
      <trkpt lat="46.43327" lon="5.70674">
        <ele>605.5</ele>
        <time>2022-06-08T07:29:10Z</time>
      </trkpt>
      <trkpt lat="46.43332" lon="5.7067">
        <ele>606.9</ele>
        <time>2022-06-08T07:29:18Z</time>
      </trkpt>
      <trkpt lat="46.43333" lon="5.70663">
        <ele>607.8</ele>
        <time>2022-06-08T07:29:26Z</time>
      </trkpt>
      <trkpt lat="46.43338" lon="5.70662">
        <ele>608.1</ele>
        <time>2022-06-08T07:29:32Z</time>
      </trkpt>
      <trkpt lat="46.43342" lon="5.70656">
        <ele>608.3</ele>
        <time>2022-06-08T07:29:39Z</time>
      </trkpt>
      <trkpt lat="46.43346" lon="5.70652">
        <ele>608.3</ele>
        <time>2022-06-08T07:29:43Z</time>
      </trkpt>
      <trkpt lat="46.4335" lon="5.70648">
        <ele>608</ele>
        <time>2022-06-08T07:29:47Z</time>
      </trkpt>
      <trkpt lat="46.43354" lon="5.70644">
        <ele>606.7</ele>
        <time>2022-06-08T07:29:52Z</time>
      </trkpt>
      <trkpt lat="46.43358" lon="5.70642">
        <ele>606.3</ele>
        <time>2022-06-08T07:29:58Z</time>
      </trkpt>
      <trkpt lat="46.43363" lon="5.70642">
        <ele>606.8</ele>
        <time>2022-06-08T07:30:04Z</time>
      </trkpt>
      <trkpt lat="46.43368" lon="5.7064">
        <ele>607.3</ele>
        <time>2022-06-08T07:30:11Z</time>
      </trkpt>
      <trkpt lat="46.43373" lon="5.70639">
        <ele>607.6</ele>
        <time>2022-06-08T07:30:16Z</time>
      </trkpt>
      <trkpt lat="46.43378" lon="5.70638">
        <ele>608.4</ele>
        <time>2022-06-08T07:30:20Z</time>
      </trkpt>
      <trkpt lat="46.43382" lon="5.70641">
        <ele>609.4</ele>
        <time>2022-06-08T07:30:27Z</time>
      </trkpt>
      <trkpt lat="46.43386" lon="5.70643">
        <ele>609.1</ele>
        <time>2022-06-08T07:30:32Z</time>
      </trkpt>
      <trkpt lat="46.43391" lon="5.70643">
        <ele>608.6</ele>
        <time>2022-06-08T07:30:36Z</time>
      </trkpt>
      <trkpt lat="46.43396" lon="5.70643">
        <ele>608.4</ele>
        <time>2022-06-08T07:30:41Z</time>
      </trkpt>
      <trkpt lat="46.43402" lon="5.70643">
        <ele>608.4</ele>
        <time>2022-06-08T07:30:46Z</time>
      </trkpt>
      <trkpt lat="46.43406" lon="5.70647">
        <ele>608.3</ele>
        <time>2022-06-08T07:30:55Z</time>
      </trkpt>
      <trkpt lat="46.43409" lon="5.70653">
        <ele>608.1</ele>
        <time>2022-06-08T07:31:01Z</time>
      </trkpt>
      <trkpt lat="46.43413" lon="5.70659">
        <ele>608</ele>
        <time>2022-06-08T07:31:06Z</time>
      </trkpt>
      <trkpt lat="46.43417" lon="5.70662">
        <ele>607.8</ele>
        <time>2022-06-08T07:31:11Z</time>
      </trkpt>
      <trkpt lat="46.43422" lon="5.70664">
        <ele>607.4</ele>
        <time>2022-06-08T07:31:18Z</time>
      </trkpt>
      <trkpt lat="46.43427" lon="5.70666">
        <ele>607.3</ele>
        <time>2022-06-08T07:31:22Z</time>
      </trkpt>
      <trkpt lat="46.43432" lon="5.70666">
        <ele>607.5</ele>
        <time>2022-06-08T07:31:28Z</time>
      </trkpt>
      <trkpt lat="46.43437" lon="5.70667">
        <ele>608</ele>
        <time>2022-06-08T07:31:36Z</time>
      </trkpt>
      <trkpt lat="46.43442" lon="5.70664">
        <ele>608.6</ele>
        <time>2022-06-08T07:31:42Z</time>
      </trkpt>
      <trkpt lat="46.43447" lon="5.70663">
        <ele>609.1</ele>
        <time>2022-06-08T07:31:48Z</time>
      </trkpt>
      <trkpt lat="46.43452" lon="5.70663">
        <ele>610.3</ele>
        <time>2022-06-08T07:31:55Z</time>
      </trkpt>
      <trkpt lat="46.43457" lon="5.70663">
        <ele>610.9</ele>
        <time>2022-06-08T07:32:01Z</time>
      </trkpt>
      <trkpt lat="46.43462" lon="5.70662">
        <ele>610.8</ele>
        <time>2022-06-08T07:32:07Z</time>
      </trkpt>
      <trkpt lat="46.43467" lon="5.70664">
        <ele>610.8</ele>
        <time>2022-06-08T07:32:13Z</time>
      </trkpt>
      <trkpt lat="46.43467" lon="5.70671">
        <ele>610.4</ele>
        <time>2022-06-08T07:32:19Z</time>
      </trkpt>
      <trkpt lat="46.43467" lon="5.70678">
        <ele>609.7</ele>
        <time>2022-06-08T07:32:28Z</time>
      </trkpt>
      <trkpt lat="46.43471" lon="5.70684">
        <ele>608.6</ele>
        <time>2022-06-08T07:32:36Z</time>
      </trkpt>
      <trkpt lat="46.43474" lon="5.7069">
        <ele>607.8</ele>
        <time>2022-06-08T07:32:40Z</time>
      </trkpt>
      <trkpt lat="46.43476" lon="5.70696">
        <ele>606.1</ele>
        <time>2022-06-08T07:32:48Z</time>
      </trkpt>
      <trkpt lat="46.43478" lon="5.70702">
        <ele>605.5</ele>
        <time>2022-06-08T07:32:55Z</time>
      </trkpt>
      <trkpt lat="46.43476" lon="5.70708">
        <ele>605.5</ele>
        <time>2022-06-08T07:33:04Z</time>
      </trkpt>
      <trkpt lat="46.43475" lon="5.70714">
        <ele>605.5</ele>
        <time>2022-06-08T07:33:08Z</time>
      </trkpt>
      <trkpt lat="46.43476" lon="5.70722">
        <ele>605.8</ele>
        <time>2022-06-08T07:33:14Z</time>
      </trkpt>
      <trkpt lat="46.43476" lon="5.70728">
        <ele>606.1</ele>
        <time>2022-06-08T07:33:21Z</time>
      </trkpt>
      <trkpt lat="46.43476" lon="5.70735">
        <ele>605.8</ele>
        <time>2022-06-08T07:33:27Z</time>
      </trkpt>
      <trkpt lat="46.43473" lon="5.70741">
        <ele>604.3</ele>
        <time>2022-06-08T07:33:36Z</time>
      </trkpt>
      <trkpt lat="46.43474" lon="5.70748">
        <ele>603</ele>
        <time>2022-06-08T07:33:42Z</time>
      </trkpt>
      <trkpt lat="46.43473" lon="5.70755">
        <ele>601.5</ele>
        <time>2022-06-08T07:33:48Z</time>
      </trkpt>
      <trkpt lat="46.43473" lon="5.70763">
        <ele>599.9</ele>
        <time>2022-06-08T07:33:56Z</time>
      </trkpt>
      <trkpt lat="46.43475" lon="5.70769">
        <ele>599</ele>
        <time>2022-06-08T07:34:03Z</time>
      </trkpt>
      <trkpt lat="46.43479" lon="5.70774">
        <ele>598.4</ele>
        <time>2022-06-08T07:34:09Z</time>
      </trkpt>
      <trkpt lat="46.43483" lon="5.70779">
        <ele>597.9</ele>
        <time>2022-06-08T07:34:15Z</time>
      </trkpt>
      <trkpt lat="46.43483" lon="5.70786">
        <ele>596.9</ele>
        <time>2022-06-08T07:34:26Z</time>
      </trkpt>
      <trkpt lat="46.43487" lon="5.70783">
        <ele>596</ele>
        <time>2022-06-08T07:34:54Z</time>
      </trkpt>
      <trkpt lat="46.43483" lon="5.70787">
        <ele>597.8</ele>
        <time>2022-06-08T07:35:05Z</time>
      </trkpt>
      <trkpt lat="46.43479" lon="5.70792">
        <ele>598.8</ele>
        <time>2022-06-08T07:35:10Z</time>
      </trkpt>
      <trkpt lat="46.43473" lon="5.70801">
        <ele>600.3</ele>
        <time>2022-06-08T07:35:20Z</time>
      </trkpt>
      <trkpt lat="46.43475" lon="5.70792">
        <ele>600.4</ele>
        <time>2022-06-08T07:35:23Z</time>
      </trkpt>
      <trkpt lat="46.43477" lon="5.70786">
        <ele>600.6</ele>
        <time>2022-06-08T07:35:26Z</time>
      </trkpt>
      <trkpt lat="46.43482" lon="5.70782">
        <ele>605.3</ele>
        <time>2022-06-08T07:36:30Z</time>
      </trkpt>
      <trkpt lat="46.43477" lon="5.7078">
        <ele>607.4</ele>
        <time>2022-06-08T07:37:58Z</time>
      </trkpt>
      <trkpt lat="46.43482" lon="5.70783">
        <ele>609</ele>
        <time>2022-06-08T07:38:16Z</time>
      </trkpt>
      <trkpt lat="46.43487" lon="5.70783">
        <ele>609.1</ele>
        <time>2022-06-08T07:38:19Z</time>
      </trkpt>
      <trkpt lat="46.43484" lon="5.70777">
        <ele>609.6</ele>
        <time>2022-06-08T07:38:28Z</time>
      </trkpt>
      <trkpt lat="46.43486" lon="5.70784">
        <ele>606.9</ele>
        <time>2022-06-08T07:38:43Z</time>
      </trkpt>
      <trkpt lat="46.43486" lon="5.70791">
        <ele>604</ele>
        <time>2022-06-08T07:38:58Z</time>
      </trkpt>
      <trkpt lat="46.4349" lon="5.70795">
        <ele>603.6</ele>
        <time>2022-06-08T07:39:03Z</time>
      </trkpt>
      <trkpt lat="46.43494" lon="5.708">
        <ele>603.3</ele>
        <time>2022-06-08T07:39:08Z</time>
      </trkpt>
      <trkpt lat="46.43497" lon="5.70805">
        <ele>603.1</ele>
        <time>2022-06-08T07:39:12Z</time>
      </trkpt>
      <trkpt lat="46.43501" lon="5.7081">
        <ele>602.6</ele>
        <time>2022-06-08T07:39:17Z</time>
      </trkpt>
      <trkpt lat="46.43505" lon="5.70813">
        <ele>601.8</ele>
        <time>2022-06-08T07:39:25Z</time>
      </trkpt>
      <trkpt lat="46.4351" lon="5.70813">
        <ele>601.3</ele>
        <time>2022-06-08T07:39:30Z</time>
      </trkpt>
      <trkpt lat="46.43515" lon="5.70813">
        <ele>600.8</ele>
        <time>2022-06-08T07:39:34Z</time>
      </trkpt>
      <trkpt lat="46.4352" lon="5.70814">
        <ele>600.2</ele>
        <time>2022-06-08T07:39:38Z</time>
      </trkpt>
      <trkpt lat="46.43524" lon="5.70816">
        <ele>599.7</ele>
        <time>2022-06-08T07:39:41Z</time>
      </trkpt>
      <trkpt lat="46.43529" lon="5.70816">
        <ele>599.3</ele>
        <time>2022-06-08T07:39:50Z</time>
      </trkpt>
      <trkpt lat="46.43535" lon="5.70813">
        <ele>599.1</ele>
        <time>2022-06-08T07:39:57Z</time>
      </trkpt>
      <trkpt lat="46.43539" lon="5.70813">
        <ele>598.5</ele>
        <time>2022-06-08T07:40:02Z</time>
      </trkpt>
      <trkpt lat="46.43542" lon="5.70819">
        <ele>597.7</ele>
        <time>2022-06-08T07:40:12Z</time>
      </trkpt>
      <trkpt lat="46.43547" lon="5.70823">
        <ele>597.1</ele>
        <time>2022-06-08T07:40:16Z</time>
      </trkpt>
      <trkpt lat="46.43552" lon="5.70828">
        <ele>596.1</ele>
        <time>2022-06-08T07:40:21Z</time>
      </trkpt>
      <trkpt lat="46.43556" lon="5.70831">
        <ele>595.1</ele>
        <time>2022-06-08T07:40:26Z</time>
      </trkpt>
      <trkpt lat="46.43561" lon="5.70832">
        <ele>594.2</ele>
        <time>2022-06-08T07:40:31Z</time>
      </trkpt>
      <trkpt lat="46.43567" lon="5.70831">
        <ele>593.2</ele>
        <time>2022-06-08T07:40:38Z</time>
      </trkpt>
      <trkpt lat="46.43571" lon="5.70829">
        <ele>592.5</ele>
        <time>2022-06-08T07:40:43Z</time>
      </trkpt>
      <trkpt lat="46.43576" lon="5.70827">
        <ele>592.3</ele>
        <time>2022-06-08T07:40:47Z</time>
      </trkpt>
      <trkpt lat="46.43581" lon="5.70828">
        <ele>592.4</ele>
        <time>2022-06-08T07:40:50Z</time>
      </trkpt>
      <trkpt lat="46.43586" lon="5.70829">
        <ele>592.3</ele>
        <time>2022-06-08T07:40:53Z</time>
      </trkpt>
      <trkpt lat="46.43591" lon="5.70825">
        <ele>592</ele>
        <time>2022-06-08T07:40:58Z</time>
      </trkpt>
      <trkpt lat="46.43594" lon="5.7082">
        <ele>592.1</ele>
        <time>2022-06-08T07:41:02Z</time>
      </trkpt>
      <trkpt lat="46.43599" lon="5.70819">
        <ele>592</ele>
        <time>2022-06-08T07:41:07Z</time>
      </trkpt>
      <trkpt lat="46.43604" lon="5.70815">
        <ele>591.6</ele>
        <time>2022-06-08T07:41:13Z</time>
      </trkpt>
      <trkpt lat="46.43609" lon="5.70816">
        <ele>591.4</ele>
        <time>2022-06-08T07:41:16Z</time>
      </trkpt>
      <trkpt lat="46.43614" lon="5.70816">
        <ele>591.3</ele>
        <time>2022-06-08T07:41:20Z</time>
      </trkpt>
      <trkpt lat="46.43618" lon="5.70818">
        <ele>591.5</ele>
        <time>2022-06-08T07:41:26Z</time>
      </trkpt>
      <trkpt lat="46.43624" lon="5.70816">
        <ele>591.8</ele>
        <time>2022-06-08T07:41:31Z</time>
      </trkpt>
      <trkpt lat="46.43629" lon="5.70815">
        <ele>592.1</ele>
        <time>2022-06-08T07:41:36Z</time>
      </trkpt>
      <trkpt lat="46.43634" lon="5.70814">
        <ele>592.5</ele>
        <time>2022-06-08T07:41:40Z</time>
      </trkpt>
      <trkpt lat="46.43639" lon="5.70811">
        <ele>593</ele>
        <time>2022-06-08T07:41:45Z</time>
      </trkpt>
      <trkpt lat="46.43644" lon="5.70809">
        <ele>593</ele>
        <time>2022-06-08T07:41:49Z</time>
      </trkpt>
      <trkpt lat="46.43649" lon="5.70806">
        <ele>593.2</ele>
        <time>2022-06-08T07:41:54Z</time>
      </trkpt>
      <trkpt lat="46.43654" lon="5.70804">
        <ele>593.5</ele>
        <time>2022-06-08T07:42:00Z</time>
      </trkpt>
      <trkpt lat="46.43658" lon="5.708">
        <ele>594.1</ele>
        <time>2022-06-08T07:42:04Z</time>
      </trkpt>
      <trkpt lat="46.43664" lon="5.70797">
        <ele>594.7</ele>
        <time>2022-06-08T07:42:08Z</time>
      </trkpt>
      <trkpt lat="46.4367" lon="5.70796">
        <ele>595</ele>
        <time>2022-06-08T07:42:11Z</time>
      </trkpt>
      <trkpt lat="46.43675" lon="5.70794">
        <ele>595.4</ele>
        <time>2022-06-08T07:42:15Z</time>
      </trkpt>
      <trkpt lat="46.43679" lon="5.70791">
        <ele>596.1</ele>
        <time>2022-06-08T07:42:19Z</time>
      </trkpt>
      <trkpt lat="46.43684" lon="5.70793">
        <ele>597.2</ele>
        <time>2022-06-08T07:42:25Z</time>
      </trkpt>
      <trkpt lat="46.43689" lon="5.70792">
        <ele>597.1</ele>
        <time>2022-06-08T07:42:31Z</time>
      </trkpt>
      <trkpt lat="46.43694" lon="5.70787">
        <ele>596.6</ele>
        <time>2022-06-08T07:42:35Z</time>
      </trkpt>
      <trkpt lat="46.43698" lon="5.70785">
        <ele>595.9</ele>
        <time>2022-06-08T07:42:41Z</time>
      </trkpt>
      <trkpt lat="46.43703" lon="5.70784">
        <ele>595.1</ele>
        <time>2022-06-08T07:42:50Z</time>
      </trkpt>
      <trkpt lat="46.43708" lon="5.70781">
        <ele>594.9</ele>
        <time>2022-06-08T07:42:55Z</time>
      </trkpt>
      <trkpt lat="46.43712" lon="5.70778">
        <ele>594.8</ele>
        <time>2022-06-08T07:42:59Z</time>
      </trkpt>
      <trkpt lat="46.43717" lon="5.70776">
        <ele>595</ele>
        <time>2022-06-08T07:43:02Z</time>
      </trkpt>
      <trkpt lat="46.43721" lon="5.70775">
        <ele>595.2</ele>
        <time>2022-06-08T07:43:06Z</time>
      </trkpt>
      <trkpt lat="46.43726" lon="5.70772">
        <ele>595.7</ele>
        <time>2022-06-08T07:43:11Z</time>
      </trkpt>
      <trkpt lat="46.43731" lon="5.70769">
        <ele>596</ele>
        <time>2022-06-08T07:43:15Z</time>
      </trkpt>
      <trkpt lat="46.43734" lon="5.70764">
        <ele>596</ele>
        <time>2022-06-08T07:43:22Z</time>
      </trkpt>
      <trkpt lat="46.43739" lon="5.70763">
        <ele>596.6</ele>
        <time>2022-06-08T07:43:28Z</time>
      </trkpt>
      <trkpt lat="46.43744" lon="5.70762">
        <ele>596.9</ele>
        <time>2022-06-08T07:43:34Z</time>
      </trkpt>
      <trkpt lat="46.43748" lon="5.70757">
        <ele>597.3</ele>
        <time>2022-06-08T07:43:38Z</time>
      </trkpt>
      <trkpt lat="46.43752" lon="5.70751">
        <ele>598.2</ele>
        <time>2022-06-08T07:43:42Z</time>
      </trkpt>
      <trkpt lat="46.43757" lon="5.7075">
        <ele>599.2</ele>
        <time>2022-06-08T07:43:46Z</time>
      </trkpt>
      <trkpt lat="46.43762" lon="5.7075">
        <ele>599.5</ele>
        <time>2022-06-08T07:43:50Z</time>
      </trkpt>
      <trkpt lat="46.43767" lon="5.70753">
        <ele>599.6</ele>
        <time>2022-06-08T07:43:54Z</time>
      </trkpt>
      <trkpt lat="46.43771" lon="5.70756">
        <ele>599.4</ele>
        <time>2022-06-08T07:44:01Z</time>
      </trkpt>
      <trkpt lat="46.43773" lon="5.70762">
        <ele>598.9</ele>
        <time>2022-06-08T07:44:07Z</time>
      </trkpt>
      <trkpt lat="46.43777" lon="5.70766">
        <ele>598.8</ele>
        <time>2022-06-08T07:44:16Z</time>
      </trkpt>
      <trkpt lat="46.43782" lon="5.70768">
        <ele>599.1</ele>
        <time>2022-06-08T07:44:22Z</time>
      </trkpt>
      <trkpt lat="46.43786" lon="5.70772">
        <ele>599.3</ele>
        <time>2022-06-08T07:44:28Z</time>
      </trkpt>
      <trkpt lat="46.4379" lon="5.70776">
        <ele>598.9</ele>
        <time>2022-06-08T07:44:34Z</time>
      </trkpt>
      <trkpt lat="46.43793" lon="5.70782">
        <ele>598.7</ele>
        <time>2022-06-08T07:44:42Z</time>
      </trkpt>
      <trkpt lat="46.43793" lon="5.70789">
        <ele>598.2</ele>
        <time>2022-06-08T07:44:51Z</time>
      </trkpt>
      <trkpt lat="46.43793" lon="5.70796">
        <ele>597.7</ele>
        <time>2022-06-08T07:44:59Z</time>
      </trkpt>
      <trkpt lat="46.43792" lon="5.70803">
        <ele>596.8</ele>
        <time>2022-06-08T07:45:06Z</time>
      </trkpt>
      <trkpt lat="46.43787" lon="5.70804">
        <ele>595.9</ele>
        <time>2022-06-08T07:45:10Z</time>
      </trkpt>
      <trkpt lat="46.43787" lon="5.70811">
        <ele>594.6</ele>
        <time>2022-06-08T07:45:16Z</time>
      </trkpt>
      <trkpt lat="46.43794" lon="5.70816">
        <ele>594</ele>
        <time>2022-06-08T07:45:19Z</time>
      </trkpt>
      <trkpt lat="46.43799" lon="5.70821">
        <ele>593.6</ele>
        <time>2022-06-08T07:45:22Z</time>
      </trkpt>
      <trkpt lat="46.43803" lon="5.70825">
        <ele>593.2</ele>
        <time>2022-06-08T07:45:25Z</time>
      </trkpt>
      <trkpt lat="46.43807" lon="5.7083">
        <ele>592.9</ele>
        <time>2022-06-08T07:45:28Z</time>
      </trkpt>
      <trkpt lat="46.43806" lon="5.70836">
        <ele>592.5</ele>
        <time>2022-06-08T07:45:33Z</time>
      </trkpt>
      <trkpt lat="46.43803" lon="5.70842">
        <ele>592.3</ele>
        <time>2022-06-08T07:45:36Z</time>
      </trkpt>
      <trkpt lat="46.43799" lon="5.70847">
        <ele>592.1</ele>
        <time>2022-06-08T07:45:39Z</time>
      </trkpt>
      <trkpt lat="46.43796" lon="5.70851">
        <ele>592.2</ele>
        <time>2022-06-08T07:45:43Z</time>
      </trkpt>
      <trkpt lat="46.43792" lon="5.70847">
        <ele>591.8</ele>
        <time>2022-06-08T07:45:48Z</time>
      </trkpt>
      <trkpt lat="46.43789" lon="5.70855">
        <ele>591.7</ele>
        <time>2022-06-08T07:46:06Z</time>
      </trkpt>
      <trkpt lat="46.43787" lon="5.70863">
        <ele>592</ele>
        <time>2022-06-08T07:46:11Z</time>
      </trkpt>
      <trkpt lat="46.43785" lon="5.70869">
        <ele>592</ele>
        <time>2022-06-08T07:46:16Z</time>
      </trkpt>
      <trkpt lat="46.43787" lon="5.70875">
        <ele>593.6</ele>
        <time>2022-06-08T07:46:26Z</time>
      </trkpt>
      <trkpt lat="46.4379" lon="5.7088">
        <ele>594.9</ele>
        <time>2022-06-08T07:46:33Z</time>
      </trkpt>
      <trkpt lat="46.43795" lon="5.7088">
        <ele>595.2</ele>
        <time>2022-06-08T07:46:41Z</time>
      </trkpt>
      <trkpt lat="46.43794" lon="5.70874">
        <ele>595.4</ele>
        <time>2022-06-08T07:46:51Z</time>
      </trkpt>
      <trkpt lat="46.43797" lon="5.70867">
        <ele>595.8</ele>
        <time>2022-06-08T07:46:56Z</time>
      </trkpt>
      <trkpt lat="46.438" lon="5.7086">
        <ele>596.3</ele>
        <time>2022-06-08T07:47:01Z</time>
      </trkpt>
      <trkpt lat="46.43802" lon="5.70855">
        <ele>597.7</ele>
        <time>2022-06-08T07:47:09Z</time>
      </trkpt>
      <trkpt lat="46.43807" lon="5.70851">
        <ele>599.5</ele>
        <time>2022-06-08T07:47:17Z</time>
      </trkpt>
      <trkpt lat="46.43811" lon="5.70851">
        <ele>600.2</ele>
        <time>2022-06-08T07:47:22Z</time>
      </trkpt>
      <trkpt lat="46.43814" lon="5.70845">
        <ele>601.5</ele>
        <time>2022-06-08T07:47:29Z</time>
      </trkpt>
      <trkpt lat="46.43817" lon="5.70841">
        <ele>603.4</ele>
        <time>2022-06-08T07:47:34Z</time>
      </trkpt>
      <trkpt lat="46.43821" lon="5.70836">
        <ele>606.6</ele>
        <time>2022-06-08T07:47:41Z</time>
      </trkpt>
      <trkpt lat="46.43824" lon="5.70828">
        <ele>608.4</ele>
        <time>2022-06-08T07:47:46Z</time>
      </trkpt>
      <trkpt lat="46.43828" lon="5.70823">
        <ele>609.2</ele>
        <time>2022-06-08T07:47:50Z</time>
      </trkpt>
      <trkpt lat="46.43831" lon="5.70818">
        <ele>611.1</ele>
        <time>2022-06-08T07:47:59Z</time>
      </trkpt>
      <trkpt lat="46.43836" lon="5.70819">
        <ele>611.6</ele>
        <time>2022-06-08T07:48:04Z</time>
      </trkpt>
      <trkpt lat="46.43841" lon="5.70821">
        <ele>611.1</ele>
        <time>2022-06-08T07:48:08Z</time>
      </trkpt>
      <trkpt lat="46.43846" lon="5.7082">
        <ele>611.7</ele>
        <time>2022-06-08T07:48:16Z</time>
      </trkpt>
      <trkpt lat="46.4385" lon="5.70819">
        <ele>612.6</ele>
        <time>2022-06-08T07:48:26Z</time>
      </trkpt>
      <trkpt lat="46.43855" lon="5.70818">
        <ele>613.4</ele>
        <time>2022-06-08T07:48:34Z</time>
      </trkpt>
      <trkpt lat="46.4386" lon="5.70816">
        <ele>613.6</ele>
        <time>2022-06-08T07:48:39Z</time>
      </trkpt>
      <trkpt lat="46.43865" lon="5.70815">
        <ele>616.6</ele>
        <time>2022-06-08T07:49:23Z</time>
      </trkpt>
      <trkpt lat="46.43869" lon="5.70814">
        <ele>616.6</ele>
        <time>2022-06-08T07:49:28Z</time>
      </trkpt>
      <trkpt lat="46.43874" lon="5.70814">
        <ele>616.3</ele>
        <time>2022-06-08T07:49:33Z</time>
      </trkpt>
      <trkpt lat="46.43878" lon="5.7081">
        <ele>616.4</ele>
        <time>2022-06-08T07:49:39Z</time>
      </trkpt>
      <trkpt lat="46.43882" lon="5.70815">
        <ele>615.6</ele>
        <time>2022-06-08T07:49:43Z</time>
      </trkpt>
      <trkpt lat="46.43887" lon="5.70817">
        <ele>614.6</ele>
        <time>2022-06-08T07:49:48Z</time>
      </trkpt>
      <trkpt lat="46.43891" lon="5.70815">
        <ele>613.8</ele>
        <time>2022-06-08T07:49:54Z</time>
      </trkpt>
      <trkpt lat="46.43895" lon="5.70811">
        <ele>613.7</ele>
        <time>2022-06-08T07:50:03Z</time>
      </trkpt>
      <trkpt lat="46.43898" lon="5.70807">
        <ele>612.8</ele>
        <time>2022-06-08T07:51:29Z</time>
      </trkpt>
      <trkpt lat="46.43903" lon="5.70807">
        <ele>612.7</ele>
        <time>2022-06-08T07:51:33Z</time>
      </trkpt>
      <trkpt lat="46.43908" lon="5.70807">
        <ele>612.5</ele>
        <time>2022-06-08T07:51:39Z</time>
      </trkpt>
      <trkpt lat="46.43912" lon="5.70804">
        <ele>612.6</ele>
        <time>2022-06-08T07:51:45Z</time>
      </trkpt>
      <trkpt lat="46.43916" lon="5.708">
        <ele>612.5</ele>
        <time>2022-06-08T07:51:51Z</time>
      </trkpt>
      <trkpt lat="46.43921" lon="5.70797">
        <ele>612.6</ele>
        <time>2022-06-08T07:51:56Z</time>
      </trkpt>
      <trkpt lat="46.43927" lon="5.70794">
        <ele>612.8</ele>
        <time>2022-06-08T07:52:01Z</time>
      </trkpt>
      <trkpt lat="46.43931" lon="5.70793">
        <ele>612.8</ele>
        <time>2022-06-08T07:52:06Z</time>
      </trkpt>
      <trkpt lat="46.43936" lon="5.70794">
        <ele>613.2</ele>
        <time>2022-06-08T07:52:14Z</time>
      </trkpt>
      <trkpt lat="46.43939" lon="5.708">
        <ele>613.3</ele>
        <time>2022-06-08T07:52:20Z</time>
      </trkpt>
      <trkpt lat="46.43943" lon="5.70805">
        <ele>613.1</ele>
        <time>2022-06-08T07:52:26Z</time>
      </trkpt>
      <trkpt lat="46.43946" lon="5.7081">
        <ele>612.7</ele>
        <time>2022-06-08T07:52:32Z</time>
      </trkpt>
      <trkpt lat="46.43948" lon="5.70817">
        <ele>612.4</ele>
        <time>2022-06-08T07:52:37Z</time>
      </trkpt>
      <trkpt lat="46.4395" lon="5.70823">
        <ele>612.2</ele>
        <time>2022-06-08T07:52:43Z</time>
      </trkpt>
      <trkpt lat="46.43955" lon="5.70825">
        <ele>611.9</ele>
        <time>2022-06-08T07:52:50Z</time>
      </trkpt>
      <trkpt lat="46.4396" lon="5.70831">
        <ele>611.7</ele>
        <time>2022-06-08T07:52:55Z</time>
      </trkpt>
      <trkpt lat="46.43964" lon="5.70836">
        <ele>611.6</ele>
        <time>2022-06-08T07:52:58Z</time>
      </trkpt>
      <trkpt lat="46.43969" lon="5.70839">
        <ele>611.7</ele>
        <time>2022-06-08T07:53:02Z</time>
      </trkpt>
      <trkpt lat="46.43974" lon="5.70838">
        <ele>612</ele>
        <time>2022-06-08T07:53:07Z</time>
      </trkpt>
      <trkpt lat="46.43977" lon="5.70833">
        <ele>612.6</ele>
        <time>2022-06-08T07:53:14Z</time>
      </trkpt>
      <trkpt lat="46.4398" lon="5.70828">
        <ele>612.7</ele>
        <time>2022-06-08T07:53:22Z</time>
      </trkpt>
      <trkpt lat="46.43983" lon="5.70823">
        <ele>612.6</ele>
        <time>2022-06-08T07:53:28Z</time>
      </trkpt>
      <trkpt lat="46.43988" lon="5.70821">
        <ele>612.5</ele>
        <time>2022-06-08T07:53:35Z</time>
      </trkpt>
      <trkpt lat="46.43993" lon="5.7082">
        <ele>612.4</ele>
        <time>2022-06-08T07:53:43Z</time>
      </trkpt>
      <trkpt lat="46.43996" lon="5.70814">
        <ele>612.2</ele>
        <time>2022-06-08T07:53:49Z</time>
      </trkpt>
      <trkpt lat="46.43999" lon="5.70809">
        <ele>612.1</ele>
        <time>2022-06-08T07:53:54Z</time>
      </trkpt>
      <trkpt lat="46.44002" lon="5.70804">
        <ele>612.3</ele>
        <time>2022-06-08T07:53:59Z</time>
      </trkpt>
      <trkpt lat="46.44004" lon="5.70797">
        <ele>612.8</ele>
        <time>2022-06-08T07:54:06Z</time>
      </trkpt>
      <trkpt lat="46.44006" lon="5.70791">
        <ele>613.8</ele>
        <time>2022-06-08T07:54:17Z</time>
      </trkpt>
      <trkpt lat="46.4401" lon="5.70787">
        <ele>613.6</ele>
        <time>2022-06-08T07:54:22Z</time>
      </trkpt>
      <trkpt lat="46.44016" lon="5.70785">
        <ele>613.1</ele>
        <time>2022-06-08T07:54:27Z</time>
      </trkpt>
      <trkpt lat="46.4402" lon="5.70787">
        <ele>612.2</ele>
        <time>2022-06-08T07:54:32Z</time>
      </trkpt>
      <trkpt lat="46.44025" lon="5.70789">
        <ele>610</ele>
        <time>2022-06-08T07:54:41Z</time>
      </trkpt>
      <trkpt lat="46.4403" lon="5.70788">
        <ele>608.9</ele>
        <time>2022-06-08T07:54:48Z</time>
      </trkpt>
      <trkpt lat="46.44034" lon="5.70784">
        <ele>608.2</ele>
        <time>2022-06-08T07:54:55Z</time>
      </trkpt>
      <trkpt lat="46.44037" lon="5.70778">
        <ele>607.9</ele>
        <time>2022-06-08T07:55:09Z</time>
      </trkpt>
      <trkpt lat="46.44039" lon="5.70772">
        <ele>607.6</ele>
        <time>2022-06-08T07:55:14Z</time>
      </trkpt>
      <trkpt lat="46.44038" lon="5.70765">
        <ele>606.3</ele>
        <time>2022-06-08T07:55:25Z</time>
      </trkpt>
      <trkpt lat="46.44041" lon="5.7076">
        <ele>604.7</ele>
        <time>2022-06-08T07:55:33Z</time>
      </trkpt>
      <trkpt lat="46.44043" lon="5.70754">
        <ele>604.5</ele>
        <time>2022-06-08T07:55:38Z</time>
      </trkpt>
      <trkpt lat="46.44048" lon="5.7075">
        <ele>604.6</ele>
        <time>2022-06-08T07:55:44Z</time>
      </trkpt>
      <trkpt lat="46.44052" lon="5.70746">
        <ele>604.7</ele>
        <time>2022-06-08T07:55:52Z</time>
      </trkpt>
      <trkpt lat="46.44056" lon="5.70745">
        <ele>604.9</ele>
        <time>2022-06-08T07:55:57Z</time>
      </trkpt>
      <trkpt lat="46.44061" lon="5.70746">
        <ele>605.4</ele>
        <time>2022-06-08T07:56:03Z</time>
      </trkpt>
      <trkpt lat="46.44066" lon="5.70746">
        <ele>605.7</ele>
        <time>2022-06-08T07:56:07Z</time>
      </trkpt>
      <trkpt lat="46.44072" lon="5.70746">
        <ele>605.7</ele>
        <time>2022-06-08T07:56:14Z</time>
      </trkpt>
      <trkpt lat="46.44076" lon="5.70749">
        <ele>605.2</ele>
        <time>2022-06-08T07:56:17Z</time>
      </trkpt>
      <trkpt lat="46.4408" lon="5.70753">
        <ele>604.2</ele>
        <time>2022-06-08T07:56:20Z</time>
      </trkpt>
      <trkpt lat="46.44085" lon="5.70755">
        <ele>602.5</ele>
        <time>2022-06-08T07:56:30Z</time>
      </trkpt>
      <trkpt lat="46.44088" lon="5.7075">
        <ele>602.2</ele>
        <time>2022-06-08T07:56:35Z</time>
      </trkpt>
      <trkpt lat="46.44093" lon="5.70751">
        <ele>601.6</ele>
        <time>2022-06-08T07:56:40Z</time>
      </trkpt>
      <trkpt lat="46.44098" lon="5.70753">
        <ele>600.7</ele>
        <time>2022-06-08T07:56:44Z</time>
      </trkpt>
      <trkpt lat="46.44102" lon="5.70756">
        <ele>600.1</ele>
        <time>2022-06-08T07:56:49Z</time>
      </trkpt>
      <trkpt lat="46.44105" lon="5.70762">
        <ele>599.9</ele>
        <time>2022-06-08T07:56:55Z</time>
      </trkpt>
      <trkpt lat="46.44107" lon="5.70768">
        <ele>599.7</ele>
        <time>2022-06-08T07:57:02Z</time>
      </trkpt>
      <trkpt lat="46.44113" lon="5.70769">
        <ele>599.9</ele>
        <time>2022-06-08T07:57:07Z</time>
      </trkpt>
      <trkpt lat="46.44117" lon="5.70767">
        <ele>600.3</ele>
        <time>2022-06-08T07:57:13Z</time>
      </trkpt>
      <trkpt lat="46.44121" lon="5.70761">
        <ele>600.6</ele>
        <time>2022-06-08T07:57:18Z</time>
      </trkpt>
      <trkpt lat="46.44125" lon="5.70757">
        <ele>601.1</ele>
        <time>2022-06-08T07:57:22Z</time>
      </trkpt>
      <trkpt lat="46.4413" lon="5.70754">
        <ele>602.4</ele>
        <time>2022-06-08T07:57:32Z</time>
      </trkpt>
      <trkpt lat="46.44135" lon="5.70753">
        <ele>602.7</ele>
        <time>2022-06-08T07:57:44Z</time>
      </trkpt>
      <trkpt lat="46.44141" lon="5.70756">
        <ele>602.9</ele>
        <time>2022-06-08T07:57:52Z</time>
      </trkpt>
      <trkpt lat="46.44146" lon="5.70759">
        <ele>602.7</ele>
        <time>2022-06-08T07:57:56Z</time>
      </trkpt>
      <trkpt lat="46.44151" lon="5.70759">
        <ele>602.6</ele>
        <time>2022-06-08T07:58:00Z</time>
      </trkpt>
      <trkpt lat="46.44156" lon="5.7076">
        <ele>603</ele>
        <time>2022-06-08T07:58:06Z</time>
      </trkpt>
      <trkpt lat="46.4416" lon="5.70763">
        <ele>604.5</ele>
        <time>2022-06-08T07:58:15Z</time>
      </trkpt>
      <trkpt lat="46.44165" lon="5.70763">
        <ele>605.2</ele>
        <time>2022-06-08T07:58:23Z</time>
      </trkpt>
      <trkpt lat="46.4417" lon="5.70765">
        <ele>605.6</ele>
        <time>2022-06-08T07:58:28Z</time>
      </trkpt>
      <trkpt lat="46.44174" lon="5.7077">
        <ele>605.9</ele>
        <time>2022-06-08T07:58:33Z</time>
      </trkpt>
      <trkpt lat="46.44177" lon="5.70775">
        <ele>605.7</ele>
        <time>2022-06-08T07:58:38Z</time>
      </trkpt>
      <trkpt lat="46.44182" lon="5.70778">
        <ele>605.3</ele>
        <time>2022-06-08T07:58:44Z</time>
      </trkpt>
      <trkpt lat="46.44184" lon="5.70784">
        <ele>604.8</ele>
        <time>2022-06-08T07:58:51Z</time>
      </trkpt>
      <trkpt lat="46.44187" lon="5.7079">
        <ele>603.9</ele>
        <time>2022-06-08T07:58:57Z</time>
      </trkpt>
      <trkpt lat="46.44189" lon="5.70797">
        <ele>601.9</ele>
        <time>2022-06-08T07:59:04Z</time>
      </trkpt>
      <trkpt lat="46.44191" lon="5.70804">
        <ele>599.8</ele>
        <time>2022-06-08T07:59:11Z</time>
      </trkpt>
      <trkpt lat="46.44192" lon="5.7081">
        <ele>597.9</ele>
        <time>2022-06-08T07:59:18Z</time>
      </trkpt>
      <trkpt lat="46.44191" lon="5.70817">
        <ele>596.6</ele>
        <time>2022-06-08T07:59:25Z</time>
      </trkpt>
      <trkpt lat="46.44188" lon="5.70823">
        <ele>596.2</ele>
        <time>2022-06-08T07:59:31Z</time>
      </trkpt>
      <trkpt lat="46.44187" lon="5.70829">
        <ele>595.7</ele>
        <time>2022-06-08T07:59:43Z</time>
      </trkpt>
      <trkpt lat="46.44183" lon="5.70831">
        <ele>596.2</ele>
        <time>2022-06-08T07:59:54Z</time>
      </trkpt>
      <trkpt lat="46.44182" lon="5.70839">
        <ele>597.1</ele>
        <time>2022-06-08T08:00:04Z</time>
      </trkpt>
      <trkpt lat="46.44184" lon="5.70845">
        <ele>597.7</ele>
        <time>2022-06-08T08:00:12Z</time>
      </trkpt>
      <trkpt lat="46.44187" lon="5.7085">
        <ele>598.9</ele>
        <time>2022-06-08T08:00:19Z</time>
      </trkpt>
      <trkpt lat="46.4419" lon="5.70854">
        <ele>599.7</ele>
        <time>2022-06-08T08:00:23Z</time>
      </trkpt>
      <trkpt lat="46.44193" lon="5.70859">
        <ele>600.2</ele>
        <time>2022-06-08T08:00:29Z</time>
      </trkpt>
      <trkpt lat="46.44197" lon="5.70863">
        <ele>600.6</ele>
        <time>2022-06-08T08:00:37Z</time>
      </trkpt>
      <trkpt lat="46.442" lon="5.70869">
        <ele>600.4</ele>
        <time>2022-06-08T08:00:42Z</time>
      </trkpt>
      <trkpt lat="46.44204" lon="5.70875">
        <ele>600.1</ele>
        <time>2022-06-08T08:00:46Z</time>
      </trkpt>
      <trkpt lat="46.44206" lon="5.70881">
        <ele>599.7</ele>
        <time>2022-06-08T08:00:50Z</time>
      </trkpt>
      <trkpt lat="46.44208" lon="5.70887">
        <ele>599</ele>
        <time>2022-06-08T08:00:56Z</time>
      </trkpt>
      <trkpt lat="46.44207" lon="5.70894">
        <ele>598.1</ele>
        <time>2022-06-08T08:01:02Z</time>
      </trkpt>
      <trkpt lat="46.44206" lon="5.70901">
        <ele>597.6</ele>
        <time>2022-06-08T08:01:06Z</time>
      </trkpt>
      <trkpt lat="46.44205" lon="5.70908">
        <ele>597</ele>
        <time>2022-06-08T08:01:12Z</time>
      </trkpt>
      <trkpt lat="46.44203" lon="5.70914">
        <ele>596.9</ele>
        <time>2022-06-08T08:01:16Z</time>
      </trkpt>
      <trkpt lat="46.44202" lon="5.70921">
        <ele>597</ele>
        <time>2022-06-08T08:01:22Z</time>
      </trkpt>
      <trkpt lat="46.44201" lon="5.70927">
        <ele>596.7</ele>
        <time>2022-06-08T08:01:26Z</time>
      </trkpt>
      <trkpt lat="46.44199" lon="5.70934">
        <ele>596.1</ele>
        <time>2022-06-08T08:01:33Z</time>
      </trkpt>
      <trkpt lat="46.44199" lon="5.70941">
        <ele>595.7</ele>
        <time>2022-06-08T08:01:40Z</time>
      </trkpt>
      <trkpt lat="46.44202" lon="5.70948">
        <ele>596.1</ele>
        <time>2022-06-08T08:01:45Z</time>
      </trkpt>
      <trkpt lat="46.44205" lon="5.70954">
        <ele>596.9</ele>
        <time>2022-06-08T08:01:51Z</time>
      </trkpt>
      <trkpt lat="46.44207" lon="5.7096">
        <ele>597.6</ele>
        <time>2022-06-08T08:01:55Z</time>
      </trkpt>
      <trkpt lat="46.44212" lon="5.70963">
        <ele>598.3</ele>
        <time>2022-06-08T08:02:01Z</time>
      </trkpt>
      <trkpt lat="46.44215" lon="5.70968">
        <ele>599.7</ele>
        <time>2022-06-08T08:02:09Z</time>
      </trkpt>
      <trkpt lat="46.44217" lon="5.70975">
        <ele>600.3</ele>
        <time>2022-06-08T08:02:16Z</time>
      </trkpt>
      <trkpt lat="46.4422" lon="5.7098">
        <ele>600.7</ele>
        <time>2022-06-08T08:02:22Z</time>
      </trkpt>
      <trkpt lat="46.44221" lon="5.70988">
        <ele>601.1</ele>
        <time>2022-06-08T08:02:27Z</time>
      </trkpt>
      <trkpt lat="46.44223" lon="5.70994">
        <ele>601.9</ele>
        <time>2022-06-08T08:02:36Z</time>
      </trkpt>
      <trkpt lat="46.44226" lon="5.70999">
        <ele>604.2</ele>
        <time>2022-06-08T08:03:35Z</time>
      </trkpt>
      <trkpt lat="46.44227" lon="5.70993">
        <ele>606.8</ele>
        <time>2022-06-08T08:04:17Z</time>
      </trkpt>
      <trkpt lat="46.44227" lon="5.71">
        <ele>608.8</ele>
        <time>2022-06-08T08:05:31Z</time>
      </trkpt>
      <trkpt lat="46.44232" lon="5.70999">
        <ele>608</ele>
        <time>2022-06-08T08:05:56Z</time>
      </trkpt>
      <trkpt lat="46.44236" lon="5.71002">
        <ele>607.8</ele>
        <time>2022-06-08T08:06:01Z</time>
      </trkpt>
      <trkpt lat="46.44241" lon="5.71004">
        <ele>607.5</ele>
        <time>2022-06-08T08:06:06Z</time>
      </trkpt>
      <trkpt lat="46.44246" lon="5.71006">
        <ele>607.1</ele>
        <time>2022-06-08T08:06:12Z</time>
      </trkpt>
      <trkpt lat="46.4425" lon="5.71007">
        <ele>606.9</ele>
        <time>2022-06-08T08:06:16Z</time>
      </trkpt>
      <trkpt lat="46.44255" lon="5.71007">
        <ele>606.7</ele>
        <time>2022-06-08T08:06:20Z</time>
      </trkpt>
      <trkpt lat="46.4426" lon="5.71005">
        <ele>606.1</ele>
        <time>2022-06-08T08:06:25Z</time>
      </trkpt>
      <trkpt lat="46.44264" lon="5.71005">
        <ele>605.5</ele>
        <time>2022-06-08T08:06:30Z</time>
      </trkpt>
      <trkpt lat="46.4427" lon="5.71007">
        <ele>605.2</ele>
        <time>2022-06-08T08:06:36Z</time>
      </trkpt>
      <trkpt lat="46.44275" lon="5.71006">
        <ele>605</ele>
        <time>2022-06-08T08:06:40Z</time>
      </trkpt>
      <trkpt lat="46.4428" lon="5.71007">
        <ele>604.7</ele>
        <time>2022-06-08T08:06:43Z</time>
      </trkpt>
      <trkpt lat="46.44285" lon="5.71008">
        <ele>604.4</ele>
        <time>2022-06-08T08:06:48Z</time>
      </trkpt>
      <trkpt lat="46.44289" lon="5.7101">
        <ele>604.3</ele>
        <time>2022-06-08T08:06:54Z</time>
      </trkpt>
      <trkpt lat="46.44294" lon="5.71013">
        <ele>603.9</ele>
        <time>2022-06-08T08:07:00Z</time>
      </trkpt>
      <trkpt lat="46.44299" lon="5.71013">
        <ele>603.8</ele>
        <time>2022-06-08T08:07:05Z</time>
      </trkpt>
      <trkpt lat="46.44305" lon="5.71013">
        <ele>603.6</ele>
        <time>2022-06-08T08:07:10Z</time>
      </trkpt>
      <trkpt lat="46.44309" lon="5.71013">
        <ele>603.5</ele>
        <time>2022-06-08T08:07:14Z</time>
      </trkpt>
      <trkpt lat="46.44315" lon="5.71013">
        <ele>603.2</ele>
        <time>2022-06-08T08:07:19Z</time>
      </trkpt>
      <trkpt lat="46.4432" lon="5.71014">
        <ele>603</ele>
        <time>2022-06-08T08:07:23Z</time>
      </trkpt>
      <trkpt lat="46.44325" lon="5.71013">
        <ele>602.9</ele>
        <time>2022-06-08T08:07:27Z</time>
      </trkpt>
      <trkpt lat="46.44329" lon="5.71012">
        <ele>603</ele>
        <time>2022-06-08T08:07:31Z</time>
      </trkpt>
      <trkpt lat="46.44334" lon="5.71011">
        <ele>603</ele>
        <time>2022-06-08T08:07:36Z</time>
      </trkpt>
      <trkpt lat="46.44339" lon="5.7101">
        <ele>602.9</ele>
        <time>2022-06-08T08:07:42Z</time>
      </trkpt>
      <trkpt lat="46.44344" lon="5.71008">
        <ele>603.2</ele>
        <time>2022-06-08T08:07:47Z</time>
      </trkpt>
      <trkpt lat="46.44349" lon="5.71007">
        <ele>603.6</ele>
        <time>2022-06-08T08:07:53Z</time>
      </trkpt>
      <trkpt lat="46.44354" lon="5.71004">
        <ele>604.1</ele>
        <time>2022-06-08T08:07:58Z</time>
      </trkpt>
      <trkpt lat="46.44359" lon="5.71001">
        <ele>604.4</ele>
        <time>2022-06-08T08:08:02Z</time>
      </trkpt>
      <trkpt lat="46.44364" lon="5.70999">
        <ele>605</ele>
        <time>2022-06-08T08:08:07Z</time>
      </trkpt>
      <trkpt lat="46.44369" lon="5.70997">
        <ele>605.5</ele>
        <time>2022-06-08T08:08:11Z</time>
      </trkpt>
      <trkpt lat="46.44374" lon="5.70995">
        <ele>606</ele>
        <time>2022-06-08T08:08:16Z</time>
      </trkpt>
      <trkpt lat="46.44379" lon="5.70993">
        <ele>606.4</ele>
        <time>2022-06-08T08:08:20Z</time>
      </trkpt>
      <trkpt lat="46.44383" lon="5.7099">
        <ele>606.6</ele>
        <time>2022-06-08T08:08:24Z</time>
      </trkpt>
      <trkpt lat="46.44388" lon="5.70987">
        <ele>606.7</ele>
        <time>2022-06-08T08:08:28Z</time>
      </trkpt>
      <trkpt lat="46.44393" lon="5.70985">
        <ele>606.9</ele>
        <time>2022-06-08T08:08:32Z</time>
      </trkpt>
      <trkpt lat="46.44398" lon="5.70983">
        <ele>607.1</ele>
        <time>2022-06-08T08:08:36Z</time>
      </trkpt>
      <trkpt lat="46.44404" lon="5.7098">
        <ele>607.2</ele>
        <time>2022-06-08T08:08:40Z</time>
      </trkpt>
      <trkpt lat="46.44408" lon="5.70978">
        <ele>607.3</ele>
        <time>2022-06-08T08:08:44Z</time>
      </trkpt>
      <trkpt lat="46.44413" lon="5.70977">
        <ele>607.6</ele>
        <time>2022-06-08T08:08:49Z</time>
      </trkpt>
      <trkpt lat="46.44418" lon="5.70974">
        <ele>608</ele>
        <time>2022-06-08T08:08:54Z</time>
      </trkpt>
      <trkpt lat="46.44423" lon="5.70973">
        <ele>608.3</ele>
        <time>2022-06-08T08:08:57Z</time>
      </trkpt>
      <trkpt lat="46.44428" lon="5.7097">
        <ele>608.4</ele>
        <time>2022-06-08T08:09:00Z</time>
      </trkpt>
      <trkpt lat="46.44432" lon="5.70967">
        <ele>608.2</ele>
        <time>2022-06-08T08:09:04Z</time>
      </trkpt>
      <trkpt lat="46.44437" lon="5.70964">
        <ele>607.9</ele>
        <time>2022-06-08T08:09:09Z</time>
      </trkpt>
      <trkpt lat="46.44442" lon="5.70962">
        <ele>607.3</ele>
        <time>2022-06-08T08:09:15Z</time>
      </trkpt>
      <trkpt lat="46.44448" lon="5.70961">
        <ele>607</ele>
        <time>2022-06-08T08:09:19Z</time>
      </trkpt>
      <trkpt lat="46.44452" lon="5.70959">
        <ele>606.8</ele>
        <time>2022-06-08T08:09:23Z</time>
      </trkpt>
      <trkpt lat="46.44457" lon="5.70958">
        <ele>606.7</ele>
        <time>2022-06-08T08:09:28Z</time>
      </trkpt>
      <trkpt lat="46.44462" lon="5.70957">
        <ele>605.6</ele>
        <time>2022-06-08T08:09:35Z</time>
      </trkpt>
      <trkpt lat="46.44466" lon="5.70955">
        <ele>605.4</ele>
        <time>2022-06-08T08:09:40Z</time>
      </trkpt>
      <trkpt lat="46.44471" lon="5.70954">
        <ele>606</ele>
        <time>2022-06-08T08:09:46Z</time>
      </trkpt>
      <trkpt lat="46.44476" lon="5.70952">
        <ele>607.5</ele>
        <time>2022-06-08T08:09:52Z</time>
      </trkpt>
      <trkpt lat="46.44481" lon="5.7095">
        <ele>608.2</ele>
        <time>2022-06-08T08:09:56Z</time>
      </trkpt>
      <trkpt lat="46.44486" lon="5.70949">
        <ele>608.5</ele>
        <time>2022-06-08T08:10:01Z</time>
      </trkpt>
      <trkpt lat="46.44491" lon="5.70949">
        <ele>608.4</ele>
        <time>2022-06-08T08:10:07Z</time>
      </trkpt>
      <trkpt lat="46.44496" lon="5.70949">
        <ele>607.9</ele>
        <time>2022-06-08T08:10:13Z</time>
      </trkpt>
      <trkpt lat="46.44501" lon="5.70948">
        <ele>607.6</ele>
        <time>2022-06-08T08:10:26Z</time>
      </trkpt>
      <trkpt lat="46.44506" lon="5.70948">
        <ele>608.1</ele>
        <time>2022-06-08T08:10:41Z</time>
      </trkpt>
      <trkpt lat="46.44511" lon="5.70945">
        <ele>608.1</ele>
        <time>2022-06-08T08:10:46Z</time>
      </trkpt>
      <trkpt lat="46.44513" lon="5.70939">
        <ele>607.7</ele>
        <time>2022-06-08T08:10:51Z</time>
      </trkpt>
      <trkpt lat="46.44517" lon="5.70934">
        <ele>606.8</ele>
        <time>2022-06-08T08:10:58Z</time>
      </trkpt>
      <trkpt lat="46.44521" lon="5.70929">
        <ele>606.6</ele>
        <time>2022-06-08T08:11:03Z</time>
      </trkpt>
      <trkpt lat="46.44524" lon="5.70924">
        <ele>606.9</ele>
        <time>2022-06-08T08:11:07Z</time>
      </trkpt>
      <trkpt lat="46.44527" lon="5.70918">
        <ele>607.9</ele>
        <time>2022-06-08T08:11:13Z</time>
      </trkpt>
      <trkpt lat="46.44528" lon="5.70911">
        <ele>608.7</ele>
        <time>2022-06-08T08:11:18Z</time>
      </trkpt>
      <trkpt lat="46.4453" lon="5.70905">
        <ele>609.4</ele>
        <time>2022-06-08T08:11:23Z</time>
      </trkpt>
      <trkpt lat="46.44532" lon="5.70899">
        <ele>610</ele>
        <time>2022-06-08T08:11:28Z</time>
      </trkpt>
      <trkpt lat="46.44533" lon="5.70892">
        <ele>610.6</ele>
        <time>2022-06-08T08:11:34Z</time>
      </trkpt>
      <trkpt lat="46.44533" lon="5.70885">
        <ele>611.3</ele>
        <time>2022-06-08T08:11:41Z</time>
      </trkpt>
      <trkpt lat="46.44534" lon="5.70878">
        <ele>612.5</ele>
        <time>2022-06-08T08:11:49Z</time>
      </trkpt>
      <trkpt lat="46.44533" lon="5.70872">
        <ele>614.2</ele>
        <time>2022-06-08T08:12:01Z</time>
      </trkpt>
      <trkpt lat="46.44528" lon="5.7087">
        <ele>615.6</ele>
        <time>2022-06-08T08:12:11Z</time>
      </trkpt>
      <trkpt lat="46.44524" lon="5.70874">
        <ele>613.1</ele>
        <time>2022-06-08T08:14:27Z</time>
      </trkpt>
      <trkpt lat="46.44528" lon="5.7087">
        <ele>609.2</ele>
        <time>2022-06-08T08:14:34Z</time>
      </trkpt>
      <trkpt lat="46.4453" lon="5.70864">
        <ele>608.2</ele>
        <time>2022-06-08T08:14:38Z</time>
      </trkpt>
      <trkpt lat="46.44532" lon="5.70858">
        <ele>607.8</ele>
        <time>2022-06-08T08:14:42Z</time>
      </trkpt>
      <trkpt lat="46.44532" lon="5.7085">
        <ele>607.8</ele>
        <time>2022-06-08T08:14:47Z</time>
      </trkpt>
      <trkpt lat="46.44532" lon="5.70843">
        <ele>608</ele>
        <time>2022-06-08T08:14:51Z</time>
      </trkpt>
      <trkpt lat="46.44531" lon="5.70836">
        <ele>608.5</ele>
        <time>2022-06-08T08:14:56Z</time>
      </trkpt>
      <trkpt lat="46.44529" lon="5.7083">
        <ele>609.1</ele>
        <time>2022-06-08T08:15:01Z</time>
      </trkpt>
      <trkpt lat="46.44527" lon="5.70823">
        <ele>609.6</ele>
        <time>2022-06-08T08:15:06Z</time>
      </trkpt>
      <trkpt lat="46.44524" lon="5.70818">
        <ele>610.9</ele>
        <time>2022-06-08T08:15:16Z</time>
      </trkpt>
      <trkpt lat="46.44527" lon="5.70812">
        <ele>611.2</ele>
        <time>2022-06-08T08:15:56Z</time>
      </trkpt>
      <trkpt lat="46.44531" lon="5.70814">
        <ele>615</ele>
        <time>2022-06-08T08:20:13Z</time>
      </trkpt>
      <trkpt lat="46.44535" lon="5.70818">
        <ele>614.6</ele>
        <time>2022-06-08T08:20:19Z</time>
      </trkpt>
      <trkpt lat="46.44539" lon="5.70822">
        <ele>613.2</ele>
        <time>2022-06-08T08:20:27Z</time>
      </trkpt>
      <trkpt lat="46.44544" lon="5.70824">
        <ele>611.6</ele>
        <time>2022-06-08T08:20:34Z</time>
      </trkpt>
      <trkpt lat="46.44549" lon="5.70825">
        <ele>611.3</ele>
        <time>2022-06-08T08:20:40Z</time>
      </trkpt>
      <trkpt lat="46.44554" lon="5.70826">
        <ele>611.6</ele>
        <time>2022-06-08T08:20:46Z</time>
      </trkpt>
      <trkpt lat="46.44558" lon="5.70824">
        <ele>611.9</ele>
        <time>2022-06-08T08:20:54Z</time>
      </trkpt>
      <trkpt lat="46.44563" lon="5.70822">
        <ele>611.4</ele>
        <time>2022-06-08T08:21:07Z</time>
      </trkpt>
      <trkpt lat="46.44566" lon="5.70828">
        <ele>611.5</ele>
        <time>2022-06-08T08:21:13Z</time>
      </trkpt>
      <trkpt lat="46.44569" lon="5.70832">
        <ele>611.7</ele>
        <time>2022-06-08T08:21:18Z</time>
      </trkpt>
      <trkpt lat="46.44573" lon="5.70836">
        <ele>611.5</ele>
        <time>2022-06-08T08:21:22Z</time>
      </trkpt>
      <trkpt lat="46.44577" lon="5.70839">
        <ele>611.1</ele>
        <time>2022-06-08T08:21:26Z</time>
      </trkpt>
      <trkpt lat="46.44582" lon="5.70842">
        <ele>609.6</ele>
        <time>2022-06-08T08:21:34Z</time>
      </trkpt>
      <trkpt lat="46.44588" lon="5.70844">
        <ele>609.3</ele>
        <time>2022-06-08T08:21:39Z</time>
      </trkpt>
      <trkpt lat="46.44593" lon="5.70845">
        <ele>609.5</ele>
        <time>2022-06-08T08:21:43Z</time>
      </trkpt>
      <trkpt lat="46.44597" lon="5.70846">
        <ele>609.9</ele>
        <time>2022-06-08T08:21:47Z</time>
      </trkpt>
      <trkpt lat="46.44602" lon="5.70848">
        <ele>610.7</ele>
        <time>2022-06-08T08:21:52Z</time>
      </trkpt>
      <trkpt lat="46.44608" lon="5.70848">
        <ele>611.3</ele>
        <time>2022-06-08T08:21:57Z</time>
      </trkpt>
      <trkpt lat="46.44613" lon="5.70847">
        <ele>611.8</ele>
        <time>2022-06-08T08:22:01Z</time>
      </trkpt>
      <trkpt lat="46.44617" lon="5.70844">
        <ele>611.8</ele>
        <time>2022-06-08T08:22:04Z</time>
      </trkpt>
      <trkpt lat="46.44621" lon="5.70841">
        <ele>611.9</ele>
        <time>2022-06-08T08:22:08Z</time>
      </trkpt>
      <trkpt lat="46.44625" lon="5.70837">
        <ele>612.7</ele>
        <time>2022-06-08T08:22:14Z</time>
      </trkpt>
      <trkpt lat="46.4463" lon="5.70835">
        <ele>612.8</ele>
        <time>2022-06-08T08:22:25Z</time>
      </trkpt>
      <trkpt lat="46.44634" lon="5.7083">
        <ele>611.6</ele>
        <time>2022-06-08T08:22:34Z</time>
      </trkpt>
      <trkpt lat="46.44638" lon="5.70825">
        <ele>611.3</ele>
        <time>2022-06-08T08:22:40Z</time>
      </trkpt>
      <trkpt lat="46.44643" lon="5.70823">
        <ele>610.7</ele>
        <time>2022-06-08T08:22:46Z</time>
      </trkpt>
      <trkpt lat="46.44647" lon="5.70821">
        <ele>609.5</ele>
        <time>2022-06-08T08:22:53Z</time>
      </trkpt>
      <trkpt lat="46.44651" lon="5.70816">
        <ele>608.8</ele>
        <time>2022-06-08T08:22:57Z</time>
      </trkpt>
      <trkpt lat="46.44656" lon="5.70816">
        <ele>607.6</ele>
        <time>2022-06-08T08:23:05Z</time>
      </trkpt>
      <trkpt lat="46.44661" lon="5.70814">
        <ele>607.1</ele>
        <time>2022-06-08T08:23:09Z</time>
      </trkpt>
      <trkpt lat="46.44666" lon="5.70816">
        <ele>606.4</ele>
        <time>2022-06-08T08:23:13Z</time>
      </trkpt>
      <trkpt lat="46.44669" lon="5.70822">
        <ele>605.8</ele>
        <time>2022-06-08T08:23:19Z</time>
      </trkpt>
      <trkpt lat="46.44672" lon="5.70827">
        <ele>605</ele>
        <time>2022-06-08T08:23:27Z</time>
      </trkpt>
      <trkpt lat="46.44674" lon="5.70833">
        <ele>604.6</ele>
        <time>2022-06-08T08:23:33Z</time>
      </trkpt>
      <trkpt lat="46.44676" lon="5.70841">
        <ele>604.3</ele>
        <time>2022-06-08T08:23:37Z</time>
      </trkpt>
      <trkpt lat="46.44678" lon="5.70848">
        <ele>604.2</ele>
        <time>2022-06-08T08:23:40Z</time>
      </trkpt>
      <trkpt lat="46.44681" lon="5.70854">
        <ele>603.9</ele>
        <time>2022-06-08T08:23:45Z</time>
      </trkpt>
      <trkpt lat="46.44684" lon="5.7086">
        <ele>603.8</ele>
        <time>2022-06-08T08:23:54Z</time>
      </trkpt>
      <trkpt lat="46.44689" lon="5.70862">
        <ele>604.4</ele>
        <time>2022-06-08T08:24:00Z</time>
      </trkpt>
      <trkpt lat="46.44692" lon="5.70868">
        <ele>605</ele>
        <time>2022-06-08T08:24:06Z</time>
      </trkpt>
      <trkpt lat="46.44693" lon="5.70876">
        <ele>605.1</ele>
        <time>2022-06-08T08:24:11Z</time>
      </trkpt>
      <trkpt lat="46.44692" lon="5.70884">
        <ele>605.2</ele>
        <time>2022-06-08T08:24:16Z</time>
      </trkpt>
      <trkpt lat="46.44695" lon="5.70891">
        <ele>606.3</ele>
        <time>2022-06-08T08:24:24Z</time>
      </trkpt>
      <trkpt lat="46.44696" lon="5.70898">
        <ele>606.8</ele>
        <time>2022-06-08T08:24:30Z</time>
      </trkpt>
      <trkpt lat="46.44698" lon="5.70905">
        <ele>607.1</ele>
        <time>2022-06-08T08:24:36Z</time>
      </trkpt>
      <trkpt lat="46.44701" lon="5.70911">
        <ele>607.3</ele>
        <time>2022-06-08T08:24:41Z</time>
      </trkpt>
      <trkpt lat="46.44705" lon="5.70916">
        <ele>607.5</ele>
        <time>2022-06-08T08:24:45Z</time>
      </trkpt>
      <trkpt lat="46.4471" lon="5.70919">
        <ele>607.7</ele>
        <time>2022-06-08T08:24:48Z</time>
      </trkpt>
      <trkpt lat="46.44714" lon="5.70921">
        <ele>607.7</ele>
        <time>2022-06-08T08:24:51Z</time>
      </trkpt>
      <trkpt lat="46.44719" lon="5.70923">
        <ele>607.8</ele>
        <time>2022-06-08T08:24:56Z</time>
      </trkpt>
      <trkpt lat="46.44724" lon="5.70922">
        <ele>607.3</ele>
        <time>2022-06-08T08:25:03Z</time>
      </trkpt>
      <trkpt lat="46.44728" lon="5.70919">
        <ele>606.4</ele>
        <time>2022-06-08T08:25:10Z</time>
      </trkpt>
      <trkpt lat="46.44733" lon="5.70918">
        <ele>605.5</ele>
        <time>2022-06-08T08:25:19Z</time>
      </trkpt>
      <trkpt lat="46.44738" lon="5.70917">
        <ele>605.6</ele>
        <time>2022-06-08T08:25:25Z</time>
      </trkpt>
      <trkpt lat="46.44742" lon="5.70914">
        <ele>606.5</ele>
        <time>2022-06-08T08:25:35Z</time>
      </trkpt>
      <trkpt lat="46.44746" lon="5.70908">
        <ele>607.3</ele>
        <time>2022-06-08T08:25:44Z</time>
      </trkpt>
      <trkpt lat="46.4475" lon="5.70906">
        <ele>608</ele>
        <time>2022-06-08T08:25:50Z</time>
      </trkpt>
      <trkpt lat="46.44755" lon="5.70905">
        <ele>608.6</ele>
        <time>2022-06-08T08:25:54Z</time>
      </trkpt>
      <trkpt lat="46.44758" lon="5.7091">
        <ele>610.1</ele>
        <time>2022-06-08T08:26:05Z</time>
      </trkpt>
      <trkpt lat="46.44761" lon="5.70915">
        <ele>610.4</ele>
        <time>2022-06-08T08:26:09Z</time>
      </trkpt>
      <trkpt lat="46.44765" lon="5.70919">
        <ele>610.7</ele>
        <time>2022-06-08T08:26:13Z</time>
      </trkpt>
      <trkpt lat="46.4477" lon="5.70919">
        <ele>610.9</ele>
        <time>2022-06-08T08:26:17Z</time>
      </trkpt>
      <trkpt lat="46.44775" lon="5.70918">
        <ele>610.6</ele>
        <time>2022-06-08T08:26:21Z</time>
      </trkpt>
      <trkpt lat="46.44779" lon="5.70919">
        <ele>610.1</ele>
        <time>2022-06-08T08:26:26Z</time>
      </trkpt>
      <trkpt lat="46.44784" lon="5.7092">
        <ele>609.8</ele>
        <time>2022-06-08T08:26:32Z</time>
      </trkpt>
      <trkpt lat="46.44789" lon="5.70921">
        <ele>609.8</ele>
        <time>2022-06-08T08:26:35Z</time>
      </trkpt>
      <trkpt lat="46.44794" lon="5.70922">
        <ele>609.9</ele>
        <time>2022-06-08T08:26:39Z</time>
      </trkpt>
      <trkpt lat="46.44798" lon="5.70925">
        <ele>609</ele>
        <time>2022-06-08T08:26:47Z</time>
      </trkpt>
      <trkpt lat="46.44804" lon="5.70928">
        <ele>607.6</ele>
        <time>2022-06-08T08:26:53Z</time>
      </trkpt>
      <trkpt lat="46.44808" lon="5.7093">
        <ele>606.9</ele>
        <time>2022-06-08T08:26:57Z</time>
      </trkpt>
      <trkpt lat="46.44814" lon="5.70931">
        <ele>606.7</ele>
        <time>2022-06-08T08:27:00Z</time>
      </trkpt>
      <trkpt lat="46.44818" lon="5.70929">
        <ele>606.5</ele>
        <time>2022-06-08T08:27:03Z</time>
      </trkpt>
      <trkpt lat="46.44823" lon="5.70929">
        <ele>606.3</ele>
        <time>2022-06-08T08:27:08Z</time>
      </trkpt>
      <trkpt lat="46.44827" lon="5.70934">
        <ele>605.6</ele>
        <time>2022-06-08T08:27:14Z</time>
      </trkpt>
      <trkpt lat="46.44831" lon="5.70939">
        <ele>605.2</ele>
        <time>2022-06-08T08:27:18Z</time>
      </trkpt>
      <trkpt lat="46.44834" lon="5.70944">
        <ele>604.9</ele>
        <time>2022-06-08T08:27:23Z</time>
      </trkpt>
      <trkpt lat="46.44838" lon="5.70949">
        <ele>605</ele>
        <time>2022-06-08T08:27:28Z</time>
      </trkpt>
      <trkpt lat="46.44842" lon="5.70953">
        <ele>604.9</ele>
        <time>2022-06-08T08:27:33Z</time>
      </trkpt>
      <trkpt lat="46.44847" lon="5.70954">
        <ele>604.9</ele>
        <time>2022-06-08T08:27:38Z</time>
      </trkpt>
      <trkpt lat="46.44851" lon="5.70956">
        <ele>605</ele>
        <time>2022-06-08T08:27:42Z</time>
      </trkpt>
      <trkpt lat="46.44856" lon="5.70961">
        <ele>605.2</ele>
        <time>2022-06-08T08:27:46Z</time>
      </trkpt>
      <trkpt lat="46.44861" lon="5.70966">
        <ele>605.6</ele>
        <time>2022-06-08T08:27:51Z</time>
      </trkpt>
      <trkpt lat="46.44865" lon="5.70971">
        <ele>606.1</ele>
        <time>2022-06-08T08:27:55Z</time>
      </trkpt>
      <trkpt lat="46.44867" lon="5.70977">
        <ele>606.4</ele>
        <time>2022-06-08T08:28:00Z</time>
      </trkpt>
      <trkpt lat="46.4487" lon="5.70983">
        <ele>606.6</ele>
        <time>2022-06-08T08:28:06Z</time>
      </trkpt>
      <trkpt lat="46.44872" lon="5.70989">
        <ele>607.1</ele>
        <time>2022-06-08T08:28:12Z</time>
      </trkpt>
      <trkpt lat="46.44874" lon="5.70996">
        <ele>607.3</ele>
        <time>2022-06-08T08:28:17Z</time>
      </trkpt>
      <trkpt lat="46.44879" lon="5.71001">
        <ele>607.2</ele>
        <time>2022-06-08T08:28:21Z</time>
      </trkpt>
      <trkpt lat="46.44883" lon="5.71002">
        <ele>607.1</ele>
        <time>2022-06-08T08:28:24Z</time>
      </trkpt>
      <trkpt lat="46.44888" lon="5.71001">
        <ele>607.2</ele>
        <time>2022-06-08T08:28:32Z</time>
      </trkpt>
      <trkpt lat="46.44892" lon="5.70998">
        <ele>607.3</ele>
        <time>2022-06-08T08:28:40Z</time>
      </trkpt>
      <trkpt lat="46.44897" lon="5.71001">
        <ele>607.3</ele>
        <time>2022-06-08T08:28:49Z</time>
      </trkpt>
      <trkpt lat="46.449" lon="5.71005">
        <ele>607.3</ele>
        <time>2022-06-08T08:28:55Z</time>
      </trkpt>
      <trkpt lat="46.44901" lon="5.71012">
        <ele>607</ele>
        <time>2022-06-08T08:29:02Z</time>
      </trkpt>
      <trkpt lat="46.44904" lon="5.71018">
        <ele>606.1</ele>
        <time>2022-06-08T08:29:13Z</time>
      </trkpt>
      <trkpt lat="46.44906" lon="5.71024">
        <ele>606</ele>
        <time>2022-06-08T08:29:19Z</time>
      </trkpt>
      <trkpt lat="46.44909" lon="5.71029">
        <ele>606.2</ele>
        <time>2022-06-08T08:29:26Z</time>
      </trkpt>
      <trkpt lat="46.44914" lon="5.71032">
        <ele>606.6</ele>
        <time>2022-06-08T08:29:32Z</time>
      </trkpt>
      <trkpt lat="46.44918" lon="5.71036">
        <ele>606.8</ele>
        <time>2022-06-08T08:29:37Z</time>
      </trkpt>
      <trkpt lat="46.44923" lon="5.71038">
        <ele>606.8</ele>
        <time>2022-06-08T08:29:41Z</time>
      </trkpt>
      <trkpt lat="46.44928" lon="5.71036">
        <ele>606.8</ele>
        <time>2022-06-08T08:29:48Z</time>
      </trkpt>
      <trkpt lat="46.44932" lon="5.71039">
        <ele>606.6</ele>
        <time>2022-06-08T08:29:53Z</time>
      </trkpt>
      <trkpt lat="46.44937" lon="5.71039">
        <ele>606.3</ele>
        <time>2022-06-08T08:29:59Z</time>
      </trkpt>
      <trkpt lat="46.44941" lon="5.71034">
        <ele>605.8</ele>
        <time>2022-06-08T08:30:04Z</time>
      </trkpt>
      <trkpt lat="46.44946" lon="5.71032">
        <ele>604.8</ele>
        <time>2022-06-08T08:30:09Z</time>
      </trkpt>
      <trkpt lat="46.44951" lon="5.71031">
        <ele>603.5</ele>
        <time>2022-06-08T08:30:15Z</time>
      </trkpt>
      <trkpt lat="46.44956" lon="5.71032">
        <ele>603.1</ele>
        <time>2022-06-08T08:30:19Z</time>
      </trkpt>
      <trkpt lat="46.44961" lon="5.71036">
        <ele>603.3</ele>
        <time>2022-06-08T08:30:23Z</time>
      </trkpt>
      <trkpt lat="46.44966" lon="5.71039">
        <ele>603.5</ele>
        <time>2022-06-08T08:30:27Z</time>
      </trkpt>
      <trkpt lat="46.4497" lon="5.71038">
        <ele>603</ele>
        <time>2022-06-08T08:30:32Z</time>
      </trkpt>
      <trkpt lat="46.44974" lon="5.71041">
        <ele>602.4</ele>
        <time>2022-06-08T08:30:36Z</time>
      </trkpt>
      <trkpt lat="46.44979" lon="5.71046">
        <ele>601.5</ele>
        <time>2022-06-08T08:30:40Z</time>
      </trkpt>
      <trkpt lat="46.44984" lon="5.7105">
        <ele>600.2</ele>
        <time>2022-06-08T08:30:45Z</time>
      </trkpt>
      <trkpt lat="46.44989" lon="5.71051">
        <ele>598.6</ele>
        <time>2022-06-08T08:30:48Z</time>
      </trkpt>
      <trkpt lat="46.44993" lon="5.71054">
        <ele>595.7</ele>
        <time>2022-06-08T08:30:53Z</time>
      </trkpt>
      <trkpt lat="46.44997" lon="5.71057">
        <ele>591.8</ele>
        <time>2022-06-08T08:31:02Z</time>
      </trkpt>
      <trkpt lat="46.45002" lon="5.71059">
        <ele>590.7</ele>
        <time>2022-06-08T08:31:08Z</time>
      </trkpt>
      <trkpt lat="46.45007" lon="5.71059">
        <ele>590.4</ele>
        <time>2022-06-08T08:31:12Z</time>
      </trkpt>
      <trkpt lat="46.45011" lon="5.71062">
        <ele>590.3</ele>
        <time>2022-06-08T08:31:21Z</time>
      </trkpt>
      <trkpt lat="46.45014" lon="5.71067">
        <ele>590.6</ele>
        <time>2022-06-08T08:31:29Z</time>
      </trkpt>
      <trkpt lat="46.45018" lon="5.71072">
        <ele>591.2</ele>
        <time>2022-06-08T08:31:36Z</time>
      </trkpt>
      <trkpt lat="46.45021" lon="5.71077">
        <ele>591.5</ele>
        <time>2022-06-08T08:31:40Z</time>
      </trkpt>
      <trkpt lat="46.45026" lon="5.7108">
        <ele>591.8</ele>
        <time>2022-06-08T08:31:44Z</time>
      </trkpt>
      <trkpt lat="46.45032" lon="5.71079">
        <ele>591.9</ele>
        <time>2022-06-08T08:31:48Z</time>
      </trkpt>
      <trkpt lat="46.45037" lon="5.7108">
        <ele>591.9</ele>
        <time>2022-06-08T08:31:53Z</time>
      </trkpt>
      <trkpt lat="46.45041" lon="5.71086">
        <ele>592.3</ele>
        <time>2022-06-08T08:31:59Z</time>
      </trkpt>
      <trkpt lat="46.45045" lon="5.71089">
        <ele>592.4</ele>
        <time>2022-06-08T08:32:02Z</time>
      </trkpt>
      <trkpt lat="46.4505" lon="5.71091">
        <ele>592.6</ele>
        <time>2022-06-08T08:32:05Z</time>
      </trkpt>
      <trkpt lat="46.45053" lon="5.71086">
        <ele>592.9</ele>
        <time>2022-06-08T08:32:08Z</time>
      </trkpt>
      <trkpt lat="46.45058" lon="5.71082">
        <ele>593.4</ele>
        <time>2022-06-08T08:32:12Z</time>
      </trkpt>
      <trkpt lat="46.45062" lon="5.7108">
        <ele>594.5</ele>
        <time>2022-06-08T08:32:17Z</time>
      </trkpt>
      <trkpt lat="46.45067" lon="5.71082">
        <ele>595.7</ele>
        <time>2022-06-08T08:32:22Z</time>
      </trkpt>
      <trkpt lat="46.45071" lon="5.71083">
        <ele>597.2</ele>
        <time>2022-06-08T08:32:26Z</time>
      </trkpt>
      <trkpt lat="46.45076" lon="5.71087">
        <ele>598.9</ele>
        <time>2022-06-08T08:32:30Z</time>
      </trkpt>
      <trkpt lat="46.4508" lon="5.71091">
        <ele>600.5</ele>
        <time>2022-06-08T08:32:34Z</time>
      </trkpt>
      <trkpt lat="46.45085" lon="5.71094">
        <ele>601.6</ele>
        <time>2022-06-08T08:32:38Z</time>
      </trkpt>
      <trkpt lat="46.45088" lon="5.71099">
        <ele>602.3</ele>
        <time>2022-06-08T08:32:43Z</time>
      </trkpt>
      <trkpt lat="46.45092" lon="5.71106">
        <ele>602.5</ele>
        <time>2022-06-08T08:32:49Z</time>
      </trkpt>
      <trkpt lat="46.45095" lon="5.71111">
        <ele>602.4</ele>
        <time>2022-06-08T08:32:53Z</time>
      </trkpt>
      <trkpt lat="46.451" lon="5.71113">
        <ele>601.7</ele>
        <time>2022-06-08T08:32:57Z</time>
      </trkpt>
      <trkpt lat="46.45105" lon="5.71116">
        <ele>600.7</ele>
        <time>2022-06-08T08:33:01Z</time>
      </trkpt>
      <trkpt lat="46.45109" lon="5.7112">
        <ele>600.2</ele>
        <time>2022-06-08T08:33:05Z</time>
      </trkpt>
      <trkpt lat="46.45114" lon="5.71123">
        <ele>600.3</ele>
        <time>2022-06-08T08:33:10Z</time>
      </trkpt>
      <trkpt lat="46.45119" lon="5.71127">
        <ele>600.4</ele>
        <time>2022-06-08T08:33:19Z</time>
      </trkpt>
      <trkpt lat="46.45123" lon="5.71132">
        <ele>599.9</ele>
        <time>2022-06-08T08:33:24Z</time>
      </trkpt>
      <trkpt lat="46.45126" lon="5.71136">
        <ele>599.4</ele>
        <time>2022-06-08T08:33:31Z</time>
      </trkpt>
      <trkpt lat="46.4513" lon="5.71142">
        <ele>599.4</ele>
        <time>2022-06-08T08:33:37Z</time>
      </trkpt>
      <trkpt lat="46.45132" lon="5.71148">
        <ele>599.6</ele>
        <time>2022-06-08T08:33:42Z</time>
      </trkpt>
      <trkpt lat="46.45135" lon="5.71155">
        <ele>599.5</ele>
        <time>2022-06-08T08:33:47Z</time>
      </trkpt>
      <trkpt lat="46.45138" lon="5.71159">
        <ele>599.9</ele>
        <time>2022-06-08T08:33:51Z</time>
      </trkpt>
      <trkpt lat="46.45142" lon="5.71164">
        <ele>600.8</ele>
        <time>2022-06-08T08:33:56Z</time>
      </trkpt>
      <trkpt lat="46.45146" lon="5.71167">
        <ele>600.5</ele>
        <time>2022-06-08T08:34:07Z</time>
      </trkpt>
      <trkpt lat="46.45152" lon="5.71166">
        <ele>598.9</ele>
        <time>2022-06-08T08:34:12Z</time>
      </trkpt>
      <trkpt lat="46.45156" lon="5.71164">
        <ele>597.7</ele>
        <time>2022-06-08T08:34:16Z</time>
      </trkpt>
      <trkpt lat="46.45161" lon="5.71165">
        <ele>596.5</ele>
        <time>2022-06-08T08:34:20Z</time>
      </trkpt>
      <trkpt lat="46.45166" lon="5.71168">
        <ele>596.2</ele>
        <time>2022-06-08T08:34:24Z</time>
      </trkpt>
      <trkpt lat="46.45171" lon="5.71171">
        <ele>597.8</ele>
        <time>2022-06-08T08:34:28Z</time>
      </trkpt>
      <trkpt lat="46.45177" lon="5.71172">
        <ele>600.1</ele>
        <time>2022-06-08T08:34:33Z</time>
      </trkpt>
      <trkpt lat="46.45181" lon="5.71176">
        <ele>601.7</ele>
        <time>2022-06-08T08:34:38Z</time>
      </trkpt>
      <trkpt lat="46.45186" lon="5.71177">
        <ele>603</ele>
        <time>2022-06-08T08:34:43Z</time>
      </trkpt>
      <trkpt lat="46.45191" lon="5.71174">
        <ele>603.4</ele>
        <time>2022-06-08T08:34:47Z</time>
      </trkpt>
      <trkpt lat="46.45195" lon="5.71171">
        <ele>603.4</ele>
        <time>2022-06-08T08:34:50Z</time>
      </trkpt>
      <trkpt lat="46.452" lon="5.71169">
        <ele>602.9</ele>
        <time>2022-06-08T08:34:54Z</time>
      </trkpt>
      <trkpt lat="46.45205" lon="5.71168">
        <ele>602.1</ele>
        <time>2022-06-08T08:34:58Z</time>
      </trkpt>
      <trkpt lat="46.4521" lon="5.71166">
        <ele>601.4</ele>
        <time>2022-06-08T08:35:04Z</time>
      </trkpt>
      <trkpt lat="46.45215" lon="5.71166">
        <ele>600.6</ele>
        <time>2022-06-08T08:35:11Z</time>
      </trkpt>
      <trkpt lat="46.45219" lon="5.71164">
        <ele>598.8</ele>
        <time>2022-06-08T08:35:19Z</time>
      </trkpt>
      <trkpt lat="46.45223" lon="5.7116">
        <ele>598.1</ele>
        <time>2022-06-08T08:35:23Z</time>
      </trkpt>
      <trkpt lat="46.45227" lon="5.71155">
        <ele>597.7</ele>
        <time>2022-06-08T08:35:26Z</time>
      </trkpt>
      <trkpt lat="46.45231" lon="5.71151">
        <ele>597.4</ele>
        <time>2022-06-08T08:35:29Z</time>
      </trkpt>
      <trkpt lat="46.45235" lon="5.71148">
        <ele>597.5</ele>
        <time>2022-06-08T08:35:32Z</time>
      </trkpt>
      <trkpt lat="46.45241" lon="5.71148">
        <ele>597.6</ele>
        <time>2022-06-08T08:35:35Z</time>
      </trkpt>
      <trkpt lat="46.45246" lon="5.71148">
        <ele>598</ele>
        <time>2022-06-08T08:35:39Z</time>
      </trkpt>
      <trkpt lat="46.45251" lon="5.71146">
        <ele>598.3</ele>
        <time>2022-06-08T08:35:47Z</time>
      </trkpt>
      <trkpt lat="46.45256" lon="5.71143">
        <ele>598.1</ele>
        <time>2022-06-08T08:35:52Z</time>
      </trkpt>
      <trkpt lat="46.45262" lon="5.71141">
        <ele>597.7</ele>
        <time>2022-06-08T08:35:57Z</time>
      </trkpt>
      <trkpt lat="46.45266" lon="5.71141">
        <ele>597.5</ele>
        <time>2022-06-08T08:36:04Z</time>
      </trkpt>
      <trkpt lat="46.45271" lon="5.7114">
        <ele>597.4</ele>
        <time>2022-06-08T08:36:10Z</time>
      </trkpt>
      <trkpt lat="46.45276" lon="5.71137">
        <ele>597.8</ele>
        <time>2022-06-08T08:36:14Z</time>
      </trkpt>
      <trkpt lat="46.4528" lon="5.71136">
        <ele>598.3</ele>
        <time>2022-06-08T08:36:18Z</time>
      </trkpt>
      <trkpt lat="46.45285" lon="5.71135">
        <ele>598.5</ele>
        <time>2022-06-08T08:36:22Z</time>
      </trkpt>
      <trkpt lat="46.45289" lon="5.71133">
        <ele>598.2</ele>
        <time>2022-06-08T08:36:26Z</time>
      </trkpt>
      <trkpt lat="46.45294" lon="5.71131">
        <ele>597.8</ele>
        <time>2022-06-08T08:36:31Z</time>
      </trkpt>
      <trkpt lat="46.453" lon="5.7113">
        <ele>597.4</ele>
        <time>2022-06-08T08:36:36Z</time>
      </trkpt>
      <trkpt lat="46.45305" lon="5.7113">
        <ele>597</ele>
        <time>2022-06-08T08:36:41Z</time>
      </trkpt>
      <trkpt lat="46.45311" lon="5.71129">
        <ele>597</ele>
        <time>2022-06-08T08:36:46Z</time>
      </trkpt>
      <trkpt lat="46.45316" lon="5.71127">
        <ele>597.3</ele>
        <time>2022-06-08T08:36:49Z</time>
      </trkpt>
      <trkpt lat="46.45323" lon="5.71125">
        <ele>598.2</ele>
        <time>2022-06-08T08:36:52Z</time>
      </trkpt>
      <trkpt lat="46.45329" lon="5.71125">
        <ele>599.2</ele>
        <time>2022-06-08T08:36:55Z</time>
      </trkpt>
      <trkpt lat="46.45335" lon="5.71127">
        <ele>599.8</ele>
        <time>2022-06-08T08:36:59Z</time>
      </trkpt>
      <trkpt lat="46.4534" lon="5.71126">
        <ele>598.9</ele>
        <time>2022-06-08T08:37:04Z</time>
      </trkpt>
      <trkpt lat="46.45345" lon="5.71125">
        <ele>598.2</ele>
        <time>2022-06-08T08:37:09Z</time>
      </trkpt>
      <trkpt lat="46.4535" lon="5.71125">
        <ele>598</ele>
        <time>2022-06-08T08:37:12Z</time>
      </trkpt>
      <trkpt lat="46.45356" lon="5.71127">
        <ele>598.1</ele>
        <time>2022-06-08T08:37:16Z</time>
      </trkpt>
      <trkpt lat="46.45361" lon="5.71131">
        <ele>597.9</ele>
        <time>2022-06-08T08:37:20Z</time>
      </trkpt>
      <trkpt lat="46.45365" lon="5.71134">
        <ele>597.9</ele>
        <time>2022-06-08T08:37:24Z</time>
      </trkpt>
      <trkpt lat="46.45369" lon="5.71136">
        <ele>598.3</ele>
        <time>2022-06-08T08:37:28Z</time>
      </trkpt>
      <trkpt lat="46.45374" lon="5.71139">
        <ele>599.1</ele>
        <time>2022-06-08T08:37:33Z</time>
      </trkpt>
      <trkpt lat="46.45377" lon="5.71145">
        <ele>599.9</ele>
        <time>2022-06-08T08:37:38Z</time>
      </trkpt>
      <trkpt lat="46.4538" lon="5.71151">
        <ele>600.7</ele>
        <time>2022-06-08T08:37:43Z</time>
      </trkpt>
      <trkpt lat="46.45384" lon="5.71157">
        <ele>601.6</ele>
        <time>2022-06-08T08:37:48Z</time>
      </trkpt>
      <trkpt lat="46.45387" lon="5.71162">
        <ele>602.2</ele>
        <time>2022-06-08T08:37:52Z</time>
      </trkpt>
      <trkpt lat="46.4539" lon="5.71167">
        <ele>602.1</ele>
        <time>2022-06-08T08:37:56Z</time>
      </trkpt>
      <trkpt lat="46.45393" lon="5.71173">
        <ele>601.8</ele>
        <time>2022-06-08T08:38:00Z</time>
      </trkpt>
      <trkpt lat="46.45397" lon="5.71178">
        <ele>601.9</ele>
        <time>2022-06-08T08:38:04Z</time>
      </trkpt>
      <trkpt lat="46.45398" lon="5.71185">
        <ele>601.7</ele>
        <time>2022-06-08T08:38:09Z</time>
      </trkpt>
      <trkpt lat="46.454" lon="5.71191">
        <ele>601.3</ele>
        <time>2022-06-08T08:38:17Z</time>
      </trkpt>
      <trkpt lat="46.45397" lon="5.71199">
        <ele>601.8</ele>
        <time>2022-06-08T08:38:23Z</time>
      </trkpt>
      <trkpt lat="46.45396" lon="5.71206">
        <ele>601.8</ele>
        <time>2022-06-08T08:38:28Z</time>
      </trkpt>
      <trkpt lat="46.45398" lon="5.71213">
        <ele>601.1</ele>
        <time>2022-06-08T08:38:34Z</time>
      </trkpt>
      <trkpt lat="46.45397" lon="5.7122">
        <ele>600.3</ele>
        <time>2022-06-08T08:38:41Z</time>
      </trkpt>
      <trkpt lat="46.45399" lon="5.71227">
        <ele>599.9</ele>
        <time>2022-06-08T08:38:46Z</time>
      </trkpt>
      <trkpt lat="46.45398" lon="5.71234">
        <ele>599.8</ele>
        <time>2022-06-08T08:38:52Z</time>
      </trkpt>
      <trkpt lat="46.45398" lon="5.71241">
        <ele>599.7</ele>
        <time>2022-06-08T08:38:58Z</time>
      </trkpt>
      <trkpt lat="46.45397" lon="5.71247">
        <ele>599.7</ele>
        <time>2022-06-08T08:39:09Z</time>
      </trkpt>
      <trkpt lat="46.45402" lon="5.71246">
        <ele>602.4</ele>
        <time>2022-06-08T08:39:37Z</time>
      </trkpt>
      <trkpt lat="46.454" lon="5.71239">
        <ele>602.1</ele>
        <time>2022-06-08T08:39:52Z</time>
      </trkpt>
      <trkpt lat="46.45394" lon="5.71237">
        <ele>601.6</ele>
        <time>2022-06-08T08:39:58Z</time>
      </trkpt>
      <trkpt lat="46.45392" lon="5.71231">
        <ele>602</ele>
        <time>2022-06-08T08:40:06Z</time>
      </trkpt>
      <trkpt lat="46.45397" lon="5.71233">
        <ele>604.3</ele>
        <time>2022-06-08T08:40:24Z</time>
      </trkpt>
      <trkpt lat="46.454" lon="5.71237">
        <ele>604.3</ele>
        <time>2022-06-08T08:40:32Z</time>
      </trkpt>
      <trkpt lat="46.45395" lon="5.71236">
        <ele>602.1</ele>
        <time>2022-06-08T08:41:04Z</time>
      </trkpt>
      <trkpt lat="46.45396" lon="5.71229">
        <ele>602.2</ele>
        <time>2022-06-08T08:41:47Z</time>
      </trkpt>
      <trkpt lat="46.45396" lon="5.71223">
        <ele>601.9</ele>
        <time>2022-06-08T08:41:51Z</time>
      </trkpt>
      <trkpt lat="46.45397" lon="5.71216">
        <ele>599.7</ele>
        <time>2022-06-08T08:42:03Z</time>
      </trkpt>
      <trkpt lat="46.45395" lon="5.71208">
        <ele>598.7</ele>
        <time>2022-06-08T08:42:07Z</time>
      </trkpt>
      <trkpt lat="46.45394" lon="5.71201">
        <ele>596.9</ele>
        <time>2022-06-08T08:42:12Z</time>
      </trkpt>
      <trkpt lat="46.45397" lon="5.71197">
        <ele>595.6</ele>
        <time>2022-06-08T08:42:17Z</time>
      </trkpt>
      <trkpt lat="46.45402" lon="5.71198">
        <ele>595.1</ele>
        <time>2022-06-08T08:42:21Z</time>
      </trkpt>
      <trkpt lat="46.45407" lon="5.71201">
        <ele>595.1</ele>
        <time>2022-06-08T08:42:25Z</time>
      </trkpt>
      <trkpt lat="46.4541" lon="5.71207">
        <ele>595.2</ele>
        <time>2022-06-08T08:42:29Z</time>
      </trkpt>
      <trkpt lat="46.45414" lon="5.71212">
        <ele>595.9</ele>
        <time>2022-06-08T08:42:33Z</time>
      </trkpt>
      <trkpt lat="46.45417" lon="5.71218">
        <ele>597.2</ele>
        <time>2022-06-08T08:42:38Z</time>
      </trkpt>
      <trkpt lat="46.45419" lon="5.71225">
        <ele>598.2</ele>
        <time>2022-06-08T08:42:42Z</time>
      </trkpt>
      <trkpt lat="46.45422" lon="5.7123">
        <ele>598.7</ele>
        <time>2022-06-08T08:42:47Z</time>
      </trkpt>
      <trkpt lat="46.45426" lon="5.71234">
        <ele>597.3</ele>
        <time>2022-06-08T08:42:54Z</time>
      </trkpt>
      <trkpt lat="46.4543" lon="5.7124">
        <ele>596.4</ele>
        <time>2022-06-08T08:42:59Z</time>
      </trkpt>
      <trkpt lat="46.45433" lon="5.71244">
        <ele>596.2</ele>
        <time>2022-06-08T08:43:02Z</time>
      </trkpt>
      <trkpt lat="46.45438" lon="5.71247">
        <ele>596.2</ele>
        <time>2022-06-08T08:43:05Z</time>
      </trkpt>
      <trkpt lat="46.45441" lon="5.71251">
        <ele>596.5</ele>
        <time>2022-06-08T08:43:09Z</time>
      </trkpt>
      <trkpt lat="46.45445" lon="5.71255">
        <ele>598.4</ele>
        <time>2022-06-08T08:43:15Z</time>
      </trkpt>
      <trkpt lat="46.4545" lon="5.71259">
        <ele>599.4</ele>
        <time>2022-06-08T08:43:20Z</time>
      </trkpt>
      <trkpt lat="46.45455" lon="5.71262">
        <ele>599.8</ele>
        <time>2022-06-08T08:43:24Z</time>
      </trkpt>
      <trkpt lat="46.4546" lon="5.71264">
        <ele>599.9</ele>
        <time>2022-06-08T08:43:28Z</time>
      </trkpt>
      <trkpt lat="46.45465" lon="5.71267">
        <ele>599.4</ele>
        <time>2022-06-08T08:43:32Z</time>
      </trkpt>
      <trkpt lat="46.45469" lon="5.71271">
        <ele>598.1</ele>
        <time>2022-06-08T08:43:37Z</time>
      </trkpt>
      <trkpt lat="46.45473" lon="5.71276">
        <ele>596.2</ele>
        <time>2022-06-08T08:43:42Z</time>
      </trkpt>
      <trkpt lat="46.45476" lon="5.71281">
        <ele>594.9</ele>
        <time>2022-06-08T08:43:47Z</time>
      </trkpt>
      <trkpt lat="46.45481" lon="5.71284">
        <ele>594.3</ele>
        <time>2022-06-08T08:43:51Z</time>
      </trkpt>
      <trkpt lat="46.45486" lon="5.71287">
        <ele>594.4</ele>
        <time>2022-06-08T08:43:54Z</time>
      </trkpt>
      <trkpt lat="46.45492" lon="5.71291">
        <ele>595</ele>
        <time>2022-06-08T08:43:57Z</time>
      </trkpt>
      <trkpt lat="46.45497" lon="5.71293">
        <ele>595.8</ele>
        <time>2022-06-08T08:44:00Z</time>
      </trkpt>
      <trkpt lat="46.45501" lon="5.71297">
        <ele>596.8</ele>
        <time>2022-06-08T08:44:04Z</time>
      </trkpt>
      <trkpt lat="46.45504" lon="5.71303">
        <ele>597.7</ele>
        <time>2022-06-08T08:44:08Z</time>
      </trkpt>
      <trkpt lat="46.45508" lon="5.71309">
        <ele>598.8</ele>
        <time>2022-06-08T08:44:12Z</time>
      </trkpt>
      <trkpt lat="46.4551" lon="5.71315">
        <ele>599</ele>
        <time>2022-06-08T08:44:17Z</time>
      </trkpt>
      <trkpt lat="46.45513" lon="5.71322">
        <ele>598.7</ele>
        <time>2022-06-08T08:44:21Z</time>
      </trkpt>
      <trkpt lat="46.45514" lon="5.71328">
        <ele>598.5</ele>
        <time>2022-06-08T08:44:25Z</time>
      </trkpt>
      <trkpt lat="46.45514" lon="5.71334">
        <ele>598.4</ele>
        <time>2022-06-08T08:44:29Z</time>
      </trkpt>
      <trkpt lat="46.45515" lon="5.71342">
        <ele>598.3</ele>
        <time>2022-06-08T08:44:34Z</time>
      </trkpt>
      <trkpt lat="46.45516" lon="5.71348">
        <ele>598</ele>
        <time>2022-06-08T08:44:39Z</time>
      </trkpt>
      <trkpt lat="46.45517" lon="5.71355">
        <ele>597.8</ele>
        <time>2022-06-08T08:44:44Z</time>
      </trkpt>
      <trkpt lat="46.45519" lon="5.71361">
        <ele>597.6</ele>
        <time>2022-06-08T08:44:49Z</time>
      </trkpt>
      <trkpt lat="46.45523" lon="5.71366">
        <ele>597.3</ele>
        <time>2022-06-08T08:44:53Z</time>
      </trkpt>
      <trkpt lat="46.45527" lon="5.71372">
        <ele>596.9</ele>
        <time>2022-06-08T08:44:58Z</time>
      </trkpt>
      <trkpt lat="46.4553" lon="5.71378">
        <ele>596.6</ele>
        <time>2022-06-08T08:45:01Z</time>
      </trkpt>
      <trkpt lat="46.45532" lon="5.71385">
        <ele>596.4</ele>
        <time>2022-06-08T08:45:04Z</time>
      </trkpt>
      <trkpt lat="46.45535" lon="5.71391">
        <ele>596.3</ele>
        <time>2022-06-08T08:45:07Z</time>
      </trkpt>
      <trkpt lat="46.45535" lon="5.71398">
        <ele>596.5</ele>
        <time>2022-06-08T08:45:11Z</time>
      </trkpt>
      <trkpt lat="46.45536" lon="5.71405">
        <ele>597</ele>
        <time>2022-06-08T08:45:16Z</time>
      </trkpt>
      <trkpt lat="46.45538" lon="5.71411">
        <ele>597</ele>
        <time>2022-06-08T08:45:21Z</time>
      </trkpt>
      <trkpt lat="46.45542" lon="5.71416">
        <ele>596.6</ele>
        <time>2022-06-08T08:45:26Z</time>
      </trkpt>
      <trkpt lat="46.45547" lon="5.71417">
        <ele>595.3</ele>
        <time>2022-06-08T08:45:35Z</time>
      </trkpt>
      <trkpt lat="46.45552" lon="5.71418">
        <ele>594.6</ele>
        <time>2022-06-08T08:45:40Z</time>
      </trkpt>
      <trkpt lat="46.45557" lon="5.7142">
        <ele>593.8</ele>
        <time>2022-06-08T08:45:44Z</time>
      </trkpt>
      <trkpt lat="46.45563" lon="5.7142">
        <ele>592.1</ele>
        <time>2022-06-08T08:45:48Z</time>
      </trkpt>
      <trkpt lat="46.45568" lon="5.71422">
        <ele>589</ele>
        <time>2022-06-08T08:45:58Z</time>
      </trkpt>
      <trkpt lat="46.45573" lon="5.71424">
        <ele>588.4</ele>
        <time>2022-06-08T08:46:02Z</time>
      </trkpt>
      <trkpt lat="46.45578" lon="5.71425">
        <ele>587.9</ele>
        <time>2022-06-08T08:46:06Z</time>
      </trkpt>
      <trkpt lat="46.45582" lon="5.71429">
        <ele>587.8</ele>
        <time>2022-06-08T08:46:11Z</time>
      </trkpt>
      <trkpt lat="46.45584" lon="5.71435">
        <ele>587.5</ele>
        <time>2022-06-08T08:46:23Z</time>
      </trkpt>
      <trkpt lat="46.45589" lon="5.71437">
        <ele>587.4</ele>
        <time>2022-06-08T08:46:30Z</time>
      </trkpt>
      <trkpt lat="46.45595" lon="5.71438">
        <ele>588.1</ele>
        <time>2022-06-08T08:46:35Z</time>
      </trkpt>
      <trkpt lat="46.45598" lon="5.71443">
        <ele>589.4</ele>
        <time>2022-06-08T08:46:41Z</time>
      </trkpt>
      <trkpt lat="46.45602" lon="5.71447">
        <ele>589.8</ele>
        <time>2022-06-08T08:46:48Z</time>
      </trkpt>
      <trkpt lat="46.45608" lon="5.71448">
        <ele>589.8</ele>
        <time>2022-06-08T08:46:52Z</time>
      </trkpt>
      <trkpt lat="46.45612" lon="5.71449">
        <ele>590.4</ele>
        <time>2022-06-08T08:46:56Z</time>
      </trkpt>
      <trkpt lat="46.45616" lon="5.71453">
        <ele>592.3</ele>
        <time>2022-06-08T08:47:02Z</time>
      </trkpt>
      <trkpt lat="46.45621" lon="5.71456">
        <ele>593.1</ele>
        <time>2022-06-08T08:47:11Z</time>
      </trkpt>
      <trkpt lat="46.45625" lon="5.71455">
        <ele>592.9</ele>
        <time>2022-06-08T08:47:17Z</time>
      </trkpt>
      <trkpt lat="46.45629" lon="5.7145">
        <ele>592.3</ele>
        <time>2022-06-08T08:47:21Z</time>
      </trkpt>
      <trkpt lat="46.45633" lon="5.71446">
        <ele>591.2</ele>
        <time>2022-06-08T08:47:26Z</time>
      </trkpt>
      <trkpt lat="46.45638" lon="5.71444">
        <ele>590.3</ele>
        <time>2022-06-08T08:47:31Z</time>
      </trkpt>
      <trkpt lat="46.45642" lon="5.71441">
        <ele>589.7</ele>
        <time>2022-06-08T08:47:34Z</time>
      </trkpt>
      <trkpt lat="46.45646" lon="5.71437">
        <ele>589.3</ele>
        <time>2022-06-08T08:47:39Z</time>
      </trkpt>
      <trkpt lat="46.4565" lon="5.71434">
        <ele>589.3</ele>
        <time>2022-06-08T08:47:43Z</time>
      </trkpt>
      <trkpt lat="46.45655" lon="5.71432">
        <ele>589.2</ele>
        <time>2022-06-08T08:47:47Z</time>
      </trkpt>
      <trkpt lat="46.4566" lon="5.71428">
        <ele>589</ele>
        <time>2022-06-08T08:47:52Z</time>
      </trkpt>
      <trkpt lat="46.45663" lon="5.71423">
        <ele>588.9</ele>
        <time>2022-06-08T08:47:57Z</time>
      </trkpt>
      <trkpt lat="46.45667" lon="5.71419">
        <ele>589.5</ele>
        <time>2022-06-08T08:48:04Z</time>
      </trkpt>
      <trkpt lat="46.45672" lon="5.71418">
        <ele>589.2</ele>
        <time>2022-06-08T08:48:09Z</time>
      </trkpt>
      <trkpt lat="46.45676" lon="5.71415">
        <ele>589</ele>
        <time>2022-06-08T08:48:12Z</time>
      </trkpt>
      <trkpt lat="46.45681" lon="5.71413">
        <ele>588.9</ele>
        <time>2022-06-08T08:48:15Z</time>
      </trkpt>
      <trkpt lat="46.45686" lon="5.71411">
        <ele>588.7</ele>
        <time>2022-06-08T08:48:19Z</time>
      </trkpt>
      <trkpt lat="46.45691" lon="5.71408">
        <ele>588</ele>
        <time>2022-06-08T08:48:25Z</time>
      </trkpt>
      <trkpt lat="46.45695" lon="5.71404">
        <ele>585.8</ele>
        <time>2022-06-08T08:48:32Z</time>
      </trkpt>
      <trkpt lat="46.45699" lon="5.71402">
        <ele>584.6</ele>
        <time>2022-06-08T08:48:37Z</time>
      </trkpt>
      <trkpt lat="46.45704" lon="5.714">
        <ele>584</ele>
        <time>2022-06-08T08:48:42Z</time>
      </trkpt>
      <trkpt lat="46.4571" lon="5.71401">
        <ele>584</ele>
        <time>2022-06-08T08:48:47Z</time>
      </trkpt>
      <trkpt lat="46.45714" lon="5.71397">
        <ele>584</ele>
        <time>2022-06-08T08:48:52Z</time>
      </trkpt>
      <trkpt lat="46.45717" lon="5.71392">
        <ele>583.4</ele>
        <time>2022-06-08T08:48:57Z</time>
      </trkpt>
      <trkpt lat="46.45721" lon="5.71388">
        <ele>582.2</ele>
        <time>2022-06-08T08:49:02Z</time>
      </trkpt>
      <trkpt lat="46.45723" lon="5.71381">
        <ele>580.7</ele>
        <time>2022-06-08T08:49:07Z</time>
      </trkpt>
      <trkpt lat="46.45725" lon="5.71375">
        <ele>579.6</ele>
        <time>2022-06-08T08:49:11Z</time>
      </trkpt>
      <trkpt lat="46.45727" lon="5.71369">
        <ele>578.6</ele>
        <time>2022-06-08T08:49:15Z</time>
      </trkpt>
      <trkpt lat="46.45731" lon="5.71365">
        <ele>575.5</ele>
        <time>2022-06-08T08:49:27Z</time>
      </trkpt>
      <trkpt lat="46.45736" lon="5.71361">
        <ele>574.2</ele>
        <time>2022-06-08T08:49:33Z</time>
      </trkpt>
      <trkpt lat="46.4574" lon="5.71357">
        <ele>572.7</ele>
        <time>2022-06-08T08:49:38Z</time>
      </trkpt>
      <trkpt lat="46.45744" lon="5.71353">
        <ele>571.9</ele>
        <time>2022-06-08T08:49:43Z</time>
      </trkpt>
      <trkpt lat="46.45749" lon="5.7135">
        <ele>572.1</ele>
        <time>2022-06-08T08:49:49Z</time>
      </trkpt>
      <trkpt lat="46.45754" lon="5.71347">
        <ele>572.2</ele>
        <time>2022-06-08T08:49:53Z</time>
      </trkpt>
      <trkpt lat="46.45758" lon="5.71342">
        <ele>572.5</ele>
        <time>2022-06-08T08:49:57Z</time>
      </trkpt>
      <trkpt lat="46.45761" lon="5.71335">
        <ele>573.1</ele>
        <time>2022-06-08T08:50:01Z</time>
      </trkpt>
      <trkpt lat="46.45764" lon="5.71329">
        <ele>573.2</ele>
        <time>2022-06-08T08:50:06Z</time>
      </trkpt>
      <trkpt lat="46.45767" lon="5.71324">
        <ele>572.8</ele>
        <time>2022-06-08T08:50:11Z</time>
      </trkpt>
      <trkpt lat="46.45772" lon="5.71325">
        <ele>572.5</ele>
        <time>2022-06-08T08:50:15Z</time>
      </trkpt>
      <trkpt lat="46.45777" lon="5.71325">
        <ele>572.7</ele>
        <time>2022-06-08T08:50:19Z</time>
      </trkpt>
      <trkpt lat="46.45782" lon="5.71324">
        <ele>572.9</ele>
        <time>2022-06-08T08:50:24Z</time>
      </trkpt>
      <trkpt lat="46.45787" lon="5.71321">
        <ele>573.5</ele>
        <time>2022-06-08T08:50:30Z</time>
      </trkpt>
      <trkpt lat="46.45793" lon="5.71317">
        <ele>573.7</ele>
        <time>2022-06-08T08:50:35Z</time>
      </trkpt>
      <trkpt lat="46.45799" lon="5.71315">
        <ele>573.8</ele>
        <time>2022-06-08T08:50:38Z</time>
      </trkpt>
      <trkpt lat="46.45803" lon="5.71314">
        <ele>574.1</ele>
        <time>2022-06-08T08:50:41Z</time>
      </trkpt>
      <trkpt lat="46.45808" lon="5.71316">
        <ele>574.4</ele>
        <time>2022-06-08T08:50:45Z</time>
      </trkpt>
      <trkpt lat="46.45813" lon="5.71317">
        <ele>574.8</ele>
        <time>2022-06-08T08:50:51Z</time>
      </trkpt>
      <trkpt lat="46.45817" lon="5.71316">
        <ele>574.7</ele>
        <time>2022-06-08T08:50:57Z</time>
      </trkpt>
      <trkpt lat="46.4582" lon="5.71311">
        <ele>574.5</ele>
        <time>2022-06-08T08:51:01Z</time>
      </trkpt>
      <trkpt lat="46.45823" lon="5.71305">
        <ele>574.1</ele>
        <time>2022-06-08T08:51:05Z</time>
      </trkpt>
      <trkpt lat="46.45827" lon="5.713">
        <ele>573.5</ele>
        <time>2022-06-08T08:51:10Z</time>
      </trkpt>
      <trkpt lat="46.45832" lon="5.71301">
        <ele>573.4</ele>
        <time>2022-06-08T08:51:14Z</time>
      </trkpt>
      <trkpt lat="46.45835" lon="5.71296">
        <ele>573.2</ele>
        <time>2022-06-08T08:51:19Z</time>
      </trkpt>
      <trkpt lat="46.4584" lon="5.71295">
        <ele>572</ele>
        <time>2022-06-08T08:51:29Z</time>
      </trkpt>
      <trkpt lat="46.45845" lon="5.71291">
        <ele>571.1</ele>
        <time>2022-06-08T08:51:34Z</time>
      </trkpt>
      <trkpt lat="46.4585" lon="5.71287">
        <ele>570.3</ele>
        <time>2022-06-08T08:51:38Z</time>
      </trkpt>
      <trkpt lat="46.45853" lon="5.71283">
        <ele>569.9</ele>
        <time>2022-06-08T08:51:41Z</time>
      </trkpt>
      <trkpt lat="46.45856" lon="5.71278">
        <ele>569.4</ele>
        <time>2022-06-08T08:51:45Z</time>
      </trkpt>
      <trkpt lat="46.45859" lon="5.71272">
        <ele>569</ele>
        <time>2022-06-08T08:51:49Z</time>
      </trkpt>
      <trkpt lat="46.45862" lon="5.71266">
        <ele>568.7</ele>
        <time>2022-06-08T08:51:53Z</time>
      </trkpt>
      <trkpt lat="46.45866" lon="5.71262">
        <ele>568.5</ele>
        <time>2022-06-08T08:51:58Z</time>
      </trkpt>
      <trkpt lat="46.45871" lon="5.71259">
        <ele>568.3</ele>
        <time>2022-06-08T08:52:03Z</time>
      </trkpt>
      <trkpt lat="46.45875" lon="5.71254">
        <ele>568.2</ele>
        <time>2022-06-08T08:52:08Z</time>
      </trkpt>
      <trkpt lat="46.45879" lon="5.7125">
        <ele>568.1</ele>
        <time>2022-06-08T08:52:12Z</time>
      </trkpt>
      <trkpt lat="46.45883" lon="5.71245">
        <ele>568.5</ele>
        <time>2022-06-08T08:52:15Z</time>
      </trkpt>
      <trkpt lat="46.45887" lon="5.71242">
        <ele>568.7</ele>
        <time>2022-06-08T08:52:18Z</time>
      </trkpt>
      <trkpt lat="46.45891" lon="5.71238">
        <ele>569</ele>
        <time>2022-06-08T08:52:22Z</time>
      </trkpt>
      <trkpt lat="46.45895" lon="5.71235">
        <ele>569.4</ele>
        <time>2022-06-08T08:52:27Z</time>
      </trkpt>
      <trkpt lat="46.45901" lon="5.71234">
        <ele>569.7</ele>
        <time>2022-06-08T08:52:31Z</time>
      </trkpt>
      <trkpt lat="46.45905" lon="5.71231">
        <ele>569.9</ele>
        <time>2022-06-08T08:52:36Z</time>
      </trkpt>
      <trkpt lat="46.45909" lon="5.71227">
        <ele>570</ele>
        <time>2022-06-08T08:52:40Z</time>
      </trkpt>
      <trkpt lat="46.45913" lon="5.71222">
        <ele>569.9</ele>
        <time>2022-06-08T08:52:44Z</time>
      </trkpt>
      <trkpt lat="46.45916" lon="5.71216">
        <ele>569.9</ele>
        <time>2022-06-08T08:52:48Z</time>
      </trkpt>
      <trkpt lat="46.45919" lon="5.7121">
        <ele>570</ele>
        <time>2022-06-08T08:52:52Z</time>
      </trkpt>
      <trkpt lat="46.45921" lon="5.71203">
        <ele>570</ele>
        <time>2022-06-08T08:52:56Z</time>
      </trkpt>
      <trkpt lat="46.45926" lon="5.712">
        <ele>570.5</ele>
        <time>2022-06-08T08:52:59Z</time>
      </trkpt>
      <trkpt lat="46.45932" lon="5.71198">
        <ele>571.3</ele>
        <time>2022-06-08T08:53:03Z</time>
      </trkpt>
      <trkpt lat="46.45937" lon="5.71196">
        <ele>571.9</ele>
        <time>2022-06-08T08:53:07Z</time>
      </trkpt>
      <trkpt lat="46.4594" lon="5.71191">
        <ele>572.2</ele>
        <time>2022-06-08T08:53:11Z</time>
      </trkpt>
      <trkpt lat="46.45944" lon="5.71186">
        <ele>572.5</ele>
        <time>2022-06-08T08:53:15Z</time>
      </trkpt>
      <trkpt lat="46.45949" lon="5.71185">
        <ele>572.5</ele>
        <time>2022-06-08T08:53:20Z</time>
      </trkpt>
      <trkpt lat="46.45953" lon="5.71182">
        <ele>572.2</ele>
        <time>2022-06-08T08:53:25Z</time>
      </trkpt>
      <trkpt lat="46.45957" lon="5.71175">
        <ele>571.8</ele>
        <time>2022-06-08T08:53:30Z</time>
      </trkpt>
      <trkpt lat="46.45961" lon="5.7117">
        <ele>571.7</ele>
        <time>2022-06-08T08:53:34Z</time>
      </trkpt>
      <trkpt lat="46.45965" lon="5.71168">
        <ele>571.7</ele>
        <time>2022-06-08T08:53:38Z</time>
      </trkpt>
      <trkpt lat="46.4597" lon="5.71167">
        <ele>572</ele>
        <time>2022-06-08T08:53:41Z</time>
      </trkpt>
      <trkpt lat="46.45975" lon="5.71164">
        <ele>572.4</ele>
        <time>2022-06-08T08:53:44Z</time>
      </trkpt>
      <trkpt lat="46.45978" lon="5.71158">
        <ele>572.4</ele>
        <time>2022-06-08T08:53:49Z</time>
      </trkpt>
      <trkpt lat="46.45982" lon="5.71157">
        <ele>572.1</ele>
        <time>2022-06-08T08:53:54Z</time>
      </trkpt>
      <trkpt lat="46.45986" lon="5.71152">
        <ele>571.4</ele>
        <time>2022-06-08T08:53:59Z</time>
      </trkpt>
      <trkpt lat="46.45989" lon="5.71146">
        <ele>570.9</ele>
        <time>2022-06-08T08:54:04Z</time>
      </trkpt>
      <trkpt lat="46.45993" lon="5.71142">
        <ele>570.5</ele>
        <time>2022-06-08T08:54:09Z</time>
      </trkpt>
      <trkpt lat="46.45998" lon="5.71139">
        <ele>569.7</ele>
        <time>2022-06-08T08:54:16Z</time>
      </trkpt>
      <trkpt lat="46.46001" lon="5.71132">
        <ele>569.8</ele>
        <time>2022-06-08T08:54:20Z</time>
      </trkpt>
      <trkpt lat="46.46005" lon="5.71127">
        <ele>569.8</ele>
        <time>2022-06-08T08:54:25Z</time>
      </trkpt>
      <trkpt lat="46.46009" lon="5.71124">
        <ele>569.3</ele>
        <time>2022-06-08T08:54:31Z</time>
      </trkpt>
      <trkpt lat="46.46012" lon="5.71118">
        <ele>569</ele>
        <time>2022-06-08T08:54:35Z</time>
      </trkpt>
      <trkpt lat="46.46017" lon="5.71115">
        <ele>568.7</ele>
        <time>2022-06-08T08:54:39Z</time>
      </trkpt>
      <trkpt lat="46.46022" lon="5.71115">
        <ele>568.6</ele>
        <time>2022-06-08T08:54:43Z</time>
      </trkpt>
      <trkpt lat="46.46027" lon="5.71115">
        <ele>568.6</ele>
        <time>2022-06-08T08:54:47Z</time>
      </trkpt>
      <trkpt lat="46.46032" lon="5.71113">
        <ele>568.7</ele>
        <time>2022-06-08T08:54:51Z</time>
      </trkpt>
      <trkpt lat="46.46037" lon="5.71111">
        <ele>568.4</ele>
        <time>2022-06-08T08:54:56Z</time>
      </trkpt>
      <trkpt lat="46.46042" lon="5.71111">
        <ele>567.1</ele>
        <time>2022-06-08T08:55:01Z</time>
      </trkpt>
      <trkpt lat="46.46047" lon="5.71107">
        <ele>566.3</ele>
        <time>2022-06-08T08:55:05Z</time>
      </trkpt>
      <trkpt lat="46.4605" lon="5.71103">
        <ele>566.1</ele>
        <time>2022-06-08T08:55:08Z</time>
      </trkpt>
      <trkpt lat="46.46054" lon="5.711">
        <ele>565.9</ele>
        <time>2022-06-08T08:55:11Z</time>
      </trkpt>
      <trkpt lat="46.46059" lon="5.71096">
        <ele>565.8</ele>
        <time>2022-06-08T08:55:15Z</time>
      </trkpt>
      <trkpt lat="46.46061" lon="5.7109">
        <ele>565.4</ele>
        <time>2022-06-08T08:55:19Z</time>
      </trkpt>
      <trkpt lat="46.46064" lon="5.71083">
        <ele>565.1</ele>
        <time>2022-06-08T08:55:23Z</time>
      </trkpt>
      <trkpt lat="46.46069" lon="5.7108">
        <ele>564.9</ele>
        <time>2022-06-08T08:55:27Z</time>
      </trkpt>
      <trkpt lat="46.46073" lon="5.71074">
        <ele>564.6</ele>
        <time>2022-06-08T08:55:32Z</time>
      </trkpt>
      <trkpt lat="46.46077" lon="5.71069">
        <ele>564.3</ele>
        <time>2022-06-08T08:55:37Z</time>
      </trkpt>
      <trkpt lat="46.46081" lon="5.71066">
        <ele>564</ele>
        <time>2022-06-08T08:55:42Z</time>
      </trkpt>
      <trkpt lat="46.46086" lon="5.71064">
        <ele>563.9</ele>
        <time>2022-06-08T08:55:46Z</time>
      </trkpt>
      <trkpt lat="46.4609" lon="5.71057">
        <ele>564</ele>
        <time>2022-06-08T08:55:50Z</time>
      </trkpt>
      <trkpt lat="46.46093" lon="5.71051">
        <ele>564.3</ele>
        <time>2022-06-08T08:55:54Z</time>
      </trkpt>
      <trkpt lat="46.46096" lon="5.71045">
        <ele>564.5</ele>
        <time>2022-06-08T08:55:58Z</time>
      </trkpt>
      <trkpt lat="46.461" lon="5.71039">
        <ele>564.6</ele>
        <time>2022-06-08T08:56:02Z</time>
      </trkpt>
      <trkpt lat="46.46102" lon="5.71032">
        <ele>564.6</ele>
        <time>2022-06-08T08:56:05Z</time>
      </trkpt>
      <trkpt lat="46.46104" lon="5.71026">
        <ele>564.4</ele>
        <time>2022-06-08T08:56:08Z</time>
      </trkpt>
      <trkpt lat="46.46107" lon="5.71021">
        <ele>564.4</ele>
        <time>2022-06-08T08:56:11Z</time>
      </trkpt>
      <trkpt lat="46.46113" lon="5.71017">
        <ele>564.3</ele>
        <time>2022-06-08T08:56:15Z</time>
      </trkpt>
      <trkpt lat="46.46117" lon="5.71014">
        <ele>564.2</ele>
        <time>2022-06-08T08:56:19Z</time>
      </trkpt>
      <trkpt lat="46.46122" lon="5.71011">
        <ele>564.3</ele>
        <time>2022-06-08T08:56:24Z</time>
      </trkpt>
      <trkpt lat="46.46126" lon="5.71014">
        <ele>563.5</ele>
        <time>2022-06-08T08:56:27Z</time>
      </trkpt>
      <trkpt lat="46.46131" lon="5.71014">
        <ele>562.5</ele>
        <time>2022-06-08T08:56:32Z</time>
      </trkpt>
      <trkpt lat="46.46136" lon="5.71012">
        <ele>562.9</ele>
        <time>2022-06-08T08:56:36Z</time>
      </trkpt>
      <trkpt lat="46.46141" lon="5.71008">
        <ele>563.8</ele>
        <time>2022-06-08T08:56:40Z</time>
      </trkpt>
      <trkpt lat="46.46145" lon="5.71001">
        <ele>564.7</ele>
        <time>2022-06-08T08:56:44Z</time>
      </trkpt>
      <trkpt lat="46.46147" lon="5.70996">
        <ele>565.9</ele>
        <time>2022-06-08T08:56:48Z</time>
      </trkpt>
      <trkpt lat="46.46152" lon="5.70995">
        <ele>567</ele>
        <time>2022-06-08T08:56:53Z</time>
      </trkpt>
      <trkpt lat="46.46156" lon="5.70991">
        <ele>567.8</ele>
        <time>2022-06-08T08:56:58Z</time>
      </trkpt>
      <trkpt lat="46.4616" lon="5.70987">
        <ele>568.5</ele>
        <time>2022-06-08T08:57:01Z</time>
      </trkpt>
      <trkpt lat="46.46165" lon="5.70983">
        <ele>569.5</ele>
        <time>2022-06-08T08:57:05Z</time>
      </trkpt>
      <trkpt lat="46.46169" lon="5.70979">
        <ele>570</ele>
        <time>2022-06-08T08:57:09Z</time>
      </trkpt>
      <trkpt lat="46.46173" lon="5.70976">
        <ele>570.4</ele>
        <time>2022-06-08T08:57:14Z</time>
      </trkpt>
      <trkpt lat="46.46179" lon="5.70973">
        <ele>570.8</ele>
        <time>2022-06-08T08:57:19Z</time>
      </trkpt>
      <trkpt lat="46.46183" lon="5.70969">
        <ele>571.1</ele>
        <time>2022-06-08T08:57:23Z</time>
      </trkpt>
      <trkpt lat="46.46188" lon="5.70966">
        <ele>571.2</ele>
        <time>2022-06-08T08:57:27Z</time>
      </trkpt>
      <trkpt lat="46.46192" lon="5.70961">
        <ele>571.2</ele>
        <time>2022-06-08T08:57:31Z</time>
      </trkpt>
      <trkpt lat="46.46195" lon="5.70956">
        <ele>570.7</ele>
        <time>2022-06-08T08:57:36Z</time>
      </trkpt>
      <trkpt lat="46.462" lon="5.70952">
        <ele>568.6</ele>
        <time>2022-06-08T08:57:44Z</time>
      </trkpt>
      <trkpt lat="46.46204" lon="5.70948">
        <ele>568.2</ele>
        <time>2022-06-08T08:57:47Z</time>
      </trkpt>
      <trkpt lat="46.46209" lon="5.70944">
        <ele>567.8</ele>
        <time>2022-06-08T08:57:51Z</time>
      </trkpt>
      <trkpt lat="46.46213" lon="5.7094">
        <ele>567.2</ele>
        <time>2022-06-08T08:57:56Z</time>
      </trkpt>
      <trkpt lat="46.46217" lon="5.70935">
        <ele>567</ele>
        <time>2022-06-08T08:58:02Z</time>
      </trkpt>
      <trkpt lat="46.46222" lon="5.70932">
        <ele>566.9</ele>
        <time>2022-06-08T08:58:06Z</time>
      </trkpt>
      <trkpt lat="46.46226" lon="5.70928">
        <ele>566.9</ele>
        <time>2022-06-08T08:58:09Z</time>
      </trkpt>
      <trkpt lat="46.46231" lon="5.70926">
        <ele>566.9</ele>
        <time>2022-06-08T08:58:12Z</time>
      </trkpt>
      <trkpt lat="46.46236" lon="5.70924">
        <ele>566.9</ele>
        <time>2022-06-08T08:58:16Z</time>
      </trkpt>
      <trkpt lat="46.46241" lon="5.70921">
        <ele>566.6</ele>
        <time>2022-06-08T08:58:20Z</time>
      </trkpt>
      <trkpt lat="46.46246" lon="5.7092">
        <ele>566.9</ele>
        <time>2022-06-08T08:58:26Z</time>
      </trkpt>
      <trkpt lat="46.4625" lon="5.70918">
        <ele>567.4</ele>
        <time>2022-06-08T08:58:30Z</time>
      </trkpt>
      <trkpt lat="46.46252" lon="5.70912">
        <ele>567.7</ele>
        <time>2022-06-08T08:58:35Z</time>
      </trkpt>
      <trkpt lat="46.46256" lon="5.70911">
        <ele>567</ele>
        <time>2022-06-08T08:58:40Z</time>
      </trkpt>
      <trkpt lat="46.46261" lon="5.70907">
        <ele>566.4</ele>
        <time>2022-06-08T08:58:45Z</time>
      </trkpt>
      <trkpt lat="46.46264" lon="5.70902">
        <ele>566.2</ele>
        <time>2022-06-08T08:58:49Z</time>
      </trkpt>
      <trkpt lat="46.46268" lon="5.70898">
        <ele>566.3</ele>
        <time>2022-06-08T08:58:52Z</time>
      </trkpt>
      <trkpt lat="46.46271" lon="5.70892">
        <ele>566.6</ele>
        <time>2022-06-08T08:58:56Z</time>
      </trkpt>
      <trkpt lat="46.46275" lon="5.70888">
        <ele>567.2</ele>
        <time>2022-06-08T08:59:01Z</time>
      </trkpt>
      <trkpt lat="46.4628" lon="5.70885">
        <ele>567.6</ele>
        <time>2022-06-08T08:59:06Z</time>
      </trkpt>
      <trkpt lat="46.46284" lon="5.70879">
        <ele>568.2</ele>
        <time>2022-06-08T08:59:11Z</time>
      </trkpt>
      <trkpt lat="46.46288" lon="5.70874">
        <ele>568.6</ele>
        <time>2022-06-08T08:59:15Z</time>
      </trkpt>
      <trkpt lat="46.46293" lon="5.70872">
        <ele>568.9</ele>
        <time>2022-06-08T08:59:18Z</time>
      </trkpt>
      <trkpt lat="46.46298" lon="5.70872">
        <ele>570</ele>
        <time>2022-06-08T08:59:22Z</time>
      </trkpt>
      <trkpt lat="46.46303" lon="5.7087">
        <ele>571.2</ele>
        <time>2022-06-08T08:59:27Z</time>
      </trkpt>
      <trkpt lat="46.46308" lon="5.70867">
        <ele>572.2</ele>
        <time>2022-06-08T08:59:34Z</time>
      </trkpt>
      <trkpt lat="46.46312" lon="5.70864">
        <ele>572.3</ele>
        <time>2022-06-08T08:59:38Z</time>
      </trkpt>
      <trkpt lat="46.46317" lon="5.7086">
        <ele>571.8</ele>
        <time>2022-06-08T08:59:42Z</time>
      </trkpt>
      <trkpt lat="46.46323" lon="5.70856">
        <ele>571.1</ele>
        <time>2022-06-08T08:59:46Z</time>
      </trkpt>
      <trkpt lat="46.46327" lon="5.70852">
        <ele>570.4</ele>
        <time>2022-06-08T08:59:50Z</time>
      </trkpt>
      <trkpt lat="46.4633" lon="5.70846">
        <ele>569.3</ele>
        <time>2022-06-08T08:59:54Z</time>
      </trkpt>
      <trkpt lat="46.46333" lon="5.70839">
        <ele>568.2</ele>
        <time>2022-06-08T08:59:59Z</time>
      </trkpt>
      <trkpt lat="46.46337" lon="5.70835">
        <ele>567.4</ele>
        <time>2022-06-08T09:00:04Z</time>
      </trkpt>
      <trkpt lat="46.46341" lon="5.7083">
        <ele>567.2</ele>
        <time>2022-06-08T09:00:09Z</time>
      </trkpt>
      <trkpt lat="46.46345" lon="5.70824">
        <ele>566.8</ele>
        <time>2022-06-08T09:00:14Z</time>
      </trkpt>
      <trkpt lat="46.46348" lon="5.70819">
        <ele>566.5</ele>
        <time>2022-06-08T09:00:19Z</time>
      </trkpt>
      <trkpt lat="46.46353" lon="5.70818">
        <ele>566.2</ele>
        <time>2022-06-08T09:00:23Z</time>
      </trkpt>
      <trkpt lat="46.46358" lon="5.70816">
        <ele>566.1</ele>
        <time>2022-06-08T09:00:27Z</time>
      </trkpt>
      <trkpt lat="46.46364" lon="5.70813">
        <ele>565.9</ele>
        <time>2022-06-08T09:00:31Z</time>
      </trkpt>
      <trkpt lat="46.46368" lon="5.70811">
        <ele>565.9</ele>
        <time>2022-06-08T09:00:35Z</time>
      </trkpt>
      <trkpt lat="46.46372" lon="5.70807">
        <ele>565.9</ele>
        <time>2022-06-08T09:00:41Z</time>
      </trkpt>
      <trkpt lat="46.46376" lon="5.70804">
        <ele>565.9</ele>
        <time>2022-06-08T09:00:45Z</time>
      </trkpt>
      <trkpt lat="46.4638" lon="5.708">
        <ele>566</ele>
        <time>2022-06-08T09:00:48Z</time>
      </trkpt>
      <trkpt lat="46.46384" lon="5.70795">
        <ele>566.1</ele>
        <time>2022-06-08T09:00:52Z</time>
      </trkpt>
      <trkpt lat="46.46389" lon="5.70791">
        <ele>566.2</ele>
        <time>2022-06-08T09:00:56Z</time>
      </trkpt>
      <trkpt lat="46.46393" lon="5.70787">
        <ele>566.2</ele>
        <time>2022-06-08T09:01:00Z</time>
      </trkpt>
      <trkpt lat="46.46398" lon="5.70784">
        <ele>566.3</ele>
        <time>2022-06-08T09:01:05Z</time>
      </trkpt>
      <trkpt lat="46.46402" lon="5.70781">
        <ele>566.6</ele>
        <time>2022-06-08T09:01:09Z</time>
      </trkpt>
      <trkpt lat="46.46406" lon="5.70783">
        <ele>567.5</ele>
        <time>2022-06-08T09:01:17Z</time>
      </trkpt>
      <trkpt lat="46.4641" lon="5.70778">
        <ele>567.2</ele>
        <time>2022-06-08T09:01:24Z</time>
      </trkpt>
      <trkpt lat="46.46411" lon="5.70769">
        <ele>565.6</ele>
        <time>2022-06-08T09:01:30Z</time>
      </trkpt>
      <trkpt lat="46.46414" lon="5.70763">
        <ele>565</ele>
        <time>2022-06-08T09:01:33Z</time>
      </trkpt>
      <trkpt lat="46.46418" lon="5.70758">
        <ele>564.6</ele>
        <time>2022-06-08T09:01:37Z</time>
      </trkpt>
      <trkpt lat="46.46422" lon="5.70753">
        <ele>563.9</ele>
        <time>2022-06-08T09:01:41Z</time>
      </trkpt>
      <trkpt lat="46.46427" lon="5.70753">
        <ele>562.6</ele>
        <time>2022-06-08T09:01:48Z</time>
      </trkpt>
      <trkpt lat="46.46432" lon="5.70749">
        <ele>560.6</ele>
        <time>2022-06-08T09:01:55Z</time>
      </trkpt>
      <trkpt lat="46.46436" lon="5.70746">
        <ele>559.2</ele>
        <time>2022-06-08T09:01:59Z</time>
      </trkpt>
      <trkpt lat="46.46441" lon="5.70743">
        <ele>558</ele>
        <time>2022-06-08T09:02:03Z</time>
      </trkpt>
      <trkpt lat="46.46445" lon="5.70739">
        <ele>557.1</ele>
        <time>2022-06-08T09:02:07Z</time>
      </trkpt>
      <trkpt lat="46.46448" lon="5.70735">
        <ele>556.3</ele>
        <time>2022-06-08T09:02:11Z</time>
      </trkpt>
      <trkpt lat="46.46453" lon="5.7073">
        <ele>556.1</ele>
        <time>2022-06-08T09:02:15Z</time>
      </trkpt>
      <trkpt lat="46.46457" lon="5.70726">
        <ele>556.6</ele>
        <time>2022-06-08T09:02:19Z</time>
      </trkpt>
      <trkpt lat="46.46462" lon="5.70724">
        <ele>557.4</ele>
        <time>2022-06-08T09:02:24Z</time>
      </trkpt>
      <trkpt lat="46.46467" lon="5.7072">
        <ele>558.1</ele>
        <time>2022-06-08T09:02:29Z</time>
      </trkpt>
      <trkpt lat="46.46472" lon="5.70716">
        <ele>558.5</ele>
        <time>2022-06-08T09:02:33Z</time>
      </trkpt>
      <trkpt lat="46.46476" lon="5.70712">
        <ele>559</ele>
        <time>2022-06-08T09:02:37Z</time>
      </trkpt>
      <trkpt lat="46.46479" lon="5.70706">
        <ele>559.5</ele>
        <time>2022-06-08T09:02:40Z</time>
      </trkpt>
      <trkpt lat="46.46482" lon="5.707">
        <ele>560.4</ele>
        <time>2022-06-08T09:02:45Z</time>
      </trkpt>
      <trkpt lat="46.46486" lon="5.70694">
        <ele>560.8</ele>
        <time>2022-06-08T09:02:50Z</time>
      </trkpt>
      <trkpt lat="46.46491" lon="5.70694">
        <ele>559.9</ele>
        <time>2022-06-08T09:02:55Z</time>
      </trkpt>
      <trkpt lat="46.46496" lon="5.70691">
        <ele>557.7</ele>
        <time>2022-06-08T09:03:01Z</time>
      </trkpt>
      <trkpt lat="46.46501" lon="5.70688">
        <ele>556.5</ele>
        <time>2022-06-08T09:03:06Z</time>
      </trkpt>
      <trkpt lat="46.46506" lon="5.70684">
        <ele>556.1</ele>
        <time>2022-06-08T09:03:10Z</time>
      </trkpt>
      <trkpt lat="46.4651" lon="5.7068">
        <ele>555.9</ele>
        <time>2022-06-08T09:03:14Z</time>
      </trkpt>
      <trkpt lat="46.46513" lon="5.70672">
        <ele>556.5</ele>
        <time>2022-06-08T09:03:19Z</time>
      </trkpt>
      <trkpt lat="46.46514" lon="5.70666">
        <ele>557.1</ele>
        <time>2022-06-08T09:03:23Z</time>
      </trkpt>
      <trkpt lat="46.46517" lon="5.7066">
        <ele>557.8</ele>
        <time>2022-06-08T09:03:28Z</time>
      </trkpt>
      <trkpt lat="46.4652" lon="5.70653">
        <ele>558</ele>
        <time>2022-06-08T09:03:33Z</time>
      </trkpt>
      <trkpt lat="46.4652" lon="5.70646">
        <ele>557.9</ele>
        <time>2022-06-08T09:03:40Z</time>
      </trkpt>
      <trkpt lat="46.46524" lon="5.70642">
        <ele>558.1</ele>
        <time>2022-06-08T09:04:12Z</time>
      </trkpt>
      <trkpt lat="46.46528" lon="5.70639">
        <ele>558.8</ele>
        <time>2022-06-08T09:04:15Z</time>
      </trkpt>
      <trkpt lat="46.46533" lon="5.70636">
        <ele>559.3</ele>
        <time>2022-06-08T09:04:19Z</time>
      </trkpt>
      <trkpt lat="46.46536" lon="5.70631">
        <ele>560</ele>
        <time>2022-06-08T09:04:24Z</time>
      </trkpt>
      <trkpt lat="46.46538" lon="5.70623">
        <ele>560.4</ele>
        <time>2022-06-08T09:04:29Z</time>
      </trkpt>
      <trkpt lat="46.46538" lon="5.70616">
        <ele>560.3</ele>
        <time>2022-06-08T09:04:34Z</time>
      </trkpt>
      <trkpt lat="46.46541" lon="5.70611">
        <ele>559.7</ele>
        <time>2022-06-08T09:04:43Z</time>
      </trkpt>
      <trkpt lat="46.46542" lon="5.70604">
        <ele>559.3</ele>
        <time>2022-06-08T09:04:48Z</time>
      </trkpt>
      <trkpt lat="46.46546" lon="5.706">
        <ele>560.5</ele>
        <time>2022-06-08T09:04:54Z</time>
      </trkpt>
      <trkpt lat="46.46548" lon="5.70594">
        <ele>561.8</ele>
        <time>2022-06-08T09:04:58Z</time>
      </trkpt>
      <trkpt lat="46.46549" lon="5.70587">
        <ele>558.7</ele>
        <time>2022-06-08T09:05:13Z</time>
      </trkpt>
      <trkpt lat="46.46548" lon="5.7058">
        <ele>555</ele>
        <time>2022-06-08T09:05:20Z</time>
      </trkpt>
      <trkpt lat="46.46548" lon="5.70573">
        <ele>552.1</ele>
        <time>2022-06-08T09:05:28Z</time>
      </trkpt>
      <trkpt lat="46.46549" lon="5.70566">
        <ele>550.9</ele>
        <time>2022-06-08T09:05:33Z</time>
      </trkpt>
      <trkpt lat="46.46548" lon="5.70559">
        <ele>548.4</ele>
        <time>2022-06-08T09:05:44Z</time>
      </trkpt>
      <trkpt lat="46.46547" lon="5.70552">
        <ele>547.8</ele>
        <time>2022-06-08T09:05:48Z</time>
      </trkpt>
      <trkpt lat="46.46547" lon="5.70546">
        <ele>547.3</ele>
        <time>2022-06-08T09:05:52Z</time>
      </trkpt>
      <trkpt lat="46.4655" lon="5.70539">
        <ele>547.1</ele>
        <time>2022-06-08T09:05:56Z</time>
      </trkpt>
      <trkpt lat="46.46554" lon="5.70533">
        <ele>547.6</ele>
        <time>2022-06-08T09:06:00Z</time>
      </trkpt>
      <trkpt lat="46.46554" lon="5.70525">
        <ele>548.8</ele>
        <time>2022-06-08T09:06:05Z</time>
      </trkpt>
      <trkpt lat="46.46553" lon="5.70517">
        <ele>549</ele>
        <time>2022-06-08T09:06:10Z</time>
      </trkpt>
      <trkpt lat="46.46551" lon="5.70511">
        <ele>549.1</ele>
        <time>2022-06-08T09:06:13Z</time>
      </trkpt>
      <trkpt lat="46.46549" lon="5.70505">
        <ele>549.2</ele>
        <time>2022-06-08T09:06:16Z</time>
      </trkpt>
      <trkpt lat="46.46549" lon="5.70498">
        <ele>548.6</ele>
        <time>2022-06-08T09:06:20Z</time>
      </trkpt>
      <trkpt lat="46.46549" lon="5.70491">
        <ele>548.3</ele>
        <time>2022-06-08T09:06:25Z</time>
      </trkpt>
      <trkpt lat="46.46551" lon="5.70485">
        <ele>547.7</ele>
        <time>2022-06-08T09:06:37Z</time>
      </trkpt>
      <trkpt lat="46.46552" lon="5.70476">
        <ele>547.7</ele>
        <time>2022-06-08T09:06:42Z</time>
      </trkpt>
      <trkpt lat="46.46551" lon="5.70469">
        <ele>547.7</ele>
        <time>2022-06-08T09:06:45Z</time>
      </trkpt>
      <trkpt lat="46.46551" lon="5.70462">
        <ele>547.5</ele>
        <time>2022-06-08T09:06:49Z</time>
      </trkpt>
      <trkpt lat="46.46552" lon="5.70455">
        <ele>547.5</ele>
        <time>2022-06-08T09:06:54Z</time>
      </trkpt>
      <trkpt lat="46.46554" lon="5.70449">
        <ele>548.1</ele>
        <time>2022-06-08T09:07:01Z</time>
      </trkpt>
      <trkpt lat="46.46555" lon="5.70442">
        <ele>546.8</ele>
        <time>2022-06-08T09:07:10Z</time>
      </trkpt>
      <trkpt lat="46.46558" lon="5.70437">
        <ele>545.8</ele>
        <time>2022-06-08T09:07:16Z</time>
      </trkpt>
      <trkpt lat="46.46561" lon="5.70429">
        <ele>545.2</ele>
        <time>2022-06-08T09:07:20Z</time>
      </trkpt>
      <trkpt lat="46.46562" lon="5.70422">
        <ele>544.8</ele>
        <time>2022-06-08T09:07:23Z</time>
      </trkpt>
      <trkpt lat="46.46563" lon="5.70415">
        <ele>544.6</ele>
        <time>2022-06-08T09:07:26Z</time>
      </trkpt>
      <trkpt lat="46.46565" lon="5.70409">
        <ele>544.7</ele>
        <time>2022-06-08T09:07:31Z</time>
      </trkpt>
      <trkpt lat="46.46569" lon="5.70405">
        <ele>542.8</ele>
        <time>2022-06-08T09:07:38Z</time>
      </trkpt>
      <trkpt lat="46.46573" lon="5.70399">
        <ele>541</ele>
        <time>2022-06-08T09:07:44Z</time>
      </trkpt>
      <trkpt lat="46.46574" lon="5.70392">
        <ele>539.5</ele>
        <time>2022-06-08T09:07:49Z</time>
      </trkpt>
      <trkpt lat="46.46575" lon="5.70385">
        <ele>539</ele>
        <time>2022-06-08T09:07:57Z</time>
      </trkpt>
      <trkpt lat="46.46575" lon="5.70378">
        <ele>539.7</ele>
        <time>2022-06-08T09:08:03Z</time>
      </trkpt>
      <trkpt lat="46.4657" lon="5.70375">
        <ele>539.6</ele>
        <time>2022-06-08T09:08:09Z</time>
      </trkpt>
      <trkpt lat="46.46566" lon="5.70376">
        <ele>538.8</ele>
        <time>2022-06-08T09:08:14Z</time>
      </trkpt>
      <trkpt lat="46.46568" lon="5.7037">
        <ele>537.9</ele>
        <time>2022-06-08T09:08:28Z</time>
      </trkpt>
      <trkpt lat="46.46562" lon="5.70368">
        <ele>537</ele>
        <time>2022-06-08T09:08:34Z</time>
      </trkpt>
      <trkpt lat="46.46557" lon="5.70371">
        <ele>536.5</ele>
        <time>2022-06-08T09:08:38Z</time>
      </trkpt>
      <trkpt lat="46.46552" lon="5.70374">
        <ele>536.3</ele>
        <time>2022-06-08T09:08:41Z</time>
      </trkpt>
      <trkpt lat="46.46545" lon="5.70377">
        <ele>536.1</ele>
        <time>2022-06-08T09:08:44Z</time>
      </trkpt>
      <trkpt lat="46.4654" lon="5.70379">
        <ele>536.8</ele>
        <time>2022-06-08T09:08:48Z</time>
      </trkpt>
      <trkpt lat="46.46536" lon="5.70379">
        <ele>538.4</ele>
        <time>2022-06-08T09:08:53Z</time>
      </trkpt>
      <trkpt lat="46.46535" lon="5.70373">
        <ele>540.8</ele>
        <time>2022-06-08T09:09:00Z</time>
      </trkpt>
      <trkpt lat="46.46531" lon="5.70368">
        <ele>541.2</ele>
        <time>2022-06-08T09:09:06Z</time>
      </trkpt>
      <trkpt lat="46.46528" lon="5.70363">
        <ele>541.1</ele>
        <time>2022-06-08T09:09:12Z</time>
      </trkpt>
      <trkpt lat="46.46523" lon="5.70358">
        <ele>540.8</ele>
        <time>2022-06-08T09:09:16Z</time>
      </trkpt>
      <trkpt lat="46.4652" lon="5.70353">
        <ele>540.8</ele>
        <time>2022-06-08T09:09:20Z</time>
      </trkpt>
      <trkpt lat="46.46515" lon="5.70349">
        <ele>540.6</ele>
        <time>2022-06-08T09:09:25Z</time>
      </trkpt>
      <trkpt lat="46.46512" lon="5.70344">
        <ele>540.3</ele>
        <time>2022-06-08T09:09:29Z</time>
      </trkpt>
      <trkpt lat="46.46512" lon="5.70337">
        <ele>539</ele>
        <time>2022-06-08T09:09:34Z</time>
      </trkpt>
      <trkpt lat="46.46512" lon="5.7033">
        <ele>537.2</ele>
        <time>2022-06-08T09:09:41Z</time>
      </trkpt>
      <trkpt lat="46.46512" lon="5.70323">
        <ele>536.2</ele>
        <time>2022-06-08T09:09:45Z</time>
      </trkpt>
      <trkpt lat="46.46513" lon="5.70316">
        <ele>535.8</ele>
        <time>2022-06-08T09:09:48Z</time>
      </trkpt>
      <trkpt lat="46.46515" lon="5.7031">
        <ele>535.4</ele>
        <time>2022-06-08T09:09:52Z</time>
      </trkpt>
      <trkpt lat="46.46517" lon="5.70302">
        <ele>534.7</ele>
        <time>2022-06-08T09:10:00Z</time>
      </trkpt>
      <trkpt lat="46.46518" lon="5.70295">
        <ele>535.4</ele>
        <time>2022-06-08T09:10:05Z</time>
      </trkpt>
      <trkpt lat="46.46517" lon="5.70288">
        <ele>535.6</ele>
        <time>2022-06-08T09:10:11Z</time>
      </trkpt>
      <trkpt lat="46.46515" lon="5.70282">
        <ele>535</ele>
        <time>2022-06-08T09:10:16Z</time>
      </trkpt>
      <trkpt lat="46.46512" lon="5.70275">
        <ele>534.1</ele>
        <time>2022-06-08T09:10:21Z</time>
      </trkpt>
      <trkpt lat="46.46509" lon="5.70269">
        <ele>533.8</ele>
        <time>2022-06-08T09:10:25Z</time>
      </trkpt>
      <trkpt lat="46.46508" lon="5.70261">
        <ele>533.9</ele>
        <time>2022-06-08T09:10:30Z</time>
      </trkpt>
      <trkpt lat="46.46506" lon="5.70255">
        <ele>533.9</ele>
        <time>2022-06-08T09:10:35Z</time>
      </trkpt>
      <trkpt lat="46.46504" lon="5.70249">
        <ele>533.6</ele>
        <time>2022-06-08T09:10:39Z</time>
      </trkpt>
      <trkpt lat="46.46501" lon="5.70243">
        <ele>533.3</ele>
        <time>2022-06-08T09:10:44Z</time>
      </trkpt>
      <trkpt lat="46.46496" lon="5.70242">
        <ele>532.4</ele>
        <time>2022-06-08T09:10:49Z</time>
      </trkpt>
      <trkpt lat="46.46491" lon="5.70239">
        <ele>531.5</ele>
        <time>2022-06-08T09:10:54Z</time>
      </trkpt>
      <trkpt lat="46.46486" lon="5.70235">
        <ele>530.9</ele>
        <time>2022-06-08T09:11:00Z</time>
      </trkpt>
      <trkpt lat="46.46482" lon="5.70233">
        <ele>530.7</ele>
        <time>2022-06-08T09:11:05Z</time>
      </trkpt>
      <trkpt lat="46.46477" lon="5.7023">
        <ele>530.9</ele>
        <time>2022-06-08T09:11:11Z</time>
      </trkpt>
      <trkpt lat="46.46473" lon="5.70226">
        <ele>531</ele>
        <time>2022-06-08T09:11:17Z</time>
      </trkpt>
      <trkpt lat="46.46469" lon="5.70229">
        <ele>529.2</ele>
        <time>2022-06-08T09:11:25Z</time>
      </trkpt>
      <trkpt lat="46.46464" lon="5.70228">
        <ele>523</ele>
        <time>2022-06-08T09:12:30Z</time>
      </trkpt>
      <trkpt lat="46.46461" lon="5.70233">
        <ele>521.4</ele>
        <time>2022-06-08T09:12:53Z</time>
      </trkpt>
      <trkpt lat="46.46457" lon="5.70232">
        <ele>524.3</ele>
        <time>2022-06-08T09:13:30Z</time>
      </trkpt>
      <trkpt lat="46.46452" lon="5.70234">
        <ele>523.9</ele>
        <time>2022-06-08T09:13:35Z</time>
      </trkpt>
      <trkpt lat="46.4645" lon="5.7024">
        <ele>523.8</ele>
        <time>2022-06-08T09:13:41Z</time>
      </trkpt>
      <trkpt lat="46.46451" lon="5.70233">
        <ele>525</ele>
        <time>2022-06-08T09:14:03Z</time>
      </trkpt>
      <trkpt lat="46.46448" lon="5.70229">
        <ele>524.3</ele>
        <time>2022-06-08T09:14:13Z</time>
      </trkpt>
      <trkpt lat="46.46443" lon="5.70231">
        <ele>524.1</ele>
        <time>2022-06-08T09:14:19Z</time>
      </trkpt>
      <trkpt lat="46.46438" lon="5.70232">
        <ele>524.3</ele>
        <time>2022-06-08T09:14:23Z</time>
      </trkpt>
      <trkpt lat="46.46433" lon="5.70234">
        <ele>524.4</ele>
        <time>2022-06-08T09:14:27Z</time>
      </trkpt>
      <trkpt lat="46.46429" lon="5.70238">
        <ele>524.2</ele>
        <time>2022-06-08T09:14:31Z</time>
      </trkpt>
      <trkpt lat="46.46425" lon="5.70242">
        <ele>524.5</ele>
        <time>2022-06-08T09:14:36Z</time>
      </trkpt>
      <trkpt lat="46.46421" lon="5.70246">
        <ele>524.5</ele>
        <time>2022-06-08T09:14:41Z</time>
      </trkpt>
      <trkpt lat="46.46416" lon="5.70247">
        <ele>524.3</ele>
        <time>2022-06-08T09:14:46Z</time>
      </trkpt>
      <trkpt lat="46.46411" lon="5.70249">
        <ele>523.4</ele>
        <time>2022-06-08T09:14:53Z</time>
      </trkpt>
      <trkpt lat="46.46406" lon="5.7025">
        <ele>522.3</ele>
        <time>2022-06-08T09:14:58Z</time>
      </trkpt>
      <trkpt lat="46.46401" lon="5.70249">
        <ele>521.5</ele>
        <time>2022-06-08T09:15:02Z</time>
      </trkpt>
      <trkpt lat="46.46396" lon="5.70247">
        <ele>520.8</ele>
        <time>2022-06-08T09:15:07Z</time>
      </trkpt>
      <trkpt lat="46.46393" lon="5.70252">
        <ele>519.8</ele>
        <time>2022-06-08T09:15:12Z</time>
      </trkpt>
      <trkpt lat="46.46388" lon="5.70254">
        <ele>519.7</ele>
        <time>2022-06-08T09:15:16Z</time>
      </trkpt>
      <trkpt lat="46.46384" lon="5.70251">
        <ele>520.3</ele>
        <time>2022-06-08T09:15:22Z</time>
      </trkpt>
      <trkpt lat="46.46379" lon="5.70249">
        <ele>522.1</ele>
        <time>2022-06-08T09:15:29Z</time>
      </trkpt>
      <trkpt lat="46.46374" lon="5.70249">
        <ele>522.9</ele>
        <time>2022-06-08T09:15:33Z</time>
      </trkpt>
      <trkpt lat="46.46369" lon="5.70248">
        <ele>523.4</ele>
        <time>2022-06-08T09:15:38Z</time>
      </trkpt>
      <trkpt lat="46.46366" lon="5.70242">
        <ele>524.8</ele>
        <time>2022-06-08T09:15:43Z</time>
      </trkpt>
      <trkpt lat="46.46361" lon="5.70238">
        <ele>526</ele>
        <time>2022-06-08T09:15:48Z</time>
      </trkpt>
      <trkpt lat="46.46357" lon="5.70239">
        <ele>527.3</ele>
        <time>2022-06-08T09:15:56Z</time>
      </trkpt>
      <trkpt lat="46.46352" lon="5.70235">
        <ele>527.4</ele>
        <time>2022-06-08T09:16:04Z</time>
      </trkpt>
      <trkpt lat="46.46347" lon="5.70236">
        <ele>526.7</ele>
        <time>2022-06-08T09:16:10Z</time>
      </trkpt>
      <trkpt lat="46.46342" lon="5.70236">
        <ele>526</ele>
        <time>2022-06-08T09:16:16Z</time>
      </trkpt>
      <trkpt lat="46.46337" lon="5.70239">
        <ele>525.3</ele>
        <time>2022-06-08T09:16:22Z</time>
      </trkpt>
      <trkpt lat="46.46332" lon="5.70239">
        <ele>525</ele>
        <time>2022-06-08T09:16:26Z</time>
      </trkpt>
      <trkpt lat="46.46328" lon="5.7024">
        <ele>524.6</ele>
        <time>2022-06-08T09:16:31Z</time>
      </trkpt>
      <trkpt lat="46.46325" lon="5.70246">
        <ele>524.3</ele>
        <time>2022-06-08T09:16:35Z</time>
      </trkpt>
      <trkpt lat="46.46322" lon="5.70252">
        <ele>523.8</ele>
        <time>2022-06-08T09:16:41Z</time>
      </trkpt>
      <trkpt lat="46.46318" lon="5.70253">
        <ele>523.4</ele>
        <time>2022-06-08T09:16:47Z</time>
      </trkpt>
      <trkpt lat="46.46313" lon="5.70257">
        <ele>523</ele>
        <time>2022-06-08T09:16:51Z</time>
      </trkpt>
      <trkpt lat="46.4631" lon="5.70262">
        <ele>522.8</ele>
        <time>2022-06-08T09:16:54Z</time>
      </trkpt>
      <trkpt lat="46.46307" lon="5.70267">
        <ele>522.7</ele>
        <time>2022-06-08T09:16:57Z</time>
      </trkpt>
      <trkpt lat="46.46304" lon="5.70273">
        <ele>522.7</ele>
        <time>2022-06-08T09:17:00Z</time>
      </trkpt>
      <trkpt lat="46.46302" lon="5.70279">
        <ele>522.9</ele>
        <time>2022-06-08T09:17:03Z</time>
      </trkpt>
      <trkpt lat="46.46299" lon="5.70285">
        <ele>523.1</ele>
        <time>2022-06-08T09:17:06Z</time>
      </trkpt>
      <trkpt lat="46.46297" lon="5.70292">
        <ele>523.5</ele>
        <time>2022-06-08T09:17:10Z</time>
      </trkpt>
      <trkpt lat="46.46294" lon="5.70298">
        <ele>524.3</ele>
        <time>2022-06-08T09:17:14Z</time>
      </trkpt>
      <trkpt lat="46.46291" lon="5.70304">
        <ele>525.2</ele>
        <time>2022-06-08T09:17:18Z</time>
      </trkpt>
      <trkpt lat="46.46288" lon="5.70309">
        <ele>525.8</ele>
        <time>2022-06-08T09:17:22Z</time>
      </trkpt>
      <trkpt lat="46.46285" lon="5.70314">
        <ele>526</ele>
        <time>2022-06-08T09:17:27Z</time>
      </trkpt>
      <trkpt lat="46.46282" lon="5.70321">
        <ele>525.9</ele>
        <time>2022-06-08T09:17:31Z</time>
      </trkpt>
      <trkpt lat="46.46279" lon="5.70326">
        <ele>525.9</ele>
        <time>2022-06-08T09:17:35Z</time>
      </trkpt>
      <trkpt lat="46.46276" lon="5.70332">
        <ele>525.8</ele>
        <time>2022-06-08T09:17:39Z</time>
      </trkpt>
      <trkpt lat="46.46273" lon="5.70338">
        <ele>526</ele>
        <time>2022-06-08T09:17:44Z</time>
      </trkpt>
      <trkpt lat="46.46268" lon="5.7034">
        <ele>525.9</ele>
        <time>2022-06-08T09:17:48Z</time>
      </trkpt>
      <trkpt lat="46.46264" lon="5.70344">
        <ele>525.7</ele>
        <time>2022-06-08T09:17:51Z</time>
      </trkpt>
      <trkpt lat="46.46259" lon="5.70348">
        <ele>525.1</ele>
        <time>2022-06-08T09:17:56Z</time>
      </trkpt>
      <trkpt lat="46.46256" lon="5.70352">
        <ele>524.2</ele>
        <time>2022-06-08T09:18:00Z</time>
      </trkpt>
      <trkpt lat="46.46252" lon="5.70355">
        <ele>523.6</ele>
        <time>2022-06-08T09:18:04Z</time>
      </trkpt>
      <trkpt lat="46.46248" lon="5.70361">
        <ele>523.2</ele>
        <time>2022-06-08T09:18:09Z</time>
      </trkpt>
      <trkpt lat="46.46247" lon="5.70369">
        <ele>523.3</ele>
        <time>2022-06-08T09:18:14Z</time>
      </trkpt>
      <trkpt lat="46.46243" lon="5.70374">
        <ele>523.7</ele>
        <time>2022-06-08T09:18:19Z</time>
      </trkpt>
      <trkpt lat="46.46239" lon="5.70377">
        <ele>524.4</ele>
        <time>2022-06-08T09:18:24Z</time>
      </trkpt>
      <trkpt lat="46.46234" lon="5.70382">
        <ele>524.8</ele>
        <time>2022-06-08T09:18:29Z</time>
      </trkpt>
      <trkpt lat="46.4623" lon="5.70385">
        <ele>524.5</ele>
        <time>2022-06-08T09:18:34Z</time>
      </trkpt>
      <trkpt lat="46.46226" lon="5.70389">
        <ele>523.8</ele>
        <time>2022-06-08T09:18:40Z</time>
      </trkpt>
      <trkpt lat="46.46223" lon="5.70394">
        <ele>522.9</ele>
        <time>2022-06-08T09:18:45Z</time>
      </trkpt>
      <trkpt lat="46.46226" lon="5.70399">
        <ele>524.5</ele>
        <time>2022-06-08T09:18:56Z</time>
      </trkpt>
      <trkpt lat="46.46222" lon="5.70403">
        <ele>515.4</ele>
        <time>2022-06-08T09:20:14Z</time>
      </trkpt>
      <trkpt lat="46.46226" lon="5.70399">
        <ele>519.7</ele>
        <time>2022-06-08T09:20:50Z</time>
      </trkpt>
      <trkpt lat="46.46228" lon="5.70394">
        <ele>520.4</ele>
        <time>2022-06-08T09:21:06Z</time>
      </trkpt>
      <trkpt lat="46.46223" lon="5.70396">
        <ele>520.5</ele>
        <time>2022-06-08T09:21:19Z</time>
      </trkpt>
      <trkpt lat="46.46218" lon="5.70397">
        <ele>520.1</ele>
        <time>2022-06-08T09:21:22Z</time>
      </trkpt>
      <trkpt lat="46.46222" lon="5.70395">
        <ele>517.8</ele>
        <time>2022-06-08T09:21:37Z</time>
      </trkpt>
      <trkpt lat="46.46227" lon="5.70396">
        <ele>518.1</ele>
        <time>2022-06-08T09:21:48Z</time>
      </trkpt>
      <trkpt lat="46.46221" lon="5.70394">
        <ele>519.1</ele>
        <time>2022-06-08T09:22:33Z</time>
      </trkpt>
      <trkpt lat="46.4622" lon="5.70387">
        <ele>519.4</ele>
        <time>2022-06-08T09:22:39Z</time>
      </trkpt>
      <trkpt lat="46.46223" lon="5.70392">
        <ele>518.8</ele>
        <time>2022-06-08T09:22:44Z</time>
      </trkpt>
      <trkpt lat="46.46227" lon="5.70396">
        <ele>518</ele>
        <time>2022-06-08T09:22:50Z</time>
      </trkpt>
      <trkpt lat="46.46222" lon="5.70397">
        <ele>516.3</ele>
        <time>2022-06-08T09:23:05Z</time>
      </trkpt>
      <trkpt lat="46.46217" lon="5.70398">
        <ele>515.7</ele>
        <time>2022-06-08T09:23:12Z</time>
      </trkpt>
      <trkpt lat="46.46212" lon="5.70399">
        <ele>515</ele>
        <time>2022-06-08T09:23:16Z</time>
      </trkpt>
      <trkpt lat="46.46208" lon="5.70398">
        <ele>514.2</ele>
        <time>2022-06-08T09:23:19Z</time>
      </trkpt>
      <trkpt lat="46.46203" lon="5.70399">
        <ele>513.4</ele>
        <time>2022-06-08T09:23:22Z</time>
      </trkpt>
      <trkpt lat="46.46198" lon="5.70397">
        <ele>511.2</ele>
        <time>2022-06-08T09:23:29Z</time>
      </trkpt>
      <trkpt lat="46.46196" lon="5.70392">
        <ele>509.7</ele>
        <time>2022-06-08T09:23:36Z</time>
      </trkpt>
      <trkpt lat="46.46195" lon="5.70383">
        <ele>509</ele>
        <time>2022-06-08T09:23:40Z</time>
      </trkpt>
      <trkpt lat="46.46193" lon="5.70377">
        <ele>507.7</ele>
        <time>2022-06-08T09:23:45Z</time>
      </trkpt>
      <trkpt lat="46.46191" lon="5.7037">
        <ele>507.3</ele>
        <time>2022-06-08T09:23:49Z</time>
      </trkpt>
      <trkpt lat="46.46189" lon="5.70364">
        <ele>508.1</ele>
        <time>2022-06-08T09:23:56Z</time>
      </trkpt>
      <trkpt lat="46.46189" lon="5.70356">
        <ele>509.8</ele>
        <time>2022-06-08T09:24:01Z</time>
      </trkpt>
      <trkpt lat="46.46189" lon="5.70348">
        <ele>512.1</ele>
        <time>2022-06-08T09:24:05Z</time>
      </trkpt>
      <trkpt lat="46.46188" lon="5.7034">
        <ele>515.5</ele>
        <time>2022-06-08T09:24:10Z</time>
      </trkpt>
      <trkpt lat="46.46188" lon="5.70333">
        <ele>521.8</ele>
        <time>2022-06-08T09:24:35Z</time>
      </trkpt>
      <trkpt lat="46.46187" lon="5.70325">
        <ele>520.8</ele>
        <time>2022-06-08T09:25:06Z</time>
      </trkpt>
      <trkpt lat="46.46186" lon="5.70318">
        <ele>521.8</ele>
        <time>2022-06-08T09:25:11Z</time>
      </trkpt>
      <trkpt lat="46.46182" lon="5.70313">
        <ele>522.3</ele>
        <time>2022-06-08T09:25:15Z</time>
      </trkpt>
      <trkpt lat="46.46182" lon="5.70305">
        <ele>522.6</ele>
        <time>2022-06-08T09:25:21Z</time>
      </trkpt>
      <trkpt lat="46.46182" lon="5.70298">
        <ele>523</ele>
        <time>2022-06-08T09:25:25Z</time>
      </trkpt>
      <trkpt lat="46.46178" lon="5.70294">
        <ele>522.8</ele>
        <time>2022-06-08T09:25:33Z</time>
      </trkpt>
      <trkpt lat="46.46173" lon="5.7029">
        <ele>521.2</ele>
        <time>2022-06-08T09:25:42Z</time>
      </trkpt>
      <trkpt lat="46.46168" lon="5.70286">
        <ele>520.3</ele>
        <time>2022-06-08T09:25:46Z</time>
      </trkpt>
      <trkpt lat="46.46164" lon="5.70282">
        <ele>518.1</ele>
        <time>2022-06-08T09:25:51Z</time>
      </trkpt>
      <trkpt lat="46.4616" lon="5.70277">
        <ele>516.6</ele>
        <time>2022-06-08T09:25:56Z</time>
      </trkpt>
      <trkpt lat="46.46156" lon="5.70271">
        <ele>516.2</ele>
        <time>2022-06-08T09:26:03Z</time>
      </trkpt>
      <trkpt lat="46.46152" lon="5.70268">
        <ele>516.1</ele>
        <time>2022-06-08T09:26:08Z</time>
      </trkpt>
      <trkpt lat="46.46148" lon="5.70264">
        <ele>516.7</ele>
        <time>2022-06-08T09:26:12Z</time>
      </trkpt>
      <trkpt lat="46.46145" lon="5.70258">
        <ele>516.2</ele>
        <time>2022-06-08T09:26:21Z</time>
      </trkpt>
      <trkpt lat="46.46143" lon="5.70251">
        <ele>514.3</ele>
        <time>2022-06-08T09:26:29Z</time>
      </trkpt>
      <trkpt lat="46.46141" lon="5.70245">
        <ele>513.2</ele>
        <time>2022-06-08T09:26:37Z</time>
      </trkpt>
      <trkpt lat="46.46138" lon="5.7024">
        <ele>511.4</ele>
        <time>2022-06-08T09:26:45Z</time>
      </trkpt>
      <trkpt lat="46.46135" lon="5.70234">
        <ele>510.6</ele>
        <time>2022-06-08T09:26:50Z</time>
      </trkpt>
      <trkpt lat="46.46133" lon="5.70228">
        <ele>511</ele>
        <time>2022-06-08T09:26:55Z</time>
      </trkpt>
      <trkpt lat="46.46127" lon="5.70226">
        <ele>511.3</ele>
        <time>2022-06-08T09:27:01Z</time>
      </trkpt>
      <trkpt lat="46.46123" lon="5.70222">
        <ele>510.3</ele>
        <time>2022-06-08T09:27:07Z</time>
      </trkpt>
      <trkpt lat="46.4612" lon="5.70216">
        <ele>508.9</ele>
        <time>2022-06-08T09:27:12Z</time>
      </trkpt>
      <trkpt lat="46.46116" lon="5.70213">
        <ele>507.3</ele>
        <time>2022-06-08T09:27:19Z</time>
      </trkpt>
      <trkpt lat="46.46111" lon="5.70213">
        <ele>506.1</ele>
        <time>2022-06-08T09:27:25Z</time>
      </trkpt>
      <trkpt lat="46.46106" lon="5.70214">
        <ele>506.3</ele>
        <time>2022-06-08T09:27:30Z</time>
      </trkpt>
      <trkpt lat="46.46102" lon="5.70212">
        <ele>505.8</ele>
        <time>2022-06-08T09:27:39Z</time>
      </trkpt>
      <trkpt lat="46.46097" lon="5.70208">
        <ele>503.9</ele>
        <time>2022-06-08T09:27:52Z</time>
      </trkpt>
      <trkpt lat="46.46094" lon="5.70203">
        <ele>504</ele>
        <time>2022-06-08T09:27:56Z</time>
      </trkpt>
      <trkpt lat="46.46088" lon="5.702">
        <ele>503.8</ele>
        <time>2022-06-08T09:28:01Z</time>
      </trkpt>
      <trkpt lat="46.46084" lon="5.70198">
        <ele>503.7</ele>
        <time>2022-06-08T09:28:05Z</time>
      </trkpt>
      <trkpt lat="46.46078" lon="5.70196">
        <ele>504.2</ele>
        <time>2022-06-08T09:28:09Z</time>
      </trkpt>
      <trkpt lat="46.46074" lon="5.70194">
        <ele>505.1</ele>
        <time>2022-06-08T09:28:14Z</time>
      </trkpt>
      <trkpt lat="46.46069" lon="5.70195">
        <ele>506.2</ele>
        <time>2022-06-08T09:28:23Z</time>
      </trkpt>
      <trkpt lat="46.46064" lon="5.70196">
        <ele>505.7</ele>
        <time>2022-06-08T09:28:29Z</time>
      </trkpt>
      <trkpt lat="46.46063" lon="5.7019">
        <ele>502.7</ele>
        <time>2022-06-08T09:28:39Z</time>
      </trkpt>
      <trkpt lat="46.46059" lon="5.70188">
        <ele>499.5</ele>
        <time>2022-06-08T09:28:53Z</time>
      </trkpt>
      <trkpt lat="46.46054" lon="5.70188">
        <ele>498.6</ele>
        <time>2022-06-08T09:28:57Z</time>
      </trkpt>
      <trkpt lat="46.46052" lon="5.70195">
        <ele>497</ele>
        <time>2022-06-08T09:29:02Z</time>
      </trkpt>
      <trkpt lat="46.4605" lon="5.70201">
        <ele>494.8</ele>
        <time>2022-06-08T09:29:10Z</time>
      </trkpt>
      <trkpt lat="46.46044" lon="5.702">
        <ele>494.5</ele>
        <time>2022-06-08T09:29:14Z</time>
      </trkpt>
      <trkpt lat="46.46039" lon="5.702">
        <ele>494.5</ele>
        <time>2022-06-08T09:29:18Z</time>
      </trkpt>
      <trkpt lat="46.46035" lon="5.70196">
        <ele>493.9</ele>
        <time>2022-06-08T09:29:23Z</time>
      </trkpt>
      <trkpt lat="46.4603" lon="5.70194">
        <ele>492.7</ele>
        <time>2022-06-08T09:29:29Z</time>
      </trkpt>
      <trkpt lat="46.46025" lon="5.70197">
        <ele>492</ele>
        <time>2022-06-08T09:29:35Z</time>
      </trkpt>
      <trkpt lat="46.4602" lon="5.70196">
        <ele>491.2</ele>
        <time>2022-06-08T09:29:46Z</time>
      </trkpt>
      <trkpt lat="46.46015" lon="5.70196">
        <ele>491.5</ele>
        <time>2022-06-08T09:29:53Z</time>
      </trkpt>
      <trkpt lat="46.46011" lon="5.70196">
        <ele>492</ele>
        <time>2022-06-08T09:29:57Z</time>
      </trkpt>
      <trkpt lat="46.46005" lon="5.70195">
        <ele>493.5</ele>
        <time>2022-06-08T09:30:04Z</time>
      </trkpt>
      <trkpt lat="46.46001" lon="5.70197">
        <ele>494.2</ele>
        <time>2022-06-08T09:30:12Z</time>
      </trkpt>
      <trkpt lat="46.45996" lon="5.70195">
        <ele>494.1</ele>
        <time>2022-06-08T09:30:16Z</time>
      </trkpt>
      <trkpt lat="46.45992" lon="5.70193">
        <ele>493.6</ele>
        <time>2022-06-08T09:30:21Z</time>
      </trkpt>
      <trkpt lat="46.45987" lon="5.70193">
        <ele>493</ele>
        <time>2022-06-08T09:30:27Z</time>
      </trkpt>
      <trkpt lat="46.45982" lon="5.70197">
        <ele>492.7</ele>
        <time>2022-06-08T09:30:32Z</time>
      </trkpt>
      <trkpt lat="46.45978" lon="5.70201">
        <ele>492.6</ele>
        <time>2022-06-08T09:30:36Z</time>
      </trkpt>
      <trkpt lat="46.45974" lon="5.70204">
        <ele>492.6</ele>
        <time>2022-06-08T09:30:40Z</time>
      </trkpt>
      <trkpt lat="46.4597" lon="5.70209">
        <ele>492</ele>
        <time>2022-06-08T09:30:47Z</time>
      </trkpt>
      <trkpt lat="46.45966" lon="5.70213">
        <ele>491</ele>
        <time>2022-06-08T09:30:53Z</time>
      </trkpt>
      <trkpt lat="46.45961" lon="5.70215">
        <ele>489.7</ele>
        <time>2022-06-08T09:30:58Z</time>
      </trkpt>
      <trkpt lat="46.45957" lon="5.70216">
        <ele>488.8</ele>
        <time>2022-06-08T09:31:03Z</time>
      </trkpt>
      <trkpt lat="46.45952" lon="5.70219">
        <ele>488.6</ele>
        <time>2022-06-08T09:31:08Z</time>
      </trkpt>
      <trkpt lat="46.45947" lon="5.7022">
        <ele>489.1</ele>
        <time>2022-06-08T09:31:13Z</time>
      </trkpt>
      <trkpt lat="46.45942" lon="5.7022">
        <ele>489.6</ele>
        <time>2022-06-08T09:31:18Z</time>
      </trkpt>
      <trkpt lat="46.45937" lon="5.70222">
        <ele>489.8</ele>
        <time>2022-06-08T09:31:23Z</time>
      </trkpt>
      <trkpt lat="46.45933" lon="5.70225">
        <ele>489.4</ele>
        <time>2022-06-08T09:31:29Z</time>
      </trkpt>
      <trkpt lat="46.45929" lon="5.70226">
        <ele>488.9</ele>
        <time>2022-06-08T09:31:33Z</time>
      </trkpt>
      <trkpt lat="46.45923" lon="5.70227">
        <ele>488.5</ele>
        <time>2022-06-08T09:31:37Z</time>
      </trkpt>
      <trkpt lat="46.45918" lon="5.70227">
        <ele>487.7</ele>
        <time>2022-06-08T09:31:41Z</time>
      </trkpt>
      <trkpt lat="46.45912" lon="5.70228">
        <ele>487</ele>
        <time>2022-06-08T09:31:46Z</time>
      </trkpt>
      <trkpt lat="46.45907" lon="5.70228">
        <ele>486.3</ele>
        <time>2022-06-08T09:31:50Z</time>
      </trkpt>
      <trkpt lat="46.45902" lon="5.7023">
        <ele>485.7</ele>
        <time>2022-06-08T09:31:54Z</time>
      </trkpt>
      <trkpt lat="46.45898" lon="5.70232">
        <ele>485</ele>
        <time>2022-06-08T09:31:59Z</time>
      </trkpt>
      <trkpt lat="46.45893" lon="5.70234">
        <ele>485</ele>
        <time>2022-06-08T09:32:04Z</time>
      </trkpt>
      <trkpt lat="46.45888" lon="5.70236">
        <ele>485.2</ele>
        <time>2022-06-08T09:32:09Z</time>
      </trkpt>
      <trkpt lat="46.45883" lon="5.7024">
        <ele>485.4</ele>
        <time>2022-06-08T09:32:14Z</time>
      </trkpt>
      <trkpt lat="46.45879" lon="5.70243">
        <ele>485.1</ele>
        <time>2022-06-08T09:32:19Z</time>
      </trkpt>
      <trkpt lat="46.45874" lon="5.70245">
        <ele>485.1</ele>
        <time>2022-06-08T09:32:25Z</time>
      </trkpt>
      <trkpt lat="46.45869" lon="5.70247">
        <ele>485.1</ele>
        <time>2022-06-08T09:32:31Z</time>
      </trkpt>
      <trkpt lat="46.45864" lon="5.70249">
        <ele>484.4</ele>
        <time>2022-06-08T09:32:36Z</time>
      </trkpt>
      <trkpt lat="46.45859" lon="5.7025">
        <ele>483.1</ele>
        <time>2022-06-08T09:32:42Z</time>
      </trkpt>
      <trkpt lat="46.45854" lon="5.7025">
        <ele>481.7</ele>
        <time>2022-06-08T09:32:47Z</time>
      </trkpt>
      <trkpt lat="46.45849" lon="5.70251">
        <ele>480.6</ele>
        <time>2022-06-08T09:32:51Z</time>
      </trkpt>
      <trkpt lat="46.45845" lon="5.70252">
        <ele>479.7</ele>
        <time>2022-06-08T09:32:55Z</time>
      </trkpt>
      <trkpt lat="46.4584" lon="5.70253">
        <ele>479</ele>
        <time>2022-06-08T09:32:59Z</time>
      </trkpt>
      <trkpt lat="46.45835" lon="5.70255">
        <ele>478.1</ele>
        <time>2022-06-08T09:33:04Z</time>
      </trkpt>
      <trkpt lat="46.45831" lon="5.70259">
        <ele>477</ele>
        <time>2022-06-08T09:33:08Z</time>
      </trkpt>
      <trkpt lat="46.45826" lon="5.70261">
        <ele>475.9</ele>
        <time>2022-06-08T09:33:12Z</time>
      </trkpt>
      <trkpt lat="46.45821" lon="5.70264">
        <ele>474.3</ele>
        <time>2022-06-08T09:33:18Z</time>
      </trkpt>
      <trkpt lat="46.45817" lon="5.70268">
        <ele>473.5</ele>
        <time>2022-06-08T09:33:23Z</time>
      </trkpt>
      <trkpt lat="46.45812" lon="5.70271">
        <ele>473.4</ele>
        <time>2022-06-08T09:33:28Z</time>
      </trkpt>
      <trkpt lat="46.45807" lon="5.70273">
        <ele>473.4</ele>
        <time>2022-06-08T09:33:33Z</time>
      </trkpt>
      <trkpt lat="46.45802" lon="5.70274">
        <ele>473.6</ele>
        <time>2022-06-08T09:33:38Z</time>
      </trkpt>
      <trkpt lat="46.45797" lon="5.70276">
        <ele>473.5</ele>
        <time>2022-06-08T09:33:43Z</time>
      </trkpt>
      <trkpt lat="46.45791" lon="5.70275">
        <ele>472.7</ele>
        <time>2022-06-08T09:33:48Z</time>
      </trkpt>
      <trkpt lat="46.45786" lon="5.70275">
        <ele>472.3</ele>
        <time>2022-06-08T09:33:53Z</time>
      </trkpt>
      <trkpt lat="46.45781" lon="5.70274">
        <ele>472.2</ele>
        <time>2022-06-08T09:33:57Z</time>
      </trkpt>
      <trkpt lat="46.45776" lon="5.70275">
        <ele>472.2</ele>
        <time>2022-06-08T09:34:01Z</time>
      </trkpt>
      <trkpt lat="46.45771" lon="5.70276">
        <ele>472.3</ele>
        <time>2022-06-08T09:34:04Z</time>
      </trkpt>
      <trkpt lat="46.45766" lon="5.70276">
        <ele>472.4</ele>
        <time>2022-06-08T09:34:10Z</time>
      </trkpt>
      <trkpt lat="46.45761" lon="5.70277">
        <ele>472.5</ele>
        <time>2022-06-08T09:34:14Z</time>
      </trkpt>
      <trkpt lat="46.45756" lon="5.70275">
        <ele>472.4</ele>
        <time>2022-06-08T09:34:20Z</time>
      </trkpt>
      <trkpt lat="46.45751" lon="5.70273">
        <ele>472.1</ele>
        <time>2022-06-08T09:34:27Z</time>
      </trkpt>
      <trkpt lat="46.45746" lon="5.70272">
        <ele>471.6</ele>
        <time>2022-06-08T09:34:33Z</time>
      </trkpt>
      <trkpt lat="46.45741" lon="5.70271">
        <ele>471.3</ele>
        <time>2022-06-08T09:34:37Z</time>
      </trkpt>
      <trkpt lat="46.45735" lon="5.7027">
        <ele>470.8</ele>
        <time>2022-06-08T09:34:41Z</time>
      </trkpt>
      <trkpt lat="46.4573" lon="5.70267">
        <ele>470.2</ele>
        <time>2022-06-08T09:34:45Z</time>
      </trkpt>
      <trkpt lat="46.45725" lon="5.70265">
        <ele>468.8</ele>
        <time>2022-06-08T09:34:49Z</time>
      </trkpt>
      <trkpt lat="46.45721" lon="5.70262">
        <ele>467.6</ele>
        <time>2022-06-08T09:34:53Z</time>
      </trkpt>
      <trkpt lat="46.45715" lon="5.70265">
        <ele>467</ele>
        <time>2022-06-08T09:34:59Z</time>
      </trkpt>
      <trkpt lat="46.45711" lon="5.70264">
        <ele>466.9</ele>
        <time>2022-06-08T09:35:03Z</time>
      </trkpt>
      <trkpt lat="46.45705" lon="5.70263">
        <ele>466.9</ele>
        <time>2022-06-08T09:35:07Z</time>
      </trkpt>
      <trkpt lat="46.457" lon="5.70262">
        <ele>466.8</ele>
        <time>2022-06-08T09:35:11Z</time>
      </trkpt>
      <trkpt lat="46.45695" lon="5.70264">
        <ele>466.7</ele>
        <time>2022-06-08T09:35:16Z</time>
      </trkpt>
      <trkpt lat="46.45691" lon="5.70266">
        <ele>466.3</ele>
        <time>2022-06-08T09:35:21Z</time>
      </trkpt>
      <trkpt lat="46.45686" lon="5.70266">
        <ele>465.7</ele>
        <time>2022-06-08T09:35:26Z</time>
      </trkpt>
      <trkpt lat="46.4568" lon="5.70267">
        <ele>465.6</ele>
        <time>2022-06-08T09:35:31Z</time>
      </trkpt>
      <trkpt lat="46.45675" lon="5.70267">
        <ele>465.8</ele>
        <time>2022-06-08T09:35:36Z</time>
      </trkpt>
      <trkpt lat="46.4567" lon="5.70266">
        <ele>466</ele>
        <time>2022-06-08T09:35:41Z</time>
      </trkpt>
      <trkpt lat="46.45664" lon="5.70266">
        <ele>466.1</ele>
        <time>2022-06-08T09:35:45Z</time>
      </trkpt>
      <trkpt lat="46.45659" lon="5.70267">
        <ele>466.2</ele>
        <time>2022-06-08T09:35:49Z</time>
      </trkpt>
      <trkpt lat="46.45655" lon="5.70266">
        <ele>466</ele>
        <time>2022-06-08T09:35:53Z</time>
      </trkpt>
      <trkpt lat="46.4565" lon="5.70269">
        <ele>465.4</ele>
        <time>2022-06-08T09:35:58Z</time>
      </trkpt>
      <trkpt lat="46.45645" lon="5.70272">
        <ele>464.3</ele>
        <time>2022-06-08T09:36:04Z</time>
      </trkpt>
      <trkpt lat="46.45641" lon="5.70275">
        <ele>463.9</ele>
        <time>2022-06-08T09:36:08Z</time>
      </trkpt>
      <trkpt lat="46.45636" lon="5.70278">
        <ele>463.2</ele>
        <time>2022-06-08T09:36:14Z</time>
      </trkpt>
      <trkpt lat="46.45632" lon="5.70282">
        <ele>462.4</ele>
        <time>2022-06-08T09:36:20Z</time>
      </trkpt>
      <trkpt lat="46.45628" lon="5.70288">
        <ele>461.5</ele>
        <time>2022-06-08T09:36:25Z</time>
      </trkpt>
      <trkpt lat="46.45623" lon="5.70289">
        <ele>461.3</ele>
        <time>2022-06-08T09:36:29Z</time>
      </trkpt>
      <trkpt lat="46.45616" lon="5.70289">
        <ele>461.6</ele>
        <time>2022-06-08T09:36:32Z</time>
      </trkpt>
      <trkpt lat="46.45612" lon="5.70289">
        <ele>462.4</ele>
        <time>2022-06-08T09:36:35Z</time>
      </trkpt>
      <trkpt lat="46.45607" lon="5.7029">
        <ele>463.4</ele>
        <time>2022-06-08T09:36:39Z</time>
      </trkpt>
      <trkpt lat="46.45602" lon="5.7029">
        <ele>464.5</ele>
        <time>2022-06-08T09:36:44Z</time>
      </trkpt>
      <trkpt lat="46.45598" lon="5.70293">
        <ele>465.2</ele>
        <time>2022-06-08T09:36:50Z</time>
      </trkpt>
      <trkpt lat="46.45593" lon="5.70295">
        <ele>465.4</ele>
        <time>2022-06-08T09:36:55Z</time>
      </trkpt>
      <trkpt lat="46.45588" lon="5.70297">
        <ele>465.5</ele>
        <time>2022-06-08T09:37:00Z</time>
      </trkpt>
      <trkpt lat="46.45584" lon="5.703">
        <ele>465.5</ele>
        <time>2022-06-08T09:37:05Z</time>
      </trkpt>
      <trkpt lat="46.45578" lon="5.70302">
        <ele>465.2</ele>
        <time>2022-06-08T09:37:10Z</time>
      </trkpt>
      <trkpt lat="46.45574" lon="5.70301">
        <ele>464.7</ele>
        <time>2022-06-08T09:37:15Z</time>
      </trkpt>
      <trkpt lat="46.45569" lon="5.70303">
        <ele>464.8</ele>
        <time>2022-06-08T09:37:20Z</time>
      </trkpt>
      <trkpt lat="46.45564" lon="5.70307">
        <ele>465.1</ele>
        <time>2022-06-08T09:37:25Z</time>
      </trkpt>
      <trkpt lat="46.45559" lon="5.70307">
        <ele>465.7</ele>
        <time>2022-06-08T09:37:29Z</time>
      </trkpt>
      <trkpt lat="46.45554" lon="5.70304">
        <ele>466.5</ele>
        <time>2022-06-08T09:37:33Z</time>
      </trkpt>
      <trkpt lat="46.45549" lon="5.70303">
        <ele>467.2</ele>
        <time>2022-06-08T09:37:37Z</time>
      </trkpt>
      <trkpt lat="46.45548" lon="5.70311">
        <ele>470.2</ele>
        <time>2022-06-08T09:37:55Z</time>
      </trkpt>
      <trkpt lat="46.45551" lon="5.70303">
        <ele>471.8</ele>
        <time>2022-06-08T09:38:02Z</time>
      </trkpt>
      <trkpt lat="46.45552" lon="5.70295">
        <ele>472.3</ele>
        <time>2022-06-08T09:38:05Z</time>
      </trkpt>
      <trkpt lat="46.45553" lon="5.70288">
        <ele>472.9</ele>
        <time>2022-06-08T09:38:08Z</time>
      </trkpt>
      <trkpt lat="46.45552" lon="5.70281">
        <ele>473.3</ele>
        <time>2022-06-08T09:38:12Z</time>
      </trkpt>
      <trkpt lat="46.45552" lon="5.70274">
        <ele>473.5</ele>
        <time>2022-06-08T09:38:18Z</time>
      </trkpt>
      <trkpt lat="46.45553" lon="5.70267">
        <ele>472.1</ele>
        <time>2022-06-08T09:38:29Z</time>
      </trkpt>
      <trkpt lat="46.45556" lon="5.70261">
        <ele>470.9</ele>
        <time>2022-06-08T09:38:34Z</time>
      </trkpt>
      <trkpt lat="46.45559" lon="5.70256">
        <ele>469.9</ele>
        <time>2022-06-08T09:38:40Z</time>
      </trkpt>
      <trkpt lat="46.45561" lon="5.70249">
        <ele>469.4</ele>
        <time>2022-06-08T09:38:48Z</time>
      </trkpt>
      <trkpt lat="46.45562" lon="5.70242">
        <ele>469</ele>
        <time>2022-06-08T09:38:55Z</time>
      </trkpt>
      <trkpt lat="46.45564" lon="5.70234">
        <ele>469</ele>
        <time>2022-06-08T09:38:59Z</time>
      </trkpt>
      <trkpt lat="46.45566" lon="5.70228">
        <ele>470.2</ele>
        <time>2022-06-08T09:39:05Z</time>
      </trkpt>
      <trkpt lat="46.45564" lon="5.70221">
        <ele>473.1</ele>
        <time>2022-06-08T09:39:15Z</time>
      </trkpt>
      <trkpt lat="46.45569" lon="5.70225">
        <ele>475.8</ele>
        <time>2022-06-08T09:39:51Z</time>
      </trkpt>
      <trkpt lat="46.45574" lon="5.70223">
        <ele>474.5</ele>
        <time>2022-06-08T09:40:30Z</time>
      </trkpt>
      <trkpt lat="46.45577" lon="5.70219">
        <ele>473.7</ele>
        <time>2022-06-08T09:40:36Z</time>
      </trkpt>
      <trkpt lat="46.45573" lon="5.70221">
        <ele>472.1</ele>
        <time>2022-06-08T09:41:17Z</time>
      </trkpt>
      <trkpt lat="46.4557" lon="5.70226">
        <ele>471.9</ele>
        <time>2022-06-08T09:41:24Z</time>
      </trkpt>
      <trkpt lat="46.45567" lon="5.70232">
        <ele>472.2</ele>
        <time>2022-06-08T09:41:31Z</time>
      </trkpt>
      <trkpt lat="46.45563" lon="5.70235">
        <ele>473</ele>
        <time>2022-06-08T09:41:37Z</time>
      </trkpt>
      <trkpt lat="46.45559" lon="5.70236">
        <ele>474</ele>
        <time>2022-06-08T09:41:44Z</time>
      </trkpt>
      <trkpt lat="46.45559" lon="5.70229">
        <ele>475.6</ele>
        <time>2022-06-08T09:42:05Z</time>
      </trkpt>
      <trkpt lat="46.45564" lon="5.70226">
        <ele>477.6</ele>
        <time>2022-06-08T09:42:19Z</time>
      </trkpt>
      <trkpt lat="46.45568" lon="5.70229">
        <ele>477.4</ele>
        <time>2022-06-08T09:42:22Z</time>
      </trkpt>
      <trkpt lat="46.45565" lon="5.70235">
        <ele>476.6</ele>
        <time>2022-06-08T09:43:16Z</time>
      </trkpt>
      <trkpt lat="46.45564" lon="5.70241">
        <ele>475.4</ele>
        <time>2022-06-08T09:43:23Z</time>
      </trkpt>
      <trkpt lat="46.45565" lon="5.70249">
        <ele>473.3</ele>
        <time>2022-06-08T09:43:34Z</time>
      </trkpt>
      <trkpt lat="46.45567" lon="5.70254">
        <ele>471.6</ele>
        <time>2022-06-08T09:43:45Z</time>
      </trkpt>
      <trkpt lat="46.4557" lon="5.70259">
        <ele>471.7</ele>
        <time>2022-06-08T09:43:54Z</time>
      </trkpt>
      <trkpt lat="46.45565" lon="5.70258">
        <ele>472</ele>
        <time>2022-06-08T09:44:33Z</time>
      </trkpt>
      <trkpt lat="46.45561" lon="5.70261">
        <ele>477.4</ele>
        <time>2022-06-08T09:48:36Z</time>
      </trkpt>
      <trkpt lat="46.45566" lon="5.70263">
        <ele>477.1</ele>
        <time>2022-06-08T09:48:53Z</time>
      </trkpt>
      <trkpt lat="46.45567" lon="5.70256">
        <ele>479.7</ele>
        <time>2022-06-08T09:49:24Z</time>
      </trkpt>
      <trkpt lat="46.45563" lon="5.70259">
        <ele>475.3</ele>
        <time>2022-06-08T09:51:54Z</time>
      </trkpt>
      <trkpt lat="46.45564" lon="5.70252">
        <ele>477</ele>
        <time>2022-06-08T09:52:51Z</time>
      </trkpt>
      <trkpt lat="46.45569" lon="5.70255">
        <ele>483.2</ele>
        <time>2022-06-08T09:55:11Z</time>
      </trkpt>
      <trkpt lat="46.45573" lon="5.7026">
        <ele>484.3</ele>
        <time>2022-06-08T09:55:42Z</time>
      </trkpt>
      <trkpt lat="46.45571" lon="5.70253">
        <ele>484.6</ele>
        <time>2022-06-08T09:56:40Z</time>
      </trkpt>
      <trkpt lat="46.45566" lon="5.70252">
        <ele>480.2</ele>
        <time>2022-06-08T09:56:57Z</time>
      </trkpt>
      <trkpt lat="46.45572" lon="5.70249">
        <ele>470.6</ele>
        <time>2022-06-08T09:58:20Z</time>
      </trkpt>
      <trkpt lat="46.45575" lon="5.70245">
        <ele>473.8</ele>
        <time>2022-06-08T09:58:36Z</time>
      </trkpt>
      <trkpt lat="46.45571" lon="5.7025">
        <ele>476.5</ele>
        <time>2022-06-08T09:59:12Z</time>
      </trkpt>
      <trkpt lat="46.45571" lon="5.70243">
        <ele>473.7</ele>
        <time>2022-06-08T10:02:10Z</time>
      </trkpt>
      <trkpt lat="46.45569" lon="5.7025">
        <ele>471.1</ele>
        <time>2022-06-08T10:03:00Z</time>
      </trkpt>
      <trkpt lat="46.45571" lon="5.70257">
        <ele>475.6</ele>
        <time>2022-06-08T10:03:24Z</time>
      </trkpt>
      <trkpt lat="46.45566" lon="5.7026">
        <ele>473.7</ele>
        <time>2022-06-08T10:05:18Z</time>
      </trkpt>
      <trkpt lat="46.45569" lon="5.70254">
        <ele>473.4</ele>
        <time>2022-06-08T10:07:46Z</time>
      </trkpt>
      <trkpt lat="46.45564" lon="5.70253">
        <ele>477.2</ele>
        <time>2022-06-08T10:08:24Z</time>
      </trkpt>
      <trkpt lat="46.45563" lon="5.7026">
        <ele>478.1</ele>
        <time>2022-06-08T10:08:36Z</time>
      </trkpt>
      <trkpt lat="46.45567" lon="5.70255">
        <ele>477.3</ele>
        <time>2022-06-08T10:08:53Z</time>
      </trkpt>
      <trkpt lat="46.45562" lon="5.70257">
        <ele>475.2</ele>
        <time>2022-06-08T10:13:35Z</time>
      </trkpt>
      <trkpt lat="46.45567" lon="5.70255">
        <ele>481.3</ele>
        <time>2022-06-08T10:14:25Z</time>
      </trkpt>
      <trkpt lat="46.4557" lon="5.70251">
        <ele>481.1</ele>
        <time>2022-06-08T10:15:27Z</time>
      </trkpt>
      <trkpt lat="46.45569" lon="5.70257">
        <ele>477.5</ele>
        <time>2022-06-08T10:22:46Z</time>
      </trkpt>
      <trkpt lat="46.45564" lon="5.70257">
        <ele>476.5</ele>
        <time>2022-06-08T10:23:11Z</time>
      </trkpt>
      <trkpt lat="46.45567" lon="5.70252">
        <ele>471.6</ele>
        <time>2022-06-08T10:24:09Z</time>
      </trkpt>
      <trkpt lat="46.45572" lon="5.7025">
        <ele>469.5</ele>
        <time>2022-06-08T10:24:54Z</time>
      </trkpt>
      <trkpt lat="46.45566" lon="5.70252">
        <ele>469</ele>
        <time>2022-06-08T10:25:00Z</time>
      </trkpt>
      <trkpt lat="46.45566" lon="5.70246">
        <ele>467.9</ele>
        <time>2022-06-08T10:25:10Z</time>
      </trkpt>
      <trkpt lat="46.45561" lon="5.70243">
        <ele>467.5</ele>
        <time>2022-06-08T10:25:34Z</time>
      </trkpt>
      <trkpt lat="46.45561" lon="5.7025">
        <ele>473.1</ele>
        <time>2022-06-08T10:26:16Z</time>
      </trkpt>
      <trkpt lat="46.45561" lon="5.70257">
        <ele>472.4</ele>
        <time>2022-06-08T10:26:20Z</time>
      </trkpt>
      <trkpt lat="46.45562" lon="5.70264">
        <ele>471.9</ele>
        <time>2022-06-08T10:26:24Z</time>
      </trkpt>
      <trkpt lat="46.45561" lon="5.70271">
        <ele>471.4</ele>
        <time>2022-06-08T10:26:30Z</time>
      </trkpt>
      <trkpt lat="46.45558" lon="5.70275">
        <ele>470.3</ele>
        <time>2022-06-08T10:26:35Z</time>
      </trkpt>
      <trkpt lat="46.45554" lon="5.70281">
        <ele>469.4</ele>
        <time>2022-06-08T10:26:41Z</time>
      </trkpt>
      <trkpt lat="46.45554" lon="5.70289">
        <ele>468.9</ele>
        <time>2022-06-08T10:26:45Z</time>
      </trkpt>
      <trkpt lat="46.45554" lon="5.70295">
        <ele>468.5</ele>
        <time>2022-06-08T10:26:49Z</time>
      </trkpt>
      <trkpt lat="46.45553" lon="5.70303">
        <ele>468.1</ele>
        <time>2022-06-08T10:26:54Z</time>
      </trkpt>
      <trkpt lat="46.4555" lon="5.70309">
        <ele>468.4</ele>
        <time>2022-06-08T10:26:58Z</time>
      </trkpt>
      <trkpt lat="46.45546" lon="5.70314">
        <ele>468.9</ele>
        <time>2022-06-08T10:27:03Z</time>
      </trkpt>
      <trkpt lat="46.45542" lon="5.70319">
        <ele>469.1</ele>
        <time>2022-06-08T10:27:09Z</time>
      </trkpt>
      <trkpt lat="46.45539" lon="5.70324">
        <ele>469</ele>
        <time>2022-06-08T10:27:14Z</time>
      </trkpt>
      <trkpt lat="46.45534" lon="5.70329">
        <ele>469</ele>
        <time>2022-06-08T10:27:18Z</time>
      </trkpt>
      <trkpt lat="46.4553" lon="5.70332">
        <ele>469.3</ele>
        <time>2022-06-08T10:27:22Z</time>
      </trkpt>
      <trkpt lat="46.45524" lon="5.70333">
        <ele>469.8</ele>
        <time>2022-06-08T10:27:26Z</time>
      </trkpt>
      <trkpt lat="46.4552" lon="5.70335">
        <ele>470.1</ele>
        <time>2022-06-08T10:27:29Z</time>
      </trkpt>
      <trkpt lat="46.45514" lon="5.70337">
        <ele>470.4</ele>
        <time>2022-06-08T10:27:33Z</time>
      </trkpt>
      <trkpt lat="46.4551" lon="5.70339">
        <ele>470.2</ele>
        <time>2022-06-08T10:27:37Z</time>
      </trkpt>
      <trkpt lat="46.45505" lon="5.7034">
        <ele>469.6</ele>
        <time>2022-06-08T10:27:41Z</time>
      </trkpt>
      <trkpt lat="46.45501" lon="5.70341">
        <ele>468.8</ele>
        <time>2022-06-08T10:27:46Z</time>
      </trkpt>
      <trkpt lat="46.45498" lon="5.70347">
        <ele>467.6</ele>
        <time>2022-06-08T10:27:52Z</time>
      </trkpt>
      <trkpt lat="46.45494" lon="5.7035">
        <ele>466</ele>
        <time>2022-06-08T10:27:58Z</time>
      </trkpt>
      <trkpt lat="46.45491" lon="5.70355">
        <ele>465.1</ele>
        <time>2022-06-08T10:28:02Z</time>
      </trkpt>
      <trkpt lat="46.45487" lon="5.7036">
        <ele>464.8</ele>
        <time>2022-06-08T10:28:05Z</time>
      </trkpt>
      <trkpt lat="46.45484" lon="5.70366">
        <ele>464.8</ele>
        <time>2022-06-08T10:28:09Z</time>
      </trkpt>
      <trkpt lat="46.4548" lon="5.7037">
        <ele>465.4</ele>
        <time>2022-06-08T10:28:14Z</time>
      </trkpt>
      <trkpt lat="46.45475" lon="5.70372">
        <ele>466.9</ele>
        <time>2022-06-08T10:28:20Z</time>
      </trkpt>
      <trkpt lat="46.45471" lon="5.70376">
        <ele>468.4</ele>
        <time>2022-06-08T10:28:25Z</time>
      </trkpt>
      <trkpt lat="46.45466" lon="5.70378">
        <ele>469.6</ele>
        <time>2022-06-08T10:28:30Z</time>
      </trkpt>
      <trkpt lat="46.45461" lon="5.70379">
        <ele>470</ele>
        <time>2022-06-08T10:28:35Z</time>
      </trkpt>
      <trkpt lat="46.45456" lon="5.7038">
        <ele>469.5</ele>
        <time>2022-06-08T10:28:40Z</time>
      </trkpt>
      <trkpt lat="46.45451" lon="5.7038">
        <ele>469</ele>
        <time>2022-06-08T10:28:44Z</time>
      </trkpt>
      <trkpt lat="46.45448" lon="5.70385">
        <ele>467.3</ele>
        <time>2022-06-08T10:28:51Z</time>
      </trkpt>
      <trkpt lat="46.45443" lon="5.70388">
        <ele>466.2</ele>
        <time>2022-06-08T10:28:57Z</time>
      </trkpt>
      <trkpt lat="46.45438" lon="5.70391">
        <ele>465.6</ele>
        <time>2022-06-08T10:29:02Z</time>
      </trkpt>
      <trkpt lat="46.45432" lon="5.70391">
        <ele>465.8</ele>
        <time>2022-06-08T10:29:06Z</time>
      </trkpt>
      <trkpt lat="46.45427" lon="5.70391">
        <ele>466.1</ele>
        <time>2022-06-08T10:29:09Z</time>
      </trkpt>
      <trkpt lat="46.45422" lon="5.70394">
        <ele>466.2</ele>
        <time>2022-06-08T10:29:13Z</time>
      </trkpt>
      <trkpt lat="46.45417" lon="5.70393">
        <ele>466.3</ele>
        <time>2022-06-08T10:29:20Z</time>
      </trkpt>
      <trkpt lat="46.45412" lon="5.70396">
        <ele>466.5</ele>
        <time>2022-06-08T10:29:25Z</time>
      </trkpt>
      <trkpt lat="46.45408" lon="5.704">
        <ele>466.7</ele>
        <time>2022-06-08T10:29:29Z</time>
      </trkpt>
      <trkpt lat="46.45404" lon="5.70405">
        <ele>466.9</ele>
        <time>2022-06-08T10:29:34Z</time>
      </trkpt>
      <trkpt lat="46.45399" lon="5.70407">
        <ele>467.2</ele>
        <time>2022-06-08T10:29:41Z</time>
      </trkpt>
      <trkpt lat="46.45395" lon="5.70407">
        <ele>467.5</ele>
        <time>2022-06-08T10:29:46Z</time>
      </trkpt>
      <trkpt lat="46.4539" lon="5.70409">
        <ele>467.8</ele>
        <time>2022-06-08T10:29:50Z</time>
      </trkpt>
      <trkpt lat="46.45385" lon="5.70411">
        <ele>468.4</ele>
        <time>2022-06-08T10:29:54Z</time>
      </trkpt>
      <trkpt lat="46.4538" lon="5.70411">
        <ele>468.9</ele>
        <time>2022-06-08T10:29:58Z</time>
      </trkpt>
      <trkpt lat="46.45374" lon="5.70411">
        <ele>469.4</ele>
        <time>2022-06-08T10:30:04Z</time>
      </trkpt>
      <trkpt lat="46.45368" lon="5.70413">
        <ele>471</ele>
        <time>2022-06-08T10:30:14Z</time>
      </trkpt>
      <trkpt lat="46.45363" lon="5.70415">
        <ele>471.6</ele>
        <time>2022-06-08T10:30:18Z</time>
      </trkpt>
      <trkpt lat="46.45358" lon="5.70418">
        <ele>472</ele>
        <time>2022-06-08T10:30:22Z</time>
      </trkpt>
      <trkpt lat="46.45354" lon="5.70419">
        <ele>472.1</ele>
        <time>2022-06-08T10:30:26Z</time>
      </trkpt>
      <trkpt lat="46.45349" lon="5.70423">
        <ele>472.1</ele>
        <time>2022-06-08T10:30:30Z</time>
      </trkpt>
      <trkpt lat="46.45346" lon="5.70429">
        <ele>472.2</ele>
        <time>2022-06-08T10:30:34Z</time>
      </trkpt>
      <trkpt lat="46.45342" lon="5.70433">
        <ele>472.2</ele>
        <time>2022-06-08T10:30:38Z</time>
      </trkpt>
      <trkpt lat="46.45338" lon="5.70433">
        <ele>471.8</ele>
        <time>2022-06-08T10:30:44Z</time>
      </trkpt>
      <trkpt lat="46.45333" lon="5.70433">
        <ele>470.6</ele>
        <time>2022-06-08T10:30:50Z</time>
      </trkpt>
      <trkpt lat="46.45328" lon="5.70433">
        <ele>469.5</ele>
        <time>2022-06-08T10:30:54Z</time>
      </trkpt>
      <trkpt lat="46.45323" lon="5.70432">
        <ele>468.6</ele>
        <time>2022-06-08T10:30:58Z</time>
      </trkpt>
      <trkpt lat="46.45318" lon="5.7043">
        <ele>468.2</ele>
        <time>2022-06-08T10:31:03Z</time>
      </trkpt>
      <trkpt lat="46.45313" lon="5.70432">
        <ele>468.2</ele>
        <time>2022-06-08T10:31:10Z</time>
      </trkpt>
      <trkpt lat="46.45308" lon="5.70432">
        <ele>469.3</ele>
        <time>2022-06-08T10:31:19Z</time>
      </trkpt>
      <trkpt lat="46.45303" lon="5.70434">
        <ele>470.1</ele>
        <time>2022-06-08T10:31:23Z</time>
      </trkpt>
      <trkpt lat="46.45297" lon="5.70434">
        <ele>470</ele>
        <time>2022-06-08T10:31:27Z</time>
      </trkpt>
      <trkpt lat="46.45292" lon="5.70436">
        <ele>469.7</ele>
        <time>2022-06-08T10:31:30Z</time>
      </trkpt>
      <trkpt lat="46.45289" lon="5.70439">
        <ele>469.4</ele>
        <time>2022-06-08T10:31:35Z</time>
      </trkpt>
      <trkpt lat="46.45283" lon="5.7044">
        <ele>469.8</ele>
        <time>2022-06-08T10:31:41Z</time>
      </trkpt>
      <trkpt lat="46.45279" lon="5.70437">
        <ele>470.1</ele>
        <time>2022-06-08T10:31:45Z</time>
      </trkpt>
      <trkpt lat="46.45273" lon="5.70436">
        <ele>470.7</ele>
        <time>2022-06-08T10:31:51Z</time>
      </trkpt>
      <trkpt lat="46.45267" lon="5.70435">
        <ele>470.6</ele>
        <time>2022-06-08T10:31:56Z</time>
      </trkpt>
      <trkpt lat="46.45262" lon="5.70434">
        <ele>470.2</ele>
        <time>2022-06-08T10:32:01Z</time>
      </trkpt>
      <trkpt lat="46.45257" lon="5.70432">
        <ele>469.5</ele>
        <time>2022-06-08T10:32:07Z</time>
      </trkpt>
      <trkpt lat="46.45252" lon="5.70434">
        <ele>468.9</ele>
        <time>2022-06-08T10:32:11Z</time>
      </trkpt>
      <trkpt lat="46.45247" lon="5.70433">
        <ele>468.3</ele>
        <time>2022-06-08T10:32:17Z</time>
      </trkpt>
      <trkpt lat="46.45242" lon="5.70434">
        <ele>467.7</ele>
        <time>2022-06-08T10:32:26Z</time>
      </trkpt>
      <trkpt lat="46.45236" lon="5.7043">
        <ele>467.1</ele>
        <time>2022-06-08T10:32:32Z</time>
      </trkpt>
      <trkpt lat="46.45231" lon="5.70429">
        <ele>466.8</ele>
        <time>2022-06-08T10:32:35Z</time>
      </trkpt>
      <trkpt lat="46.45226" lon="5.70428">
        <ele>466.7</ele>
        <time>2022-06-08T10:32:39Z</time>
      </trkpt>
      <trkpt lat="46.45221" lon="5.70427">
        <ele>467</ele>
        <time>2022-06-08T10:32:44Z</time>
      </trkpt>
      <trkpt lat="46.45217" lon="5.70428">
        <ele>467.9</ele>
        <time>2022-06-08T10:32:52Z</time>
      </trkpt>
      <trkpt lat="46.45212" lon="5.70427">
        <ele>468.3</ele>
        <time>2022-06-08T10:32:56Z</time>
      </trkpt>
      <trkpt lat="46.45207" lon="5.70426">
        <ele>468.2</ele>
        <time>2022-06-08T10:32:59Z</time>
      </trkpt>
      <trkpt lat="46.45202" lon="5.70425">
        <ele>467.6</ele>
        <time>2022-06-08T10:33:03Z</time>
      </trkpt>
      <trkpt lat="46.45198" lon="5.70425">
        <ele>466.8</ele>
        <time>2022-06-08T10:33:08Z</time>
      </trkpt>
      <trkpt lat="46.45192" lon="5.70423">
        <ele>466.2</ele>
        <time>2022-06-08T10:33:12Z</time>
      </trkpt>
      <trkpt lat="46.45187" lon="5.7042">
        <ele>465.9</ele>
        <time>2022-06-08T10:33:16Z</time>
      </trkpt>
      <trkpt lat="46.45182" lon="5.70421">
        <ele>465.4</ele>
        <time>2022-06-08T10:33:20Z</time>
      </trkpt>
      <trkpt lat="46.45177" lon="5.70425">
        <ele>465</ele>
        <time>2022-06-08T10:33:24Z</time>
      </trkpt>
      <trkpt lat="46.45172" lon="5.70425">
        <ele>464.6</ele>
        <time>2022-06-08T10:33:28Z</time>
      </trkpt>
      <trkpt lat="46.45167" lon="5.70423">
        <ele>463.7</ele>
        <time>2022-06-08T10:33:35Z</time>
      </trkpt>
      <trkpt lat="46.45163" lon="5.70427">
        <ele>462.7</ele>
        <time>2022-06-08T10:33:41Z</time>
      </trkpt>
      <trkpt lat="46.45158" lon="5.70425">
        <ele>461.9</ele>
        <time>2022-06-08T10:33:45Z</time>
      </trkpt>
      <trkpt lat="46.45154" lon="5.70422">
        <ele>461</ele>
        <time>2022-06-08T10:33:49Z</time>
      </trkpt>
      <trkpt lat="46.45149" lon="5.70423">
        <ele>460.1</ele>
        <time>2022-06-08T10:33:56Z</time>
      </trkpt>
      <trkpt lat="46.45145" lon="5.70424">
        <ele>459.8</ele>
        <time>2022-06-08T10:34:04Z</time>
      </trkpt>
      <trkpt lat="46.4514" lon="5.7042">
        <ele>459.5</ele>
        <time>2022-06-08T10:34:09Z</time>
      </trkpt>
      <trkpt lat="46.45135" lon="5.70418">
        <ele>458.7</ele>
        <time>2022-06-08T10:34:13Z</time>
      </trkpt>
      <trkpt lat="46.4513" lon="5.70418">
        <ele>457.7</ele>
        <time>2022-06-08T10:34:17Z</time>
      </trkpt>
      <trkpt lat="46.45126" lon="5.70422">
        <ele>456.8</ele>
        <time>2022-06-08T10:34:21Z</time>
      </trkpt>
      <trkpt lat="46.45122" lon="5.70427">
        <ele>455.7</ele>
        <time>2022-06-08T10:34:27Z</time>
      </trkpt>
      <trkpt lat="46.45118" lon="5.70425">
        <ele>454.9</ele>
        <time>2022-06-08T10:34:33Z</time>
      </trkpt>
      <trkpt lat="46.45113" lon="5.70421">
        <ele>454.3</ele>
        <time>2022-06-08T10:34:37Z</time>
      </trkpt>
      <trkpt lat="46.45108" lon="5.70418">
        <ele>453.8</ele>
        <time>2022-06-08T10:34:42Z</time>
      </trkpt>
      <trkpt lat="46.45103" lon="5.70415">
        <ele>453.1</ele>
        <time>2022-06-08T10:34:46Z</time>
      </trkpt>
      <trkpt lat="46.45098" lon="5.70416">
        <ele>452.3</ele>
        <time>2022-06-08T10:34:52Z</time>
      </trkpt>
      <trkpt lat="46.45093" lon="5.70416">
        <ele>452.3</ele>
        <time>2022-06-08T10:34:58Z</time>
      </trkpt>
      <trkpt lat="46.45089" lon="5.7042">
        <ele>453.1</ele>
        <time>2022-06-08T10:35:03Z</time>
      </trkpt>
      <trkpt lat="46.45084" lon="5.70423">
        <ele>454</ele>
        <time>2022-06-08T10:35:08Z</time>
      </trkpt>
      <trkpt lat="46.45079" lon="5.70421">
        <ele>454.3</ele>
        <time>2022-06-08T10:35:12Z</time>
      </trkpt>
      <trkpt lat="46.45074" lon="5.70417">
        <ele>454.3</ele>
        <time>2022-06-08T10:35:15Z</time>
      </trkpt>
      <trkpt lat="46.4507" lon="5.70415">
        <ele>454.1</ele>
        <time>2022-06-08T10:35:18Z</time>
      </trkpt>
      <trkpt lat="46.45065" lon="5.70412">
        <ele>453.9</ele>
        <time>2022-06-08T10:35:21Z</time>
      </trkpt>
      <trkpt lat="46.45061" lon="5.7041">
        <ele>453.4</ele>
        <time>2022-06-08T10:35:24Z</time>
      </trkpt>
      <trkpt lat="46.45056" lon="5.70407">
        <ele>453.2</ele>
        <time>2022-06-08T10:35:27Z</time>
      </trkpt>
      <trkpt lat="46.45052" lon="5.70406">
        <ele>453.7</ele>
        <time>2022-06-08T10:35:32Z</time>
      </trkpt>
      <trkpt lat="46.45049" lon="5.70411">
        <ele>455.5</ele>
        <time>2022-06-08T10:35:40Z</time>
      </trkpt>
      <trkpt lat="46.45046" lon="5.70418">
        <ele>457.2</ele>
        <time>2022-06-08T10:35:52Z</time>
      </trkpt>
      <trkpt lat="46.45042" lon="5.70421">
        <ele>458.4</ele>
        <time>2022-06-08T10:35:58Z</time>
      </trkpt>
      <trkpt lat="46.45037" lon="5.70422">
        <ele>459.3</ele>
        <time>2022-06-08T10:36:03Z</time>
      </trkpt>
      <trkpt lat="46.45032" lon="5.70424">
        <ele>460.8</ele>
        <time>2022-06-08T10:36:10Z</time>
      </trkpt>
      <trkpt lat="46.45028" lon="5.70428">
        <ele>461.2</ele>
        <time>2022-06-08T10:36:16Z</time>
      </trkpt>
      <trkpt lat="46.45025" lon="5.70435">
        <ele>461.4</ele>
        <time>2022-06-08T10:36:21Z</time>
      </trkpt>
      <trkpt lat="46.45023" lon="5.7044">
        <ele>461.6</ele>
        <time>2022-06-08T10:36:27Z</time>
      </trkpt>
      <trkpt lat="46.45019" lon="5.70445">
        <ele>461.9</ele>
        <time>2022-06-08T10:36:34Z</time>
      </trkpt>
      <trkpt lat="46.45016" lon="5.7045">
        <ele>463.3</ele>
        <time>2022-06-08T10:36:42Z</time>
      </trkpt>
      <trkpt lat="46.45011" lon="5.70451">
        <ele>466</ele>
        <time>2022-06-08T10:36:55Z</time>
      </trkpt>
      <trkpt lat="46.45007" lon="5.70454">
        <ele>466.6</ele>
        <time>2022-06-08T10:37:03Z</time>
      </trkpt>
      <trkpt lat="46.45005" lon="5.70461">
        <ele>467.2</ele>
        <time>2022-06-08T10:37:15Z</time>
      </trkpt>
      <trkpt lat="46.45001" lon="5.70464">
        <ele>468.1</ele>
        <time>2022-06-08T10:37:22Z</time>
      </trkpt>
      <trkpt lat="46.44996" lon="5.70467">
        <ele>468.3</ele>
        <time>2022-06-08T10:37:31Z</time>
      </trkpt>
      <trkpt lat="46.44992" lon="5.7047">
        <ele>467.4</ele>
        <time>2022-06-08T10:37:35Z</time>
      </trkpt>
      <trkpt lat="46.44987" lon="5.70473">
        <ele>465.5</ele>
        <time>2022-06-08T10:37:40Z</time>
      </trkpt>
      <trkpt lat="46.44984" lon="5.70477">
        <ele>464.9</ele>
        <time>2022-06-08T10:37:50Z</time>
      </trkpt>
      <trkpt lat="46.44978" lon="5.70476">
        <ele>466.6</ele>
        <time>2022-06-08T10:38:00Z</time>
      </trkpt>
      <trkpt lat="46.44974" lon="5.70473">
        <ele>466.7</ele>
        <time>2022-06-08T10:38:04Z</time>
      </trkpt>
      <trkpt lat="46.4497" lon="5.70469">
        <ele>466.8</ele>
        <time>2022-06-08T10:38:12Z</time>
      </trkpt>
      <trkpt lat="46.44966" lon="5.70468">
        <ele>467.9</ele>
        <time>2022-06-08T10:38:20Z</time>
      </trkpt>
      <trkpt lat="46.44961" lon="5.7047">
        <ele>469</ele>
        <time>2022-06-08T10:38:25Z</time>
      </trkpt>
      <trkpt lat="46.44956" lon="5.70467">
        <ele>469.4</ele>
        <time>2022-06-08T10:38:30Z</time>
      </trkpt>
      <trkpt lat="46.44951" lon="5.70462">
        <ele>469.6</ele>
        <time>2022-06-08T10:38:33Z</time>
      </trkpt>
      <trkpt lat="46.44947" lon="5.70457">
        <ele>469.7</ele>
        <time>2022-06-08T10:38:36Z</time>
      </trkpt>
      <trkpt lat="46.44942" lon="5.70457">
        <ele>468.6</ele>
        <time>2022-06-08T10:38:44Z</time>
      </trkpt>
      <trkpt lat="46.4494" lon="5.70465">
        <ele>466</ele>
        <time>2022-06-08T10:38:50Z</time>
      </trkpt>
      <trkpt lat="46.44937" lon="5.70471">
        <ele>464.1</ele>
        <time>2022-06-08T10:38:55Z</time>
      </trkpt>
      <trkpt lat="46.44933" lon="5.7047">
        <ele>463.7</ele>
        <time>2022-06-08T10:38:59Z</time>
      </trkpt>
      <trkpt lat="46.44927" lon="5.70471">
        <ele>463.7</ele>
        <time>2022-06-08T10:39:03Z</time>
      </trkpt>
      <trkpt lat="46.44922" lon="5.70472">
        <ele>464</ele>
        <time>2022-06-08T10:39:08Z</time>
      </trkpt>
      <trkpt lat="46.44917" lon="5.70476">
        <ele>463.8</ele>
        <time>2022-06-08T10:39:12Z</time>
      </trkpt>
      <trkpt lat="46.44913" lon="5.70478">
        <ele>463.7</ele>
        <time>2022-06-08T10:39:16Z</time>
      </trkpt>
      <trkpt lat="46.44908" lon="5.7048">
        <ele>463.4</ele>
        <time>2022-06-08T10:39:20Z</time>
      </trkpt>
      <trkpt lat="46.44903" lon="5.7048">
        <ele>463.3</ele>
        <time>2022-06-08T10:39:24Z</time>
      </trkpt>
      <trkpt lat="46.44899" lon="5.70483">
        <ele>463.5</ele>
        <time>2022-06-08T10:39:28Z</time>
      </trkpt>
      <trkpt lat="46.44894" lon="5.70485">
        <ele>464.5</ele>
        <time>2022-06-08T10:39:33Z</time>
      </trkpt>
      <trkpt lat="46.44889" lon="5.70486">
        <ele>467.3</ele>
        <time>2022-06-08T10:39:42Z</time>
      </trkpt>
      <trkpt lat="46.44885" lon="5.70489">
        <ele>468.7</ele>
        <time>2022-06-08T10:39:47Z</time>
      </trkpt>
      <trkpt lat="46.4488" lon="5.70489">
        <ele>471</ele>
        <time>2022-06-08T10:39:54Z</time>
      </trkpt>
      <trkpt lat="46.44876" lon="5.70493">
        <ele>472.7</ele>
        <time>2022-06-08T10:40:04Z</time>
      </trkpt>
      <trkpt lat="46.44873" lon="5.70498">
        <ele>473.8</ele>
        <time>2022-06-08T10:40:10Z</time>
      </trkpt>
      <trkpt lat="46.44871" lon="5.70504">
        <ele>474.8</ele>
        <time>2022-06-08T10:40:15Z</time>
      </trkpt>
      <trkpt lat="46.44868" lon="5.7051">
        <ele>475.5</ele>
        <time>2022-06-08T10:40:21Z</time>
      </trkpt>
      <trkpt lat="46.44865" lon="5.70515">
        <ele>475.3</ele>
        <time>2022-06-08T10:40:27Z</time>
      </trkpt>
      <trkpt lat="46.44862" lon="5.7052">
        <ele>474.1</ele>
        <time>2022-06-08T10:40:34Z</time>
      </trkpt>
      <trkpt lat="46.44858" lon="5.70526">
        <ele>471.8</ele>
        <time>2022-06-08T10:40:43Z</time>
      </trkpt>
      <trkpt lat="46.44854" lon="5.7053">
        <ele>471</ele>
        <time>2022-06-08T10:40:49Z</time>
      </trkpt>
      <trkpt lat="46.44852" lon="5.70537">
        <ele>470.6</ele>
        <time>2022-06-08T10:40:56Z</time>
      </trkpt>
      <trkpt lat="46.4485" lon="5.70543">
        <ele>470.7</ele>
        <time>2022-06-08T10:41:02Z</time>
      </trkpt>
      <trkpt lat="46.44846" lon="5.70547">
        <ele>472.5</ele>
        <time>2022-06-08T10:41:18Z</time>
      </trkpt>
      <trkpt lat="46.44841" lon="5.7055">
        <ele>473.3</ele>
        <time>2022-06-08T10:41:30Z</time>
      </trkpt>
      <trkpt lat="46.44839" lon="5.70556">
        <ele>473.5</ele>
        <time>2022-06-08T10:41:35Z</time>
      </trkpt>
      <trkpt lat="46.44834" lon="5.70558">
        <ele>473.7</ele>
        <time>2022-06-08T10:41:40Z</time>
      </trkpt>
      <trkpt lat="46.44829" lon="5.70559">
        <ele>473.5</ele>
        <time>2022-06-08T10:41:46Z</time>
      </trkpt>
      <trkpt lat="46.44825" lon="5.70562">
        <ele>473.4</ele>
        <time>2022-06-08T10:41:53Z</time>
      </trkpt>
      <trkpt lat="46.44822" lon="5.7057">
        <ele>472.1</ele>
        <time>2022-06-08T10:42:11Z</time>
      </trkpt>
      <trkpt lat="46.44823" lon="5.70578">
        <ele>470.7</ele>
        <time>2022-06-08T10:42:14Z</time>
      </trkpt>
      <trkpt lat="46.44824" lon="5.70584">
        <ele>469.5</ele>
        <time>2022-06-08T10:42:18Z</time>
      </trkpt>
      <trkpt lat="46.44819" lon="5.70584">
        <ele>467.2</ele>
        <time>2022-06-08T10:42:30Z</time>
      </trkpt>
      <trkpt lat="46.44814" lon="5.7058">
        <ele>466.5</ele>
        <time>2022-06-08T10:42:36Z</time>
      </trkpt>
      <trkpt lat="46.4481" lon="5.70576">
        <ele>466</ele>
        <time>2022-06-08T10:42:42Z</time>
      </trkpt>
      <trkpt lat="46.44806" lon="5.70582">
        <ele>465.2</ele>
        <time>2022-06-08T10:42:49Z</time>
      </trkpt>
      <trkpt lat="46.44805" lon="5.70588">
        <ele>464.7</ele>
        <time>2022-06-08T10:42:54Z</time>
      </trkpt>
      <trkpt lat="46.44801" lon="5.70586">
        <ele>465.6</ele>
        <time>2022-06-08T10:43:13Z</time>
      </trkpt>
      <trkpt lat="46.44795" lon="5.70586">
        <ele>466.9</ele>
        <time>2022-06-08T10:43:21Z</time>
      </trkpt>
      <trkpt lat="46.44791" lon="5.70588">
        <ele>467.3</ele>
        <time>2022-06-08T10:43:24Z</time>
      </trkpt>
      <trkpt lat="46.44786" lon="5.70588">
        <ele>467.7</ele>
        <time>2022-06-08T10:43:27Z</time>
      </trkpt>
      <trkpt lat="46.44781" lon="5.70589">
        <ele>468</ele>
        <time>2022-06-08T10:43:30Z</time>
      </trkpt>
      <trkpt lat="46.44777" lon="5.70587">
        <ele>468.9</ele>
        <time>2022-06-08T10:43:43Z</time>
      </trkpt>
      <trkpt lat="46.44772" lon="5.7059">
        <ele>469.8</ele>
        <time>2022-06-08T10:43:54Z</time>
      </trkpt>
      <trkpt lat="46.4477" lon="5.70596">
        <ele>471.1</ele>
        <time>2022-06-08T10:44:01Z</time>
      </trkpt>
      <trkpt lat="46.44765" lon="5.70595">
        <ele>472.2</ele>
        <time>2022-06-08T10:44:08Z</time>
      </trkpt>
      <trkpt lat="46.4476" lon="5.70593">
        <ele>472.8</ele>
        <time>2022-06-08T10:44:13Z</time>
      </trkpt>
      <trkpt lat="46.44756" lon="5.7059">
        <ele>474.8</ele>
        <time>2022-06-08T10:44:21Z</time>
      </trkpt>
      <trkpt lat="46.44753" lon="5.70586">
        <ele>475.5</ele>
        <time>2022-06-08T10:44:26Z</time>
      </trkpt>
      <trkpt lat="46.44751" lon="5.70594">
        <ele>475.3</ele>
        <time>2022-06-08T10:44:45Z</time>
      </trkpt>
      <trkpt lat="46.44752" lon="5.70601">
        <ele>474.5</ele>
        <time>2022-06-08T10:44:49Z</time>
      </trkpt>
      <trkpt lat="46.44752" lon="5.70607">
        <ele>473.4</ele>
        <time>2022-06-08T10:44:53Z</time>
      </trkpt>
      <trkpt lat="46.44748" lon="5.70609">
        <ele>471.3</ele>
        <time>2022-06-08T10:45:11Z</time>
      </trkpt>
      <trkpt lat="46.44741" lon="5.70606">
        <ele>471.2</ele>
        <time>2022-06-08T10:45:15Z</time>
      </trkpt>
      <trkpt lat="46.44737" lon="5.70601">
        <ele>471.5</ele>
        <time>2022-06-08T10:45:18Z</time>
      </trkpt>
      <trkpt lat="46.44732" lon="5.706">
        <ele>472.3</ele>
        <time>2022-06-08T10:45:24Z</time>
      </trkpt>
      <trkpt lat="46.44727" lon="5.70601">
        <ele>473.5</ele>
        <time>2022-06-08T10:45:29Z</time>
      </trkpt>
      <trkpt lat="46.44723" lon="5.70603">
        <ele>473.5</ele>
        <time>2022-06-08T10:45:37Z</time>
      </trkpt>
      <trkpt lat="46.44718" lon="5.70602">
        <ele>473.4</ele>
        <time>2022-06-08T10:45:49Z</time>
      </trkpt>
      <trkpt lat="46.44712" lon="5.70594">
        <ele>476.2</ele>
        <time>2022-06-08T10:46:14Z</time>
      </trkpt>
      <trkpt lat="46.44707" lon="5.70593">
        <ele>475.3</ele>
        <time>2022-06-08T10:46:29Z</time>
      </trkpt>
      <trkpt lat="46.44708" lon="5.70586">
        <ele>475.7</ele>
        <time>2022-06-08T10:46:36Z</time>
      </trkpt>
      <trkpt lat="46.44703" lon="5.70585">
        <ele>475.7</ele>
        <time>2022-06-08T10:46:39Z</time>
      </trkpt>
      <trkpt lat="46.44699" lon="5.70584">
        <ele>475.7</ele>
        <time>2022-06-08T10:46:42Z</time>
      </trkpt>
      <trkpt lat="46.44694" lon="5.70582">
        <ele>475.3</ele>
        <time>2022-06-08T10:46:45Z</time>
      </trkpt>
      <trkpt lat="46.4469" lon="5.70583">
        <ele>475.3</ele>
        <time>2022-06-08T10:46:56Z</time>
      </trkpt>
      <trkpt lat="46.44686" lon="5.70578">
        <ele>476.3</ele>
        <time>2022-06-08T10:47:04Z</time>
      </trkpt>
      <trkpt lat="46.44681" lon="5.70577">
        <ele>475.6</ele>
        <time>2022-06-08T10:47:16Z</time>
      </trkpt>
      <trkpt lat="46.44676" lon="5.70575">
        <ele>474.2</ele>
        <time>2022-06-08T10:47:22Z</time>
      </trkpt>
      <trkpt lat="46.44672" lon="5.7057">
        <ele>473.4</ele>
        <time>2022-06-08T10:47:28Z</time>
      </trkpt>
      <trkpt lat="46.44668" lon="5.70572">
        <ele>471.9</ele>
        <time>2022-06-08T10:47:39Z</time>
      </trkpt>
      <trkpt lat="46.44662" lon="5.70574">
        <ele>471.5</ele>
        <time>2022-06-08T10:47:42Z</time>
      </trkpt>
      <trkpt lat="46.44657" lon="5.70576">
        <ele>471.4</ele>
        <time>2022-06-08T10:47:46Z</time>
      </trkpt>
      <trkpt lat="46.44653" lon="5.70577">
        <ele>472</ele>
        <time>2022-06-08T10:47:53Z</time>
      </trkpt>
      <trkpt lat="46.44649" lon="5.70582">
        <ele>472.5</ele>
        <time>2022-06-08T10:47:59Z</time>
      </trkpt>
      <trkpt lat="46.44648" lon="5.70588">
        <ele>472.6</ele>
        <time>2022-06-08T10:48:04Z</time>
      </trkpt>
      <trkpt lat="46.44643" lon="5.70591">
        <ele>473</ele>
        <time>2022-06-08T10:48:15Z</time>
      </trkpt>
      <trkpt lat="46.44638" lon="5.7059">
        <ele>473.6</ele>
        <time>2022-06-08T10:48:25Z</time>
      </trkpt>
      <trkpt lat="46.44635" lon="5.70597">
        <ele>473.8</ele>
        <time>2022-06-08T10:48:31Z</time>
      </trkpt>
      <trkpt lat="46.44631" lon="5.70601">
        <ele>474.2</ele>
        <time>2022-06-08T10:48:37Z</time>
      </trkpt>
      <trkpt lat="46.44626" lon="5.70599">
        <ele>474</ele>
        <time>2022-06-08T10:48:45Z</time>
      </trkpt>
      <trkpt lat="46.44625" lon="5.70592">
        <ele>473.3</ele>
        <time>2022-06-08T10:48:49Z</time>
      </trkpt>
      <trkpt lat="46.44624" lon="5.70585">
        <ele>473.4</ele>
        <time>2022-06-08T10:48:54Z</time>
      </trkpt>
      <trkpt lat="46.44622" lon="5.70579">
        <ele>473.7</ele>
        <time>2022-06-08T10:48:58Z</time>
      </trkpt>
      <trkpt lat="46.44617" lon="5.70577">
        <ele>473.5</ele>
        <time>2022-06-08T10:49:02Z</time>
      </trkpt>
      <trkpt lat="46.44619" lon="5.70571">
        <ele>480.8</ele>
        <time>2022-06-08T10:49:27Z</time>
      </trkpt>
      <trkpt lat="46.44619" lon="5.70564">
        <ele>480.2</ele>
        <time>2022-06-08T10:49:34Z</time>
      </trkpt>
      <trkpt lat="46.44623" lon="5.7056">
        <ele>478.9</ele>
        <time>2022-06-08T10:49:40Z</time>
      </trkpt>
      <trkpt lat="46.44627" lon="5.70559">
        <ele>478.4</ele>
        <time>2022-06-08T10:49:47Z</time>
      </trkpt>
      <trkpt lat="46.44623" lon="5.70558">
        <ele>479.3</ele>
        <time>2022-06-08T10:50:00Z</time>
      </trkpt>
      <trkpt lat="46.44619" lon="5.70555">
        <ele>479.4</ele>
        <time>2022-06-08T10:50:03Z</time>
      </trkpt>
      <trkpt lat="46.44614" lon="5.70553">
        <ele>479.2</ele>
        <time>2022-06-08T10:50:06Z</time>
      </trkpt>
      <trkpt lat="46.44613" lon="5.70559">
        <ele>478.5</ele>
        <time>2022-06-08T10:50:10Z</time>
      </trkpt>
      <trkpt lat="46.44617" lon="5.70564">
        <ele>477.7</ele>
        <time>2022-06-08T10:50:14Z</time>
      </trkpt>
      <trkpt lat="46.44613" lon="5.70559">
        <ele>475.8</ele>
        <time>2022-06-08T10:50:33Z</time>
      </trkpt>
      <trkpt lat="46.44609" lon="5.70555">
        <ele>475.2</ele>
        <time>2022-06-08T10:50:39Z</time>
      </trkpt>
      <trkpt lat="46.44614" lon="5.70556">
        <ele>474</ele>
        <time>2022-06-08T10:50:50Z</time>
      </trkpt>
      <trkpt lat="46.44609" lon="5.70557">
        <ele>473.7</ele>
        <time>2022-06-08T10:50:54Z</time>
      </trkpt>
      <trkpt lat="46.44604" lon="5.70557">
        <ele>473.8</ele>
        <time>2022-06-08T10:50:58Z</time>
      </trkpt>
      <trkpt lat="46.44599" lon="5.70559">
        <ele>473.6</ele>
        <time>2022-06-08T10:51:02Z</time>
      </trkpt>
      <trkpt lat="46.44596" lon="5.70554">
        <ele>474.4</ele>
        <time>2022-06-08T10:51:09Z</time>
      </trkpt>
      <trkpt lat="46.446" lon="5.7055">
        <ele>476.8</ele>
        <time>2022-06-08T10:51:19Z</time>
      </trkpt>
      <trkpt lat="46.44597" lon="5.70555">
        <ele>478</ele>
        <time>2022-06-08T10:51:32Z</time>
      </trkpt>
      <trkpt lat="46.44592" lon="5.70554">
        <ele>478</ele>
        <time>2022-06-08T10:51:37Z</time>
      </trkpt>
      <trkpt lat="46.44594" lon="5.70562">
        <ele>477.4</ele>
        <time>2022-06-08T10:51:42Z</time>
      </trkpt>
      <trkpt lat="46.44589" lon="5.70561">
        <ele>475.6</ele>
        <time>2022-06-08T10:51:51Z</time>
      </trkpt>
      <trkpt lat="46.44584" lon="5.70562">
        <ele>473.6</ele>
        <time>2022-06-08T10:52:01Z</time>
      </trkpt>
      <trkpt lat="46.44584" lon="5.70569">
        <ele>473.5</ele>
        <time>2022-06-08T10:52:10Z</time>
      </trkpt>
      <trkpt lat="46.44579" lon="5.70572">
        <ele>473.6</ele>
        <time>2022-06-08T10:52:18Z</time>
      </trkpt>
      <trkpt lat="46.44574" lon="5.7057">
        <ele>474.1</ele>
        <time>2022-06-08T10:52:21Z</time>
      </trkpt>
      <trkpt lat="46.4457" lon="5.70566">
        <ele>474.6</ele>
        <time>2022-06-08T10:52:24Z</time>
      </trkpt>
      <trkpt lat="46.44569" lon="5.70559">
        <ele>474.7</ele>
        <time>2022-06-08T10:52:28Z</time>
      </trkpt>
      <trkpt lat="46.44565" lon="5.70556">
        <ele>474.9</ele>
        <time>2022-06-08T10:52:47Z</time>
      </trkpt>
      <trkpt lat="46.44562" lon="5.70563">
        <ele>477.9</ele>
        <time>2022-06-08T10:53:06Z</time>
      </trkpt>
      <trkpt lat="46.44558" lon="5.70566">
        <ele>477.6</ele>
        <time>2022-06-08T10:53:19Z</time>
      </trkpt>
      <trkpt lat="46.44553" lon="5.70564">
        <ele>477.9</ele>
        <time>2022-06-08T10:53:24Z</time>
      </trkpt>
      <trkpt lat="46.44549" lon="5.70561">
        <ele>477.4</ele>
        <time>2022-06-08T10:53:32Z</time>
      </trkpt>
      <trkpt lat="46.44546" lon="5.70556">
        <ele>477</ele>
        <time>2022-06-08T10:53:37Z</time>
      </trkpt>
      <trkpt lat="46.4455" lon="5.70561">
        <ele>476.4</ele>
        <time>2022-06-08T10:53:51Z</time>
      </trkpt>
      <trkpt lat="46.44555" lon="5.70566">
        <ele>475.7</ele>
        <time>2022-06-08T10:53:54Z</time>
      </trkpt>
      <trkpt lat="46.44552" lon="5.70571">
        <ele>473.6</ele>
        <time>2022-06-08T10:54:01Z</time>
      </trkpt>
      <trkpt lat="46.44547" lon="5.70571">
        <ele>472.4</ele>
        <time>2022-06-08T10:54:05Z</time>
      </trkpt>
      <trkpt lat="46.44542" lon="5.70571">
        <ele>471</ele>
        <time>2022-06-08T10:54:11Z</time>
      </trkpt>
      <trkpt lat="46.44538" lon="5.70568">
        <ele>470.4</ele>
        <time>2022-06-08T10:54:17Z</time>
      </trkpt>
      <trkpt lat="46.44533" lon="5.70565">
        <ele>470.2</ele>
        <time>2022-06-08T10:54:21Z</time>
      </trkpt>
      <trkpt lat="46.44528" lon="5.7056">
        <ele>470.3</ele>
        <time>2022-06-08T10:54:25Z</time>
      </trkpt>
      <trkpt lat="46.44523" lon="5.70555">
        <ele>470</ele>
        <time>2022-06-08T10:54:29Z</time>
      </trkpt>
      <trkpt lat="46.44519" lon="5.70552">
        <ele>468.2</ele>
        <time>2022-06-08T10:54:42Z</time>
      </trkpt>
      <trkpt lat="46.44517" lon="5.70558">
        <ele>465.5</ele>
        <time>2022-06-08T10:55:24Z</time>
      </trkpt>
      <trkpt lat="46.44519" lon="5.70565">
        <ele>464.6</ele>
        <time>2022-06-08T10:55:27Z</time>
      </trkpt>
      <trkpt lat="46.44506" lon="5.7057">
        <ele>460.7</ele>
        <time>2022-06-08T10:55:46Z</time>
      </trkpt>
      <trkpt lat="46.44504" lon="5.70564">
        <ele>460.2</ele>
        <time>2022-06-08T10:56:13Z</time>
      </trkpt>
      <trkpt lat="46.445" lon="5.70559">
        <ele>460.8</ele>
        <time>2022-06-08T10:56:19Z</time>
      </trkpt>
      <trkpt lat="46.44496" lon="5.70555">
        <ele>461.2</ele>
        <time>2022-06-08T10:56:22Z</time>
      </trkpt>
      <trkpt lat="46.4449" lon="5.70551">
        <ele>461.7</ele>
        <time>2022-06-08T10:56:25Z</time>
      </trkpt>
      <trkpt lat="46.44486" lon="5.70548">
        <ele>462.2</ele>
        <time>2022-06-08T10:56:28Z</time>
      </trkpt>
      <trkpt lat="46.4448" lon="5.70546">
        <ele>462.9</ele>
        <time>2022-06-08T10:56:32Z</time>
      </trkpt>
      <trkpt lat="46.44476" lon="5.70548">
        <ele>462.9</ele>
        <time>2022-06-08T10:56:36Z</time>
      </trkpt>
      <trkpt lat="46.44471" lon="5.70547">
        <ele>464.6</ele>
        <time>2022-06-08T10:56:50Z</time>
      </trkpt>
      <trkpt lat="46.44466" lon="5.70548">
        <ele>465.4</ele>
        <time>2022-06-08T10:57:01Z</time>
      </trkpt>
      <trkpt lat="46.44461" lon="5.70546">
        <ele>465</ele>
        <time>2022-06-08T10:57:06Z</time>
      </trkpt>
      <trkpt lat="46.44455" lon="5.70545">
        <ele>464.8</ele>
        <time>2022-06-08T10:57:10Z</time>
      </trkpt>
      <trkpt lat="46.44451" lon="5.70546">
        <ele>463.7</ele>
        <time>2022-06-08T10:57:16Z</time>
      </trkpt>
      <trkpt lat="46.44447" lon="5.70541">
        <ele>462.6</ele>
        <time>2022-06-08T10:57:22Z</time>
      </trkpt>
      <trkpt lat="46.44442" lon="5.70538">
        <ele>461.9</ele>
        <time>2022-06-08T10:57:27Z</time>
      </trkpt>
      <trkpt lat="46.44438" lon="5.70534">
        <ele>461.8</ele>
        <time>2022-06-08T10:57:31Z</time>
      </trkpt>
      <trkpt lat="46.44433" lon="5.70531">
        <ele>461.8</ele>
        <time>2022-06-08T10:57:35Z</time>
      </trkpt>
      <trkpt lat="46.44429" lon="5.7053">
        <ele>461.9</ele>
        <time>2022-06-08T10:57:39Z</time>
      </trkpt>
      <trkpt lat="46.44423" lon="5.70529">
        <ele>462</ele>
        <time>2022-06-08T10:57:43Z</time>
      </trkpt>
      <trkpt lat="46.44419" lon="5.70528">
        <ele>461.3</ele>
        <time>2022-06-08T10:57:52Z</time>
      </trkpt>
      <trkpt lat="46.44416" lon="5.70523">
        <ele>459.7</ele>
        <time>2022-06-08T10:57:57Z</time>
      </trkpt>
      <trkpt lat="46.44413" lon="5.70517">
        <ele>458.5</ele>
        <time>2022-06-08T10:58:00Z</time>
      </trkpt>
      <trkpt lat="46.44411" lon="5.70511">
        <ele>457.7</ele>
        <time>2022-06-08T10:58:05Z</time>
      </trkpt>
      <trkpt lat="46.44409" lon="5.70503">
        <ele>453.9</ele>
        <time>2022-06-08T10:58:29Z</time>
      </trkpt>
      <trkpt lat="46.44404" lon="5.70495">
        <ele>454</ele>
        <time>2022-06-08T10:58:32Z</time>
      </trkpt>
      <trkpt lat="46.444" lon="5.70487">
        <ele>454.1</ele>
        <time>2022-06-08T10:58:35Z</time>
      </trkpt>
      <trkpt lat="46.44398" lon="5.70479">
        <ele>454.5</ele>
        <time>2022-06-08T10:58:38Z</time>
      </trkpt>
      <trkpt lat="46.44395" lon="5.70471">
        <ele>454.8</ele>
        <time>2022-06-08T10:58:41Z</time>
      </trkpt>
      <trkpt lat="46.44394" lon="5.70465">
        <ele>454.8</ele>
        <time>2022-06-08T10:58:45Z</time>
      </trkpt>
      <trkpt lat="46.44389" lon="5.70464">
        <ele>454.5</ele>
        <time>2022-06-08T10:58:58Z</time>
      </trkpt>
      <trkpt lat="46.44383" lon="5.70464">
        <ele>454</ele>
        <time>2022-06-08T10:59:02Z</time>
      </trkpt>
      <trkpt lat="46.44379" lon="5.70466">
        <ele>453.8</ele>
        <time>2022-06-08T10:59:05Z</time>
      </trkpt>
      <trkpt lat="46.44374" lon="5.70468">
        <ele>453.2</ele>
        <time>2022-06-08T10:59:09Z</time>
      </trkpt>
      <trkpt lat="46.4437" lon="5.70468">
        <ele>452.1</ele>
        <time>2022-06-08T10:59:15Z</time>
      </trkpt>
      <trkpt lat="46.44365" lon="5.70469">
        <ele>451.3</ele>
        <time>2022-06-08T10:59:21Z</time>
      </trkpt>
      <trkpt lat="46.4436" lon="5.70468">
        <ele>451.1</ele>
        <time>2022-06-08T10:59:27Z</time>
      </trkpt>
      <trkpt lat="46.44356" lon="5.70463">
        <ele>450.6</ele>
        <time>2022-06-08T10:59:33Z</time>
      </trkpt>
      <trkpt lat="46.44351" lon="5.7046">
        <ele>450</ele>
        <time>2022-06-08T10:59:42Z</time>
      </trkpt>
      <trkpt lat="46.44347" lon="5.70461">
        <ele>449.7</ele>
        <time>2022-06-08T10:59:52Z</time>
      </trkpt>
      <trkpt lat="46.44343" lon="5.70456">
        <ele>449.6</ele>
        <time>2022-06-08T10:59:57Z</time>
      </trkpt>
      <trkpt lat="46.4434" lon="5.7045">
        <ele>450.5</ele>
        <time>2022-06-08T11:00:03Z</time>
      </trkpt>
      <trkpt lat="46.44335" lon="5.7045">
        <ele>452.6</ele>
        <time>2022-06-08T11:00:10Z</time>
      </trkpt>
      <trkpt lat="46.4433" lon="5.70449">
        <ele>457.1</ele>
        <time>2022-06-08T11:00:19Z</time>
      </trkpt>
      <trkpt lat="46.44325" lon="5.70447">
        <ele>459.5</ele>
        <time>2022-06-08T11:00:24Z</time>
      </trkpt>
      <trkpt lat="46.4432" lon="5.70445">
        <ele>460.8</ele>
        <time>2022-06-08T11:00:28Z</time>
      </trkpt>
      <trkpt lat="46.44315" lon="5.70445">
        <ele>461.6</ele>
        <time>2022-06-08T11:00:31Z</time>
      </trkpt>
      <trkpt lat="46.4431" lon="5.70443">
        <ele>462.1</ele>
        <time>2022-06-08T11:00:34Z</time>
      </trkpt>
      <trkpt lat="46.44306" lon="5.7044">
        <ele>462.7</ele>
        <time>2022-06-08T11:00:38Z</time>
      </trkpt>
      <trkpt lat="46.44301" lon="5.70439">
        <ele>464.6</ele>
        <time>2022-06-08T11:00:53Z</time>
      </trkpt>
      <trkpt lat="46.44295" lon="5.70438">
        <ele>464.5</ele>
        <time>2022-06-08T11:01:00Z</time>
      </trkpt>
      <trkpt lat="46.44292" lon="5.70434">
        <ele>465.3</ele>
        <time>2022-06-08T11:01:05Z</time>
      </trkpt>
      <trkpt lat="46.44294" lon="5.70441">
        <ele>467.6</ele>
        <time>2022-06-08T11:01:19Z</time>
      </trkpt>
      <trkpt lat="46.44302" lon="5.70436">
        <ele>470.5</ele>
        <time>2022-06-08T11:01:28Z</time>
      </trkpt>
      <trkpt lat="46.44305" lon="5.7043">
        <ele>471.4</ele>
        <time>2022-06-08T11:01:32Z</time>
      </trkpt>
      <trkpt lat="46.44309" lon="5.7043">
        <ele>477.7</ele>
        <time>2022-06-08T11:02:01Z</time>
      </trkpt>
      <trkpt lat="46.44306" lon="5.70426">
        <ele>478.7</ele>
        <time>2022-06-08T11:02:11Z</time>
      </trkpt>
      <trkpt lat="46.44301" lon="5.70428">
        <ele>477.5</ele>
        <time>2022-06-08T11:02:30Z</time>
      </trkpt>
      <trkpt lat="46.44298" lon="5.70423">
        <ele>478.5</ele>
        <time>2022-06-08T11:02:49Z</time>
      </trkpt>
      <trkpt lat="46.44295" lon="5.70429">
        <ele>478</ele>
        <time>2022-06-08T11:02:56Z</time>
      </trkpt>
      <trkpt lat="46.4429" lon="5.70429">
        <ele>477.7</ele>
        <time>2022-06-08T11:02:59Z</time>
      </trkpt>
      <trkpt lat="46.44295" lon="5.70421">
        <ele>477.9</ele>
        <time>2022-06-08T11:03:27Z</time>
      </trkpt>
      <trkpt lat="46.44298" lon="5.70415">
        <ele>478.8</ele>
        <time>2022-06-08T11:03:34Z</time>
      </trkpt>
      <trkpt lat="46.44302" lon="5.7042">
        <ele>478.7</ele>
        <time>2022-06-08T11:03:37Z</time>
      </trkpt>
      <trkpt lat="46.44298" lon="5.70424">
        <ele>477.5</ele>
        <time>2022-06-08T11:03:43Z</time>
      </trkpt>
      <trkpt lat="46.44293" lon="5.70422">
        <ele>475.6</ele>
        <time>2022-06-08T11:04:06Z</time>
      </trkpt>
      <trkpt lat="46.44291" lon="5.70416">
        <ele>475.5</ele>
        <time>2022-06-08T11:04:12Z</time>
      </trkpt>
      <trkpt lat="46.44291" lon="5.7041">
        <ele>476</ele>
        <time>2022-06-08T11:04:37Z</time>
      </trkpt>
      <trkpt lat="46.44289" lon="5.70404">
        <ele>475.4</ele>
        <time>2022-06-08T11:04:47Z</time>
      </trkpt>
      <trkpt lat="46.44285" lon="5.70398">
        <ele>473.4</ele>
        <time>2022-06-08T11:04:55Z</time>
      </trkpt>
      <trkpt lat="46.44284" lon="5.70391">
        <ele>470.7</ele>
        <time>2022-06-08T11:05:08Z</time>
      </trkpt>
      <trkpt lat="46.44279" lon="5.70388">
        <ele>469.3</ele>
        <time>2022-06-08T11:05:13Z</time>
      </trkpt>
      <trkpt lat="46.44275" lon="5.70384">
        <ele>468</ele>
        <time>2022-06-08T11:05:27Z</time>
      </trkpt>
      <trkpt lat="46.4427" lon="5.70382">
        <ele>467.9</ele>
        <time>2022-06-08T11:05:31Z</time>
      </trkpt>
      <trkpt lat="46.44264" lon="5.70378">
        <ele>467.6</ele>
        <time>2022-06-08T11:05:36Z</time>
      </trkpt>
      <trkpt lat="46.4426" lon="5.70378">
        <ele>466.4</ele>
        <time>2022-06-08T11:05:42Z</time>
      </trkpt>
      <trkpt lat="46.44263" lon="5.70372">
        <ele>464.1</ele>
        <time>2022-06-08T11:05:58Z</time>
      </trkpt>
      <trkpt lat="46.44258" lon="5.70372">
        <ele>463.1</ele>
        <time>2022-06-08T11:06:03Z</time>
      </trkpt>
      <trkpt lat="46.44253" lon="5.7037">
        <ele>462.6</ele>
        <time>2022-06-08T11:06:07Z</time>
      </trkpt>
      <trkpt lat="46.44248" lon="5.70367">
        <ele>462</ele>
        <time>2022-06-08T11:06:12Z</time>
      </trkpt>
      <trkpt lat="46.44247" lon="5.7036">
        <ele>459.9</ele>
        <time>2022-06-08T11:06:32Z</time>
      </trkpt>
      <trkpt lat="46.44242" lon="5.70356">
        <ele>458.9</ele>
        <time>2022-06-08T11:06:36Z</time>
      </trkpt>
      <trkpt lat="46.4424" lon="5.7035">
        <ele>456</ele>
        <time>2022-06-08T11:06:46Z</time>
      </trkpt>
      <trkpt lat="46.44236" lon="5.70346">
        <ele>454.2</ele>
        <time>2022-06-08T11:06:53Z</time>
      </trkpt>
      <trkpt lat="46.44234" lon="5.70339">
        <ele>453.3</ele>
        <time>2022-06-08T11:07:03Z</time>
      </trkpt>
      <trkpt lat="46.44231" lon="5.70334">
        <ele>453.7</ele>
        <time>2022-06-08T11:07:07Z</time>
      </trkpt>
      <trkpt lat="46.44226" lon="5.70335">
        <ele>455.2</ele>
        <time>2022-06-08T11:07:25Z</time>
      </trkpt>
      <trkpt lat="46.44221" lon="5.70337">
        <ele>455.8</ele>
        <time>2022-06-08T11:07:31Z</time>
      </trkpt>
      <trkpt lat="46.44217" lon="5.70338">
        <ele>455.4</ele>
        <time>2022-06-08T11:07:42Z</time>
      </trkpt>
      <trkpt lat="46.44212" lon="5.70341">
        <ele>452.1</ele>
        <time>2022-06-08T11:07:55Z</time>
      </trkpt>
      <trkpt lat="46.44207" lon="5.70338">
        <ele>452.3</ele>
        <time>2022-06-08T11:08:02Z</time>
      </trkpt>
      <trkpt lat="46.44202" lon="5.70338">
        <ele>452</ele>
        <time>2022-06-08T11:08:08Z</time>
      </trkpt>
      <trkpt lat="46.44198" lon="5.7034">
        <ele>451.7</ele>
        <time>2022-06-08T11:08:15Z</time>
      </trkpt>
      <trkpt lat="46.44193" lon="5.70335">
        <ele>451.2</ele>
        <time>2022-06-08T11:08:19Z</time>
      </trkpt>
      <trkpt lat="46.4419" lon="5.70332">
        <ele>450.6</ele>
        <time>2022-06-08T11:08:22Z</time>
      </trkpt>
      <trkpt lat="46.44185" lon="5.70328">
        <ele>450</ele>
        <time>2022-06-08T11:08:26Z</time>
      </trkpt>
      <trkpt lat="46.44181" lon="5.70331">
        <ele>453.8</ele>
        <time>2022-06-08T11:08:52Z</time>
      </trkpt>
      <trkpt lat="46.44176" lon="5.70331">
        <ele>454.4</ele>
        <time>2022-06-08T11:08:59Z</time>
      </trkpt>
      <trkpt lat="46.44171" lon="5.70328">
        <ele>455</ele>
        <time>2022-06-08T11:09:04Z</time>
      </trkpt>
      <trkpt lat="46.44168" lon="5.70331">
        <ele>456.4</ele>
        <time>2022-06-08T11:09:24Z</time>
      </trkpt>
      <trkpt lat="46.44167" lon="5.70338">
        <ele>464</ele>
        <time>2022-06-08T11:09:52Z</time>
      </trkpt>
      <trkpt lat="46.44162" lon="5.70335">
        <ele>464.9</ele>
        <time>2022-06-08T11:09:58Z</time>
      </trkpt>
      <trkpt lat="46.44156" lon="5.70333">
        <ele>465.2</ele>
        <time>2022-06-08T11:10:02Z</time>
      </trkpt>
      <trkpt lat="46.4415" lon="5.70333">
        <ele>465.2</ele>
        <time>2022-06-08T11:10:05Z</time>
      </trkpt>
      <trkpt lat="46.44145" lon="5.7033">
        <ele>464.5</ele>
        <time>2022-06-08T11:10:09Z</time>
      </trkpt>
      <trkpt lat="46.44141" lon="5.70329">
        <ele>462.6</ele>
        <time>2022-06-08T11:10:17Z</time>
      </trkpt>
      <trkpt lat="46.44136" lon="5.70331">
        <ele>461.2</ele>
        <time>2022-06-08T11:10:23Z</time>
      </trkpt>
      <trkpt lat="46.44137" lon="5.70339">
        <ele>459.8</ele>
        <time>2022-06-08T11:10:30Z</time>
      </trkpt>
      <trkpt lat="46.44132" lon="5.70334">
        <ele>458.1</ele>
        <time>2022-06-08T11:10:37Z</time>
      </trkpt>
      <trkpt lat="46.44129" lon="5.70328">
        <ele>457.5</ele>
        <time>2022-06-08T11:10:40Z</time>
      </trkpt>
      <trkpt lat="46.44125" lon="5.70333">
        <ele>457.6</ele>
        <time>2022-06-08T11:10:48Z</time>
      </trkpt>
      <trkpt lat="46.44121" lon="5.70328">
        <ele>458.6</ele>
        <time>2022-06-08T11:10:55Z</time>
      </trkpt>
      <trkpt lat="46.44117" lon="5.7032">
        <ele>459.5</ele>
        <time>2022-06-08T11:10:59Z</time>
      </trkpt>
      <trkpt lat="46.44112" lon="5.70308">
        <ele>460.4</ele>
        <time>2022-06-08T11:11:02Z</time>
      </trkpt>
      <trkpt lat="46.44111" lon="5.70315">
        <ele>464.2</ele>
        <time>2022-06-08T11:11:15Z</time>
      </trkpt>
      <trkpt lat="46.4411" lon="5.70322">
        <ele>464.3</ele>
        <time>2022-06-08T11:11:22Z</time>
      </trkpt>
      <trkpt lat="46.44106" lon="5.70325">
        <ele>464.2</ele>
        <time>2022-06-08T11:11:27Z</time>
      </trkpt>
      <trkpt lat="46.44101" lon="5.70326">
        <ele>464.2</ele>
        <time>2022-06-08T11:11:31Z</time>
      </trkpt>
      <trkpt lat="46.44098" lon="5.70331">
        <ele>463.4</ele>
        <time>2022-06-08T11:11:38Z</time>
      </trkpt>
      <trkpt lat="46.44094" lon="5.70336">
        <ele>462.5</ele>
        <time>2022-06-08T11:11:44Z</time>
      </trkpt>
      <trkpt lat="46.44089" lon="5.70336">
        <ele>461.4</ele>
        <time>2022-06-08T11:11:51Z</time>
      </trkpt>
      <trkpt lat="46.44088" lon="5.70343">
        <ele>458.6</ele>
        <time>2022-06-08T11:12:01Z</time>
      </trkpt>
      <trkpt lat="46.44084" lon="5.70344">
        <ele>456.8</ele>
        <time>2022-06-08T11:12:07Z</time>
      </trkpt>
      <trkpt lat="46.44079" lon="5.70342">
        <ele>456.2</ele>
        <time>2022-06-08T11:12:10Z</time>
      </trkpt>
      <trkpt lat="46.44074" lon="5.70338">
        <ele>455.3</ele>
        <time>2022-06-08T11:12:14Z</time>
      </trkpt>
      <trkpt lat="46.44068" lon="5.70334">
        <ele>454.9</ele>
        <time>2022-06-08T11:12:17Z</time>
      </trkpt>
      <trkpt lat="46.44064" lon="5.70332">
        <ele>454.6</ele>
        <time>2022-06-08T11:12:20Z</time>
      </trkpt>
      <trkpt lat="46.44059" lon="5.70329">
        <ele>454.3</ele>
        <time>2022-06-08T11:12:24Z</time>
      </trkpt>
      <trkpt lat="46.44054" lon="5.70328">
        <ele>454.1</ele>
        <time>2022-06-08T11:12:28Z</time>
      </trkpt>
      <trkpt lat="46.4405" lon="5.70333">
        <ele>453.6</ele>
        <time>2022-06-08T11:12:33Z</time>
      </trkpt>
      <trkpt lat="46.44048" lon="5.70339">
        <ele>452.9</ele>
        <time>2022-06-08T11:12:37Z</time>
      </trkpt>
      <trkpt lat="46.44044" lon="5.70344">
        <ele>452.6</ele>
        <time>2022-06-08T11:12:43Z</time>
      </trkpt>
      <trkpt lat="46.44046" lon="5.70351">
        <ele>452.2</ele>
        <time>2022-06-08T11:13:00Z</time>
      </trkpt>
      <trkpt lat="46.44044" lon="5.70357">
        <ele>451.3</ele>
        <time>2022-06-08T11:13:07Z</time>
      </trkpt>
      <trkpt lat="46.4404" lon="5.70356">
        <ele>452.7</ele>
        <time>2022-06-08T11:13:20Z</time>
      </trkpt>
      <trkpt lat="46.44037" lon="5.70361">
        <ele>452.6</ele>
        <time>2022-06-08T11:13:27Z</time>
      </trkpt>
      <trkpt lat="46.44033" lon="5.70365">
        <ele>452.3</ele>
        <time>2022-06-08T11:13:33Z</time>
      </trkpt>
      <trkpt lat="46.44027" lon="5.70366">
        <ele>451.5</ele>
        <time>2022-06-08T11:13:51Z</time>
      </trkpt>
      <trkpt lat="46.44022" lon="5.70365">
        <ele>450.4</ele>
        <time>2022-06-08T11:13:59Z</time>
      </trkpt>
      <trkpt lat="46.44025" lon="5.7036">
        <ele>457.4</ele>
        <time>2022-06-08T11:14:45Z</time>
      </trkpt>
      <trkpt lat="46.44021" lon="5.70357">
        <ele>460.8</ele>
        <time>2022-06-08T11:14:54Z</time>
      </trkpt>
      <trkpt lat="46.44024" lon="5.70362">
        <ele>463.2</ele>
        <time>2022-06-08T11:15:03Z</time>
      </trkpt>
      <trkpt lat="46.44029" lon="5.70365">
        <ele>463.7</ele>
        <time>2022-06-08T11:15:06Z</time>
      </trkpt>
      <trkpt lat="46.44032" lon="5.7037">
        <ele>464.4</ele>
        <time>2022-06-08T11:15:14Z</time>
      </trkpt>
      <trkpt lat="46.44028" lon="5.70374">
        <ele>462.7</ele>
        <time>2022-06-08T11:15:22Z</time>
      </trkpt>
      <trkpt lat="46.44023" lon="5.70377">
        <ele>462</ele>
        <time>2022-06-08T11:15:28Z</time>
      </trkpt>
      <trkpt lat="46.4402" lon="5.70374">
        <ele>460.6</ele>
        <time>2022-06-08T11:15:48Z</time>
      </trkpt>
      <trkpt lat="46.44024" lon="5.70377">
        <ele>461.4</ele>
        <time>2022-06-08T11:16:09Z</time>
      </trkpt>
      <trkpt lat="46.44028" lon="5.70372">
        <ele>459.3</ele>
        <time>2022-06-08T11:16:27Z</time>
      </trkpt>
      <trkpt lat="46.44032" lon="5.7037">
        <ele>458.8</ele>
        <time>2022-06-08T11:16:33Z</time>
      </trkpt>
      <trkpt lat="46.44027" lon="5.70371">
        <ele>452.3</ele>
        <time>2022-06-08T11:17:03Z</time>
      </trkpt>
      <trkpt lat="46.44023" lon="5.70374">
        <ele>451.8</ele>
        <time>2022-06-08T11:17:06Z</time>
      </trkpt>
      <trkpt lat="46.44024" lon="5.70376">
        <ele>452.9</ele>
        <time>2022-06-08T11:17:35Z</time>
      </trkpt>
      <trkpt lat="46.44029" lon="5.70374">
        <ele>453.2</ele>
        <time>2022-06-08T11:17:38Z</time>
      </trkpt>
      <trkpt lat="46.44033" lon="5.70378">
        <ele>455.3</ele>
        <time>2022-06-08T11:17:51Z</time>
      </trkpt>
      <trkpt lat="46.44035" lon="5.70384">
        <ele>457.9</ele>
        <time>2022-06-08T11:18:04Z</time>
      </trkpt>
      <trkpt lat="46.44038" lon="5.70391">
        <ele>461.1</ele>
        <time>2022-06-08T11:18:27Z</time>
      </trkpt>
      <trkpt lat="46.44036" lon="5.70398">
        <ele>458.4</ele>
        <time>2022-06-08T11:18:35Z</time>
      </trkpt>
      <trkpt lat="46.44038" lon="5.70405">
        <ele>457.5</ele>
        <time>2022-06-08T11:18:38Z</time>
      </trkpt>
      <trkpt lat="46.44041" lon="5.70411">
        <ele>456.8</ele>
        <time>2022-06-08T11:18:41Z</time>
      </trkpt>
      <trkpt lat="46.44045" lon="5.70405">
        <ele>455.2</ele>
        <time>2022-06-08T11:18:48Z</time>
      </trkpt>
      <trkpt lat="46.44042" lon="5.70398">
        <ele>454.7</ele>
        <time>2022-06-08T11:18:56Z</time>
      </trkpt>
      <trkpt lat="46.44041" lon="5.70391">
        <ele>453.7</ele>
        <time>2022-06-08T11:19:00Z</time>
      </trkpt>
      <trkpt lat="46.44037" lon="5.7039">
        <ele>450.2</ele>
        <time>2022-06-08T11:19:12Z</time>
      </trkpt>
      <trkpt lat="46.44033" lon="5.70393">
        <ele>449.8</ele>
        <time>2022-06-08T11:19:38Z</time>
      </trkpt>
      <trkpt lat="46.44031" lon="5.704">
        <ele>451.3</ele>
        <time>2022-06-08T11:19:46Z</time>
      </trkpt>
      <trkpt lat="46.44033" lon="5.70407">
        <ele>452.1</ele>
        <time>2022-06-08T11:19:52Z</time>
      </trkpt>
      <trkpt lat="46.44032" lon="5.70415">
        <ele>451.8</ele>
        <time>2022-06-08T11:19:58Z</time>
      </trkpt>
      <trkpt lat="46.4403" lon="5.70423">
        <ele>451.2</ele>
        <time>2022-06-08T11:20:02Z</time>
      </trkpt>
      <trkpt lat="46.4403" lon="5.70431">
        <ele>450.3</ele>
        <time>2022-06-08T11:20:06Z</time>
      </trkpt>
      <trkpt lat="46.44026" lon="5.70436">
        <ele>450.5</ele>
        <time>2022-06-08T11:20:12Z</time>
      </trkpt>
      <trkpt lat="46.44022" lon="5.7044">
        <ele>453.2</ele>
        <time>2022-06-08T11:20:19Z</time>
      </trkpt>
      <trkpt lat="46.44018" lon="5.70444">
        <ele>456.3</ele>
        <time>2022-06-08T11:20:27Z</time>
      </trkpt>
      <trkpt lat="46.44015" lon="5.70449">
        <ele>455.5</ele>
        <time>2022-06-08T11:20:34Z</time>
      </trkpt>
      <trkpt lat="46.44012" lon="5.70454">
        <ele>454.7</ele>
        <time>2022-06-08T11:20:38Z</time>
      </trkpt>
      <trkpt lat="46.44009" lon="5.70459">
        <ele>453.8</ele>
        <time>2022-06-08T11:20:42Z</time>
      </trkpt>
      <trkpt lat="46.44007" lon="5.70466">
        <ele>452.9</ele>
        <time>2022-06-08T11:20:47Z</time>
      </trkpt>
      <trkpt lat="46.44004" lon="5.70472">
        <ele>452.8</ele>
        <time>2022-06-08T11:20:53Z</time>
      </trkpt>
      <trkpt lat="46.44001" lon="5.70476">
        <ele>452.2</ele>
        <time>2022-06-08T11:20:59Z</time>
      </trkpt>
      <trkpt lat="46.44" lon="5.70483">
        <ele>450.7</ele>
        <time>2022-06-08T11:21:08Z</time>
      </trkpt>
      <trkpt lat="46.43999" lon="5.70491">
        <ele>449.5</ele>
        <time>2022-06-08T11:21:15Z</time>
      </trkpt>
      <trkpt lat="46.43995" lon="5.70494">
        <ele>448.8</ele>
        <time>2022-06-08T11:21:20Z</time>
      </trkpt>
      <trkpt lat="46.43991" lon="5.70498">
        <ele>448</ele>
        <time>2022-06-08T11:21:25Z</time>
      </trkpt>
      <trkpt lat="46.43989" lon="5.70504">
        <ele>448</ele>
        <time>2022-06-08T11:21:34Z</time>
      </trkpt>
      <trkpt lat="46.43986" lon="5.70511">
        <ele>448.2</ele>
        <time>2022-06-08T11:21:38Z</time>
      </trkpt>
      <trkpt lat="46.43983" lon="5.70516">
        <ele>448.4</ele>
        <time>2022-06-08T11:21:41Z</time>
      </trkpt>
      <trkpt lat="46.4398" lon="5.70523">
        <ele>448.6</ele>
        <time>2022-06-08T11:21:45Z</time>
      </trkpt>
      <trkpt lat="46.43977" lon="5.7053">
        <ele>448.7</ele>
        <time>2022-06-08T11:21:49Z</time>
      </trkpt>
      <trkpt lat="46.43978" lon="5.70537">
        <ele>448</ele>
        <time>2022-06-08T11:21:55Z</time>
      </trkpt>
      <trkpt lat="46.43973" lon="5.7054">
        <ele>447.4</ele>
        <time>2022-06-08T11:22:01Z</time>
      </trkpt>
      <trkpt lat="46.43968" lon="5.70543">
        <ele>447.8</ele>
        <time>2022-06-08T11:22:06Z</time>
      </trkpt>
      <trkpt lat="46.43964" lon="5.70546">
        <ele>447.9</ele>
        <time>2022-06-08T11:22:11Z</time>
      </trkpt>
      <trkpt lat="46.43963" lon="5.70553">
        <ele>447.6</ele>
        <time>2022-06-08T11:22:15Z</time>
      </trkpt>
      <trkpt lat="46.4396" lon="5.7056">
        <ele>447.8</ele>
        <time>2022-06-08T11:22:20Z</time>
      </trkpt>
      <trkpt lat="46.43956" lon="5.70565">
        <ele>448.7</ele>
        <time>2022-06-08T11:22:28Z</time>
      </trkpt>
      <trkpt lat="46.43953" lon="5.70569">
        <ele>449</ele>
        <time>2022-06-08T11:22:36Z</time>
      </trkpt>
      <trkpt lat="46.43948" lon="5.70571">
        <ele>449.1</ele>
        <time>2022-06-08T11:22:43Z</time>
      </trkpt>
      <trkpt lat="46.43943" lon="5.70573">
        <ele>449.3</ele>
        <time>2022-06-08T11:22:47Z</time>
      </trkpt>
      <trkpt lat="46.43939" lon="5.7058">
        <ele>449.3</ele>
        <time>2022-06-08T11:22:53Z</time>
      </trkpt>
      <trkpt lat="46.43936" lon="5.70584">
        <ele>449.4</ele>
        <time>2022-06-08T11:22:56Z</time>
      </trkpt>
      <trkpt lat="46.43932" lon="5.7059">
        <ele>449.8</ele>
        <time>2022-06-08T11:22:59Z</time>
      </trkpt>
      <trkpt lat="46.43928" lon="5.70593">
        <ele>450.5</ele>
        <time>2022-06-08T11:23:03Z</time>
      </trkpt>
      <trkpt lat="46.43927" lon="5.706">
        <ele>451.9</ele>
        <time>2022-06-08T11:23:08Z</time>
      </trkpt>
      <trkpt lat="46.43924" lon="5.70606">
        <ele>453.6</ele>
        <time>2022-06-08T11:23:13Z</time>
      </trkpt>
      <trkpt lat="46.4392" lon="5.70609">
        <ele>455.7</ele>
        <time>2022-06-08T11:23:18Z</time>
      </trkpt>
      <trkpt lat="46.43916" lon="5.70612">
        <ele>457.1</ele>
        <time>2022-06-08T11:23:23Z</time>
      </trkpt>
      <trkpt lat="46.43913" lon="5.7062">
        <ele>458.4</ele>
        <time>2022-06-08T11:23:28Z</time>
      </trkpt>
      <trkpt lat="46.43916" lon="5.70628">
        <ele>458.7</ele>
        <time>2022-06-08T11:23:31Z</time>
      </trkpt>
      <trkpt lat="46.4392" lon="5.7064">
        <ele>458.9</ele>
        <time>2022-06-08T11:23:34Z</time>
      </trkpt>
      <trkpt lat="46.43916" lon="5.70646">
        <ele>459.1</ele>
        <time>2022-06-08T11:23:38Z</time>
      </trkpt>
      <trkpt lat="46.43911" lon="5.70649">
        <ele>459.3</ele>
        <time>2022-06-08T11:23:43Z</time>
      </trkpt>
      <trkpt lat="46.43905" lon="5.70645">
        <ele>459.2</ele>
        <time>2022-06-08T11:23:46Z</time>
      </trkpt>
      <trkpt lat="46.439" lon="5.70643">
        <ele>459.2</ele>
        <time>2022-06-08T11:23:50Z</time>
      </trkpt>
      <trkpt lat="46.43895" lon="5.70636">
        <ele>459.2</ele>
        <time>2022-06-08T11:23:53Z</time>
      </trkpt>
      <trkpt lat="46.43889" lon="5.7063">
        <ele>459</ele>
        <time>2022-06-08T11:23:56Z</time>
      </trkpt>
      <trkpt lat="46.43884" lon="5.70629">
        <ele>458.6</ele>
        <time>2022-06-08T11:24:02Z</time>
      </trkpt>
      <trkpt lat="46.43879" lon="5.70629">
        <ele>458.8</ele>
        <time>2022-06-08T11:24:08Z</time>
      </trkpt>
      <trkpt lat="46.43873" lon="5.70627">
        <ele>459.3</ele>
        <time>2022-06-08T11:24:12Z</time>
      </trkpt>
      <trkpt lat="46.43868" lon="5.7063">
        <ele>460.8</ele>
        <time>2022-06-08T11:24:17Z</time>
      </trkpt>
      <trkpt lat="46.43863" lon="5.70631">
        <ele>463.4</ele>
        <time>2022-06-08T11:24:22Z</time>
      </trkpt>
      <trkpt lat="46.43859" lon="5.7063">
        <ele>465</ele>
        <time>2022-06-08T11:24:26Z</time>
      </trkpt>
      <trkpt lat="46.43854" lon="5.70633">
        <ele>465.8</ele>
        <time>2022-06-08T11:24:30Z</time>
      </trkpt>
      <trkpt lat="46.43855" lon="5.70626">
        <ele>464.5</ele>
        <time>2022-06-08T11:24:48Z</time>
      </trkpt>
      <trkpt lat="46.43856" lon="5.70633">
        <ele>461.9</ele>
        <time>2022-06-08T11:24:56Z</time>
      </trkpt>
      <trkpt lat="46.43856" lon="5.70631">
        <ele>465.5</ele>
        <time>2022-06-08T11:25:50Z</time>
      </trkpt>
      <trkpt lat="46.43852" lon="5.70633">
        <ele>465.9</ele>
        <time>2022-06-08T11:25:54Z</time>
      </trkpt>
      <trkpt lat="46.43847" lon="5.70634">
        <ele>467.6</ele>
        <time>2022-06-08T11:26:02Z</time>
      </trkpt>
      <trkpt lat="46.43842" lon="5.70637">
        <ele>469.4</ele>
        <time>2022-06-08T11:26:09Z</time>
      </trkpt>
      <trkpt lat="46.43838" lon="5.70638">
        <ele>470.3</ele>
        <time>2022-06-08T11:26:14Z</time>
      </trkpt>
      <trkpt lat="46.43833" lon="5.70636">
        <ele>470.8</ele>
        <time>2022-06-08T11:26:19Z</time>
      </trkpt>
      <trkpt lat="46.43834" lon="5.7063">
        <ele>472.2</ele>
        <time>2022-06-08T11:26:48Z</time>
      </trkpt>
      <trkpt lat="46.43829" lon="5.70628">
        <ele>472.6</ele>
        <time>2022-06-08T11:27:01Z</time>
      </trkpt>
      <trkpt lat="46.43825" lon="5.70625">
        <ele>472.6</ele>
        <time>2022-06-08T11:27:08Z</time>
      </trkpt>
      <trkpt lat="46.43829" lon="5.70621">
        <ele>471.8</ele>
        <time>2022-06-08T11:27:13Z</time>
      </trkpt>
      <trkpt lat="46.43818" lon="5.70617">
        <ele>468.5</ele>
        <time>2022-06-08T11:27:56Z</time>
      </trkpt>
      <trkpt lat="46.43814" lon="5.70612">
        <ele>469.4</ele>
        <time>2022-06-08T11:28:02Z</time>
      </trkpt>
      <trkpt lat="46.43809" lon="5.70609">
        <ele>470.5</ele>
        <time>2022-06-08T11:28:05Z</time>
      </trkpt>
      <trkpt lat="46.43803" lon="5.70607">
        <ele>471.4</ele>
        <time>2022-06-08T11:28:09Z</time>
      </trkpt>
      <trkpt lat="46.43798" lon="5.70605">
        <ele>471.5</ele>
        <time>2022-06-08T11:28:13Z</time>
      </trkpt>
      <trkpt lat="46.43793" lon="5.70601">
        <ele>471.4</ele>
        <time>2022-06-08T11:28:18Z</time>
      </trkpt>
      <trkpt lat="46.43797" lon="5.70608">
        <ele>471.2</ele>
        <time>2022-06-08T11:28:22Z</time>
      </trkpt>
      <trkpt lat="46.43802" lon="5.70612">
        <ele>471.1</ele>
        <time>2022-06-08T11:28:26Z</time>
      </trkpt>
      <trkpt lat="46.43801" lon="5.70605">
        <ele>470.1</ele>
        <time>2022-06-08T11:28:34Z</time>
      </trkpt>
      <trkpt lat="46.43799" lon="5.70599">
        <ele>469.1</ele>
        <time>2022-06-08T11:28:40Z</time>
      </trkpt>
      <trkpt lat="46.43795" lon="5.70595">
        <ele>468.5</ele>
        <time>2022-06-08T11:28:45Z</time>
      </trkpt>
      <trkpt lat="46.43791" lon="5.7059">
        <ele>468.2</ele>
        <time>2022-06-08T11:28:50Z</time>
      </trkpt>
      <trkpt lat="46.43788" lon="5.70584">
        <ele>468</ele>
        <time>2022-06-08T11:28:54Z</time>
      </trkpt>
      <trkpt lat="46.43784" lon="5.70581">
        <ele>467.7</ele>
        <time>2022-06-08T11:28:59Z</time>
      </trkpt>
      <trkpt lat="46.43779" lon="5.70576">
        <ele>467.6</ele>
        <time>2022-06-08T11:29:04Z</time>
      </trkpt>
      <trkpt lat="46.43775" lon="5.70575">
        <ele>467.5</ele>
        <time>2022-06-08T11:29:12Z</time>
      </trkpt>
      <trkpt lat="46.43767" lon="5.70569">
        <ele>467.8</ele>
        <time>2022-06-08T11:29:15Z</time>
      </trkpt>
      <trkpt lat="46.43763" lon="5.70564">
        <ele>468.1</ele>
        <time>2022-06-08T11:29:18Z</time>
      </trkpt>
      <trkpt lat="46.43759" lon="5.7056">
        <ele>468.3</ele>
        <time>2022-06-08T11:29:21Z</time>
      </trkpt>
      <trkpt lat="46.43758" lon="5.70553">
        <ele>468.6</ele>
        <time>2022-06-08T11:29:25Z</time>
      </trkpt>
      <trkpt lat="46.43757" lon="5.70545">
        <ele>469</ele>
        <time>2022-06-08T11:29:29Z</time>
      </trkpt>
      <trkpt lat="46.43754" lon="5.70538">
        <ele>469.5</ele>
        <time>2022-06-08T11:29:34Z</time>
      </trkpt>
      <trkpt lat="46.43751" lon="5.70531">
        <ele>470.1</ele>
        <time>2022-06-08T11:29:38Z</time>
      </trkpt>
      <trkpt lat="46.4375" lon="5.70525">
        <ele>470.8</ele>
        <time>2022-06-08T11:29:42Z</time>
      </trkpt>
      <trkpt lat="46.43745" lon="5.7052">
        <ele>471.6</ele>
        <time>2022-06-08T11:29:47Z</time>
      </trkpt>
      <trkpt lat="46.43748" lon="5.70516">
        <ele>473.5</ele>
        <time>2022-06-08T11:29:56Z</time>
      </trkpt>
      <trkpt lat="46.43744" lon="5.70512">
        <ele>475.8</ele>
        <time>2022-06-08T11:30:05Z</time>
      </trkpt>
      <trkpt lat="46.43748" lon="5.70516">
        <ele>477.3</ele>
        <time>2022-06-08T11:30:25Z</time>
      </trkpt>
      <trkpt lat="46.43745" lon="5.70522">
        <ele>478.4</ele>
        <time>2022-06-08T11:30:43Z</time>
      </trkpt>
      <trkpt lat="46.43742" lon="5.70516">
        <ele>477.9</ele>
        <time>2022-06-08T11:30:49Z</time>
      </trkpt>
      <trkpt lat="46.43731" lon="5.70504">
        <ele>480.4</ele>
        <time>2022-06-08T11:31:22Z</time>
      </trkpt>
      <trkpt lat="46.43729" lon="5.70498">
        <ele>481.4</ele>
        <time>2022-06-08T11:31:28Z</time>
      </trkpt>
      <trkpt lat="46.43731" lon="5.70492">
        <ele>482.2</ele>
        <time>2022-06-08T11:31:32Z</time>
      </trkpt>
      <trkpt lat="46.43734" lon="5.70487">
        <ele>482.8</ele>
        <time>2022-06-08T11:31:36Z</time>
      </trkpt>
      <trkpt lat="46.43733" lon="5.70481">
        <ele>483.6</ele>
        <time>2022-06-08T11:31:44Z</time>
      </trkpt>
      <trkpt lat="46.43728" lon="5.70474">
        <ele>483.8</ele>
        <time>2022-06-08T11:31:48Z</time>
      </trkpt>
      <trkpt lat="46.43724" lon="5.7047">
        <ele>483.9</ele>
        <time>2022-06-08T11:31:51Z</time>
      </trkpt>
      <trkpt lat="46.4372" lon="5.70465">
        <ele>483.9</ele>
        <time>2022-06-08T11:31:55Z</time>
      </trkpt>
      <trkpt lat="46.43719" lon="5.70458">
        <ele>483.7</ele>
        <time>2022-06-08T11:32:03Z</time>
      </trkpt>
      <trkpt lat="46.43713" lon="5.70456">
        <ele>483.9</ele>
        <time>2022-06-08T11:32:09Z</time>
      </trkpt>
      <trkpt lat="46.43709" lon="5.70453">
        <ele>484.1</ele>
        <time>2022-06-08T11:32:13Z</time>
      </trkpt>
      <trkpt lat="46.43704" lon="5.70451">
        <ele>484.4</ele>
        <time>2022-06-08T11:32:17Z</time>
      </trkpt>
      <trkpt lat="46.43702" lon="5.70444">
        <ele>486.4</ele>
        <time>2022-06-08T11:32:32Z</time>
      </trkpt>
      <trkpt lat="46.43699" lon="5.70439">
        <ele>486.7</ele>
        <time>2022-06-08T11:32:35Z</time>
      </trkpt>
      <trkpt lat="46.43696" lon="5.70433">
        <ele>487.2</ele>
        <time>2022-06-08T11:32:40Z</time>
      </trkpt>
      <trkpt lat="46.43695" lon="5.70426">
        <ele>487.9</ele>
        <time>2022-06-08T11:32:47Z</time>
      </trkpt>
      <trkpt lat="46.43695" lon="5.7042">
        <ele>488</ele>
        <time>2022-06-08T11:32:55Z</time>
      </trkpt>
      <trkpt lat="46.4369" lon="5.70416">
        <ele>487.6</ele>
        <time>2022-06-08T11:33:02Z</time>
      </trkpt>
      <trkpt lat="46.43685" lon="5.70414">
        <ele>486.5</ele>
        <time>2022-06-08T11:33:09Z</time>
      </trkpt>
      <trkpt lat="46.4368" lon="5.70413">
        <ele>486.2</ele>
        <time>2022-06-08T11:33:13Z</time>
      </trkpt>
      <trkpt lat="46.43675" lon="5.70409">
        <ele>486.1</ele>
        <time>2022-06-08T11:33:17Z</time>
      </trkpt>
      <trkpt lat="46.43669" lon="5.70402">
        <ele>486.2</ele>
        <time>2022-06-08T11:33:20Z</time>
      </trkpt>
      <trkpt lat="46.43666" lon="5.70397">
        <ele>486.2</ele>
        <time>2022-06-08T11:33:23Z</time>
      </trkpt>
      <trkpt lat="46.43661" lon="5.70393">
        <ele>486.1</ele>
        <time>2022-06-08T11:33:27Z</time>
      </trkpt>
      <trkpt lat="46.4366" lon="5.70387">
        <ele>486</ele>
        <time>2022-06-08T11:33:32Z</time>
      </trkpt>
      <trkpt lat="46.43657" lon="5.70382">
        <ele>486.2</ele>
        <time>2022-06-08T11:33:39Z</time>
      </trkpt>
      <trkpt lat="46.43651" lon="5.70379">
        <ele>486.7</ele>
        <time>2022-06-08T11:33:44Z</time>
      </trkpt>
      <trkpt lat="46.43646" lon="5.70379">
        <ele>487</ele>
        <time>2022-06-08T11:33:48Z</time>
      </trkpt>
      <trkpt lat="46.43641" lon="5.70375">
        <ele>487.3</ele>
        <time>2022-06-08T11:33:54Z</time>
      </trkpt>
      <trkpt lat="46.4364" lon="5.70368">
        <ele>487.6</ele>
        <time>2022-06-08T11:33:58Z</time>
      </trkpt>
      <trkpt lat="46.4364" lon="5.70361">
        <ele>487.9</ele>
        <time>2022-06-08T11:34:01Z</time>
      </trkpt>
      <trkpt lat="46.4364" lon="5.70355">
        <ele>488.2</ele>
        <time>2022-06-08T11:34:04Z</time>
      </trkpt>
      <trkpt lat="46.4364" lon="5.70347">
        <ele>488.6</ele>
        <time>2022-06-08T11:34:08Z</time>
      </trkpt>
      <trkpt lat="46.43639" lon="5.70339">
        <ele>489</ele>
        <time>2022-06-08T11:34:12Z</time>
      </trkpt>
      <trkpt lat="46.43638" lon="5.70332">
        <ele>489.3</ele>
        <time>2022-06-08T11:34:17Z</time>
      </trkpt>
      <trkpt lat="46.43639" lon="5.70324">
        <ele>490.1</ele>
        <time>2022-06-08T11:34:22Z</time>
      </trkpt>
      <trkpt lat="46.43639" lon="5.70316">
        <ele>491</ele>
        <time>2022-06-08T11:34:26Z</time>
      </trkpt>
      <trkpt lat="46.43638" lon="5.70309">
        <ele>491.9</ele>
        <time>2022-06-08T11:34:31Z</time>
      </trkpt>
      <trkpt lat="46.43636" lon="5.70302">
        <ele>492.6</ele>
        <time>2022-06-08T11:34:36Z</time>
      </trkpt>
      <trkpt lat="46.43634" lon="5.70295">
        <ele>493.1</ele>
        <time>2022-06-08T11:34:40Z</time>
      </trkpt>
      <trkpt lat="46.43631" lon="5.70289">
        <ele>493.5</ele>
        <time>2022-06-08T11:34:45Z</time>
      </trkpt>
      <trkpt lat="46.4363" lon="5.70282">
        <ele>493.9</ele>
        <time>2022-06-08T11:34:50Z</time>
      </trkpt>
      <trkpt lat="46.43629" lon="5.70274">
        <ele>494.4</ele>
        <time>2022-06-08T11:34:55Z</time>
      </trkpt>
      <trkpt lat="46.43629" lon="5.70267">
        <ele>494.5</ele>
        <time>2022-06-08T11:35:03Z</time>
      </trkpt>
      <trkpt lat="46.43626" lon="5.70259">
        <ele>494.7</ele>
        <time>2022-06-08T11:35:07Z</time>
      </trkpt>
      <trkpt lat="46.43625" lon="5.70251">
        <ele>495.4</ele>
        <time>2022-06-08T11:35:10Z</time>
      </trkpt>
      <trkpt lat="46.43626" lon="5.70244">
        <ele>496.6</ele>
        <time>2022-06-08T11:35:13Z</time>
      </trkpt>
      <trkpt lat="46.43627" lon="5.70237">
        <ele>497.4</ele>
        <time>2022-06-08T11:35:16Z</time>
      </trkpt>
      <trkpt lat="46.43627" lon="5.7023">
        <ele>498.4</ele>
        <time>2022-06-08T11:35:21Z</time>
      </trkpt>
      <trkpt lat="46.43624" lon="5.70224">
        <ele>498.9</ele>
        <time>2022-06-08T11:35:28Z</time>
      </trkpt>
      <trkpt lat="46.43618" lon="5.70221">
        <ele>498.3</ele>
        <time>2022-06-08T11:35:31Z</time>
      </trkpt>
      <trkpt lat="46.43613" lon="5.70218">
        <ele>498</ele>
        <time>2022-06-08T11:35:34Z</time>
      </trkpt>
      <trkpt lat="46.43608" lon="5.70216">
        <ele>497.8</ele>
        <time>2022-06-08T11:35:37Z</time>
      </trkpt>
      <trkpt lat="46.43605" lon="5.70209">
        <ele>498</ele>
        <time>2022-06-08T11:35:43Z</time>
      </trkpt>
      <trkpt lat="46.43604" lon="5.70202">
        <ele>497.8</ele>
        <time>2022-06-08T11:35:46Z</time>
      </trkpt>
      <trkpt lat="46.43603" lon="5.70196">
        <ele>497.5</ele>
        <time>2022-06-08T11:35:49Z</time>
      </trkpt>
      <trkpt lat="46.43602" lon="5.70189">
        <ele>497.1</ele>
        <time>2022-06-08T11:35:52Z</time>
      </trkpt>
      <trkpt lat="46.43599" lon="5.70182">
        <ele>496.9</ele>
        <time>2022-06-08T11:35:56Z</time>
      </trkpt>
      <trkpt lat="46.43594" lon="5.70181">
        <ele>497.1</ele>
        <time>2022-06-08T11:36:00Z</time>
      </trkpt>
      <trkpt lat="46.43589" lon="5.70179">
        <ele>497.5</ele>
        <time>2022-06-08T11:36:04Z</time>
      </trkpt>
      <trkpt lat="46.43586" lon="5.70175">
        <ele>498.1</ele>
        <time>2022-06-08T11:36:08Z</time>
      </trkpt>
      <trkpt lat="46.43584" lon="5.70168">
        <ele>498.9</ele>
        <time>2022-06-08T11:36:12Z</time>
      </trkpt>
      <trkpt lat="46.43581" lon="5.70162">
        <ele>500.6</ele>
        <time>2022-06-08T11:36:23Z</time>
      </trkpt>
      <trkpt lat="46.43578" lon="5.70157">
        <ele>501.4</ele>
        <time>2022-06-08T11:36:30Z</time>
      </trkpt>
      <trkpt lat="46.43573" lon="5.70152">
        <ele>502.1</ele>
        <time>2022-06-08T11:36:37Z</time>
      </trkpt>
      <trkpt lat="46.43569" lon="5.70147">
        <ele>502.3</ele>
        <time>2022-06-08T11:36:41Z</time>
      </trkpt>
      <trkpt lat="46.43564" lon="5.70143">
        <ele>504</ele>
        <time>2022-06-08T11:36:56Z</time>
      </trkpt>
      <trkpt lat="46.43563" lon="5.70135">
        <ele>504.6</ele>
        <time>2022-06-08T11:37:00Z</time>
      </trkpt>
      <trkpt lat="46.43559" lon="5.70128">
        <ele>505.1</ele>
        <time>2022-06-08T11:37:04Z</time>
      </trkpt>
      <trkpt lat="46.43554" lon="5.70125">
        <ele>505.6</ele>
        <time>2022-06-08T11:37:07Z</time>
      </trkpt>
      <trkpt lat="46.4355" lon="5.70121">
        <ele>506.4</ele>
        <time>2022-06-08T11:37:10Z</time>
      </trkpt>
      <trkpt lat="46.43546" lon="5.70117">
        <ele>507.3</ele>
        <time>2022-06-08T11:37:13Z</time>
      </trkpt>
      <trkpt lat="46.43541" lon="5.70115">
        <ele>508.7</ele>
        <time>2022-06-08T11:37:18Z</time>
      </trkpt>
      <trkpt lat="46.43537" lon="5.70113">
        <ele>510.2</ele>
        <time>2022-06-08T11:37:23Z</time>
      </trkpt>
      <trkpt lat="46.43536" lon="5.70107">
        <ele>512.1</ele>
        <time>2022-06-08T11:37:28Z</time>
      </trkpt>
      <trkpt lat="46.43532" lon="5.70102">
        <ele>513.9</ele>
        <time>2022-06-08T11:37:34Z</time>
      </trkpt>
      <trkpt lat="46.43527" lon="5.70103">
        <ele>515.4</ele>
        <time>2022-06-08T11:37:41Z</time>
      </trkpt>
      <trkpt lat="46.43521" lon="5.701">
        <ele>516.1</ele>
        <time>2022-06-08T11:37:45Z</time>
      </trkpt>
      <trkpt lat="46.43517" lon="5.70096">
        <ele>516.5</ele>
        <time>2022-06-08T11:37:48Z</time>
      </trkpt>
      <trkpt lat="46.43512" lon="5.70092">
        <ele>517.1</ele>
        <time>2022-06-08T11:37:51Z</time>
      </trkpt>
      <trkpt lat="46.43508" lon="5.70088">
        <ele>518</ele>
        <time>2022-06-08T11:37:55Z</time>
      </trkpt>
      <trkpt lat="46.43504" lon="5.70082">
        <ele>518.7</ele>
        <time>2022-06-08T11:37:58Z</time>
      </trkpt>
      <trkpt lat="46.43499" lon="5.70078">
        <ele>519.3</ele>
        <time>2022-06-08T11:38:01Z</time>
      </trkpt>
      <trkpt lat="46.43495" lon="5.70079">
        <ele>519.8</ele>
        <time>2022-06-08T11:38:05Z</time>
      </trkpt>
      <trkpt lat="46.4349" lon="5.70079">
        <ele>519.9</ele>
        <time>2022-06-08T11:38:10Z</time>
      </trkpt>
      <trkpt lat="46.43485" lon="5.7008">
        <ele>519.7</ele>
        <time>2022-06-08T11:38:20Z</time>
      </trkpt>
      <trkpt lat="46.43486" lon="5.70087">
        <ele>519.8</ele>
        <time>2022-06-08T11:38:35Z</time>
      </trkpt>
      <trkpt lat="46.43484" lon="5.70093">
        <ele>520.7</ele>
        <time>2022-06-08T11:38:46Z</time>
      </trkpt>
      <trkpt lat="46.43487" lon="5.70099">
        <ele>520.5</ele>
        <time>2022-06-08T11:38:52Z</time>
      </trkpt>
      <trkpt lat="46.43482" lon="5.70098">
        <ele>520.3</ele>
        <time>2022-06-08T11:39:01Z</time>
      </trkpt>
      <trkpt lat="46.43477" lon="5.70097">
        <ele>519.9</ele>
        <time>2022-06-08T11:39:07Z</time>
      </trkpt>
      <trkpt lat="46.43472" lon="5.70094">
        <ele>523.4</ele>
        <time>2022-06-08T11:39:26Z</time>
      </trkpt>
      <trkpt lat="46.43466" lon="5.70095">
        <ele>524.1</ele>
        <time>2022-06-08T11:39:39Z</time>
      </trkpt>
      <trkpt lat="46.43463" lon="5.701">
        <ele>524.5</ele>
        <time>2022-06-08T11:39:44Z</time>
      </trkpt>
      <trkpt lat="46.43459" lon="5.70104">
        <ele>525.1</ele>
        <time>2022-06-08T11:39:49Z</time>
      </trkpt>
      <trkpt lat="46.43454" lon="5.70105">
        <ele>525.7</ele>
        <time>2022-06-08T11:39:53Z</time>
      </trkpt>
      <trkpt lat="46.4345" lon="5.70109">
        <ele>526.3</ele>
        <time>2022-06-08T11:39:59Z</time>
      </trkpt>
      <trkpt lat="46.43445" lon="5.70109">
        <ele>527.1</ele>
        <time>2022-06-08T11:40:04Z</time>
      </trkpt>
      <trkpt lat="46.4344" lon="5.70109">
        <ele>527.8</ele>
        <time>2022-06-08T11:40:10Z</time>
      </trkpt>
      <trkpt lat="46.43436" lon="5.70112">
        <ele>528.4</ele>
        <time>2022-06-08T11:40:16Z</time>
      </trkpt>
      <trkpt lat="46.43432" lon="5.70114">
        <ele>528.8</ele>
        <time>2022-06-08T11:40:21Z</time>
      </trkpt>
      <trkpt lat="46.43427" lon="5.70115">
        <ele>529.1</ele>
        <time>2022-06-08T11:40:26Z</time>
      </trkpt>
      <trkpt lat="46.43422" lon="5.70114">
        <ele>529.3</ele>
        <time>2022-06-08T11:40:30Z</time>
      </trkpt>
      <trkpt lat="46.43417" lon="5.70112">
        <ele>529.7</ele>
        <time>2022-06-08T11:40:34Z</time>
      </trkpt>
      <trkpt lat="46.43413" lon="5.70107">
        <ele>530.4</ele>
        <time>2022-06-08T11:40:38Z</time>
      </trkpt>
      <trkpt lat="46.43408" lon="5.7011">
        <ele>533.4</ele>
        <time>2022-06-08T11:40:48Z</time>
      </trkpt>
      <trkpt lat="46.43405" lon="5.70115">
        <ele>534.7</ele>
        <time>2022-06-08T11:40:54Z</time>
      </trkpt>
      <trkpt lat="46.434" lon="5.70114">
        <ele>535.8</ele>
        <time>2022-06-08T11:40:59Z</time>
      </trkpt>
      <trkpt lat="46.43394" lon="5.70115">
        <ele>537.4</ele>
        <time>2022-06-08T11:41:05Z</time>
      </trkpt>
      <trkpt lat="46.4339" lon="5.70117">
        <ele>538.5</ele>
        <time>2022-06-08T11:41:11Z</time>
      </trkpt>
      <trkpt lat="46.43385" lon="5.70119">
        <ele>538.9</ele>
        <time>2022-06-08T11:41:19Z</time>
      </trkpt>
      <trkpt lat="46.4338" lon="5.70122">
        <ele>539.4</ele>
        <time>2022-06-08T11:41:24Z</time>
      </trkpt>
      <trkpt lat="46.43375" lon="5.70121">
        <ele>539.8</ele>
        <time>2022-06-08T11:41:28Z</time>
      </trkpt>
      <trkpt lat="46.4337" lon="5.70122">
        <ele>539.8</ele>
        <time>2022-06-08T11:41:34Z</time>
      </trkpt>
      <trkpt lat="46.43369" lon="5.70128">
        <ele>537.7</ele>
        <time>2022-06-08T11:41:41Z</time>
      </trkpt>
      <trkpt lat="46.43372" lon="5.70138">
        <ele>536.7</ele>
        <time>2022-06-08T11:41:44Z</time>
      </trkpt>
      <trkpt lat="46.43371" lon="5.70144">
        <ele>535</ele>
        <time>2022-06-08T11:41:50Z</time>
      </trkpt>
      <trkpt lat="46.43368" lon="5.7014">
        <ele>534.6</ele>
        <time>2022-06-08T11:41:53Z</time>
      </trkpt>
      <trkpt lat="46.43364" lon="5.70133">
        <ele>534.6</ele>
        <time>2022-06-08T11:41:56Z</time>
      </trkpt>
      <trkpt lat="46.4336" lon="5.70129">
        <ele>534.7</ele>
        <time>2022-06-08T11:42:00Z</time>
      </trkpt>
      <trkpt lat="46.43354" lon="5.70128">
        <ele>535.1</ele>
        <time>2022-06-08T11:42:05Z</time>
      </trkpt>
      <trkpt lat="46.43349" lon="5.70128">
        <ele>535.3</ele>
        <time>2022-06-08T11:42:09Z</time>
      </trkpt>
      <trkpt lat="46.43344" lon="5.70128">
        <ele>535.5</ele>
        <time>2022-06-08T11:42:13Z</time>
      </trkpt>
      <trkpt lat="46.43339" lon="5.70128">
        <ele>535.6</ele>
        <time>2022-06-08T11:42:17Z</time>
      </trkpt>
      <trkpt lat="46.43335" lon="5.70125">
        <ele>535.7</ele>
        <time>2022-06-08T11:42:20Z</time>
      </trkpt>
      <trkpt lat="46.43331" lon="5.70121">
        <ele>535.8</ele>
        <time>2022-06-08T11:42:23Z</time>
      </trkpt>
      <trkpt lat="46.43326" lon="5.70119">
        <ele>536</ele>
        <time>2022-06-08T11:42:27Z</time>
      </trkpt>
      <trkpt lat="46.43321" lon="5.70118">
        <ele>536.2</ele>
        <time>2022-06-08T11:42:31Z</time>
      </trkpt>
      <trkpt lat="46.43318" lon="5.70114">
        <ele>536.6</ele>
        <time>2022-06-08T11:42:36Z</time>
      </trkpt>
      <trkpt lat="46.43313" lon="5.70112">
        <ele>537.2</ele>
        <time>2022-06-08T11:42:43Z</time>
      </trkpt>
      <trkpt lat="46.43309" lon="5.7011">
        <ele>537.4</ele>
        <time>2022-06-08T11:42:49Z</time>
      </trkpt>
      <trkpt lat="46.43305" lon="5.70115">
        <ele>537.9</ele>
        <time>2022-06-08T11:43:00Z</time>
      </trkpt>
      <trkpt lat="46.43301" lon="5.7011">
        <ele>538.4</ele>
        <time>2022-06-08T11:43:16Z</time>
      </trkpt>
      <trkpt lat="46.43303" lon="5.70116">
        <ele>544.1</ele>
        <time>2022-06-08T11:43:44Z</time>
      </trkpt>
      <trkpt lat="46.43303" lon="5.70123">
        <ele>537.9</ele>
        <time>2022-06-08T11:44:33Z</time>
      </trkpt>
      <trkpt lat="46.43298" lon="5.70123">
        <ele>538.3</ele>
        <time>2022-06-08T11:44:54Z</time>
      </trkpt>
      <trkpt lat="46.43293" lon="5.70124">
        <ele>537.7</ele>
        <time>2022-06-08T11:45:00Z</time>
      </trkpt>
      <trkpt lat="46.43289" lon="5.70121">
        <ele>537.1</ele>
        <time>2022-06-08T11:45:05Z</time>
      </trkpt>
      <trkpt lat="46.43285" lon="5.70124">
        <ele>536.4</ele>
        <time>2022-06-08T11:45:12Z</time>
      </trkpt>
      <trkpt lat="46.43281" lon="5.70129">
        <ele>536.1</ele>
        <time>2022-06-08T11:45:18Z</time>
      </trkpt>
      <trkpt lat="46.43278" lon="5.70135">
        <ele>536.2</ele>
        <time>2022-06-08T11:45:23Z</time>
      </trkpt>
      <trkpt lat="46.43274" lon="5.70138">
        <ele>536.2</ele>
        <time>2022-06-08T11:45:27Z</time>
      </trkpt>
      <trkpt lat="46.4327" lon="5.70143">
        <ele>536.9</ele>
        <time>2022-06-08T11:45:36Z</time>
      </trkpt>
      <trkpt lat="46.43267" lon="5.70148">
        <ele>537.5</ele>
        <time>2022-06-08T11:45:42Z</time>
      </trkpt>
      <trkpt lat="46.43263" lon="5.70154">
        <ele>537.6</ele>
        <time>2022-06-08T11:45:47Z</time>
      </trkpt>
      <trkpt lat="46.4326" lon="5.7016">
        <ele>537.7</ele>
        <time>2022-06-08T11:45:51Z</time>
      </trkpt>
      <trkpt lat="46.43259" lon="5.70167">
        <ele>537.9</ele>
        <time>2022-06-08T11:45:58Z</time>
      </trkpt>
      <trkpt lat="46.43255" lon="5.70173">
        <ele>538.1</ele>
        <time>2022-06-08T11:46:03Z</time>
      </trkpt>
      <trkpt lat="46.4325" lon="5.70177">
        <ele>538.1</ele>
        <time>2022-06-08T11:46:06Z</time>
      </trkpt>
      <trkpt lat="46.43246" lon="5.7018">
        <ele>538.1</ele>
        <time>2022-06-08T11:46:10Z</time>
      </trkpt>
      <trkpt lat="46.4324" lon="5.70181">
        <ele>537.7</ele>
        <time>2022-06-08T11:46:14Z</time>
      </trkpt>
      <trkpt lat="46.43236" lon="5.70182">
        <ele>537.5</ele>
        <time>2022-06-08T11:46:17Z</time>
      </trkpt>
      <trkpt lat="46.43232" lon="5.70187">
        <ele>537.2</ele>
        <time>2022-06-08T11:46:21Z</time>
      </trkpt>
      <trkpt lat="46.4323" lon="5.70193">
        <ele>537.2</ele>
        <time>2022-06-08T11:46:25Z</time>
      </trkpt>
      <trkpt lat="46.43227" lon="5.70197">
        <ele>537.1</ele>
        <time>2022-06-08T11:46:30Z</time>
      </trkpt>
      <trkpt lat="46.43222" lon="5.702">
        <ele>536.5</ele>
        <time>2022-06-08T11:46:36Z</time>
      </trkpt>
      <trkpt lat="46.43218" lon="5.70204">
        <ele>536.8</ele>
        <time>2022-06-08T11:46:41Z</time>
      </trkpt>
      <trkpt lat="46.43213" lon="5.70205">
        <ele>537.2</ele>
        <time>2022-06-08T11:46:44Z</time>
      </trkpt>
      <trkpt lat="46.43208" lon="5.70207">
        <ele>537.6</ele>
        <time>2022-06-08T11:46:48Z</time>
      </trkpt>
      <trkpt lat="46.43206" lon="5.70213">
        <ele>537.5</ele>
        <time>2022-06-08T11:46:52Z</time>
      </trkpt>
      <trkpt lat="46.43201" lon="5.70215">
        <ele>538.1</ele>
        <time>2022-06-08T11:47:00Z</time>
      </trkpt>
      <trkpt lat="46.43197" lon="5.70214">
        <ele>538.8</ele>
        <time>2022-06-08T11:47:05Z</time>
      </trkpt>
      <trkpt lat="46.43192" lon="5.70215">
        <ele>539</ele>
        <time>2022-06-08T11:47:08Z</time>
      </trkpt>
      <trkpt lat="46.43187" lon="5.70215">
        <ele>539.1</ele>
        <time>2022-06-08T11:47:11Z</time>
      </trkpt>
      <trkpt lat="46.4318" lon="5.70215">
        <ele>539.2</ele>
        <time>2022-06-08T11:47:14Z</time>
      </trkpt>
      <trkpt lat="46.43175" lon="5.70214">
        <ele>539.5</ele>
        <time>2022-06-08T11:47:17Z</time>
      </trkpt>
      <trkpt lat="46.4317" lon="5.70211">
        <ele>539.8</ele>
        <time>2022-06-08T11:47:20Z</time>
      </trkpt>
      <trkpt lat="46.43166" lon="5.70209">
        <ele>540</ele>
        <time>2022-06-08T11:47:24Z</time>
      </trkpt>
      <trkpt lat="46.43169" lon="5.70205">
        <ele>538.5</ele>
        <time>2022-06-08T11:47:33Z</time>
      </trkpt>
      <trkpt lat="46.43164" lon="5.70204">
        <ele>538.6</ele>
        <time>2022-06-08T11:47:38Z</time>
      </trkpt>
      <trkpt lat="46.43159" lon="5.70203">
        <ele>539.1</ele>
        <time>2022-06-08T11:47:43Z</time>
      </trkpt>
      <trkpt lat="46.43154" lon="5.70203">
        <ele>539.4</ele>
        <time>2022-06-08T11:47:48Z</time>
      </trkpt>
      <trkpt lat="46.43148" lon="5.702">
        <ele>539</ele>
        <time>2022-06-08T11:47:52Z</time>
      </trkpt>
      <trkpt lat="46.43143" lon="5.702">
        <ele>538.4</ele>
        <time>2022-06-08T11:47:57Z</time>
      </trkpt>
      <trkpt lat="46.43139" lon="5.70196">
        <ele>538.3</ele>
        <time>2022-06-08T11:48:04Z</time>
      </trkpt>
      <trkpt lat="46.43135" lon="5.7019">
        <ele>538.8</ele>
        <time>2022-06-08T11:48:09Z</time>
      </trkpt>
      <trkpt lat="46.4313" lon="5.7019">
        <ele>538.9</ele>
        <time>2022-06-08T11:48:13Z</time>
      </trkpt>
      <trkpt lat="46.43126" lon="5.70193">
        <ele>539</ele>
        <time>2022-06-08T11:48:17Z</time>
      </trkpt>
      <trkpt lat="46.43122" lon="5.70199">
        <ele>539.1</ele>
        <time>2022-06-08T11:48:22Z</time>
      </trkpt>
      <trkpt lat="46.43117" lon="5.70197">
        <ele>539.2</ele>
        <time>2022-06-08T11:48:25Z</time>
      </trkpt>
      <trkpt lat="46.43111" lon="5.70196">
        <ele>539.1</ele>
        <time>2022-06-08T11:48:28Z</time>
      </trkpt>
      <trkpt lat="46.43108" lon="5.70202">
        <ele>539.6</ele>
        <time>2022-06-08T11:48:35Z</time>
      </trkpt>
      <trkpt lat="46.43103" lon="5.70206">
        <ele>540.2</ele>
        <time>2022-06-08T11:48:41Z</time>
      </trkpt>
      <trkpt lat="46.43098" lon="5.70204">
        <ele>541.1</ele>
        <time>2022-06-08T11:48:45Z</time>
      </trkpt>
      <trkpt lat="46.43094" lon="5.70201">
        <ele>542</ele>
        <time>2022-06-08T11:48:48Z</time>
      </trkpt>
      <trkpt lat="46.43089" lon="5.70203">
        <ele>542.9</ele>
        <time>2022-06-08T11:48:51Z</time>
      </trkpt>
      <trkpt lat="46.43085" lon="5.70207">
        <ele>544.1</ele>
        <time>2022-06-08T11:48:55Z</time>
      </trkpt>
      <trkpt lat="46.43081" lon="5.70211">
        <ele>545.1</ele>
        <time>2022-06-08T11:49:00Z</time>
      </trkpt>
      <trkpt lat="46.43077" lon="5.70215">
        <ele>545.8</ele>
        <time>2022-06-08T11:49:04Z</time>
      </trkpt>
      <trkpt lat="46.43073" lon="5.70213">
        <ele>546.1</ele>
        <time>2022-06-08T11:49:07Z</time>
      </trkpt>
      <trkpt lat="46.43068" lon="5.70204">
        <ele>546.5</ele>
        <time>2022-06-08T11:49:10Z</time>
      </trkpt>
      <trkpt lat="46.43063" lon="5.70201">
        <ele>546.6</ele>
        <time>2022-06-08T11:49:13Z</time>
      </trkpt>
      <trkpt lat="46.43057" lon="5.70199">
        <ele>546.6</ele>
        <time>2022-06-08T11:49:17Z</time>
      </trkpt>
      <trkpt lat="46.43053" lon="5.70195">
        <ele>546.5</ele>
        <time>2022-06-08T11:49:20Z</time>
      </trkpt>
      <trkpt lat="46.4305" lon="5.70189">
        <ele>546.4</ele>
        <time>2022-06-08T11:49:25Z</time>
      </trkpt>
      <trkpt lat="46.43046" lon="5.70184">
        <ele>548.5</ele>
        <time>2022-06-08T11:49:37Z</time>
      </trkpt>
      <trkpt lat="46.43041" lon="5.70182">
        <ele>549.3</ele>
        <time>2022-06-08T11:49:41Z</time>
      </trkpt>
      <trkpt lat="46.43037" lon="5.70179">
        <ele>549.9</ele>
        <time>2022-06-08T11:49:44Z</time>
      </trkpt>
      <trkpt lat="46.43031" lon="5.70176">
        <ele>550.4</ele>
        <time>2022-06-08T11:49:47Z</time>
      </trkpt>
      <trkpt lat="46.43026" lon="5.70175">
        <ele>550.6</ele>
        <time>2022-06-08T11:49:51Z</time>
      </trkpt>
      <trkpt lat="46.43021" lon="5.70176">
        <ele>550.8</ele>
        <time>2022-06-08T11:49:55Z</time>
      </trkpt>
      <trkpt lat="46.43016" lon="5.70173">
        <ele>551.5</ele>
        <time>2022-06-08T11:50:05Z</time>
      </trkpt>
      <trkpt lat="46.43012" lon="5.7017">
        <ele>551.8</ele>
        <time>2022-06-08T11:50:09Z</time>
      </trkpt>
      <trkpt lat="46.43006" lon="5.70171">
        <ele>552.1</ele>
        <time>2022-06-08T11:50:15Z</time>
      </trkpt>
      <trkpt lat="46.43001" lon="5.70175">
        <ele>552.4</ele>
        <time>2022-06-08T11:50:20Z</time>
      </trkpt>
      <trkpt lat="46.42996" lon="5.70176">
        <ele>552.8</ele>
        <time>2022-06-08T11:50:23Z</time>
      </trkpt>
      <trkpt lat="46.4299" lon="5.70174">
        <ele>553.5</ele>
        <time>2022-06-08T11:50:26Z</time>
      </trkpt>
      <trkpt lat="46.42982" lon="5.70172">
        <ele>554.3</ele>
        <time>2022-06-08T11:50:29Z</time>
      </trkpt>
      <trkpt lat="46.42978" lon="5.70172">
        <ele>554.8</ele>
        <time>2022-06-08T11:50:32Z</time>
      </trkpt>
      <trkpt lat="46.42973" lon="5.70175">
        <ele>555.6</ele>
        <time>2022-06-08T11:50:37Z</time>
      </trkpt>
      <trkpt lat="46.42968" lon="5.70179">
        <ele>556.1</ele>
        <time>2022-06-08T11:50:42Z</time>
      </trkpt>
      <trkpt lat="46.42963" lon="5.70178">
        <ele>556.5</ele>
        <time>2022-06-08T11:50:46Z</time>
      </trkpt>
      <trkpt lat="46.42959" lon="5.7018">
        <ele>556.9</ele>
        <time>2022-06-08T11:50:53Z</time>
      </trkpt>
      <trkpt lat="46.42954" lon="5.70181">
        <ele>557</ele>
        <time>2022-06-08T11:50:59Z</time>
      </trkpt>
      <trkpt lat="46.4295" lon="5.70184">
        <ele>557.1</ele>
        <time>2022-06-08T11:51:03Z</time>
      </trkpt>
      <trkpt lat="46.42939" lon="5.70195">
        <ele>557.7</ele>
        <time>2022-06-08T11:51:15Z</time>
      </trkpt>
      <trkpt lat="46.42936" lon="5.702">
        <ele>557.9</ele>
        <time>2022-06-08T11:51:19Z</time>
      </trkpt>
      <trkpt lat="46.42935" lon="5.70207">
        <ele>558.4</ele>
        <time>2022-06-08T11:51:23Z</time>
      </trkpt>
      <trkpt lat="46.42932" lon="5.70213">
        <ele>558.9</ele>
        <time>2022-06-08T11:51:27Z</time>
      </trkpt>
      <trkpt lat="46.42928" lon="5.70218">
        <ele>560.4</ele>
        <time>2022-06-08T11:51:34Z</time>
      </trkpt>
      <trkpt lat="46.42924" lon="5.70223">
        <ele>561</ele>
        <time>2022-06-08T11:51:40Z</time>
      </trkpt>
      <trkpt lat="46.42924" lon="5.70231">
        <ele>561.2</ele>
        <time>2022-06-08T11:51:45Z</time>
      </trkpt>
      <trkpt lat="46.42922" lon="5.70238">
        <ele>561.1</ele>
        <time>2022-06-08T11:51:51Z</time>
      </trkpt>
      <trkpt lat="46.42918" lon="5.70241">
        <ele>560.7</ele>
        <time>2022-06-08T11:51:54Z</time>
      </trkpt>
      <trkpt lat="46.42913" lon="5.70244">
        <ele>560.9</ele>
        <time>2022-06-08T11:51:58Z</time>
      </trkpt>
      <trkpt lat="46.42908" lon="5.70244">
        <ele>562.4</ele>
        <time>2022-06-08T11:52:03Z</time>
      </trkpt>
      <trkpt lat="46.42911" lon="5.7025">
        <ele>565.7</ele>
        <time>2022-06-08T11:52:40Z</time>
      </trkpt>
      <trkpt lat="46.42915" lon="5.70253">
        <ele>560.7</ele>
        <time>2022-06-08T11:53:15Z</time>
      </trkpt>
      <trkpt lat="46.42919" lon="5.70251">
        <ele>559.6</ele>
        <time>2022-06-08T11:53:28Z</time>
      </trkpt>
      <trkpt lat="46.42921" lon="5.70244">
        <ele>558.7</ele>
        <time>2022-06-08T11:53:51Z</time>
      </trkpt>
      <trkpt lat="46.42922" lon="5.70251">
        <ele>558.8</ele>
        <time>2022-06-08T11:53:56Z</time>
      </trkpt>
      <trkpt lat="46.42919" lon="5.70245">
        <ele>560.1</ele>
        <time>2022-06-08T11:54:17Z</time>
      </trkpt>
      <trkpt lat="46.42916" lon="5.70248">
        <ele>553.1</ele>
        <time>2022-06-08T11:54:49Z</time>
      </trkpt>
      <trkpt lat="46.42912" lon="5.7025">
        <ele>552.6</ele>
        <time>2022-06-08T11:54:58Z</time>
      </trkpt>
      <trkpt lat="46.42915" lon="5.70256">
        <ele>552.1</ele>
        <time>2022-06-08T11:55:08Z</time>
      </trkpt>
      <trkpt lat="46.42911" lon="5.70259">
        <ele>553.4</ele>
        <time>2022-06-08T11:55:25Z</time>
      </trkpt>
      <trkpt lat="46.42906" lon="5.70261">
        <ele>554</ele>
        <time>2022-06-08T11:55:28Z</time>
      </trkpt>
      <trkpt lat="46.42904" lon="5.70269">
        <ele>555.1</ele>
        <time>2022-06-08T11:55:32Z</time>
      </trkpt>
      <trkpt lat="46.42906" lon="5.70276">
        <ele>556</ele>
        <time>2022-06-08T11:55:36Z</time>
      </trkpt>
      <trkpt lat="46.42909" lon="5.70281">
        <ele>556.9</ele>
        <time>2022-06-08T11:55:42Z</time>
      </trkpt>
      <trkpt lat="46.42907" lon="5.70288">
        <ele>557.9</ele>
        <time>2022-06-08T11:55:54Z</time>
      </trkpt>
      <trkpt lat="46.42909" lon="5.70295">
        <ele>558.9</ele>
        <time>2022-06-08T11:56:04Z</time>
      </trkpt>
      <trkpt lat="46.42911" lon="5.70301">
        <ele>559.5</ele>
        <time>2022-06-08T11:56:10Z</time>
      </trkpt>
      <trkpt lat="46.42915" lon="5.703">
        <ele>561</ele>
        <time>2022-06-08T11:56:17Z</time>
      </trkpt>
      <trkpt lat="46.42917" lon="5.70307">
        <ele>562.3</ele>
        <time>2022-06-08T11:56:23Z</time>
      </trkpt>
      <trkpt lat="46.42918" lon="5.70314">
        <ele>562.6</ele>
        <time>2022-06-08T11:56:30Z</time>
      </trkpt>
      <trkpt lat="46.42918" lon="5.70321">
        <ele>562.8</ele>
        <time>2022-06-08T11:56:34Z</time>
      </trkpt>
      <trkpt lat="46.42913" lon="5.70322">
        <ele>563.5</ele>
        <time>2022-06-08T11:56:47Z</time>
      </trkpt>
      <trkpt lat="46.42912" lon="5.70314">
        <ele>563.1</ele>
        <time>2022-06-08T11:56:51Z</time>
      </trkpt>
      <trkpt lat="46.42916" lon="5.70317">
        <ele>562.8</ele>
        <time>2022-06-08T11:56:56Z</time>
      </trkpt>
      <trkpt lat="46.42922" lon="5.7032">
        <ele>562.5</ele>
        <time>2022-06-08T11:56:59Z</time>
      </trkpt>
      <trkpt lat="46.42926" lon="5.70325">
        <ele>562.1</ele>
        <time>2022-06-08T11:57:03Z</time>
      </trkpt>
      <trkpt lat="46.42932" lon="5.70329">
        <ele>561.8</ele>
        <time>2022-06-08T11:57:06Z</time>
      </trkpt>
      <trkpt lat="46.42935" lon="5.70333">
        <ele>561.8</ele>
        <time>2022-06-08T11:57:09Z</time>
      </trkpt>
      <trkpt lat="46.42941" lon="5.70336">
        <ele>562</ele>
        <time>2022-06-08T11:57:12Z</time>
      </trkpt>
      <trkpt lat="46.42946" lon="5.70338">
        <ele>562.2</ele>
        <time>2022-06-08T11:57:15Z</time>
      </trkpt>
      <trkpt lat="46.4295" lon="5.70335">
        <ele>562.2</ele>
        <time>2022-06-08T11:57:18Z</time>
      </trkpt>
      <trkpt lat="46.42956" lon="5.7033">
        <ele>561.9</ele>
        <time>2022-06-08T11:57:21Z</time>
      </trkpt>
      <trkpt lat="46.42962" lon="5.70327">
        <ele>561.2</ele>
        <time>2022-06-08T11:57:24Z</time>
      </trkpt>
      <trkpt lat="46.42966" lon="5.70329">
        <ele>560.6</ele>
        <time>2022-06-08T11:57:31Z</time>
      </trkpt>
      <trkpt lat="46.42968" lon="5.70334">
        <ele>562.9</ele>
        <time>2022-06-08T11:57:55Z</time>
      </trkpt>
      <trkpt lat="46.42972" lon="5.7034">
        <ele>564.1</ele>
        <time>2022-06-08T11:57:58Z</time>
      </trkpt>
      <trkpt lat="46.42973" lon="5.70347">
        <ele>565.3</ele>
        <time>2022-06-08T11:58:04Z</time>
      </trkpt>
      <trkpt lat="46.42978" lon="5.70348">
        <ele>565.4</ele>
        <time>2022-06-08T11:58:08Z</time>
      </trkpt>
      <trkpt lat="46.42981" lon="5.70342">
        <ele>565.7</ele>
        <time>2022-06-08T11:58:27Z</time>
      </trkpt>
      <trkpt lat="46.42985" lon="5.70337">
        <ele>565.4</ele>
        <time>2022-06-08T11:58:30Z</time>
      </trkpt>
      <trkpt lat="46.42987" lon="5.70345">
        <ele>562.6</ele>
        <time>2022-06-08T11:59:18Z</time>
      </trkpt>
      <trkpt lat="46.42992" lon="5.70351">
        <ele>562.4</ele>
        <time>2022-06-08T11:59:21Z</time>
      </trkpt>
      <trkpt lat="46.42997" lon="5.70353">
        <ele>562.3</ele>
        <time>2022-06-08T11:59:24Z</time>
      </trkpt>
      <trkpt lat="46.43003" lon="5.70351">
        <ele>562.6</ele>
        <time>2022-06-08T11:59:29Z</time>
      </trkpt>
      <trkpt lat="46.43009" lon="5.70345">
        <ele>562.8</ele>
        <time>2022-06-08T11:59:32Z</time>
      </trkpt>
      <trkpt lat="46.43014" lon="5.70348">
        <ele>563.8</ele>
        <time>2022-06-08T11:59:41Z</time>
      </trkpt>
      <trkpt lat="46.43013" lon="5.70341">
        <ele>567</ele>
        <time>2022-06-08T11:59:56Z</time>
      </trkpt>
      <trkpt lat="46.43014" lon="5.70333">
        <ele>567.1</ele>
        <time>2022-06-08T12:00:00Z</time>
      </trkpt>
      <trkpt lat="46.43018" lon="5.70333">
        <ele>564.1</ele>
        <time>2022-06-08T12:00:14Z</time>
      </trkpt>
      <trkpt lat="46.43026" lon="5.70334">
        <ele>562.7</ele>
        <time>2022-06-08T12:00:17Z</time>
      </trkpt>
      <trkpt lat="46.43031" lon="5.70336">
        <ele>560.9</ele>
        <time>2022-06-08T12:00:20Z</time>
      </trkpt>
      <trkpt lat="46.43036" lon="5.70337">
        <ele>558.6</ele>
        <time>2022-06-08T12:00:33Z</time>
      </trkpt>
      <trkpt lat="46.43041" lon="5.70337">
        <ele>558.8</ele>
        <time>2022-06-08T12:00:39Z</time>
      </trkpt>
      <trkpt lat="46.43038" lon="5.70343">
        <ele>558.4</ele>
        <time>2022-06-08T12:00:50Z</time>
      </trkpt>
      <trkpt lat="46.43043" lon="5.70343">
        <ele>557.9</ele>
        <time>2022-06-08T12:00:58Z</time>
      </trkpt>
      <trkpt lat="46.43047" lon="5.70347">
        <ele>557.3</ele>
        <time>2022-06-08T12:01:04Z</time>
      </trkpt>
      <trkpt lat="46.43052" lon="5.7035">
        <ele>557.3</ele>
        <time>2022-06-08T12:01:08Z</time>
      </trkpt>
      <trkpt lat="46.43055" lon="5.70355">
        <ele>557.4</ele>
        <time>2022-06-08T12:01:14Z</time>
      </trkpt>
      <trkpt lat="46.43056" lon="5.70362">
        <ele>557.9</ele>
        <time>2022-06-08T12:01:28Z</time>
      </trkpt>
      <trkpt lat="46.43059" lon="5.70368">
        <ele>558</ele>
        <time>2022-06-08T12:01:34Z</time>
      </trkpt>
      <trkpt lat="46.43062" lon="5.70373">
        <ele>558.6</ele>
        <time>2022-06-08T12:01:43Z</time>
      </trkpt>
      <trkpt lat="46.43067" lon="5.70374">
        <ele>559.3</ele>
        <time>2022-06-08T12:01:48Z</time>
      </trkpt>
      <trkpt lat="46.43072" lon="5.70375">
        <ele>559.8</ele>
        <time>2022-06-08T12:01:52Z</time>
      </trkpt>
      <trkpt lat="46.43077" lon="5.70379">
        <ele>560.3</ele>
        <time>2022-06-08T12:02:00Z</time>
      </trkpt>
      <trkpt lat="46.43081" lon="5.7038">
        <ele>560.5</ele>
        <time>2022-06-08T12:02:06Z</time>
      </trkpt>
      <trkpt lat="46.43086" lon="5.70382">
        <ele>561</ele>
        <time>2022-06-08T12:02:13Z</time>
      </trkpt>
      <trkpt lat="46.43089" lon="5.70387">
        <ele>561.4</ele>
        <time>2022-06-08T12:02:20Z</time>
      </trkpt>
      <trkpt lat="46.43096" lon="5.70388">
        <ele>562.2</ele>
        <time>2022-06-08T12:02:26Z</time>
      </trkpt>
      <trkpt lat="46.43101" lon="5.70388">
        <ele>562.6</ele>
        <time>2022-06-08T12:02:29Z</time>
      </trkpt>
      <trkpt lat="46.43103" lon="5.70393">
        <ele>563.3</ele>
        <time>2022-06-08T12:02:35Z</time>
      </trkpt>
      <trkpt lat="46.43105" lon="5.70399">
        <ele>563.5</ele>
        <time>2022-06-08T12:02:38Z</time>
      </trkpt>
      <trkpt lat="46.43109" lon="5.70406">
        <ele>563.5</ele>
        <time>2022-06-08T12:02:41Z</time>
      </trkpt>
      <trkpt lat="46.43113" lon="5.70412">
        <ele>563.7</ele>
        <time>2022-06-08T12:02:44Z</time>
      </trkpt>
      <trkpt lat="46.43117" lon="5.70415">
        <ele>563.9</ele>
        <time>2022-06-08T12:02:49Z</time>
      </trkpt>
      <trkpt lat="46.43137" lon="5.70415">
        <ele>566.1</ele>
        <time>2022-06-08T12:03:12Z</time>
      </trkpt>
      <trkpt lat="46.43142" lon="5.70418">
        <ele>566.3</ele>
        <time>2022-06-08T12:03:15Z</time>
      </trkpt>
      <trkpt lat="46.43147" lon="5.70421">
        <ele>566.5</ele>
        <time>2022-06-08T12:03:19Z</time>
      </trkpt>
      <trkpt lat="46.43151" lon="5.70425">
        <ele>566.9</ele>
        <time>2022-06-08T12:03:26Z</time>
      </trkpt>
      <trkpt lat="46.43156" lon="5.70429">
        <ele>567.3</ele>
        <time>2022-06-08T12:03:31Z</time>
      </trkpt>
      <trkpt lat="46.43159" lon="5.70423">
        <ele>567.4</ele>
        <time>2022-06-08T12:03:35Z</time>
      </trkpt>
      <trkpt lat="46.43172" lon="5.70415">
        <ele>567.6</ele>
        <time>2022-06-08T12:03:47Z</time>
      </trkpt>
      <trkpt lat="46.43175" lon="5.70416">
        <ele>569.3</ele>
        <time>2022-06-08T12:04:13Z</time>
      </trkpt>
      <trkpt lat="46.43174" lon="5.70422">
        <ele>571.5</ele>
        <time>2022-06-08T12:04:32Z</time>
      </trkpt>
      <trkpt lat="46.43176" lon="5.70429">
        <ele>571.6</ele>
        <time>2022-06-08T12:04:37Z</time>
      </trkpt>
      <trkpt lat="46.4318" lon="5.70436">
        <ele>571.6</ele>
        <time>2022-06-08T12:04:41Z</time>
      </trkpt>
      <trkpt lat="46.43188" lon="5.70437">
        <ele>571.6</ele>
        <time>2022-06-08T12:04:44Z</time>
      </trkpt>
      <trkpt lat="46.43192" lon="5.70443">
        <ele>571.6</ele>
        <time>2022-06-08T12:04:47Z</time>
      </trkpt>
      <trkpt lat="46.43194" lon="5.7045">
        <ele>571.7</ele>
        <time>2022-06-08T12:04:50Z</time>
      </trkpt>
      <trkpt lat="46.43197" lon="5.70455">
        <ele>571.8</ele>
        <time>2022-06-08T12:04:54Z</time>
      </trkpt>
      <trkpt lat="46.43202" lon="5.70456">
        <ele>571.9</ele>
        <time>2022-06-08T12:04:59Z</time>
      </trkpt>
      <trkpt lat="46.4319" lon="5.70453">
        <ele>573.6</ele>
        <time>2022-06-08T12:05:18Z</time>
      </trkpt>
      <trkpt lat="46.43187" lon="5.7046">
        <ele>573.6</ele>
        <time>2022-06-08T12:05:21Z</time>
      </trkpt>
      <trkpt lat="46.43189" lon="5.70467">
        <ele>573.6</ele>
        <time>2022-06-08T12:05:25Z</time>
      </trkpt>
      <trkpt lat="46.43194" lon="5.70475">
        <ele>573.4</ele>
        <time>2022-06-08T12:05:31Z</time>
      </trkpt>
      <trkpt lat="46.43196" lon="5.70482">
        <ele>573.2</ele>
        <time>2022-06-08T12:05:35Z</time>
      </trkpt>
      <trkpt lat="46.43195" lon="5.70488">
        <ele>573</ele>
        <time>2022-06-08T12:05:41Z</time>
      </trkpt>
      <trkpt lat="46.43192" lon="5.70495">
        <ele>573</ele>
        <time>2022-06-08T12:05:44Z</time>
      </trkpt>
      <trkpt lat="46.43187" lon="5.70497">
        <ele>573.1</ele>
        <time>2022-06-08T12:05:48Z</time>
      </trkpt>
      <trkpt lat="46.43182" lon="5.70498">
        <ele>573.1</ele>
        <time>2022-06-08T12:05:53Z</time>
      </trkpt>
      <trkpt lat="46.43179" lon="5.70503">
        <ele>573.3</ele>
        <time>2022-06-08T12:05:57Z</time>
      </trkpt>
      <trkpt lat="46.43175" lon="5.70508">
        <ele>573.4</ele>
        <time>2022-06-08T12:06:00Z</time>
      </trkpt>
      <trkpt lat="46.43176" lon="5.70515">
        <ele>574.1</ele>
        <time>2022-06-08T12:06:12Z</time>
      </trkpt>
      <trkpt lat="46.43178" lon="5.70523">
        <ele>574.5</ele>
        <time>2022-06-08T12:06:17Z</time>
      </trkpt>
      <trkpt lat="46.43178" lon="5.70533">
        <ele>574.8</ele>
        <time>2022-06-08T12:06:21Z</time>
      </trkpt>
      <trkpt lat="46.43172" lon="5.70555">
        <ele>574.6</ele>
        <time>2022-06-08T12:06:36Z</time>
      </trkpt>
      <trkpt lat="46.43172" lon="5.70562">
        <ele>574.4</ele>
        <time>2022-06-08T12:06:40Z</time>
      </trkpt>
      <trkpt lat="46.4317" lon="5.70568">
        <ele>577.3</ele>
        <time>2022-06-08T12:06:46Z</time>
      </trkpt>
      <trkpt lat="46.4317" lon="5.70575">
        <ele>582.9</ele>
        <time>2022-06-08T12:06:53Z</time>
      </trkpt>
      <trkpt lat="46.43167" lon="5.7058">
        <ele>584.4</ele>
        <time>2022-06-08T12:06:57Z</time>
      </trkpt>
      <trkpt lat="46.43164" lon="5.70591">
        <ele>586.5</ele>
        <time>2022-06-08T12:07:00Z</time>
      </trkpt>
      <trkpt lat="46.43163" lon="5.70598">
        <ele>588.4</ele>
        <time>2022-06-08T12:07:05Z</time>
      </trkpt>
      <trkpt lat="46.43161" lon="5.70604">
        <ele>590.1</ele>
        <time>2022-06-08T12:07:14Z</time>
      </trkpt>
      <trkpt lat="46.43162" lon="5.70611">
        <ele>590.8</ele>
        <time>2022-06-08T12:07:21Z</time>
      </trkpt>
      <trkpt lat="46.43166" lon="5.70615">
        <ele>591.1</ele>
        <time>2022-06-08T12:07:24Z</time>
      </trkpt>
      <trkpt lat="46.4317" lon="5.70621">
        <ele>591.4</ele>
        <time>2022-06-08T12:07:27Z</time>
      </trkpt>
      <trkpt lat="46.43166" lon="5.70625">
        <ele>591.8</ele>
        <time>2022-06-08T12:07:37Z</time>
      </trkpt>
      <trkpt lat="46.43165" lon="5.70632">
        <ele>591.8</ele>
        <time>2022-06-08T12:07:43Z</time>
      </trkpt>
      <trkpt lat="46.4316" lon="5.70637">
        <ele>591.8</ele>
        <time>2022-06-08T12:07:47Z</time>
      </trkpt>
      <trkpt lat="46.43158" lon="5.70644">
        <ele>591.9</ele>
        <time>2022-06-08T12:07:50Z</time>
      </trkpt>
      <trkpt lat="46.43154" lon="5.70651">
        <ele>592</ele>
        <time>2022-06-08T12:07:53Z</time>
      </trkpt>
      <trkpt lat="46.43151" lon="5.70657">
        <ele>592</ele>
        <time>2022-06-08T12:07:57Z</time>
      </trkpt>
      <trkpt lat="46.43151" lon="5.70663">
        <ele>592</ele>
        <time>2022-06-08T12:08:01Z</time>
      </trkpt>
      <trkpt lat="46.43151" lon="5.7067">
        <ele>592</ele>
        <time>2022-06-08T12:08:06Z</time>
      </trkpt>
      <trkpt lat="46.43152" lon="5.70677">
        <ele>592</ele>
        <time>2022-06-08T12:08:10Z</time>
      </trkpt>
      <trkpt lat="46.43154" lon="5.70686">
        <ele>592.1</ele>
        <time>2022-06-08T12:08:15Z</time>
      </trkpt>
      <trkpt lat="46.43153" lon="5.70692">
        <ele>592.4</ele>
        <time>2022-06-08T12:08:20Z</time>
      </trkpt>
      <trkpt lat="46.4315" lon="5.70697">
        <ele>592.9</ele>
        <time>2022-06-08T12:08:26Z</time>
      </trkpt>
      <trkpt lat="46.43146" lon="5.70703">
        <ele>593.2</ele>
        <time>2022-06-08T12:08:31Z</time>
      </trkpt>
      <trkpt lat="46.43143" lon="5.70709">
        <ele>593</ele>
        <time>2022-06-08T12:08:37Z</time>
      </trkpt>
      <trkpt lat="46.43147" lon="5.70713">
        <ele>595.8</ele>
        <time>2022-06-08T12:08:45Z</time>
      </trkpt>
      <trkpt lat="46.43148" lon="5.70721">
        <ele>599</ele>
        <time>2022-06-08T12:08:53Z</time>
      </trkpt>
      <trkpt lat="46.4315" lon="5.70726">
        <ele>600.1</ele>
        <time>2022-06-08T12:08:58Z</time>
      </trkpt>
      <trkpt lat="46.43149" lon="5.70734">
        <ele>600.9</ele>
        <time>2022-06-08T12:09:03Z</time>
      </trkpt>
      <trkpt lat="46.43144" lon="5.70738">
        <ele>602</ele>
        <time>2022-06-08T12:09:10Z</time>
      </trkpt>
      <trkpt lat="46.43148" lon="5.70732">
        <ele>603.1</ele>
        <time>2022-06-08T12:09:18Z</time>
      </trkpt>
      <trkpt lat="46.43152" lon="5.70735">
        <ele>603.5</ele>
        <time>2022-06-08T12:09:22Z</time>
      </trkpt>
      <trkpt lat="46.43157" lon="5.70737">
        <ele>603.9</ele>
        <time>2022-06-08T12:09:25Z</time>
      </trkpt>
      <trkpt lat="46.43152" lon="5.70739">
        <ele>604.6</ele>
        <time>2022-06-08T12:09:34Z</time>
      </trkpt>
      <trkpt lat="46.43152" lon="5.70732">
        <ele>608.8</ele>
        <time>2022-06-08T12:09:55Z</time>
      </trkpt>
      <trkpt lat="46.43157" lon="5.70729">
        <ele>608.4</ele>
        <time>2022-06-08T12:09:59Z</time>
      </trkpt>
      <trkpt lat="46.43163" lon="5.7073">
        <ele>607</ele>
        <time>2022-06-08T12:10:02Z</time>
      </trkpt>
      <trkpt lat="46.43164" lon="5.70743">
        <ele>603</ele>
        <time>2022-06-08T12:10:18Z</time>
      </trkpt>
      <trkpt lat="46.43159" lon="5.70745">
        <ele>603.2</ele>
        <time>2022-06-08T12:10:29Z</time>
      </trkpt>
      <trkpt lat="46.43154" lon="5.70744">
        <ele>603.6</ele>
        <time>2022-06-08T12:10:39Z</time>
      </trkpt>
      <trkpt lat="46.43153" lon="5.70736">
        <ele>603.6</ele>
        <time>2022-06-08T12:10:47Z</time>
      </trkpt>
      <trkpt lat="46.43156" lon="5.70741">
        <ele>603.5</ele>
        <time>2022-06-08T12:11:25Z</time>
      </trkpt>
      <trkpt lat="46.43157" lon="5.70748">
        <ele>602.8</ele>
        <time>2022-06-08T12:11:40Z</time>
      </trkpt>
      <trkpt lat="46.43155" lon="5.70754">
        <ele>602.9</ele>
        <time>2022-06-08T12:11:54Z</time>
      </trkpt>
      <trkpt lat="46.43156" lon="5.70761">
        <ele>602.6</ele>
        <time>2022-06-08T12:11:57Z</time>
      </trkpt>
      <trkpt lat="46.43158" lon="5.70767">
        <ele>601.8</ele>
        <time>2022-06-08T12:12:01Z</time>
      </trkpt>
      <trkpt lat="46.43156" lon="5.70772">
        <ele>599.1</ele>
        <time>2022-06-08T12:12:09Z</time>
      </trkpt>
      <trkpt lat="46.43156" lon="5.70779">
        <ele>597.8</ele>
        <time>2022-06-08T12:12:15Z</time>
      </trkpt>
      <trkpt lat="46.43155" lon="5.70787">
        <ele>597.1</ele>
        <time>2022-06-08T12:12:21Z</time>
      </trkpt>
      <trkpt lat="46.43157" lon="5.70794">
        <ele>596.8</ele>
        <time>2022-06-08T12:12:24Z</time>
      </trkpt>
      <trkpt lat="46.43155" lon="5.70801">
        <ele>596.4</ele>
        <time>2022-06-08T12:12:29Z</time>
      </trkpt>
      <trkpt lat="46.43154" lon="5.70808">
        <ele>596.3</ele>
        <time>2022-06-08T12:12:34Z</time>
      </trkpt>
      <trkpt lat="46.43152" lon="5.70816">
        <ele>596.4</ele>
        <time>2022-06-08T12:12:39Z</time>
      </trkpt>
      <trkpt lat="46.43153" lon="5.70823">
        <ele>596.6</ele>
        <time>2022-06-08T12:12:43Z</time>
      </trkpt>
      <trkpt lat="46.43154" lon="5.7083">
        <ele>596.7</ele>
        <time>2022-06-08T12:12:50Z</time>
      </trkpt>
      <trkpt lat="46.43157" lon="5.70837">
        <ele>596.1</ele>
        <time>2022-06-08T12:12:55Z</time>
      </trkpt>
      <trkpt lat="46.43161" lon="5.70841">
        <ele>595.3</ele>
        <time>2022-06-08T12:12:59Z</time>
      </trkpt>
      <trkpt lat="46.43165" lon="5.70845">
        <ele>594</ele>
        <time>2022-06-08T12:13:06Z</time>
      </trkpt>
      <trkpt lat="46.4317" lon="5.70849">
        <ele>593.4</ele>
        <time>2022-06-08T12:13:10Z</time>
      </trkpt>
      <trkpt lat="46.43174" lon="5.70852">
        <ele>591.8</ele>
        <time>2022-06-08T12:13:16Z</time>
      </trkpt>
      <trkpt lat="46.43177" lon="5.70858">
        <ele>587.8</ele>
        <time>2022-06-08T12:13:43Z</time>
      </trkpt>
      <trkpt lat="46.43172" lon="5.70861">
        <ele>584.2</ele>
        <time>2022-06-08T12:13:53Z</time>
      </trkpt>
      <trkpt lat="46.43167" lon="5.70866">
        <ele>582.4</ele>
        <time>2022-06-08T12:14:13Z</time>
      </trkpt>
      <trkpt lat="46.43163" lon="5.70872">
        <ele>582.4</ele>
        <time>2022-06-08T12:14:16Z</time>
      </trkpt>
      <trkpt lat="46.43167" lon="5.70867">
        <ele>582.8</ele>
        <time>2022-06-08T12:14:23Z</time>
      </trkpt>
      <trkpt lat="46.43172" lon="5.70863">
        <ele>583.2</ele>
        <time>2022-06-08T12:14:28Z</time>
      </trkpt>
      <trkpt lat="46.43183" lon="5.70862">
        <ele>583.5</ele>
        <time>2022-06-08T12:14:57Z</time>
      </trkpt>
      <trkpt lat="46.43186" lon="5.70867">
        <ele>582.7</ele>
        <time>2022-06-08T12:15:04Z</time>
      </trkpt>
      <trkpt lat="46.43189" lon="5.70872">
        <ele>582.5</ele>
        <time>2022-06-08T12:15:11Z</time>
      </trkpt>
      <trkpt lat="46.43193" lon="5.70876">
        <ele>585.7</ele>
        <time>2022-06-08T12:15:18Z</time>
      </trkpt>
      <trkpt lat="46.43197" lon="5.70883">
        <ele>585.4</ele>
        <time>2022-06-08T12:15:21Z</time>
      </trkpt>
      <trkpt lat="46.432" lon="5.70891">
        <ele>586.3</ele>
        <time>2022-06-08T12:15:26Z</time>
      </trkpt>
      <trkpt lat="46.43204" lon="5.70897">
        <ele>587</ele>
        <time>2022-06-08T12:15:29Z</time>
      </trkpt>
      <trkpt lat="46.43209" lon="5.709">
        <ele>588.6</ele>
        <time>2022-06-08T12:15:33Z</time>
      </trkpt>
      <trkpt lat="46.43212" lon="5.70906">
        <ele>587.7</ele>
        <time>2022-06-08T12:15:36Z</time>
      </trkpt>
      <trkpt lat="46.43214" lon="5.70912">
        <ele>586.8</ele>
        <time>2022-06-08T12:15:39Z</time>
      </trkpt>
      <trkpt lat="46.43217" lon="5.70917">
        <ele>585.2</ele>
        <time>2022-06-08T12:15:47Z</time>
      </trkpt>
      <trkpt lat="46.43221" lon="5.70924">
        <ele>585.8</ele>
        <time>2022-06-08T12:15:51Z</time>
      </trkpt>
      <trkpt lat="46.43223" lon="5.70931">
        <ele>587.1</ele>
        <time>2022-06-08T12:15:54Z</time>
      </trkpt>
      <trkpt lat="46.43224" lon="5.70938">
        <ele>588.5</ele>
        <time>2022-06-08T12:15:59Z</time>
      </trkpt>
      <trkpt lat="46.43227" lon="5.70944">
        <ele>589.3</ele>
        <time>2022-06-08T12:16:04Z</time>
      </trkpt>
      <trkpt lat="46.43232" lon="5.7095">
        <ele>590.3</ele>
        <time>2022-06-08T12:16:07Z</time>
      </trkpt>
      <trkpt lat="46.43231" lon="5.70958">
        <ele>592</ele>
        <time>2022-06-08T12:16:13Z</time>
      </trkpt>
      <trkpt lat="46.43232" lon="5.70966">
        <ele>592.4</ele>
        <time>2022-06-08T12:16:17Z</time>
      </trkpt>
      <trkpt lat="46.43233" lon="5.70973">
        <ele>592</ele>
        <time>2022-06-08T12:16:21Z</time>
      </trkpt>
      <trkpt lat="46.43232" lon="5.70981">
        <ele>590.5</ele>
        <time>2022-06-08T12:16:25Z</time>
      </trkpt>
      <trkpt lat="46.43232" lon="5.70988">
        <ele>589.3</ele>
        <time>2022-06-08T12:16:30Z</time>
      </trkpt>
      <trkpt lat="46.43231" lon="5.70995">
        <ele>588</ele>
        <time>2022-06-08T12:16:41Z</time>
      </trkpt>
      <trkpt lat="46.4323" lon="5.71002">
        <ele>587.3</ele>
        <time>2022-06-08T12:16:45Z</time>
      </trkpt>
      <trkpt lat="46.4323" lon="5.71011">
        <ele>586.7</ele>
        <time>2022-06-08T12:16:52Z</time>
      </trkpt>
      <trkpt lat="46.43229" lon="5.71021">
        <ele>586.5</ele>
        <time>2022-06-08T12:16:55Z</time>
      </trkpt>
      <trkpt lat="46.43228" lon="5.71029">
        <ele>586.7</ele>
        <time>2022-06-08T12:16:58Z</time>
      </trkpt>
      <trkpt lat="46.43227" lon="5.71036">
        <ele>586.8</ele>
        <time>2022-06-08T12:17:01Z</time>
      </trkpt>
      <trkpt lat="46.43226" lon="5.71045">
        <ele>587.8</ele>
        <time>2022-06-08T12:17:04Z</time>
      </trkpt>
      <trkpt lat="46.43226" lon="5.71052">
        <ele>589.7</ele>
        <time>2022-06-08T12:17:08Z</time>
      </trkpt>
      <trkpt lat="46.43228" lon="5.71059">
        <ele>591.6</ele>
        <time>2022-06-08T12:17:14Z</time>
      </trkpt>
      <trkpt lat="46.43228" lon="5.71067">
        <ele>591.9</ele>
        <time>2022-06-08T12:17:19Z</time>
      </trkpt>
      <trkpt lat="46.43227" lon="5.71074">
        <ele>591.9</ele>
        <time>2022-06-08T12:17:23Z</time>
      </trkpt>
      <trkpt lat="46.43228" lon="5.71082">
        <ele>592</ele>
        <time>2022-06-08T12:17:27Z</time>
      </trkpt>
      <trkpt lat="46.43227" lon="5.7109">
        <ele>592.1</ele>
        <time>2022-06-08T12:17:31Z</time>
      </trkpt>
      <trkpt lat="46.43227" lon="5.71098">
        <ele>592.6</ele>
        <time>2022-06-08T12:17:37Z</time>
      </trkpt>
      <trkpt lat="46.43227" lon="5.71105">
        <ele>592.3</ele>
        <time>2022-06-08T12:17:42Z</time>
      </trkpt>
      <trkpt lat="46.43226" lon="5.71112">
        <ele>592</ele>
        <time>2022-06-08T12:17:46Z</time>
      </trkpt>
      <trkpt lat="46.43223" lon="5.71117">
        <ele>592.1</ele>
        <time>2022-06-08T12:17:50Z</time>
      </trkpt>
      <trkpt lat="46.43218" lon="5.71119">
        <ele>592.2</ele>
        <time>2022-06-08T12:17:55Z</time>
      </trkpt>
      <trkpt lat="46.43213" lon="5.71121">
        <ele>592.3</ele>
        <time>2022-06-08T12:17:59Z</time>
      </trkpt>
      <trkpt lat="46.43208" lon="5.71122">
        <ele>592.6</ele>
        <time>2022-06-08T12:18:02Z</time>
      </trkpt>
      <trkpt lat="46.43203" lon="5.71124">
        <ele>592.9</ele>
        <time>2022-06-08T12:18:11Z</time>
      </trkpt>
      <trkpt lat="46.43198" lon="5.71127">
        <ele>592.6</ele>
        <time>2022-06-08T12:18:15Z</time>
      </trkpt>
      <trkpt lat="46.43192" lon="5.71125">
        <ele>592.3</ele>
        <time>2022-06-08T12:18:19Z</time>
      </trkpt>
      <trkpt lat="46.43188" lon="5.71124">
        <ele>592</ele>
        <time>2022-06-08T12:18:23Z</time>
      </trkpt>
      <trkpt lat="46.43183" lon="5.71121">
        <ele>592.2</ele>
        <time>2022-06-08T12:18:27Z</time>
      </trkpt>
      <trkpt lat="46.43179" lon="5.71125">
        <ele>591.6</ele>
        <time>2022-06-08T12:18:32Z</time>
      </trkpt>
      <trkpt lat="46.43174" lon="5.71128">
        <ele>590.7</ele>
        <time>2022-06-08T12:18:36Z</time>
      </trkpt>
      <trkpt lat="46.4317" lon="5.7113">
        <ele>589.6</ele>
        <time>2022-06-08T12:18:39Z</time>
      </trkpt>
      <trkpt lat="46.43164" lon="5.7113">
        <ele>589.2</ele>
        <time>2022-06-08T12:18:42Z</time>
      </trkpt>
      <trkpt lat="46.4316" lon="5.71129">
        <ele>589.2</ele>
        <time>2022-06-08T12:18:45Z</time>
      </trkpt>
      <trkpt lat="46.43154" lon="5.71129">
        <ele>589.5</ele>
        <time>2022-06-08T12:18:49Z</time>
      </trkpt>
      <trkpt lat="46.4315" lon="5.71131">
        <ele>589.8</ele>
        <time>2022-06-08T12:18:52Z</time>
      </trkpt>
      <trkpt lat="46.43144" lon="5.71134">
        <ele>590.1</ele>
        <time>2022-06-08T12:18:56Z</time>
      </trkpt>
      <trkpt lat="46.43139" lon="5.71136">
        <ele>590.4</ele>
        <time>2022-06-08T12:19:00Z</time>
      </trkpt>
      <trkpt lat="46.43135" lon="5.71141">
        <ele>590.7</ele>
        <time>2022-06-08T12:19:05Z</time>
      </trkpt>
      <trkpt lat="46.43134" lon="5.71148">
        <ele>590.5</ele>
        <time>2022-06-08T12:19:09Z</time>
      </trkpt>
      <trkpt lat="46.43136" lon="5.71154">
        <ele>590.5</ele>
        <time>2022-06-08T12:19:16Z</time>
      </trkpt>
      <trkpt lat="46.43139" lon="5.71159">
        <ele>590.8</ele>
        <time>2022-06-08T12:19:25Z</time>
      </trkpt>
      <trkpt lat="46.43142" lon="5.71165">
        <ele>591.2</ele>
        <time>2022-06-08T12:19:28Z</time>
      </trkpt>
      <trkpt lat="46.43144" lon="5.71178">
        <ele>593</ele>
        <time>2022-06-08T12:19:31Z</time>
      </trkpt>
      <trkpt lat="46.43145" lon="5.71189">
        <ele>594.2</ele>
        <time>2022-06-08T12:19:34Z</time>
      </trkpt>
      <trkpt lat="46.43145" lon="5.71196">
        <ele>595.1</ele>
        <time>2022-06-08T12:19:37Z</time>
      </trkpt>
      <trkpt lat="46.43144" lon="5.71202">
        <ele>595.6</ele>
        <time>2022-06-08T12:19:42Z</time>
      </trkpt>
      <trkpt lat="46.43147" lon="5.71206">
        <ele>595.4</ele>
        <time>2022-06-08T12:19:47Z</time>
      </trkpt>
      <trkpt lat="46.43149" lon="5.71213">
        <ele>594.4</ele>
        <time>2022-06-08T12:19:52Z</time>
      </trkpt>
      <trkpt lat="46.4315" lon="5.7122">
        <ele>592.8</ele>
        <time>2022-06-08T12:19:56Z</time>
      </trkpt>
      <trkpt lat="46.43151" lon="5.71228">
        <ele>591.9</ele>
        <time>2022-06-08T12:20:00Z</time>
      </trkpt>
      <trkpt lat="46.43153" lon="5.71236">
        <ele>591.7</ele>
        <time>2022-06-08T12:20:04Z</time>
      </trkpt>
      <trkpt lat="46.43154" lon="5.71244">
        <ele>591.5</ele>
        <time>2022-06-08T12:20:08Z</time>
      </trkpt>
      <trkpt lat="46.43154" lon="5.71251">
        <ele>591.5</ele>
        <time>2022-06-08T12:20:12Z</time>
      </trkpt>
      <trkpt lat="46.43155" lon="5.71259">
        <ele>592.8</ele>
        <time>2022-06-08T12:20:17Z</time>
      </trkpt>
      <trkpt lat="46.43157" lon="5.71266">
        <ele>593.9</ele>
        <time>2022-06-08T12:20:21Z</time>
      </trkpt>
      <trkpt lat="46.43158" lon="5.71273">
        <ele>595.1</ele>
        <time>2022-06-08T12:20:25Z</time>
      </trkpt>
      <trkpt lat="46.43158" lon="5.7128">
        <ele>596.7</ele>
        <time>2022-06-08T12:20:30Z</time>
      </trkpt>
      <trkpt lat="46.43157" lon="5.71287">
        <ele>597.6</ele>
        <time>2022-06-08T12:20:34Z</time>
      </trkpt>
      <trkpt lat="46.43154" lon="5.71294">
        <ele>598.4</ele>
        <time>2022-06-08T12:20:38Z</time>
      </trkpt>
      <trkpt lat="46.43153" lon="5.71301">
        <ele>598.8</ele>
        <time>2022-06-08T12:20:42Z</time>
      </trkpt>
      <trkpt lat="46.4315" lon="5.71307">
        <ele>598.4</ele>
        <time>2022-06-08T12:20:47Z</time>
      </trkpt>
      <trkpt lat="46.43149" lon="5.71315">
        <ele>597.5</ele>
        <time>2022-06-08T12:20:52Z</time>
      </trkpt>
      <trkpt lat="46.43154" lon="5.7132">
        <ele>596.6</ele>
        <time>2022-06-08T12:20:57Z</time>
      </trkpt>
      <trkpt lat="46.43157" lon="5.71326">
        <ele>596.1</ele>
        <time>2022-06-08T12:21:01Z</time>
      </trkpt>
      <trkpt lat="46.43161" lon="5.71331">
        <ele>595.1</ele>
        <time>2022-06-08T12:21:05Z</time>
      </trkpt>
      <trkpt lat="46.43165" lon="5.71335">
        <ele>594</ele>
        <time>2022-06-08T12:21:10Z</time>
      </trkpt>
      <trkpt lat="46.4317" lon="5.71339">
        <ele>594</ele>
        <time>2022-06-08T12:21:14Z</time>
      </trkpt>
      <trkpt lat="46.43173" lon="5.71345">
        <ele>594</ele>
        <time>2022-06-08T12:21:18Z</time>
      </trkpt>
      <trkpt lat="46.43175" lon="5.71352">
        <ele>593.6</ele>
        <time>2022-06-08T12:21:22Z</time>
      </trkpt>
      <trkpt lat="46.43176" lon="5.71359">
        <ele>593.1</ele>
        <time>2022-06-08T12:21:26Z</time>
      </trkpt>
      <trkpt lat="46.43177" lon="5.71367">
        <ele>592.7</ele>
        <time>2022-06-08T12:21:30Z</time>
      </trkpt>
      <trkpt lat="46.43177" lon="5.71374">
        <ele>591.8</ele>
        <time>2022-06-08T12:21:37Z</time>
      </trkpt>
      <trkpt lat="46.43182" lon="5.71377">
        <ele>591.6</ele>
        <time>2022-06-08T12:21:41Z</time>
      </trkpt>
      <trkpt lat="46.43187" lon="5.7138">
        <ele>591.4</ele>
        <time>2022-06-08T12:21:46Z</time>
      </trkpt>
      <trkpt lat="46.43191" lon="5.71382">
        <ele>591.7</ele>
        <time>2022-06-08T12:21:50Z</time>
      </trkpt>
      <trkpt lat="46.43194" lon="5.71387">
        <ele>592.7</ele>
        <time>2022-06-08T12:21:59Z</time>
      </trkpt>
      <trkpt lat="46.43194" lon="5.71394">
        <ele>593.3</ele>
        <time>2022-06-08T12:22:02Z</time>
      </trkpt>
      <trkpt lat="46.43193" lon="5.71402">
        <ele>593.6</ele>
        <time>2022-06-08T12:22:05Z</time>
      </trkpt>
      <trkpt lat="46.43193" lon="5.71409">
        <ele>594.1</ele>
        <time>2022-06-08T12:22:09Z</time>
      </trkpt>
      <trkpt lat="46.43188" lon="5.71411">
        <ele>598.1</ele>
        <time>2022-06-08T12:22:36Z</time>
      </trkpt>
      <trkpt lat="46.43185" lon="5.71416">
        <ele>600.5</ele>
        <time>2022-06-08T12:22:47Z</time>
      </trkpt>
      <trkpt lat="46.43179" lon="5.71418">
        <ele>601.9</ele>
        <time>2022-06-08T12:22:53Z</time>
      </trkpt>
      <trkpt lat="46.43174" lon="5.71418">
        <ele>602.6</ele>
        <time>2022-06-08T12:22:57Z</time>
      </trkpt>
      <trkpt lat="46.43169" lon="5.71419">
        <ele>603.5</ele>
        <time>2022-06-08T12:23:01Z</time>
      </trkpt>
      <trkpt lat="46.43165" lon="5.71421">
        <ele>604.6</ele>
        <time>2022-06-08T12:23:08Z</time>
      </trkpt>
      <trkpt lat="46.43162" lon="5.71426">
        <ele>604.9</ele>
        <time>2022-06-08T12:23:17Z</time>
      </trkpt>
      <trkpt lat="46.43162" lon="5.71434">
        <ele>604.9</ele>
        <time>2022-06-08T12:23:23Z</time>
      </trkpt>
      <trkpt lat="46.43164" lon="5.71441">
        <ele>605.1</ele>
        <time>2022-06-08T12:23:28Z</time>
      </trkpt>
      <trkpt lat="46.43165" lon="5.71447">
        <ele>605</ele>
        <time>2022-06-08T12:23:32Z</time>
      </trkpt>
      <trkpt lat="46.43165" lon="5.71455">
        <ele>605.4</ele>
        <time>2022-06-08T12:23:38Z</time>
      </trkpt>
      <trkpt lat="46.43164" lon="5.71462">
        <ele>605.1</ele>
        <time>2022-06-08T12:23:44Z</time>
      </trkpt>
      <trkpt lat="46.43162" lon="5.71469">
        <ele>604.7</ele>
        <time>2022-06-08T12:23:49Z</time>
      </trkpt>
      <trkpt lat="46.4316" lon="5.71475">
        <ele>605.9</ele>
        <time>2022-06-08T12:24:11Z</time>
      </trkpt>
      <trkpt lat="46.43161" lon="5.71483">
        <ele>606.1</ele>
        <time>2022-06-08T12:24:18Z</time>
      </trkpt>
      <trkpt lat="46.43158" lon="5.71489">
        <ele>606.1</ele>
        <time>2022-06-08T12:24:51Z</time>
      </trkpt>
      <trkpt lat="46.43156" lon="5.71495">
        <ele>606.3</ele>
        <time>2022-06-08T12:24:58Z</time>
      </trkpt>
      <trkpt lat="46.43157" lon="5.71501">
        <ele>606.2</ele>
        <time>2022-06-08T12:25:02Z</time>
      </trkpt>
      <trkpt lat="46.43154" lon="5.71509">
        <ele>605.9</ele>
        <time>2022-06-08T12:25:07Z</time>
      </trkpt>
      <trkpt lat="46.43152" lon="5.71515">
        <ele>605</ele>
        <time>2022-06-08T12:25:12Z</time>
      </trkpt>
      <trkpt lat="46.43152" lon="5.71522">
        <ele>603.9</ele>
        <time>2022-06-08T12:25:20Z</time>
      </trkpt>
      <trkpt lat="46.43152" lon="5.7153">
        <ele>602.7</ele>
        <time>2022-06-08T12:25:25Z</time>
      </trkpt>
      <trkpt lat="46.43151" lon="5.71537">
        <ele>601.8</ele>
        <time>2022-06-08T12:25:29Z</time>
      </trkpt>
      <trkpt lat="46.4315" lon="5.71543">
        <ele>601.5</ele>
        <time>2022-06-08T12:25:33Z</time>
      </trkpt>
      <trkpt lat="46.4315" lon="5.71551">
        <ele>601.4</ele>
        <time>2022-06-08T12:25:39Z</time>
      </trkpt>
      <trkpt lat="46.43151" lon="5.71559">
        <ele>601.7</ele>
        <time>2022-06-08T12:25:44Z</time>
      </trkpt>
      <trkpt lat="46.43152" lon="5.71566">
        <ele>601.5</ele>
        <time>2022-06-08T12:25:48Z</time>
      </trkpt>
      <trkpt lat="46.43152" lon="5.71574">
        <ele>600.6</ele>
        <time>2022-06-08T12:25:53Z</time>
      </trkpt>
      <trkpt lat="46.43153" lon="5.71581">
        <ele>598.9</ele>
        <time>2022-06-08T12:26:01Z</time>
      </trkpt>
      <trkpt lat="46.43151" lon="5.71587">
        <ele>597.1</ele>
        <time>2022-06-08T12:26:12Z</time>
      </trkpt>
      <trkpt lat="46.4315" lon="5.71594">
        <ele>596.5</ele>
        <time>2022-06-08T12:26:16Z</time>
      </trkpt>
      <trkpt lat="46.43148" lon="5.716">
        <ele>595.9</ele>
        <time>2022-06-08T12:26:19Z</time>
      </trkpt>
      <trkpt lat="46.43147" lon="5.71607">
        <ele>595.3</ele>
        <time>2022-06-08T12:26:22Z</time>
      </trkpt>
      <trkpt lat="46.43147" lon="5.71614">
        <ele>594.5</ele>
        <time>2022-06-08T12:26:26Z</time>
      </trkpt>
      <trkpt lat="46.43151" lon="5.7162">
        <ele>593.1</ele>
        <time>2022-06-08T12:26:32Z</time>
      </trkpt>
      <trkpt lat="46.43154" lon="5.71625">
        <ele>592.5</ele>
        <time>2022-06-08T12:26:35Z</time>
      </trkpt>
      <trkpt lat="46.43158" lon="5.71629">
        <ele>591.7</ele>
        <time>2022-06-08T12:26:39Z</time>
      </trkpt>
      <trkpt lat="46.43163" lon="5.71631">
        <ele>591</ele>
        <time>2022-06-08T12:26:43Z</time>
      </trkpt>
      <trkpt lat="46.43167" lon="5.71633">
        <ele>590.4</ele>
        <time>2022-06-08T12:26:47Z</time>
      </trkpt>
      <trkpt lat="46.43172" lon="5.71635">
        <ele>589.8</ele>
        <time>2022-06-08T12:26:51Z</time>
      </trkpt>
      <trkpt lat="46.43177" lon="5.7164">
        <ele>587.6</ele>
        <time>2022-06-08T12:26:58Z</time>
      </trkpt>
      <trkpt lat="46.43181" lon="5.71646">
        <ele>586.8</ele>
        <time>2022-06-08T12:27:01Z</time>
      </trkpt>
      <trkpt lat="46.43183" lon="5.71652">
        <ele>585.7</ele>
        <time>2022-06-08T12:27:06Z</time>
      </trkpt>
      <trkpt lat="46.43186" lon="5.71658">
        <ele>585.2</ele>
        <time>2022-06-08T12:27:10Z</time>
      </trkpt>
      <trkpt lat="46.43189" lon="5.71663">
        <ele>584.8</ele>
        <time>2022-06-08T12:27:15Z</time>
      </trkpt>
      <trkpt lat="46.43193" lon="5.71668">
        <ele>584.5</ele>
        <time>2022-06-08T12:27:20Z</time>
      </trkpt>
      <trkpt lat="46.43197" lon="5.71673">
        <ele>584.3</ele>
        <time>2022-06-08T12:27:24Z</time>
      </trkpt>
      <trkpt lat="46.432" lon="5.71679">
        <ele>584.4</ele>
        <time>2022-06-08T12:27:28Z</time>
      </trkpt>
      <trkpt lat="46.43204" lon="5.71682">
        <ele>584.5</ele>
        <time>2022-06-08T12:27:32Z</time>
      </trkpt>
      <trkpt lat="46.43209" lon="5.71684">
        <ele>584.6</ele>
        <time>2022-06-08T12:27:35Z</time>
      </trkpt>
      <trkpt lat="46.43214" lon="5.71688">
        <ele>584.8</ele>
        <time>2022-06-08T12:27:38Z</time>
      </trkpt>
      <trkpt lat="46.43217" lon="5.71693">
        <ele>584.9</ele>
        <time>2022-06-08T12:27:41Z</time>
      </trkpt>
      <trkpt lat="46.43221" lon="5.71697">
        <ele>585.1</ele>
        <time>2022-06-08T12:27:44Z</time>
      </trkpt>
      <trkpt lat="46.43225" lon="5.717">
        <ele>585.9</ele>
        <time>2022-06-08T12:27:50Z</time>
      </trkpt>
      <trkpt lat="46.43229" lon="5.71703">
        <ele>586.5</ele>
        <time>2022-06-08T12:27:55Z</time>
      </trkpt>
      <trkpt lat="46.43232" lon="5.7171">
        <ele>587.1</ele>
        <time>2022-06-08T12:27:59Z</time>
      </trkpt>
      <trkpt lat="46.43234" lon="5.71716">
        <ele>587.6</ele>
        <time>2022-06-08T12:28:02Z</time>
      </trkpt>
      <trkpt lat="46.43236" lon="5.71723">
        <ele>588</ele>
        <time>2022-06-08T12:28:05Z</time>
      </trkpt>
      <trkpt lat="46.43237" lon="5.7173">
        <ele>588.4</ele>
        <time>2022-06-08T12:28:08Z</time>
      </trkpt>
      <trkpt lat="46.43238" lon="5.71738">
        <ele>588.9</ele>
        <time>2022-06-08T12:28:11Z</time>
      </trkpt>
      <trkpt lat="46.4324" lon="5.71744">
        <ele>589.4</ele>
        <time>2022-06-08T12:28:14Z</time>
      </trkpt>
      <trkpt lat="46.43243" lon="5.71752">
        <ele>590.2</ele>
        <time>2022-06-08T12:28:18Z</time>
      </trkpt>
      <trkpt lat="46.43245" lon="5.71759">
        <ele>590.9</ele>
        <time>2022-06-08T12:28:21Z</time>
      </trkpt>
      <trkpt lat="46.43245" lon="5.71767">
        <ele>591.6</ele>
        <time>2022-06-08T12:28:24Z</time>
      </trkpt>
      <trkpt lat="46.43244" lon="5.71774">
        <ele>592.5</ele>
        <time>2022-06-08T12:28:30Z</time>
      </trkpt>
      <trkpt lat="46.43245" lon="5.71781">
        <ele>592.6</ele>
        <time>2022-06-08T12:28:35Z</time>
      </trkpt>
      <trkpt lat="46.43246" lon="5.71787">
        <ele>592.5</ele>
        <time>2022-06-08T12:28:38Z</time>
      </trkpt>
      <trkpt lat="46.43246" lon="5.71795">
        <ele>592.4</ele>
        <time>2022-06-08T12:28:41Z</time>
      </trkpt>
      <trkpt lat="46.43247" lon="5.71803">
        <ele>592.4</ele>
        <time>2022-06-08T12:28:45Z</time>
      </trkpt>
      <trkpt lat="46.43247" lon="5.7181">
        <ele>592.6</ele>
        <time>2022-06-08T12:28:52Z</time>
      </trkpt>
      <trkpt lat="46.43249" lon="5.71817">
        <ele>592.6</ele>
        <time>2022-06-08T12:28:57Z</time>
      </trkpt>
      <trkpt lat="46.43251" lon="5.71824">
        <ele>592.5</ele>
        <time>2022-06-08T12:29:01Z</time>
      </trkpt>
      <trkpt lat="46.43252" lon="5.71832">
        <ele>592.9</ele>
        <time>2022-06-08T12:29:05Z</time>
      </trkpt>
      <trkpt lat="46.43253" lon="5.71838">
        <ele>593.4</ele>
        <time>2022-06-08T12:29:09Z</time>
      </trkpt>
      <trkpt lat="46.43255" lon="5.71846">
        <ele>594.1</ele>
        <time>2022-06-08T12:29:13Z</time>
      </trkpt>
      <trkpt lat="46.43257" lon="5.71853">
        <ele>594.5</ele>
        <time>2022-06-08T12:29:17Z</time>
      </trkpt>
      <trkpt lat="46.43257" lon="5.71861">
        <ele>594.4</ele>
        <time>2022-06-08T12:29:21Z</time>
      </trkpt>
      <trkpt lat="46.43258" lon="5.71868">
        <ele>594.3</ele>
        <time>2022-06-08T12:29:26Z</time>
      </trkpt>
      <trkpt lat="46.43257" lon="5.71875">
        <ele>596.5</ele>
        <time>2022-06-08T12:29:31Z</time>
      </trkpt>
      <trkpt lat="46.43253" lon="5.7188">
        <ele>597.3</ele>
        <time>2022-06-08T12:29:34Z</time>
      </trkpt>
      <trkpt lat="46.43254" lon="5.71887">
        <ele>598.6</ele>
        <time>2022-06-08T12:29:39Z</time>
      </trkpt>
      <trkpt lat="46.43256" lon="5.71894">
        <ele>599.3</ele>
        <time>2022-06-08T12:29:44Z</time>
      </trkpt>
      <trkpt lat="46.43258" lon="5.719">
        <ele>599.9</ele>
        <time>2022-06-08T12:29:47Z</time>
      </trkpt>
      <trkpt lat="46.43261" lon="5.71907">
        <ele>600.8</ele>
        <time>2022-06-08T12:29:51Z</time>
      </trkpt>
      <trkpt lat="46.4326" lon="5.71914">
        <ele>600.9</ele>
        <time>2022-06-08T12:29:55Z</time>
      </trkpt>
      <trkpt lat="46.4326" lon="5.71921">
        <ele>600.4</ele>
        <time>2022-06-08T12:30:00Z</time>
      </trkpt>
      <trkpt lat="46.43264" lon="5.71928">
        <ele>599.2</ele>
        <time>2022-06-08T12:30:03Z</time>
      </trkpt>
      <trkpt lat="46.43268" lon="5.71935">
        <ele>598</ele>
        <time>2022-06-08T12:30:06Z</time>
      </trkpt>
      <trkpt lat="46.43267" lon="5.71942">
        <ele>595.9</ele>
        <time>2022-06-08T12:30:11Z</time>
      </trkpt>
      <trkpt lat="46.43268" lon="5.71948">
        <ele>594.3</ele>
        <time>2022-06-08T12:30:15Z</time>
      </trkpt>
      <trkpt lat="46.43269" lon="5.71956">
        <ele>592.9</ele>
        <time>2022-06-08T12:30:21Z</time>
      </trkpt>
      <trkpt lat="46.43273" lon="5.71962">
        <ele>592.7</ele>
        <time>2022-06-08T12:30:24Z</time>
      </trkpt>
      <trkpt lat="46.43278" lon="5.71969">
        <ele>592.4</ele>
        <time>2022-06-08T12:30:27Z</time>
      </trkpt>
      <trkpt lat="46.43281" lon="5.71974">
        <ele>592.5</ele>
        <time>2022-06-08T12:30:32Z</time>
      </trkpt>
      <trkpt lat="46.43285" lon="5.7198">
        <ele>594.4</ele>
        <time>2022-06-08T12:30:38Z</time>
      </trkpt>
      <trkpt lat="46.43288" lon="5.71987">
        <ele>595.7</ele>
        <time>2022-06-08T12:30:42Z</time>
      </trkpt>
      <trkpt lat="46.43291" lon="5.71993">
        <ele>596.2</ele>
        <time>2022-06-08T12:30:45Z</time>
      </trkpt>
      <trkpt lat="46.43294" lon="5.71998">
        <ele>596.6</ele>
        <time>2022-06-08T12:30:49Z</time>
      </trkpt>
      <trkpt lat="46.43298" lon="5.72002">
        <ele>597.1</ele>
        <time>2022-06-08T12:30:54Z</time>
      </trkpt>
      <trkpt lat="46.43301" lon="5.72009">
        <ele>596.7</ele>
        <time>2022-06-08T12:31:00Z</time>
      </trkpt>
      <trkpt lat="46.43306" lon="5.72011">
        <ele>595.5</ele>
        <time>2022-06-08T12:31:04Z</time>
      </trkpt>
      <trkpt lat="46.43311" lon="5.72009">
        <ele>594.9</ele>
        <time>2022-06-08T12:31:08Z</time>
      </trkpt>
      <trkpt lat="46.43314" lon="5.72004">
        <ele>595.4</ele>
        <time>2022-06-08T12:31:13Z</time>
      </trkpt>
      <trkpt lat="46.43317" lon="5.71998">
        <ele>596.1</ele>
        <time>2022-06-08T12:31:20Z</time>
      </trkpt>
      <trkpt lat="46.43319" lon="5.71991">
        <ele>596.1</ele>
        <time>2022-06-08T12:31:26Z</time>
      </trkpt>
      <trkpt lat="46.43322" lon="5.71986">
        <ele>595.7</ele>
        <time>2022-06-08T12:31:31Z</time>
      </trkpt>
      <trkpt lat="46.43324" lon="5.71979">
        <ele>595.9</ele>
        <time>2022-06-08T12:31:39Z</time>
      </trkpt>
      <trkpt lat="46.43322" lon="5.71985">
        <ele>599.2</ele>
        <time>2022-06-08T12:31:53Z</time>
      </trkpt>
      <trkpt lat="46.43326" lon="5.71981">
        <ele>600.3</ele>
        <time>2022-06-08T12:32:09Z</time>
      </trkpt>
      <trkpt lat="46.43321" lon="5.71976">
        <ele>598.2</ele>
        <time>2022-06-08T12:32:28Z</time>
      </trkpt>
      <trkpt lat="46.43326" lon="5.71977">
        <ele>596.2</ele>
        <time>2022-06-08T12:32:35Z</time>
      </trkpt>
    </trkseg>
  </trk>
</gpx>